<?xml version="1.0" encoding="UTF-8" standalone="no" ?>
<gpx xmlns="http://www.topografix.com/GPX/1/1" xmlns:xsi="http://www.w3.org/2001/XMLSchema-instance" xsi:schemaLocation="http://www.topografix.com/GPX/1/1 http://www.topografix.com/GPX/1/1/gpx.xsd" version="1.1" creator="VisuGPX - https://www.visugpx.com">
  <metadata>
    <name>Vercors19-2vtt.</name>
    <desc><![CDATA[Le tour de la foret de la Loubière à partir de Villard de Lans.]]></desc>
  </metadata>
  <trk>
    <name><![CDATA[Vercors19-2vtt.]]></name>
    <trkseg>
      <trkpt lat="45.05831" lon="5.54783">
        <ele>909.67</ele>
        <time>2019-08-26T07:01:41Z</time>
      </trkpt>
      <trkpt lat="45.05831" lon="5.54783">
        <ele>909.67</ele>
        <time>2019-08-26T07:01:43Z</time>
      </trkpt>
      <trkpt lat="45.05823" lon="5.54738">
        <ele>909.89</ele>
        <time>2019-08-26T07:02:10Z</time>
      </trkpt>
      <trkpt lat="45.05826" lon="5.54736">
        <ele>910.19</ele>
        <time>2019-08-26T07:02:36Z</time>
      </trkpt>
      <trkpt lat="45.05841" lon="5.54723">
        <ele>910.69</ele>
        <time>2019-08-26T07:02:54Z</time>
      </trkpt>
      <trkpt lat="45.05848" lon="5.5472">
        <ele>911.17</ele>
        <time>2019-08-26T07:03:09Z</time>
      </trkpt>
      <trkpt lat="45.05851" lon="5.54728">
        <ele>911.66</ele>
        <time>2019-08-26T07:03:18Z</time>
      </trkpt>
      <trkpt lat="45.05852" lon="5.54737">
        <ele>911.79</ele>
        <time>2019-08-26T07:03:22Z</time>
      </trkpt>
      <trkpt lat="45.05855" lon="5.5478">
        <ele>912.62</ele>
        <time>2019-08-26T07:03:34Z</time>
      </trkpt>
      <trkpt lat="45.05857" lon="5.54786">
        <ele>912.86</ele>
        <time>2019-08-26T07:03:36Z</time>
      </trkpt>
      <trkpt lat="45.05862" lon="5.54788">
        <ele>913.07</ele>
        <time>2019-08-26T07:03:38Z</time>
      </trkpt>
      <trkpt lat="45.05892" lon="5.54777">
        <ele>913.43</ele>
        <time>2019-08-26T07:03:46Z</time>
      </trkpt>
      <trkpt lat="45.05897" lon="5.54775">
        <ele>913.39</ele>
        <time>2019-08-26T07:03:47Z</time>
      </trkpt>
      <trkpt lat="45.05902" lon="5.54773">
        <ele>913.3</ele>
        <time>2019-08-26T07:03:48Z</time>
      </trkpt>
      <trkpt lat="45.05907" lon="5.54771">
        <ele>913.18</ele>
        <time>2019-08-26T07:03:49Z</time>
      </trkpt>
      <trkpt lat="45.05912" lon="5.54769">
        <ele>913.04</ele>
        <time>2019-08-26T07:03:50Z</time>
      </trkpt>
      <trkpt lat="45.05933" lon="5.5476">
        <ele>912.37</ele>
        <time>2019-08-26T07:03:54Z</time>
      </trkpt>
      <trkpt lat="45.05939" lon="5.54758">
        <ele>912.17</ele>
        <time>2019-08-26T07:03:55Z</time>
      </trkpt>
      <trkpt lat="45.06001" lon="5.5474">
        <ele>910.29</ele>
        <time>2019-08-26T07:04:04Z</time>
      </trkpt>
      <trkpt lat="45.0602" lon="5.5474">
        <ele>909.86</ele>
        <time>2019-08-26T07:04:07Z</time>
      </trkpt>
      <trkpt lat="45.06111" lon="5.54749">
        <ele>908.77</ele>
        <time>2019-08-26T07:04:23Z</time>
      </trkpt>
      <trkpt lat="45.06149" lon="5.54747">
        <ele>908.1</ele>
        <time>2019-08-26T07:04:30Z</time>
      </trkpt>
      <trkpt lat="45.06154" lon="5.54748">
        <ele>907.97</ele>
        <time>2019-08-26T07:04:31Z</time>
      </trkpt>
      <trkpt lat="45.06159" lon="5.54751">
        <ele>907.89</ele>
        <time>2019-08-26T07:04:32Z</time>
      </trkpt>
      <trkpt lat="45.06163" lon="5.54756">
        <ele>907.81</ele>
        <time>2019-08-26T07:04:33Z</time>
      </trkpt>
      <trkpt lat="45.06165" lon="5.54763">
        <ele>907.76</ele>
        <time>2019-08-26T07:04:34Z</time>
      </trkpt>
      <trkpt lat="45.06164" lon="5.54768">
        <ele>907.71</ele>
        <time>2019-08-26T07:04:35Z</time>
      </trkpt>
      <trkpt lat="45.06163" lon="5.54773">
        <ele>907.68</ele>
        <time>2019-08-26T07:04:36Z</time>
      </trkpt>
      <trkpt lat="45.0616" lon="5.54777">
        <ele>907.68</ele>
        <time>2019-08-26T07:04:37Z</time>
      </trkpt>
      <trkpt lat="45.06158" lon="5.5478">
        <ele>907.72</ele>
        <time>2019-08-26T07:04:38Z</time>
      </trkpt>
      <trkpt lat="45.06139" lon="5.54818">
        <ele>910.25</ele>
        <time>2019-08-26T07:04:51Z</time>
      </trkpt>
      <trkpt lat="45.0614" lon="5.5482">
        <ele>910.49</ele>
        <time>2019-08-26T07:04:52Z</time>
      </trkpt>
      <trkpt lat="45.0614" lon="5.54822">
        <ele>910.73</ele>
        <time>2019-08-26T07:04:53Z</time>
      </trkpt>
      <trkpt lat="45.06142" lon="5.54823">
        <ele>910.98</ele>
        <time>2019-08-26T07:04:54Z</time>
      </trkpt>
      <trkpt lat="45.06143" lon="5.54823">
        <ele>911.24</ele>
        <time>2019-08-26T07:04:55Z</time>
      </trkpt>
      <trkpt lat="45.06145" lon="5.54822">
        <ele>911.48</ele>
        <time>2019-08-26T07:04:56Z</time>
      </trkpt>
      <trkpt lat="45.06146" lon="5.54821">
        <ele>911.92</ele>
        <time>2019-08-26T07:04:57Z</time>
      </trkpt>
      <trkpt lat="45.06153" lon="5.54815">
        <ele>913.4</ele>
        <time>2019-08-26T07:05:03Z</time>
      </trkpt>
      <trkpt lat="45.06154" lon="5.54816">
        <ele>913.66</ele>
        <time>2019-08-26T07:05:04Z</time>
      </trkpt>
      <trkpt lat="45.06155" lon="5.54818">
        <ele>913.93</ele>
        <time>2019-08-26T07:05:05Z</time>
      </trkpt>
      <trkpt lat="45.06155" lon="5.5482">
        <ele>914.21</ele>
        <time>2019-08-26T07:05:06Z</time>
      </trkpt>
      <trkpt lat="45.06154" lon="5.54821">
        <ele>914.46</ele>
        <time>2019-08-26T07:05:07Z</time>
      </trkpt>
      <trkpt lat="45.06153" lon="5.54823">
        <ele>914.67</ele>
        <time>2019-08-26T07:05:08Z</time>
      </trkpt>
      <trkpt lat="45.06152" lon="5.54824">
        <ele>914.87</ele>
        <time>2019-08-26T07:05:09Z</time>
      </trkpt>
      <trkpt lat="45.06151" lon="5.54826">
        <ele>915.07</ele>
        <time>2019-08-26T07:05:10Z</time>
      </trkpt>
      <trkpt lat="45.06142" lon="5.54848">
        <ele>917.69</ele>
        <time>2019-08-26T07:05:26Z</time>
      </trkpt>
      <trkpt lat="45.06144" lon="5.54848">
        <ele>919.44</ele>
        <time>2019-08-26T07:05:51Z</time>
      </trkpt>
      <trkpt lat="45.06141" lon="5.54848">
        <ele>920.51</ele>
        <time>2019-08-26T07:06:23Z</time>
      </trkpt>
      <trkpt lat="45.06138" lon="5.54846">
        <ele>921.6</ele>
        <time>2019-08-26T07:06:55Z</time>
      </trkpt>
      <trkpt lat="45.06138" lon="5.54846">
        <ele>923.32</ele>
        <time>2019-08-26T07:07:33Z</time>
      </trkpt>
      <trkpt lat="45.0614" lon="5.54846">
        <ele>924.96</ele>
        <time>2019-08-26T07:08:17Z</time>
      </trkpt>
      <trkpt lat="45.0614" lon="5.54846">
        <ele>926.76</ele>
        <time>2019-08-26T07:09:05Z</time>
      </trkpt>
      <trkpt lat="45.06141" lon="5.54846">
        <ele>928.04</ele>
        <time>2019-08-26T07:09:27Z</time>
      </trkpt>
      <trkpt lat="45.06134" lon="5.54865">
        <ele>929.26</ele>
        <time>2019-08-26T07:09:42Z</time>
      </trkpt>
      <trkpt lat="45.0613" lon="5.54881">
        <ele>930.43</ele>
        <time>2019-08-26T07:09:50Z</time>
      </trkpt>
      <trkpt lat="45.06129" lon="5.54883">
        <ele>930.61</ele>
        <time>2019-08-26T07:09:51Z</time>
      </trkpt>
      <trkpt lat="45.06129" lon="5.54885">
        <ele>930.8</ele>
        <time>2019-08-26T07:09:52Z</time>
      </trkpt>
      <trkpt lat="45.06128" lon="5.54887">
        <ele>930.98</ele>
        <time>2019-08-26T07:09:53Z</time>
      </trkpt>
      <trkpt lat="45.06128" lon="5.54889">
        <ele>931.19</ele>
        <time>2019-08-26T07:09:54Z</time>
      </trkpt>
      <trkpt lat="45.06127" lon="5.54891">
        <ele>931.38</ele>
        <time>2019-08-26T07:09:55Z</time>
      </trkpt>
      <trkpt lat="45.06126" lon="5.54893">
        <ele>931.57</ele>
        <time>2019-08-26T07:09:56Z</time>
      </trkpt>
      <trkpt lat="45.06125" lon="5.54895">
        <ele>931.74</ele>
        <time>2019-08-26T07:09:57Z</time>
      </trkpt>
      <trkpt lat="45.06125" lon="5.54897">
        <ele>931.91</ele>
        <time>2019-08-26T07:09:58Z</time>
      </trkpt>
      <trkpt lat="45.0612" lon="5.54917">
        <ele>933.85</ele>
        <time>2019-08-26T07:10:08Z</time>
      </trkpt>
      <trkpt lat="45.0612" lon="5.54919">
        <ele>934.03</ele>
        <time>2019-08-26T07:10:09Z</time>
      </trkpt>
      <trkpt lat="45.06119" lon="5.54921">
        <ele>934.19</ele>
        <time>2019-08-26T07:10:10Z</time>
      </trkpt>
      <trkpt lat="45.06115" lon="5.54947">
        <ele>935.58</ele>
        <time>2019-08-26T07:10:21Z</time>
      </trkpt>
      <trkpt lat="45.06114" lon="5.54949">
        <ele>935.73</ele>
        <time>2019-08-26T07:10:22Z</time>
      </trkpt>
      <trkpt lat="45.06114" lon="5.54951">
        <ele>935.89</ele>
        <time>2019-08-26T07:10:23Z</time>
      </trkpt>
      <trkpt lat="45.06114" lon="5.54953">
        <ele>936.07</ele>
        <time>2019-08-26T07:10:24Z</time>
      </trkpt>
      <trkpt lat="45.06113" lon="5.54955">
        <ele>936.23</ele>
        <time>2019-08-26T07:10:25Z</time>
      </trkpt>
      <trkpt lat="45.06113" lon="5.54957">
        <ele>936.49</ele>
        <time>2019-08-26T07:10:26Z</time>
      </trkpt>
      <trkpt lat="45.06112" lon="5.5496">
        <ele>936.6</ele>
        <time>2019-08-26T07:10:27Z</time>
      </trkpt>
      <trkpt lat="45.06112" lon="5.54962">
        <ele>936.69</ele>
        <time>2019-08-26T07:10:28Z</time>
      </trkpt>
      <trkpt lat="45.06112" lon="5.54965">
        <ele>936.77</ele>
        <time>2019-08-26T07:10:29Z</time>
      </trkpt>
      <trkpt lat="45.0611" lon="5.54988">
        <ele>938.14</ele>
        <time>2019-08-26T07:10:39Z</time>
      </trkpt>
      <trkpt lat="45.06109" lon="5.54991">
        <ele>938.28</ele>
        <time>2019-08-26T07:10:40Z</time>
      </trkpt>
      <trkpt lat="45.06109" lon="5.54993">
        <ele>938.43</ele>
        <time>2019-08-26T07:10:41Z</time>
      </trkpt>
      <trkpt lat="45.06107" lon="5.55033">
        <ele>941.58</ele>
        <time>2019-08-26T07:10:58Z</time>
      </trkpt>
      <trkpt lat="45.06105" lon="5.55056">
        <ele>943.46</ele>
        <time>2019-08-26T07:11:09Z</time>
      </trkpt>
      <trkpt lat="45.06105" lon="5.55058">
        <ele>943.64</ele>
        <time>2019-08-26T07:11:10Z</time>
      </trkpt>
      <trkpt lat="45.06105" lon="5.55089">
        <ele>946.31</ele>
        <time>2019-08-26T07:11:26Z</time>
      </trkpt>
      <trkpt lat="45.06102" lon="5.55123">
        <ele>949.28</ele>
        <time>2019-08-26T07:11:44Z</time>
      </trkpt>
      <trkpt lat="45.06099" lon="5.55157">
        <ele>951.85</ele>
        <time>2019-08-26T07:12:01Z</time>
      </trkpt>
      <trkpt lat="45.06096" lon="5.55202">
        <ele>954.93</ele>
        <time>2019-08-26T07:12:21Z</time>
      </trkpt>
      <trkpt lat="45.06096" lon="5.55242">
        <ele>957.93</ele>
        <time>2019-08-26T07:12:40Z</time>
      </trkpt>
      <trkpt lat="45.06094" lon="5.55247">
        <ele>958.17</ele>
        <time>2019-08-26T07:12:42Z</time>
      </trkpt>
      <trkpt lat="45.06071" lon="5.55245">
        <ele>960.75</ele>
        <time>2019-08-26T07:12:58Z</time>
      </trkpt>
      <trkpt lat="45.06048" lon="5.55222">
        <ele>963.75</ele>
        <time>2019-08-26T07:13:16Z</time>
      </trkpt>
      <trkpt lat="45.06023" lon="5.55208">
        <ele>966.51</ele>
        <time>2019-08-26T07:13:34Z</time>
      </trkpt>
      <trkpt lat="45.0601" lon="5.55202">
        <ele>967.76</ele>
        <time>2019-08-26T07:13:43Z</time>
      </trkpt>
      <trkpt lat="45.06006" lon="5.55202">
        <ele>968.16</ele>
        <time>2019-08-26T07:13:45Z</time>
      </trkpt>
      <trkpt lat="45.0598" lon="5.55193">
        <ele>970.47</ele>
        <time>2019-08-26T07:14:02Z</time>
      </trkpt>
      <trkpt lat="45.0596" lon="5.55175">
        <ele>972.98</ele>
        <time>2019-08-26T07:14:18Z</time>
      </trkpt>
      <trkpt lat="45.05944" lon="5.55162">
        <ele>975</ele>
        <time>2019-08-26T07:14:31Z</time>
      </trkpt>
      <trkpt lat="45.05926" lon="5.55156">
        <ele>977.72</ele>
        <time>2019-08-26T07:14:48Z</time>
      </trkpt>
      <trkpt lat="45.05924" lon="5.55157">
        <ele>978.16</ele>
        <time>2019-08-26T07:14:50Z</time>
      </trkpt>
      <trkpt lat="45.05918" lon="5.55174">
        <ele>979.75</ele>
        <time>2019-08-26T07:15:00Z</time>
      </trkpt>
      <trkpt lat="45.05924" lon="5.55207">
        <ele>981.99</ele>
        <time>2019-08-26T07:15:17Z</time>
      </trkpt>
      <trkpt lat="45.05933" lon="5.55245">
        <ele>984.55</ele>
        <time>2019-08-26T07:15:36Z</time>
      </trkpt>
      <trkpt lat="45.05939" lon="5.55278">
        <ele>987.56</ele>
        <time>2019-08-26T07:15:52Z</time>
      </trkpt>
      <trkpt lat="45.0594" lon="5.55319">
        <ele>990.26</ele>
        <time>2019-08-26T07:16:10Z</time>
      </trkpt>
      <trkpt lat="45.05933" lon="5.55356">
        <ele>992.9</ele>
        <time>2019-08-26T07:16:27Z</time>
      </trkpt>
      <trkpt lat="45.05928" lon="5.55399">
        <ele>995.99</ele>
        <time>2019-08-26T07:16:47Z</time>
      </trkpt>
      <trkpt lat="45.0593" lon="5.55436">
        <ele>998.5</ele>
        <time>2019-08-26T07:17:03Z</time>
      </trkpt>
      <trkpt lat="45.05936" lon="5.55468">
        <ele>1001.09</ele>
        <time>2019-08-26T07:17:18Z</time>
      </trkpt>
      <trkpt lat="45.05945" lon="5.55505">
        <ele>1003.73</ele>
        <time>2019-08-26T07:17:36Z</time>
      </trkpt>
      <trkpt lat="45.05959" lon="5.55538">
        <ele>1006.21</ele>
        <time>2019-08-26T07:17:52Z</time>
      </trkpt>
      <trkpt lat="45.05978" lon="5.55569">
        <ele>1008.84</ele>
        <time>2019-08-26T07:18:11Z</time>
      </trkpt>
      <trkpt lat="45.0598" lon="5.55582">
        <ele>1009.61</ele>
        <time>2019-08-26T07:18:17Z</time>
      </trkpt>
      <trkpt lat="45.05975" lon="5.55587">
        <ele>1010.31</ele>
        <time>2019-08-26T07:18:23Z</time>
      </trkpt>
      <trkpt lat="45.05955" lon="5.55564">
        <ele>1011.82</ele>
        <time>2019-08-26T07:18:39Z</time>
      </trkpt>
      <trkpt lat="45.0594" lon="5.55531">
        <ele>1013.91</ele>
        <time>2019-08-26T07:18:56Z</time>
      </trkpt>
      <trkpt lat="45.0592" lon="5.55498">
        <ele>1015.97</ele>
        <time>2019-08-26T07:19:13Z</time>
      </trkpt>
      <trkpt lat="45.0591" lon="5.55492">
        <ele>1016.64</ele>
        <time>2019-08-26T07:19:19Z</time>
      </trkpt>
      <trkpt lat="45.05908" lon="5.55491">
        <ele>1016.71</ele>
        <time>2019-08-26T07:19:20Z</time>
      </trkpt>
      <trkpt lat="45.05906" lon="5.55491">
        <ele>1016.8</ele>
        <time>2019-08-26T07:19:21Z</time>
      </trkpt>
      <trkpt lat="45.0587" lon="5.55503">
        <ele>1018.77</ele>
        <time>2019-08-26T07:19:41Z</time>
      </trkpt>
      <trkpt lat="45.05837" lon="5.55529">
        <ele>1020.95</ele>
        <time>2019-08-26T07:20:01Z</time>
      </trkpt>
      <trkpt lat="45.05811" lon="5.55561">
        <ele>1023.58</ele>
        <time>2019-08-26T07:20:21Z</time>
      </trkpt>
      <trkpt lat="45.05793" lon="5.55584">
        <ele>1025.48</ele>
        <time>2019-08-26T07:20:35Z</time>
      </trkpt>
      <trkpt lat="45.05774" lon="5.55601">
        <ele>1027.48</ele>
        <time>2019-08-26T07:20:48Z</time>
      </trkpt>
      <trkpt lat="45.05749" lon="5.55617">
        <ele>1029.47</ele>
        <time>2019-08-26T07:21:03Z</time>
      </trkpt>
      <trkpt lat="45.05727" lon="5.55632">
        <ele>1031.91</ele>
        <time>2019-08-26T07:21:18Z</time>
      </trkpt>
      <trkpt lat="45.05725" lon="5.55632">
        <ele>1032.04</ele>
        <time>2019-08-26T07:21:19Z</time>
      </trkpt>
      <trkpt lat="45.05724" lon="5.55633">
        <ele>1032.21</ele>
        <time>2019-08-26T07:21:20Z</time>
      </trkpt>
      <trkpt lat="45.05722" lon="5.55634">
        <ele>1032.4</ele>
        <time>2019-08-26T07:21:21Z</time>
      </trkpt>
      <trkpt lat="45.0572" lon="5.55635">
        <ele>1032.58</ele>
        <time>2019-08-26T07:21:22Z</time>
      </trkpt>
      <trkpt lat="45.05719" lon="5.55636">
        <ele>1032.73</ele>
        <time>2019-08-26T07:21:23Z</time>
      </trkpt>
      <trkpt lat="45.05717" lon="5.55636">
        <ele>1032.86</ele>
        <time>2019-08-26T07:21:24Z</time>
      </trkpt>
      <trkpt lat="45.05716" lon="5.55637">
        <ele>1032.97</ele>
        <time>2019-08-26T07:21:25Z</time>
      </trkpt>
      <trkpt lat="45.05696" lon="5.55643">
        <ele>1034.81</ele>
        <time>2019-08-26T07:21:38Z</time>
      </trkpt>
      <trkpt lat="45.05686" lon="5.55644">
        <ele>1035.63</ele>
        <time>2019-08-26T07:21:45Z</time>
      </trkpt>
      <trkpt lat="45.05683" lon="5.55645">
        <ele>1035.78</ele>
        <time>2019-08-26T07:21:46Z</time>
      </trkpt>
      <trkpt lat="45.05681" lon="5.55645">
        <ele>1035.94</ele>
        <time>2019-08-26T07:21:47Z</time>
      </trkpt>
      <trkpt lat="45.0568" lon="5.55644">
        <ele>1036.12</ele>
        <time>2019-08-26T07:21:48Z</time>
      </trkpt>
      <trkpt lat="45.05678" lon="5.55644">
        <ele>1036.29</ele>
        <time>2019-08-26T07:21:49Z</time>
      </trkpt>
      <trkpt lat="45.05676" lon="5.55645">
        <ele>1036.45</ele>
        <time>2019-08-26T07:21:50Z</time>
      </trkpt>
      <trkpt lat="45.05673" lon="5.55645">
        <ele>1036.61</ele>
        <time>2019-08-26T07:21:51Z</time>
      </trkpt>
      <trkpt lat="45.05671" lon="5.55644">
        <ele>1036.77</ele>
        <time>2019-08-26T07:21:52Z</time>
      </trkpt>
      <trkpt lat="45.05669" lon="5.55644">
        <ele>1036.91</ele>
        <time>2019-08-26T07:21:53Z</time>
      </trkpt>
      <trkpt lat="45.05667" lon="5.55645">
        <ele>1037.05</ele>
        <time>2019-08-26T07:21:54Z</time>
      </trkpt>
      <trkpt lat="45.05665" lon="5.55644">
        <ele>1037.19</ele>
        <time>2019-08-26T07:21:55Z</time>
      </trkpt>
      <trkpt lat="45.05664" lon="5.55644">
        <ele>1037.3</ele>
        <time>2019-08-26T07:21:56Z</time>
      </trkpt>
      <trkpt lat="45.05662" lon="5.55644">
        <ele>1037.42</ele>
        <time>2019-08-26T07:21:57Z</time>
      </trkpt>
      <trkpt lat="45.0566" lon="5.55643">
        <ele>1037.57</ele>
        <time>2019-08-26T07:21:58Z</time>
      </trkpt>
      <trkpt lat="45.05658" lon="5.55644">
        <ele>1037.73</ele>
        <time>2019-08-26T07:21:59Z</time>
      </trkpt>
      <trkpt lat="45.05656" lon="5.55644">
        <ele>1037.88</ele>
        <time>2019-08-26T07:22:00Z</time>
      </trkpt>
      <trkpt lat="45.05655" lon="5.55644">
        <ele>1038.15</ele>
        <time>2019-08-26T07:22:01Z</time>
      </trkpt>
      <trkpt lat="45.05653" lon="5.55644">
        <ele>1038.3</ele>
        <time>2019-08-26T07:22:02Z</time>
      </trkpt>
      <trkpt lat="45.05651" lon="5.55643">
        <ele>1038.45</ele>
        <time>2019-08-26T07:22:03Z</time>
      </trkpt>
      <trkpt lat="45.0565" lon="5.55643">
        <ele>1038.58</ele>
        <time>2019-08-26T07:22:04Z</time>
      </trkpt>
      <trkpt lat="45.05649" lon="5.55642">
        <ele>1038.72</ele>
        <time>2019-08-26T07:22:05Z</time>
      </trkpt>
      <trkpt lat="45.05645" lon="5.55638">
        <ele>1039.11</ele>
        <time>2019-08-26T07:22:08Z</time>
      </trkpt>
      <trkpt lat="45.05644" lon="5.55636">
        <ele>1039.2</ele>
        <time>2019-08-26T07:22:09Z</time>
      </trkpt>
      <trkpt lat="45.05643" lon="5.55634">
        <ele>1039.28</ele>
        <time>2019-08-26T07:22:10Z</time>
      </trkpt>
      <trkpt lat="45.05642" lon="5.55632">
        <ele>1039.32</ele>
        <time>2019-08-26T07:22:11Z</time>
      </trkpt>
      <trkpt lat="45.05641" lon="5.5563">
        <ele>1039.36</ele>
        <time>2019-08-26T07:22:12Z</time>
      </trkpt>
      <trkpt lat="45.05639" lon="5.55623">
        <ele>1039.55</ele>
        <time>2019-08-26T07:22:16Z</time>
      </trkpt>
      <trkpt lat="45.0562" lon="5.5561">
        <ele>1040.41</ele>
        <time>2019-08-26T07:22:29Z</time>
      </trkpt>
      <trkpt lat="45.05609" lon="5.556">
        <ele>1042.16</ele>
        <time>2019-08-26T07:22:41Z</time>
      </trkpt>
      <trkpt lat="45.05595" lon="5.55587">
        <ele>1045.28</ele>
        <time>2019-08-26T07:22:55Z</time>
      </trkpt>
      <trkpt lat="45.05582" lon="5.55572">
        <ele>1048.44</ele>
        <time>2019-08-26T07:23:10Z</time>
      </trkpt>
      <trkpt lat="45.05569" lon="5.5556">
        <ele>1051.55</ele>
        <time>2019-08-26T07:23:24Z</time>
      </trkpt>
      <trkpt lat="45.05551" lon="5.55541">
        <ele>1054.63</ele>
        <time>2019-08-26T07:23:43Z</time>
      </trkpt>
      <trkpt lat="45.05533" lon="5.55523">
        <ele>1057.95</ele>
        <time>2019-08-26T07:24:03Z</time>
      </trkpt>
      <trkpt lat="45.05522" lon="5.55507">
        <ele>1061.03</ele>
        <time>2019-08-26T07:24:18Z</time>
      </trkpt>
      <trkpt lat="45.05511" lon="5.55493">
        <ele>1064.06</ele>
        <time>2019-08-26T07:24:33Z</time>
      </trkpt>
      <trkpt lat="45.05493" lon="5.55481">
        <ele>1067.14</ele>
        <time>2019-08-26T07:24:48Z</time>
      </trkpt>
      <trkpt lat="45.05472" lon="5.55465">
        <ele>1070.27</ele>
        <time>2019-08-26T07:25:07Z</time>
      </trkpt>
      <trkpt lat="45.05458" lon="5.55448">
        <ele>1073.46</ele>
        <time>2019-08-26T07:25:23Z</time>
      </trkpt>
      <trkpt lat="45.05449" lon="5.55424">
        <ele>1076.58</ele>
        <time>2019-08-26T07:25:40Z</time>
      </trkpt>
      <trkpt lat="45.05441" lon="5.55414">
        <ele>1078.22</ele>
        <time>2019-08-26T07:25:56Z</time>
      </trkpt>
      <trkpt lat="45.0544" lon="5.55414">
        <ele>1079.06</ele>
        <time>2019-08-26T07:26:29Z</time>
      </trkpt>
      <trkpt lat="45.05444" lon="5.55415">
        <ele>1079.24</ele>
        <time>2019-08-26T07:26:50Z</time>
      </trkpt>
      <trkpt lat="45.05441" lon="5.55409">
        <ele>1080.06</ele>
        <time>2019-08-26T07:27:15Z</time>
      </trkpt>
      <trkpt lat="45.05439" lon="5.55405">
        <ele>1080.1</ele>
        <time>2019-08-26T07:27:18Z</time>
      </trkpt>
      <trkpt lat="45.05433" lon="5.55396">
        <ele>1080.69</ele>
        <time>2019-08-26T07:27:25Z</time>
      </trkpt>
      <trkpt lat="45.05432" lon="5.55394">
        <ele>1080.99</ele>
        <time>2019-08-26T07:27:27Z</time>
      </trkpt>
      <trkpt lat="45.05423" lon="5.55385">
        <ele>1082.22</ele>
        <time>2019-08-26T07:27:35Z</time>
      </trkpt>
      <trkpt lat="45.05406" lon="5.55368">
        <ele>1085.57</ele>
        <time>2019-08-26T07:27:51Z</time>
      </trkpt>
      <trkpt lat="45.05399" lon="5.55361">
        <ele>1087.37</ele>
        <time>2019-08-26T07:27:59Z</time>
      </trkpt>
      <trkpt lat="45.05389" lon="5.55354">
        <ele>1089.12</ele>
        <time>2019-08-26T07:28:08Z</time>
      </trkpt>
      <trkpt lat="45.05384" lon="5.55352">
        <ele>1090.01</ele>
        <time>2019-08-26T07:28:12Z</time>
      </trkpt>
      <trkpt lat="45.05366" lon="5.55338">
        <ele>1092.68</ele>
        <time>2019-08-26T07:28:29Z</time>
      </trkpt>
      <trkpt lat="45.05348" lon="5.5533">
        <ele>1093.79</ele>
        <time>2019-08-26T07:28:44Z</time>
      </trkpt>
      <trkpt lat="45.05345" lon="5.5533">
        <ele>1094.27</ele>
        <time>2019-08-26T07:29:09Z</time>
      </trkpt>
      <trkpt lat="45.05347" lon="5.55328">
        <ele>1095</ele>
        <time>2019-08-26T07:29:43Z</time>
      </trkpt>
      <trkpt lat="45.05348" lon="5.55326">
        <ele>1095.56</ele>
        <time>2019-08-26T07:30:29Z</time>
      </trkpt>
      <trkpt lat="45.05348" lon="5.55325">
        <ele>1095.92</ele>
        <time>2019-08-26T07:31:04Z</time>
      </trkpt>
      <trkpt lat="45.05347" lon="5.55322">
        <ele>1096.75</ele>
        <time>2019-08-26T07:31:38Z</time>
      </trkpt>
      <trkpt lat="45.05346" lon="5.55323">
        <ele>1097.26</ele>
        <time>2019-08-26T07:31:57Z</time>
      </trkpt>
      <trkpt lat="45.05347" lon="5.55326">
        <ele>1097.69</ele>
        <time>2019-08-26T07:32:27Z</time>
      </trkpt>
      <trkpt lat="45.05348" lon="5.55324">
        <ele>1098.07</ele>
        <time>2019-08-26T07:32:55Z</time>
      </trkpt>
      <trkpt lat="45.05348" lon="5.55324">
        <ele>1098.57</ele>
        <time>2019-08-26T07:33:27Z</time>
      </trkpt>
      <trkpt lat="45.05347" lon="5.55326">
        <ele>1099.23</ele>
        <time>2019-08-26T07:34:07Z</time>
      </trkpt>
      <trkpt lat="45.05346" lon="5.55325">
        <ele>1099.78</ele>
        <time>2019-08-26T07:34:34Z</time>
      </trkpt>
      <trkpt lat="45.05341" lon="5.55318">
        <ele>1099.8</ele>
        <time>2019-08-26T07:34:53Z</time>
      </trkpt>
      <trkpt lat="45.05294" lon="5.55301">
        <ele>1097.77</ele>
        <time>2019-08-26T07:35:06Z</time>
      </trkpt>
      <trkpt lat="45.05264" lon="5.55291">
        <ele>1094.5</ele>
        <time>2019-08-26T07:35:13Z</time>
      </trkpt>
      <trkpt lat="45.05246" lon="5.55287">
        <ele>1092.41</ele>
        <time>2019-08-26T07:35:17Z</time>
      </trkpt>
      <trkpt lat="45.05241" lon="5.55286">
        <ele>1091.86</ele>
        <time>2019-08-26T07:35:18Z</time>
      </trkpt>
      <trkpt lat="45.05235" lon="5.55287">
        <ele>1091.27</ele>
        <time>2019-08-26T07:35:19Z</time>
      </trkpt>
      <trkpt lat="45.0523" lon="5.55288">
        <ele>1090.67</ele>
        <time>2019-08-26T07:35:20Z</time>
      </trkpt>
      <trkpt lat="45.05224" lon="5.5529">
        <ele>1090.1</ele>
        <time>2019-08-26T07:35:21Z</time>
      </trkpt>
      <trkpt lat="45.05219" lon="5.55292">
        <ele>1089.54</ele>
        <time>2019-08-26T07:35:22Z</time>
      </trkpt>
      <trkpt lat="45.05213" lon="5.55294">
        <ele>1089.03</ele>
        <time>2019-08-26T07:35:23Z</time>
      </trkpt>
      <trkpt lat="45.05206" lon="5.55294">
        <ele>1088.57</ele>
        <time>2019-08-26T07:35:24Z</time>
      </trkpt>
      <trkpt lat="45.052" lon="5.55293">
        <ele>1088.14</ele>
        <time>2019-08-26T07:35:25Z</time>
      </trkpt>
      <trkpt lat="45.05194" lon="5.55291">
        <ele>1087.73</ele>
        <time>2019-08-26T07:35:26Z</time>
      </trkpt>
      <trkpt lat="45.05188" lon="5.55287">
        <ele>1087.35</ele>
        <time>2019-08-26T07:35:27Z</time>
      </trkpt>
      <trkpt lat="45.05184" lon="5.55282">
        <ele>1086.96</ele>
        <time>2019-08-26T07:35:28Z</time>
      </trkpt>
      <trkpt lat="45.05181" lon="5.55278">
        <ele>1086.41</ele>
        <time>2019-08-26T07:35:29Z</time>
      </trkpt>
      <trkpt lat="45.05158" lon="5.55257">
        <ele>1086.65</ele>
        <time>2019-08-26T07:35:37Z</time>
      </trkpt>
      <trkpt lat="45.05154" lon="5.55254">
        <ele>1086.73</ele>
        <time>2019-08-26T07:35:38Z</time>
      </trkpt>
      <trkpt lat="45.05149" lon="5.55252">
        <ele>1086.78</ele>
        <time>2019-08-26T07:35:39Z</time>
      </trkpt>
      <trkpt lat="45.05096" lon="5.5522">
        <ele>1085.36</ele>
        <time>2019-08-26T07:35:50Z</time>
      </trkpt>
      <trkpt lat="45.0507" lon="5.55195">
        <ele>1088.44</ele>
        <time>2019-08-26T07:36:04Z</time>
      </trkpt>
      <trkpt lat="45.05044" lon="5.55182">
        <ele>1090.65</ele>
        <time>2019-08-26T07:36:19Z</time>
      </trkpt>
      <trkpt lat="45.05024" lon="5.55185">
        <ele>1093.77</ele>
        <time>2019-08-26T07:36:30Z</time>
      </trkpt>
      <trkpt lat="45.05" lon="5.55194">
        <ele>1096.82</ele>
        <time>2019-08-26T07:36:45Z</time>
      </trkpt>
      <trkpt lat="45.04963" lon="5.55201">
        <ele>1098.97</ele>
        <time>2019-08-26T07:37:05Z</time>
      </trkpt>
      <trkpt lat="45.04932" lon="5.55207">
        <ele>1100.34</ele>
        <time>2019-08-26T07:37:20Z</time>
      </trkpt>
      <trkpt lat="45.04889" lon="5.55207">
        <ele>1103.12</ele>
        <time>2019-08-26T07:37:41Z</time>
      </trkpt>
      <trkpt lat="45.04848" lon="5.55217">
        <ele>1104.68</ele>
        <time>2019-08-26T07:37:59Z</time>
      </trkpt>
      <trkpt lat="45.04839" lon="5.55228">
        <ele>1104.75</ele>
        <time>2019-08-26T07:38:12Z</time>
      </trkpt>
      <trkpt lat="45.04837" lon="5.55232">
        <ele>1104.74</ele>
        <time>2019-08-26T07:38:41Z</time>
      </trkpt>
      <trkpt lat="45.04836" lon="5.55235">
        <ele>1104.74</ele>
        <time>2019-08-26T07:38:42Z</time>
      </trkpt>
      <trkpt lat="45.04835" lon="5.55239">
        <ele>1104.72</ele>
        <time>2019-08-26T07:38:43Z</time>
      </trkpt>
      <trkpt lat="45.04834" lon="5.55243">
        <ele>1104.68</ele>
        <time>2019-08-26T07:38:44Z</time>
      </trkpt>
      <trkpt lat="45.04833" lon="5.55248">
        <ele>1104.62</ele>
        <time>2019-08-26T07:38:45Z</time>
      </trkpt>
      <trkpt lat="45.04829" lon="5.55269">
        <ele>1104.3</ele>
        <time>2019-08-26T07:38:48Z</time>
      </trkpt>
      <trkpt lat="45.04827" lon="5.55276">
        <ele>1103.94</ele>
        <time>2019-08-26T07:38:49Z</time>
      </trkpt>
      <trkpt lat="45.04823" lon="5.55293">
        <ele>1103.41</ele>
        <time>2019-08-26T07:38:51Z</time>
      </trkpt>
      <trkpt lat="45.04821" lon="5.55302">
        <ele>1103.1</ele>
        <time>2019-08-26T07:38:52Z</time>
      </trkpt>
      <trkpt lat="45.0482" lon="5.55312">
        <ele>1102.71</ele>
        <time>2019-08-26T07:38:53Z</time>
      </trkpt>
      <trkpt lat="45.04815" lon="5.5538">
        <ele>1099.43</ele>
        <time>2019-08-26T07:39:00Z</time>
      </trkpt>
      <trkpt lat="45.04812" lon="5.55414">
        <ele>1097.9</ele>
        <time>2019-08-26T07:39:04Z</time>
      </trkpt>
      <trkpt lat="45.04812" lon="5.55422">
        <ele>1097.54</ele>
        <time>2019-08-26T07:39:05Z</time>
      </trkpt>
      <trkpt lat="45.04812" lon="5.5543">
        <ele>1097.14</ele>
        <time>2019-08-26T07:39:06Z</time>
      </trkpt>
      <trkpt lat="45.0482" lon="5.55491">
        <ele>1095.49</ele>
        <time>2019-08-26T07:39:18Z</time>
      </trkpt>
      <trkpt lat="45.04823" lon="5.55513">
        <ele>1096.06</ele>
        <time>2019-08-26T07:39:31Z</time>
      </trkpt>
      <trkpt lat="45.04822" lon="5.55516">
        <ele>1096.16</ele>
        <time>2019-08-26T07:39:34Z</time>
      </trkpt>
      <trkpt lat="45.04821" lon="5.55518">
        <ele>1096.2</ele>
        <time>2019-08-26T07:39:35Z</time>
      </trkpt>
      <trkpt lat="45.0482" lon="5.55521">
        <ele>1096.23</ele>
        <time>2019-08-26T07:39:36Z</time>
      </trkpt>
      <trkpt lat="45.0479" lon="5.55551">
        <ele>1096.71</ele>
        <time>2019-08-26T07:39:50Z</time>
      </trkpt>
      <trkpt lat="45.04756" lon="5.55541">
        <ele>1097.82</ele>
        <time>2019-08-26T07:40:04Z</time>
      </trkpt>
      <trkpt lat="45.0475" lon="5.55532">
        <ele>1098.33</ele>
        <time>2019-08-26T07:40:09Z</time>
      </trkpt>
      <trkpt lat="45.04749" lon="5.5553">
        <ele>1098.46</ele>
        <time>2019-08-26T07:40:10Z</time>
      </trkpt>
      <trkpt lat="45.04747" lon="5.55528">
        <ele>1098.6</ele>
        <time>2019-08-26T07:40:11Z</time>
      </trkpt>
      <trkpt lat="45.04746" lon="5.55526">
        <ele>1098.73</ele>
        <time>2019-08-26T07:40:12Z</time>
      </trkpt>
      <trkpt lat="45.04745" lon="5.55525">
        <ele>1098.84</ele>
        <time>2019-08-26T07:40:13Z</time>
      </trkpt>
      <trkpt lat="45.04743" lon="5.55523">
        <ele>1098.95</ele>
        <time>2019-08-26T07:40:14Z</time>
      </trkpt>
      <trkpt lat="45.04741" lon="5.55521">
        <ele>1099.09</ele>
        <time>2019-08-26T07:40:15Z</time>
      </trkpt>
      <trkpt lat="45.0474" lon="5.5552">
        <ele>1099.24</ele>
        <time>2019-08-26T07:40:16Z</time>
      </trkpt>
      <trkpt lat="45.04721" lon="5.55486">
        <ele>1100.6</ele>
        <time>2019-08-26T07:40:29Z</time>
      </trkpt>
      <trkpt lat="45.04694" lon="5.55453">
        <ele>1100.17</ele>
        <time>2019-08-26T07:40:41Z</time>
      </trkpt>
      <trkpt lat="45.04673" lon="5.55464">
        <ele>1099.61</ele>
        <time>2019-08-26T07:40:51Z</time>
      </trkpt>
      <trkpt lat="45.04673" lon="5.55469">
        <ele>1099.46</ele>
        <time>2019-08-26T07:40:52Z</time>
      </trkpt>
      <trkpt lat="45.04672" lon="5.5548">
        <ele>1099.13</ele>
        <time>2019-08-26T07:40:54Z</time>
      </trkpt>
      <trkpt lat="45.0467" lon="5.55485">
        <ele>1098.96</ele>
        <time>2019-08-26T07:40:55Z</time>
      </trkpt>
      <trkpt lat="45.04668" lon="5.55491">
        <ele>1098.77</ele>
        <time>2019-08-26T07:40:56Z</time>
      </trkpt>
      <trkpt lat="45.04659" lon="5.55506">
        <ele>1098.11</ele>
        <time>2019-08-26T07:40:59Z</time>
      </trkpt>
      <trkpt lat="45.04649" lon="5.55519">
        <ele>1097.28</ele>
        <time>2019-08-26T07:41:02Z</time>
      </trkpt>
      <trkpt lat="45.04644" lon="5.55523">
        <ele>1097.07</ele>
        <time>2019-08-26T07:41:03Z</time>
      </trkpt>
      <trkpt lat="45.04627" lon="5.55533">
        <ele>1096.65</ele>
        <time>2019-08-26T07:41:09Z</time>
      </trkpt>
      <trkpt lat="45.04625" lon="5.55533">
        <ele>1096.81</ele>
        <time>2019-08-26T07:41:10Z</time>
      </trkpt>
      <trkpt lat="45.04623" lon="5.55534">
        <ele>1096.98</ele>
        <time>2019-08-26T07:41:11Z</time>
      </trkpt>
      <trkpt lat="45.046" lon="5.55538">
        <ele>1100.04</ele>
        <time>2019-08-26T07:41:24Z</time>
      </trkpt>
      <trkpt lat="45.04575" lon="5.55556">
        <ele>1100.08</ele>
        <time>2019-08-26T07:41:33Z</time>
      </trkpt>
      <trkpt lat="45.04566" lon="5.5557">
        <ele>1099.39</ele>
        <time>2019-08-26T07:41:36Z</time>
      </trkpt>
      <trkpt lat="45.04551" lon="5.55612">
        <ele>1097.43</ele>
        <time>2019-08-26T07:41:42Z</time>
      </trkpt>
      <trkpt lat="45.04549" lon="5.5562">
        <ele>1097.15</ele>
        <time>2019-08-26T07:41:43Z</time>
      </trkpt>
      <trkpt lat="45.04543" lon="5.55663">
        <ele>1096.09</ele>
        <time>2019-08-26T07:41:49Z</time>
      </trkpt>
      <trkpt lat="45.04543" lon="5.55669">
        <ele>1096</ele>
        <time>2019-08-26T07:41:50Z</time>
      </trkpt>
      <trkpt lat="45.04542" lon="5.55674">
        <ele>1095.92</ele>
        <time>2019-08-26T07:41:51Z</time>
      </trkpt>
      <trkpt lat="45.04528" lon="5.5573">
        <ele>1095.57</ele>
        <time>2019-08-26T07:42:00Z</time>
      </trkpt>
      <trkpt lat="45.04526" lon="5.55735">
        <ele>1095.5</ele>
        <time>2019-08-26T07:42:01Z</time>
      </trkpt>
      <trkpt lat="45.04518" lon="5.5575">
        <ele>1095.22</ele>
        <time>2019-08-26T07:42:04Z</time>
      </trkpt>
      <trkpt lat="45.04515" lon="5.55755">
        <ele>1095.04</ele>
        <time>2019-08-26T07:42:05Z</time>
      </trkpt>
      <trkpt lat="45.04512" lon="5.5576">
        <ele>1094.99</ele>
        <time>2019-08-26T07:42:06Z</time>
      </trkpt>
      <trkpt lat="45.0451" lon="5.55765">
        <ele>1094.93</ele>
        <time>2019-08-26T07:42:07Z</time>
      </trkpt>
      <trkpt lat="45.04507" lon="5.5577">
        <ele>1094.91</ele>
        <time>2019-08-26T07:42:08Z</time>
      </trkpt>
      <trkpt lat="45.04505" lon="5.55776">
        <ele>1094.88</ele>
        <time>2019-08-26T07:42:09Z</time>
      </trkpt>
      <trkpt lat="45.04503" lon="5.55781">
        <ele>1094.83</ele>
        <time>2019-08-26T07:42:10Z</time>
      </trkpt>
      <trkpt lat="45.04501" lon="5.55786">
        <ele>1094.79</ele>
        <time>2019-08-26T07:42:11Z</time>
      </trkpt>
      <trkpt lat="45.04499" lon="5.55792">
        <ele>1094.77</ele>
        <time>2019-08-26T07:42:12Z</time>
      </trkpt>
      <trkpt lat="45.04494" lon="5.55802">
        <ele>1094.76</ele>
        <time>2019-08-26T07:42:14Z</time>
      </trkpt>
      <trkpt lat="45.04474" lon="5.55836">
        <ele>1095.91</ele>
        <time>2019-08-26T07:42:25Z</time>
      </trkpt>
      <trkpt lat="45.04472" lon="5.55838">
        <ele>1096.1</ele>
        <time>2019-08-26T07:42:26Z</time>
      </trkpt>
      <trkpt lat="45.04471" lon="5.5584">
        <ele>1096.28</ele>
        <time>2019-08-26T07:42:27Z</time>
      </trkpt>
      <trkpt lat="45.04469" lon="5.55841">
        <ele>1096.44</ele>
        <time>2019-08-26T07:42:28Z</time>
      </trkpt>
      <trkpt lat="45.04468" lon="5.55842">
        <ele>1096.64</ele>
        <time>2019-08-26T07:42:29Z</time>
      </trkpt>
      <trkpt lat="45.04467" lon="5.55841">
        <ele>1096.88</ele>
        <time>2019-08-26T07:42:30Z</time>
      </trkpt>
      <trkpt lat="45.04466" lon="5.5584">
        <ele>1097.41</ele>
        <time>2019-08-26T07:42:31Z</time>
      </trkpt>
      <trkpt lat="45.04466" lon="5.55839">
        <ele>1097.67</ele>
        <time>2019-08-26T07:42:32Z</time>
      </trkpt>
      <trkpt lat="45.04465" lon="5.55837">
        <ele>1097.92</ele>
        <time>2019-08-26T07:42:33Z</time>
      </trkpt>
      <trkpt lat="45.04462" lon="5.55829">
        <ele>1098.55</ele>
        <time>2019-08-26T07:42:36Z</time>
      </trkpt>
      <trkpt lat="45.04462" lon="5.55827">
        <ele>1098.72</ele>
        <time>2019-08-26T07:42:37Z</time>
      </trkpt>
      <trkpt lat="45.04461" lon="5.55824">
        <ele>1098.88</ele>
        <time>2019-08-26T07:42:38Z</time>
      </trkpt>
      <trkpt lat="45.04454" lon="5.55811">
        <ele>1099.54</ele>
        <time>2019-08-26T07:42:45Z</time>
      </trkpt>
      <trkpt lat="45.04453" lon="5.5581">
        <ele>1099.63</ele>
        <time>2019-08-26T07:42:46Z</time>
      </trkpt>
      <trkpt lat="45.04452" lon="5.55809">
        <ele>1099.75</ele>
        <time>2019-08-26T07:42:47Z</time>
      </trkpt>
      <trkpt lat="45.04451" lon="5.55808">
        <ele>1099.9</ele>
        <time>2019-08-26T07:42:48Z</time>
      </trkpt>
      <trkpt lat="45.0445" lon="5.55807">
        <ele>1100.06</ele>
        <time>2019-08-26T07:42:49Z</time>
      </trkpt>
      <trkpt lat="45.04448" lon="5.55805">
        <ele>1100.23</ele>
        <time>2019-08-26T07:42:50Z</time>
      </trkpt>
      <trkpt lat="45.04447" lon="5.55804">
        <ele>1100.4</ele>
        <time>2019-08-26T07:42:51Z</time>
      </trkpt>
      <trkpt lat="45.04444" lon="5.55798">
        <ele>1100.85</ele>
        <time>2019-08-26T07:42:54Z</time>
      </trkpt>
      <trkpt lat="45.04443" lon="5.55796">
        <ele>1100.99</ele>
        <time>2019-08-26T07:42:55Z</time>
      </trkpt>
      <trkpt lat="45.04427" lon="5.55773">
        <ele>1103.07</ele>
        <time>2019-08-26T07:43:06Z</time>
      </trkpt>
      <trkpt lat="45.04415" lon="5.55751">
        <ele>1104.23</ele>
        <time>2019-08-26T07:43:16Z</time>
      </trkpt>
      <trkpt lat="45.04414" lon="5.55749">
        <ele>1104.33</ele>
        <time>2019-08-26T07:43:17Z</time>
      </trkpt>
      <trkpt lat="45.04413" lon="5.55744">
        <ele>1104.51</ele>
        <time>2019-08-26T07:43:19Z</time>
      </trkpt>
      <trkpt lat="45.04413" lon="5.55741">
        <ele>1104.78</ele>
        <time>2019-08-26T07:43:20Z</time>
      </trkpt>
      <trkpt lat="45.04413" lon="5.55738">
        <ele>1104.94</ele>
        <time>2019-08-26T07:43:21Z</time>
      </trkpt>
      <trkpt lat="45.04413" lon="5.55736">
        <ele>1105.08</ele>
        <time>2019-08-26T07:43:22Z</time>
      </trkpt>
      <trkpt lat="45.04413" lon="5.55734">
        <ele>1105.24</ele>
        <time>2019-08-26T07:43:23Z</time>
      </trkpt>
      <trkpt lat="45.04413" lon="5.55731">
        <ele>1105.39</ele>
        <time>2019-08-26T07:43:24Z</time>
      </trkpt>
      <trkpt lat="45.04412" lon="5.55728">
        <ele>1105.52</ele>
        <time>2019-08-26T07:43:25Z</time>
      </trkpt>
      <trkpt lat="45.04411" lon="5.55725">
        <ele>1105.64</ele>
        <time>2019-08-26T07:43:26Z</time>
      </trkpt>
      <trkpt lat="45.0441" lon="5.55723">
        <ele>1105.78</ele>
        <time>2019-08-26T07:43:27Z</time>
      </trkpt>
      <trkpt lat="45.04409" lon="5.55721">
        <ele>1105.93</ele>
        <time>2019-08-26T07:43:28Z</time>
      </trkpt>
      <trkpt lat="45.04408" lon="5.55714">
        <ele>1106.38</ele>
        <time>2019-08-26T07:43:31Z</time>
      </trkpt>
      <trkpt lat="45.04407" lon="5.55712">
        <ele>1106.51</ele>
        <time>2019-08-26T07:43:32Z</time>
      </trkpt>
      <trkpt lat="45.04407" lon="5.55709">
        <ele>1106.64</ele>
        <time>2019-08-26T07:43:33Z</time>
      </trkpt>
      <trkpt lat="45.04406" lon="5.55707">
        <ele>1106.78</ele>
        <time>2019-08-26T07:43:34Z</time>
      </trkpt>
      <trkpt lat="45.04405" lon="5.55705">
        <ele>1106.93</ele>
        <time>2019-08-26T07:43:35Z</time>
      </trkpt>
      <trkpt lat="45.04404" lon="5.55703">
        <ele>1107.09</ele>
        <time>2019-08-26T07:43:36Z</time>
      </trkpt>
      <trkpt lat="45.04403" lon="5.557">
        <ele>1107.25</ele>
        <time>2019-08-26T07:43:37Z</time>
      </trkpt>
      <trkpt lat="45.04393" lon="5.55679">
        <ele>1109.84</ele>
        <time>2019-08-26T07:43:51Z</time>
      </trkpt>
      <trkpt lat="45.04389" lon="5.55676">
        <ele>1110.32</ele>
        <time>2019-08-26T07:43:54Z</time>
      </trkpt>
      <trkpt lat="45.04386" lon="5.55672">
        <ele>1110.78</ele>
        <time>2019-08-26T07:43:57Z</time>
      </trkpt>
      <trkpt lat="45.04378" lon="5.5566">
        <ele>1112.33</ele>
        <time>2019-08-26T07:44:06Z</time>
      </trkpt>
      <trkpt lat="45.04367" lon="5.55644">
        <ele>1114.21</ele>
        <time>2019-08-26T07:44:15Z</time>
      </trkpt>
      <trkpt lat="45.04359" lon="5.55626">
        <ele>1117.21</ele>
        <time>2019-08-26T07:44:27Z</time>
      </trkpt>
      <trkpt lat="45.04354" lon="5.55608">
        <ele>1119.49</ele>
        <time>2019-08-26T07:44:39Z</time>
      </trkpt>
      <trkpt lat="45.04348" lon="5.55588">
        <ele>1122.56</ele>
        <time>2019-08-26T07:44:54Z</time>
      </trkpt>
      <trkpt lat="45.04344" lon="5.55572">
        <ele>1125.79</ele>
        <time>2019-08-26T07:45:07Z</time>
      </trkpt>
      <trkpt lat="45.04333" lon="5.5555">
        <ele>1128.82</ele>
        <time>2019-08-26T07:45:23Z</time>
      </trkpt>
      <trkpt lat="45.04326" lon="5.55538">
        <ele>1129.31</ele>
        <time>2019-08-26T07:45:27Z</time>
      </trkpt>
      <trkpt lat="45.04324" lon="5.55536">
        <ele>1129.44</ele>
        <time>2019-08-26T07:45:28Z</time>
      </trkpt>
      <trkpt lat="45.04322" lon="5.55534">
        <ele>1129.54</ele>
        <time>2019-08-26T07:45:29Z</time>
      </trkpt>
      <trkpt lat="45.0432" lon="5.55533">
        <ele>1129.66</ele>
        <time>2019-08-26T07:45:30Z</time>
      </trkpt>
      <trkpt lat="45.04319" lon="5.55531">
        <ele>1129.78</ele>
        <time>2019-08-26T07:45:31Z</time>
      </trkpt>
      <trkpt lat="45.04317" lon="5.55529">
        <ele>1129.89</ele>
        <time>2019-08-26T07:45:32Z</time>
      </trkpt>
      <trkpt lat="45.04316" lon="5.55527">
        <ele>1129.98</ele>
        <time>2019-08-26T07:45:33Z</time>
      </trkpt>
      <trkpt lat="45.04315" lon="5.55525">
        <ele>1130.09</ele>
        <time>2019-08-26T07:45:34Z</time>
      </trkpt>
      <trkpt lat="45.04304" lon="5.55511">
        <ele>1131.37</ele>
        <time>2019-08-26T07:45:44Z</time>
      </trkpt>
      <trkpt lat="45.04303" lon="5.5551">
        <ele>1131.76</ele>
        <time>2019-08-26T07:45:45Z</time>
      </trkpt>
      <trkpt lat="45.04302" lon="5.55508">
        <ele>1131.76</ele>
        <time>2019-08-26T07:45:46Z</time>
      </trkpt>
      <trkpt lat="45.04294" lon="5.55492">
        <ele>1134.23</ele>
        <time>2019-08-26T07:45:57Z</time>
      </trkpt>
      <trkpt lat="45.04292" lon="5.5549">
        <ele>1134.66</ele>
        <time>2019-08-26T07:45:59Z</time>
      </trkpt>
      <trkpt lat="45.04287" lon="5.55476">
        <ele>1137.03</ele>
        <time>2019-08-26T07:46:13Z</time>
      </trkpt>
      <trkpt lat="45.04285" lon="5.5547">
        <ele>1137.65</ele>
        <time>2019-08-26T07:46:36Z</time>
      </trkpt>
      <trkpt lat="45.04286" lon="5.55468">
        <ele>1137.75</ele>
        <time>2019-08-26T07:47:02Z</time>
      </trkpt>
      <trkpt lat="45.04288" lon="5.55465">
        <ele>1138.45</ele>
        <time>2019-08-26T07:47:31Z</time>
      </trkpt>
      <trkpt lat="45.04286" lon="5.55469">
        <ele>1138.7</ele>
        <time>2019-08-26T07:48:03Z</time>
      </trkpt>
      <trkpt lat="45.0429" lon="5.55474">
        <ele>1138.96</ele>
        <time>2019-08-26T07:48:34Z</time>
      </trkpt>
      <trkpt lat="45.04286" lon="5.55469">
        <ele>1139.26</ele>
        <time>2019-08-26T07:48:55Z</time>
      </trkpt>
      <trkpt lat="45.04282" lon="5.55458">
        <ele>1139.58</ele>
        <time>2019-08-26T07:49:06Z</time>
      </trkpt>
      <trkpt lat="45.04282" lon="5.55455">
        <ele>1139.64</ele>
        <time>2019-08-26T07:49:07Z</time>
      </trkpt>
      <trkpt lat="45.04281" lon="5.55453">
        <ele>1139.68</ele>
        <time>2019-08-26T07:49:08Z</time>
      </trkpt>
      <trkpt lat="45.0428" lon="5.5545">
        <ele>1139.72</ele>
        <time>2019-08-26T07:49:09Z</time>
      </trkpt>
      <trkpt lat="45.04279" lon="5.55447">
        <ele>1139.74</ele>
        <time>2019-08-26T07:49:10Z</time>
      </trkpt>
      <trkpt lat="45.04259" lon="5.5541">
        <ele>1139.69</ele>
        <time>2019-08-26T07:49:20Z</time>
      </trkpt>
      <trkpt lat="45.04241" lon="5.55386">
        <ele>1140.91</ele>
        <time>2019-08-26T07:49:29Z</time>
      </trkpt>
      <trkpt lat="45.04221" lon="5.55337">
        <ele>1140.68</ele>
        <time>2019-08-26T07:49:37Z</time>
      </trkpt>
      <trkpt lat="45.04209" lon="5.55305">
        <ele>1139.35</ele>
        <time>2019-08-26T07:49:41Z</time>
      </trkpt>
      <trkpt lat="45.04206" lon="5.55296">
        <ele>1139.08</ele>
        <time>2019-08-26T07:49:42Z</time>
      </trkpt>
      <trkpt lat="45.04204" lon="5.55289">
        <ele>1138.84</ele>
        <time>2019-08-26T07:49:43Z</time>
      </trkpt>
      <trkpt lat="45.042" lon="5.55283">
        <ele>1138.64</ele>
        <time>2019-08-26T07:49:44Z</time>
      </trkpt>
      <trkpt lat="45.04197" lon="5.55277">
        <ele>1138.45</ele>
        <time>2019-08-26T07:49:45Z</time>
      </trkpt>
      <trkpt lat="45.04192" lon="5.55271">
        <ele>1138.28</ele>
        <time>2019-08-26T07:49:46Z</time>
      </trkpt>
      <trkpt lat="45.04187" lon="5.55265">
        <ele>1138.13</ele>
        <time>2019-08-26T07:49:47Z</time>
      </trkpt>
      <trkpt lat="45.04182" lon="5.5526">
        <ele>1138</ele>
        <time>2019-08-26T07:49:48Z</time>
      </trkpt>
      <trkpt lat="45.04179" lon="5.55255">
        <ele>1137.88</ele>
        <time>2019-08-26T07:49:49Z</time>
      </trkpt>
      <trkpt lat="45.04176" lon="5.5525">
        <ele>1137.73</ele>
        <time>2019-08-26T07:49:50Z</time>
      </trkpt>
      <trkpt lat="45.04159" lon="5.55226">
        <ele>1136.48</ele>
        <time>2019-08-26T07:49:56Z</time>
      </trkpt>
      <trkpt lat="45.04157" lon="5.55221">
        <ele>1136.17</ele>
        <time>2019-08-26T07:49:57Z</time>
      </trkpt>
      <trkpt lat="45.04156" lon="5.55217">
        <ele>1135.82</ele>
        <time>2019-08-26T07:49:58Z</time>
      </trkpt>
      <trkpt lat="45.04154" lon="5.55211">
        <ele>1135.42</ele>
        <time>2019-08-26T07:49:59Z</time>
      </trkpt>
      <trkpt lat="45.04153" lon="5.55203">
        <ele>1134.94</ele>
        <time>2019-08-26T07:50:00Z</time>
      </trkpt>
      <trkpt lat="45.04154" lon="5.55198">
        <ele>1134.45</ele>
        <time>2019-08-26T07:50:01Z</time>
      </trkpt>
      <trkpt lat="45.04154" lon="5.55192">
        <ele>1133.94</ele>
        <time>2019-08-26T07:50:02Z</time>
      </trkpt>
      <trkpt lat="45.04155" lon="5.55187">
        <ele>1132.97</ele>
        <time>2019-08-26T07:50:03Z</time>
      </trkpt>
      <trkpt lat="45.04156" lon="5.55181">
        <ele>1132.97</ele>
        <time>2019-08-26T07:50:04Z</time>
      </trkpt>
      <trkpt lat="45.04161" lon="5.55172">
        <ele>1131.47</ele>
        <time>2019-08-26T07:50:06Z</time>
      </trkpt>
      <trkpt lat="45.04162" lon="5.55166">
        <ele>1130.96</ele>
        <time>2019-08-26T07:50:07Z</time>
      </trkpt>
      <trkpt lat="45.04163" lon="5.5516">
        <ele>1130.44</ele>
        <time>2019-08-26T07:50:08Z</time>
      </trkpt>
      <trkpt lat="45.04163" lon="5.55153">
        <ele>1129.91</ele>
        <time>2019-08-26T07:50:09Z</time>
      </trkpt>
      <trkpt lat="45.04162" lon="5.55147">
        <ele>1129.35</ele>
        <time>2019-08-26T07:50:10Z</time>
      </trkpt>
      <trkpt lat="45.0416" lon="5.55141">
        <ele>1128.77</ele>
        <time>2019-08-26T07:50:11Z</time>
      </trkpt>
      <trkpt lat="45.04147" lon="5.55107">
        <ele>1126.13</ele>
        <time>2019-08-26T07:50:16Z</time>
      </trkpt>
      <trkpt lat="45.04141" lon="5.55094">
        <ele>1125.59</ele>
        <time>2019-08-26T07:50:17Z</time>
      </trkpt>
      <trkpt lat="45.04139" lon="5.55085">
        <ele>1125.07</ele>
        <time>2019-08-26T07:50:18Z</time>
      </trkpt>
      <trkpt lat="45.04137" lon="5.55076">
        <ele>1124.61</ele>
        <time>2019-08-26T07:50:19Z</time>
      </trkpt>
      <trkpt lat="45.04138" lon="5.55069">
        <ele>1124.23</ele>
        <time>2019-08-26T07:50:20Z</time>
      </trkpt>
      <trkpt lat="45.0414" lon="5.55063">
        <ele>1123.91</ele>
        <time>2019-08-26T07:50:21Z</time>
      </trkpt>
      <trkpt lat="45.04141" lon="5.55057">
        <ele>1123.66</ele>
        <time>2019-08-26T07:50:22Z</time>
      </trkpt>
      <trkpt lat="45.04143" lon="5.55051">
        <ele>1123.45</ele>
        <time>2019-08-26T07:50:23Z</time>
      </trkpt>
      <trkpt lat="45.04145" lon="5.55046">
        <ele>1123.24</ele>
        <time>2019-08-26T07:50:24Z</time>
      </trkpt>
      <trkpt lat="45.04146" lon="5.55041">
        <ele>1123.04</ele>
        <time>2019-08-26T07:50:25Z</time>
      </trkpt>
      <trkpt lat="45.04156" lon="5.55021">
        <ele>1122.43</ele>
        <time>2019-08-26T07:50:29Z</time>
      </trkpt>
      <trkpt lat="45.04192" lon="5.54983">
        <ele>1121.25</ele>
        <time>2019-08-26T07:50:39Z</time>
      </trkpt>
      <trkpt lat="45.04202" lon="5.54975">
        <ele>1121.31</ele>
        <time>2019-08-26T07:50:41Z</time>
      </trkpt>
      <trkpt lat="45.04206" lon="5.5497">
        <ele>1121.27</ele>
        <time>2019-08-26T07:50:42Z</time>
      </trkpt>
      <trkpt lat="45.0421" lon="5.54965">
        <ele>1121.2</ele>
        <time>2019-08-26T07:50:43Z</time>
      </trkpt>
      <trkpt lat="45.04229" lon="5.54936">
        <ele>1120.72</ele>
        <time>2019-08-26T07:50:48Z</time>
      </trkpt>
      <trkpt lat="45.04233" lon="5.54931">
        <ele>1120.64</ele>
        <time>2019-08-26T07:50:49Z</time>
      </trkpt>
      <trkpt lat="45.04257" lon="5.54884">
        <ele>1120.69</ele>
        <time>2019-08-26T07:50:59Z</time>
      </trkpt>
      <trkpt lat="45.04266" lon="5.54868">
        <ele>1120.54</ele>
        <time>2019-08-26T07:51:02Z</time>
      </trkpt>
      <trkpt lat="45.04268" lon="5.54863">
        <ele>1120.29</ele>
        <time>2019-08-26T07:51:03Z</time>
      </trkpt>
      <trkpt lat="45.0427" lon="5.54859">
        <ele>1120.04</ele>
        <time>2019-08-26T07:51:04Z</time>
      </trkpt>
      <trkpt lat="45.04277" lon="5.54847">
        <ele>1118.71</ele>
        <time>2019-08-26T07:51:09Z</time>
      </trkpt>
      <trkpt lat="45.04278" lon="5.54847">
        <ele>1118.45</ele>
        <time>2019-08-26T07:51:10Z</time>
      </trkpt>
      <trkpt lat="45.04279" lon="5.54847">
        <ele>1118.21</ele>
        <time>2019-08-26T07:51:11Z</time>
      </trkpt>
      <trkpt lat="45.04282" lon="5.54846">
        <ele>1117.87</ele>
        <time>2019-08-26T07:51:13Z</time>
      </trkpt>
      <trkpt lat="45.04298" lon="5.54835">
        <ele>1116.43</ele>
        <time>2019-08-26T07:51:24Z</time>
      </trkpt>
      <trkpt lat="45.04301" lon="5.54834">
        <ele>1116.27</ele>
        <time>2019-08-26T07:51:25Z</time>
      </trkpt>
      <trkpt lat="45.04303" lon="5.54832">
        <ele>1116.08</ele>
        <time>2019-08-26T07:51:26Z</time>
      </trkpt>
      <trkpt lat="45.04306" lon="5.54831">
        <ele>1115.83</ele>
        <time>2019-08-26T07:51:27Z</time>
      </trkpt>
      <trkpt lat="45.0431" lon="5.5483">
        <ele>1115.56</ele>
        <time>2019-08-26T07:51:28Z</time>
      </trkpt>
      <trkpt lat="45.04313" lon="5.54829">
        <ele>1115.28</ele>
        <time>2019-08-26T07:51:29Z</time>
      </trkpt>
      <trkpt lat="45.04318" lon="5.54828">
        <ele>1115</ele>
        <time>2019-08-26T07:51:30Z</time>
      </trkpt>
      <trkpt lat="45.04348" lon="5.54824">
        <ele>1111.99</ele>
        <time>2019-08-26T07:51:37Z</time>
      </trkpt>
      <trkpt lat="45.04368" lon="5.54819">
        <ele>1108.18</ele>
        <time>2019-08-26T07:51:45Z</time>
      </trkpt>
      <trkpt lat="45.04373" lon="5.54818">
        <ele>1105.06</ele>
        <time>2019-08-26T07:51:52Z</time>
      </trkpt>
      <trkpt lat="45.04375" lon="5.54813">
        <ele>1103.95</ele>
        <time>2019-08-26T07:52:10Z</time>
      </trkpt>
      <trkpt lat="45.04383" lon="5.5478">
        <ele>1102.09</ele>
        <time>2019-08-26T07:52:19Z</time>
      </trkpt>
      <trkpt lat="45.04379" lon="5.54754">
        <ele>1099.95</ele>
        <time>2019-08-26T07:52:24Z</time>
      </trkpt>
      <trkpt lat="45.04372" lon="5.54717">
        <ele>1095.92</ele>
        <time>2019-08-26T07:52:31Z</time>
      </trkpt>
      <trkpt lat="45.04369" lon="5.54707">
        <ele>1094.11</ele>
        <time>2019-08-26T07:52:34Z</time>
      </trkpt>
      <trkpt lat="45.04362" lon="5.547">
        <ele>1091.24</ele>
        <time>2019-08-26T07:52:38Z</time>
      </trkpt>
      <trkpt lat="45.04333" lon="5.54695">
        <ele>1087.15</ele>
        <time>2019-08-26T07:52:46Z</time>
      </trkpt>
      <trkpt lat="45.04327" lon="5.5469">
        <ele>1085.99</ele>
        <time>2019-08-26T07:52:48Z</time>
      </trkpt>
      <trkpt lat="45.04321" lon="5.54682">
        <ele>1084.69</ele>
        <time>2019-08-26T07:52:50Z</time>
      </trkpt>
      <trkpt lat="45.04305" lon="5.54669">
        <ele>1081.5</ele>
        <time>2019-08-26T07:52:54Z</time>
      </trkpt>
      <trkpt lat="45.043" lon="5.54646">
        <ele>1077.92</ele>
        <time>2019-08-26T07:53:00Z</time>
      </trkpt>
      <trkpt lat="45.04298" lon="5.54631">
        <ele>1078.12</ele>
        <time>2019-08-26T07:53:05Z</time>
      </trkpt>
      <trkpt lat="45.04299" lon="5.54625">
        <ele>1078.43</ele>
        <time>2019-08-26T07:53:07Z</time>
      </trkpt>
      <trkpt lat="45.04296" lon="5.54607">
        <ele>1079.3</ele>
        <time>2019-08-26T07:53:12Z</time>
      </trkpt>
      <trkpt lat="45.04281" lon="5.54556">
        <ele>1079.76</ele>
        <time>2019-08-26T07:53:22Z</time>
      </trkpt>
      <trkpt lat="45.04276" lon="5.54527">
        <ele>1081.88</ele>
        <time>2019-08-26T07:53:30Z</time>
      </trkpt>
      <trkpt lat="45.04274" lon="5.54501">
        <ele>1082.85</ele>
        <time>2019-08-26T07:53:38Z</time>
      </trkpt>
      <trkpt lat="45.04274" lon="5.54499">
        <ele>1082.83</ele>
        <time>2019-08-26T07:53:39Z</time>
      </trkpt>
      <trkpt lat="45.04275" lon="5.54496">
        <ele>1082.8</ele>
        <time>2019-08-26T07:53:40Z</time>
      </trkpt>
      <trkpt lat="45.04276" lon="5.54493">
        <ele>1082.75</ele>
        <time>2019-08-26T07:53:41Z</time>
      </trkpt>
      <trkpt lat="45.04276" lon="5.54489">
        <ele>1082.66</ele>
        <time>2019-08-26T07:53:42Z</time>
      </trkpt>
      <trkpt lat="45.04276" lon="5.54485">
        <ele>1082.57</ele>
        <time>2019-08-26T07:53:43Z</time>
      </trkpt>
      <trkpt lat="45.04275" lon="5.54482">
        <ele>1082.5</ele>
        <time>2019-08-26T07:53:44Z</time>
      </trkpt>
      <trkpt lat="45.04275" lon="5.54479">
        <ele>1082.43</ele>
        <time>2019-08-26T07:53:45Z</time>
      </trkpt>
      <trkpt lat="45.04275" lon="5.54475">
        <ele>1082.36</ele>
        <time>2019-08-26T07:53:46Z</time>
      </trkpt>
      <trkpt lat="45.04273" lon="5.5447">
        <ele>1082.29</ele>
        <time>2019-08-26T07:53:47Z</time>
      </trkpt>
      <trkpt lat="45.04273" lon="5.54465">
        <ele>1082.22</ele>
        <time>2019-08-26T07:53:48Z</time>
      </trkpt>
      <trkpt lat="45.04271" lon="5.5446">
        <ele>1082.17</ele>
        <time>2019-08-26T07:53:49Z</time>
      </trkpt>
      <trkpt lat="45.0427" lon="5.54458">
        <ele>1082.12</ele>
        <time>2019-08-26T07:53:50Z</time>
      </trkpt>
      <trkpt lat="45.0427" lon="5.54455">
        <ele>1081.99</ele>
        <time>2019-08-26T07:53:51Z</time>
      </trkpt>
      <trkpt lat="45.0427" lon="5.54453">
        <ele>1081.93</ele>
        <time>2019-08-26T07:53:52Z</time>
      </trkpt>
      <trkpt lat="45.04269" lon="5.54449">
        <ele>1081.84</ele>
        <time>2019-08-26T07:53:53Z</time>
      </trkpt>
      <trkpt lat="45.04263" lon="5.54417">
        <ele>1081.38</ele>
        <time>2019-08-26T07:53:58Z</time>
      </trkpt>
      <trkpt lat="45.04261" lon="5.54407">
        <ele>1081.13</ele>
        <time>2019-08-26T07:53:59Z</time>
      </trkpt>
      <trkpt lat="45.04255" lon="5.54371">
        <ele>1080.08</ele>
        <time>2019-08-26T07:54:02Z</time>
      </trkpt>
      <trkpt lat="45.04252" lon="5.54358">
        <ele>1079.63</ele>
        <time>2019-08-26T07:54:03Z</time>
      </trkpt>
      <trkpt lat="45.04249" lon="5.54345">
        <ele>1079.14</ele>
        <time>2019-08-26T07:54:04Z</time>
      </trkpt>
      <trkpt lat="45.0422" lon="5.54257">
        <ele>1075.81</ele>
        <time>2019-08-26T07:54:11Z</time>
      </trkpt>
      <trkpt lat="45.04207" lon="5.54217">
        <ele>1074.69</ele>
        <time>2019-08-26T07:54:19Z</time>
      </trkpt>
      <trkpt lat="45.042" lon="5.54204">
        <ele>1075.03</ele>
        <time>2019-08-26T07:54:44Z</time>
      </trkpt>
      <trkpt lat="45.04184" lon="5.54189">
        <ele>1074.77</ele>
        <time>2019-08-26T07:54:52Z</time>
      </trkpt>
      <trkpt lat="45.0418" lon="5.54187">
        <ele>1074.67</ele>
        <time>2019-08-26T07:54:53Z</time>
      </trkpt>
      <trkpt lat="45.04176" lon="5.54185">
        <ele>1074.56</ele>
        <time>2019-08-26T07:54:54Z</time>
      </trkpt>
      <trkpt lat="45.04152" lon="5.54144">
        <ele>1074.4</ele>
        <time>2019-08-26T07:55:05Z</time>
      </trkpt>
      <trkpt lat="45.04152" lon="5.54112">
        <ele>1076.69</ele>
        <time>2019-08-26T07:55:16Z</time>
      </trkpt>
      <trkpt lat="45.04153" lon="5.54109">
        <ele>1076.93</ele>
        <time>2019-08-26T07:55:17Z</time>
      </trkpt>
      <trkpt lat="45.04154" lon="5.5407">
        <ele>1079.44</ele>
        <time>2019-08-26T07:55:29Z</time>
      </trkpt>
      <trkpt lat="45.04147" lon="5.54027">
        <ele>1080.05</ele>
        <time>2019-08-26T07:55:39Z</time>
      </trkpt>
      <trkpt lat="45.04133" lon="5.53986">
        <ele>1080.12</ele>
        <time>2019-08-26T07:55:49Z</time>
      </trkpt>
      <trkpt lat="45.04122" lon="5.53924">
        <ele>1080.02</ele>
        <time>2019-08-26T07:56:01Z</time>
      </trkpt>
      <trkpt lat="45.04119" lon="5.53904">
        <ele>1081.39</ele>
        <time>2019-08-26T07:56:08Z</time>
      </trkpt>
      <trkpt lat="45.04119" lon="5.53901">
        <ele>1081.61</ele>
        <time>2019-08-26T07:56:09Z</time>
      </trkpt>
      <trkpt lat="45.04118" lon="5.53899">
        <ele>1081.82</ele>
        <time>2019-08-26T07:56:10Z</time>
      </trkpt>
      <trkpt lat="45.04117" lon="5.53898">
        <ele>1082.03</ele>
        <time>2019-08-26T07:56:11Z</time>
      </trkpt>
      <trkpt lat="45.04116" lon="5.53895">
        <ele>1082.22</ele>
        <time>2019-08-26T07:56:12Z</time>
      </trkpt>
      <trkpt lat="45.04107" lon="5.53883">
        <ele>1082.94</ele>
        <time>2019-08-26T07:56:17Z</time>
      </trkpt>
      <trkpt lat="45.04079" lon="5.53864">
        <ele>1084.43</ele>
        <time>2019-08-26T07:56:27Z</time>
      </trkpt>
      <trkpt lat="45.04073" lon="5.53861">
        <ele>1084.74</ele>
        <time>2019-08-26T07:56:30Z</time>
      </trkpt>
      <trkpt lat="45.04071" lon="5.5386">
        <ele>1084.87</ele>
        <time>2019-08-26T07:56:31Z</time>
      </trkpt>
      <trkpt lat="45.04067" lon="5.53856">
        <ele>1085.15</ele>
        <time>2019-08-26T07:56:33Z</time>
      </trkpt>
      <trkpt lat="45.04065" lon="5.53855">
        <ele>1085.29</ele>
        <time>2019-08-26T07:56:34Z</time>
      </trkpt>
      <trkpt lat="45.04062" lon="5.53853">
        <ele>1085.45</ele>
        <time>2019-08-26T07:56:35Z</time>
      </trkpt>
      <trkpt lat="45.04059" lon="5.53851">
        <ele>1085.61</ele>
        <time>2019-08-26T07:56:36Z</time>
      </trkpt>
      <trkpt lat="45.04056" lon="5.53849">
        <ele>1085.74</ele>
        <time>2019-08-26T07:56:37Z</time>
      </trkpt>
      <trkpt lat="45.04053" lon="5.53847">
        <ele>1085.85</ele>
        <time>2019-08-26T07:56:38Z</time>
      </trkpt>
      <trkpt lat="45.04024" lon="5.53827">
        <ele>1087.1</ele>
        <time>2019-08-26T07:56:50Z</time>
      </trkpt>
      <trkpt lat="45.03996" lon="5.53803">
        <ele>1087.31</ele>
        <time>2019-08-26T07:57:00Z</time>
      </trkpt>
      <trkpt lat="45.03956" lon="5.53756">
        <ele>1086.83</ele>
        <time>2019-08-26T07:57:14Z</time>
      </trkpt>
      <trkpt lat="45.03939" lon="5.53741">
        <ele>1086.52</ele>
        <time>2019-08-26T07:57:18Z</time>
      </trkpt>
      <trkpt lat="45.03936" lon="5.53738">
        <ele>1086.35</ele>
        <time>2019-08-26T07:57:19Z</time>
      </trkpt>
      <trkpt lat="45.03928" lon="5.53731">
        <ele>1085.95</ele>
        <time>2019-08-26T07:57:21Z</time>
      </trkpt>
      <trkpt lat="45.03918" lon="5.53723">
        <ele>1085.52</ele>
        <time>2019-08-26T07:57:23Z</time>
      </trkpt>
      <trkpt lat="45.03907" lon="5.53714">
        <ele>1084.67</ele>
        <time>2019-08-26T07:57:26Z</time>
      </trkpt>
      <trkpt lat="45.03903" lon="5.53711">
        <ele>1084.36</ele>
        <time>2019-08-26T07:57:27Z</time>
      </trkpt>
      <trkpt lat="45.03899" lon="5.53708">
        <ele>1084.07</ele>
        <time>2019-08-26T07:57:28Z</time>
      </trkpt>
      <trkpt lat="45.03885" lon="5.53692">
        <ele>1083.16</ele>
        <time>2019-08-26T07:57:31Z</time>
      </trkpt>
      <trkpt lat="45.0385" lon="5.5365">
        <ele>1080.14</ele>
        <time>2019-08-26T07:57:37Z</time>
      </trkpt>
      <trkpt lat="45.03828" lon="5.5362">
        <ele>1079.58</ele>
        <time>2019-08-26T07:57:43Z</time>
      </trkpt>
      <trkpt lat="45.0379" lon="5.5358">
        <ele>1079.97</ele>
        <time>2019-08-26T07:57:55Z</time>
      </trkpt>
      <trkpt lat="45.03775" lon="5.53566">
        <ele>1079.63</ele>
        <time>2019-08-26T07:57:59Z</time>
      </trkpt>
      <trkpt lat="45.03772" lon="5.53563">
        <ele>1079.56</ele>
        <time>2019-08-26T07:58:00Z</time>
      </trkpt>
      <trkpt lat="45.03768" lon="5.5356">
        <ele>1079.48</ele>
        <time>2019-08-26T07:58:01Z</time>
      </trkpt>
      <trkpt lat="45.03746" lon="5.53544">
        <ele>1079.15</ele>
        <time>2019-08-26T07:58:07Z</time>
      </trkpt>
      <trkpt lat="45.03742" lon="5.53541">
        <ele>1079.11</ele>
        <time>2019-08-26T07:58:08Z</time>
      </trkpt>
      <trkpt lat="45.03705" lon="5.53503">
        <ele>1078.84</ele>
        <time>2019-08-26T07:58:20Z</time>
      </trkpt>
      <trkpt lat="45.03702" lon="5.53498">
        <ele>1078.76</ele>
        <time>2019-08-26T07:58:21Z</time>
      </trkpt>
      <trkpt lat="45.03677" lon="5.53462">
        <ele>1078.43</ele>
        <time>2019-08-26T07:58:29Z</time>
      </trkpt>
      <trkpt lat="45.03653" lon="5.5342">
        <ele>1077.65</ele>
        <time>2019-08-26T07:58:38Z</time>
      </trkpt>
      <trkpt lat="45.03627" lon="5.5339">
        <ele>1077.22</ele>
        <time>2019-08-26T07:58:48Z</time>
      </trkpt>
      <trkpt lat="45.03587" lon="5.53375">
        <ele>1077.52</ele>
        <time>2019-08-26T07:59:00Z</time>
      </trkpt>
      <trkpt lat="45.03541" lon="5.53364">
        <ele>1077.97</ele>
        <time>2019-08-26T07:59:12Z</time>
      </trkpt>
      <trkpt lat="45.03486" lon="5.5335">
        <ele>1078.73</ele>
        <time>2019-08-26T07:59:27Z</time>
      </trkpt>
      <trkpt lat="45.03478" lon="5.53346">
        <ele>1078.87</ele>
        <time>2019-08-26T07:59:29Z</time>
      </trkpt>
      <trkpt lat="45.03474" lon="5.53344">
        <ele>1078.93</ele>
        <time>2019-08-26T07:59:30Z</time>
      </trkpt>
      <trkpt lat="45.0346" lon="5.53334">
        <ele>1079.14</ele>
        <time>2019-08-26T07:59:34Z</time>
      </trkpt>
      <trkpt lat="45.03426" lon="5.53305">
        <ele>1079.94</ele>
        <time>2019-08-26T07:59:45Z</time>
      </trkpt>
      <trkpt lat="45.03391" lon="5.53267">
        <ele>1080.43</ele>
        <time>2019-08-26T07:59:57Z</time>
      </trkpt>
      <trkpt lat="45.03365" lon="5.53217">
        <ele>1080.92</ele>
        <time>2019-08-26T08:00:09Z</time>
      </trkpt>
      <trkpt lat="45.03347" lon="5.53161">
        <ele>1081.76</ele>
        <time>2019-08-26T08:00:22Z</time>
      </trkpt>
      <trkpt lat="45.03333" lon="5.53071">
        <ele>1082.64</ele>
        <time>2019-08-26T08:00:38Z</time>
      </trkpt>
      <trkpt lat="45.03331" lon="5.53046">
        <ele>1082.64</ele>
        <time>2019-08-26T08:00:42Z</time>
      </trkpt>
      <trkpt lat="45.0333" lon="5.53028">
        <ele>1082.57</ele>
        <time>2019-08-26T08:00:45Z</time>
      </trkpt>
      <trkpt lat="45.03332" lon="5.52933">
        <ele>1083.61</ele>
        <time>2019-08-26T08:01:02Z</time>
      </trkpt>
      <trkpt lat="45.0332" lon="5.5282">
        <ele>1085.77</ele>
        <time>2019-08-26T08:01:24Z</time>
      </trkpt>
      <trkpt lat="45.03314" lon="5.52779">
        <ele>1086.52</ele>
        <time>2019-08-26T08:01:37Z</time>
      </trkpt>
      <trkpt lat="45.03315" lon="5.52776">
        <ele>1086.62</ele>
        <time>2019-08-26T08:01:40Z</time>
      </trkpt>
      <trkpt lat="45.03317" lon="5.52773">
        <ele>1086.63</ele>
        <time>2019-08-26T08:01:42Z</time>
      </trkpt>
      <trkpt lat="45.03319" lon="5.52772">
        <ele>1086.63</ele>
        <time>2019-08-26T08:01:43Z</time>
      </trkpt>
      <trkpt lat="45.0332" lon="5.5277">
        <ele>1086.64</ele>
        <time>2019-08-26T08:01:44Z</time>
      </trkpt>
      <trkpt lat="45.03322" lon="5.52769">
        <ele>1086.64</ele>
        <time>2019-08-26T08:01:45Z</time>
      </trkpt>
      <trkpt lat="45.03325" lon="5.52767">
        <ele>1086.62</ele>
        <time>2019-08-26T08:01:46Z</time>
      </trkpt>
      <trkpt lat="45.03327" lon="5.52765">
        <ele>1086.6</ele>
        <time>2019-08-26T08:01:47Z</time>
      </trkpt>
      <trkpt lat="45.03363" lon="5.52736">
        <ele>1086.45</ele>
        <time>2019-08-26T08:02:01Z</time>
      </trkpt>
      <trkpt lat="45.03402" lon="5.52708">
        <ele>1086.4</ele>
        <time>2019-08-26T08:02:11Z</time>
      </trkpt>
      <trkpt lat="45.03467" lon="5.52666">
        <ele>1087.12</ele>
        <time>2019-08-26T08:02:29Z</time>
      </trkpt>
      <trkpt lat="45.03531" lon="5.52628">
        <ele>1088.2</ele>
        <time>2019-08-26T08:02:48Z</time>
      </trkpt>
      <trkpt lat="45.0358" lon="5.52579">
        <ele>1089.09</ele>
        <time>2019-08-26T08:03:05Z</time>
      </trkpt>
      <trkpt lat="45.03624" lon="5.52574">
        <ele>1089.85</ele>
        <time>2019-08-26T08:03:19Z</time>
      </trkpt>
      <trkpt lat="45.03679" lon="5.52613">
        <ele>1090.97</ele>
        <time>2019-08-26T08:03:37Z</time>
      </trkpt>
      <trkpt lat="45.03721" lon="5.52611">
        <ele>1092.03</ele>
        <time>2019-08-26T08:03:50Z</time>
      </trkpt>
      <trkpt lat="45.03765" lon="5.52611">
        <ele>1093.89</ele>
        <time>2019-08-26T08:04:07Z</time>
      </trkpt>
      <trkpt lat="45.038" lon="5.52612">
        <ele>1094.74</ele>
        <time>2019-08-26T08:04:23Z</time>
      </trkpt>
      <trkpt lat="45.03803" lon="5.52612">
        <ele>1095.23</ele>
        <time>2019-08-26T08:04:40Z</time>
      </trkpt>
      <trkpt lat="45.03803" lon="5.52614">
        <ele>1095.11</ele>
        <time>2019-08-26T08:05:09Z</time>
      </trkpt>
      <trkpt lat="45.03803" lon="5.52614">
        <ele>1095.38</ele>
        <time>2019-08-26T08:05:40Z</time>
      </trkpt>
      <trkpt lat="45.03803" lon="5.52615">
        <ele>1095.82</ele>
        <time>2019-08-26T08:06:54Z</time>
      </trkpt>
      <trkpt lat="45.03805" lon="5.52616">
        <ele>1096.37</ele>
        <time>2019-08-26T08:07:44Z</time>
      </trkpt>
      <trkpt lat="45.03805" lon="5.52615">
        <ele>1096.68</ele>
        <time>2019-08-26T08:08:42Z</time>
      </trkpt>
      <trkpt lat="45.03804" lon="5.52615">
        <ele>1097.43</ele>
        <time>2019-08-26T08:09:29Z</time>
      </trkpt>
      <trkpt lat="45.03803" lon="5.5261">
        <ele>1097.74</ele>
        <time>2019-08-26T08:09:51Z</time>
      </trkpt>
      <trkpt lat="45.03816" lon="5.52601">
        <ele>1097.85</ele>
        <time>2019-08-26T08:10:12Z</time>
      </trkpt>
      <trkpt lat="45.03851" lon="5.52573">
        <ele>1098.94</ele>
        <time>2019-08-26T08:10:30Z</time>
      </trkpt>
      <trkpt lat="45.0388" lon="5.52566">
        <ele>1100.6</ele>
        <time>2019-08-26T08:10:45Z</time>
      </trkpt>
      <trkpt lat="45.03914" lon="5.52561">
        <ele>1102.69</ele>
        <time>2019-08-26T08:11:01Z</time>
      </trkpt>
      <trkpt lat="45.03949" lon="5.52546">
        <ele>1104.8</ele>
        <time>2019-08-26T08:11:20Z</time>
      </trkpt>
      <trkpt lat="45.03975" lon="5.52529">
        <ele>1107.18</ele>
        <time>2019-08-26T08:11:36Z</time>
      </trkpt>
      <trkpt lat="45.04005" lon="5.52515">
        <ele>1110.25</ele>
        <time>2019-08-26T08:11:55Z</time>
      </trkpt>
      <trkpt lat="45.04037" lon="5.52509">
        <ele>1112.67</ele>
        <time>2019-08-26T08:12:15Z</time>
      </trkpt>
      <trkpt lat="45.04068" lon="5.52508">
        <ele>1115.12</ele>
        <time>2019-08-26T08:12:34Z</time>
      </trkpt>
      <trkpt lat="45.04091" lon="5.52505">
        <ele>1116.67</ele>
        <time>2019-08-26T08:12:48Z</time>
      </trkpt>
      <trkpt lat="45.04115" lon="5.52505">
        <ele>1118.45</ele>
        <time>2019-08-26T08:13:02Z</time>
      </trkpt>
      <trkpt lat="45.04137" lon="5.52501">
        <ele>1119.96</ele>
        <time>2019-08-26T08:13:15Z</time>
      </trkpt>
      <trkpt lat="45.04157" lon="5.52497">
        <ele>1120.78</ele>
        <time>2019-08-26T08:13:26Z</time>
      </trkpt>
      <trkpt lat="45.04188" lon="5.52492">
        <ele>1122.2</ele>
        <time>2019-08-26T08:13:41Z</time>
      </trkpt>
      <trkpt lat="45.04212" lon="5.52488">
        <ele>1123.09</ele>
        <time>2019-08-26T08:13:54Z</time>
      </trkpt>
      <trkpt lat="45.04247" lon="5.52488">
        <ele>1124.63</ele>
        <time>2019-08-26T08:14:09Z</time>
      </trkpt>
      <trkpt lat="45.04279" lon="5.52498">
        <ele>1126.27</ele>
        <time>2019-08-26T08:14:23Z</time>
      </trkpt>
      <trkpt lat="45.04315" lon="5.52508">
        <ele>1127.66</ele>
        <time>2019-08-26T08:14:40Z</time>
      </trkpt>
      <trkpt lat="45.04352" lon="5.52518">
        <ele>1129.49</ele>
        <time>2019-08-26T08:14:58Z</time>
      </trkpt>
      <trkpt lat="45.04354" lon="5.52519">
        <ele>1129.61</ele>
        <time>2019-08-26T08:14:59Z</time>
      </trkpt>
      <trkpt lat="45.04356" lon="5.5252">
        <ele>1129.73</ele>
        <time>2019-08-26T08:15:00Z</time>
      </trkpt>
      <trkpt lat="45.04386" lon="5.52528">
        <ele>1131.13</ele>
        <time>2019-08-26T08:15:14Z</time>
      </trkpt>
      <trkpt lat="45.0441" lon="5.52535">
        <ele>1132.7</ele>
        <time>2019-08-26T08:15:27Z</time>
      </trkpt>
      <trkpt lat="45.04441" lon="5.52545">
        <ele>1135.1</ele>
        <time>2019-08-26T08:15:45Z</time>
      </trkpt>
      <trkpt lat="45.04466" lon="5.52556">
        <ele>1136.74</ele>
        <time>2019-08-26T08:15:59Z</time>
      </trkpt>
      <trkpt lat="45.04491" lon="5.52566">
        <ele>1138.69</ele>
        <time>2019-08-26T08:16:13Z</time>
      </trkpt>
      <trkpt lat="45.0451" lon="5.52573">
        <ele>1139.72</ele>
        <time>2019-08-26T08:16:23Z</time>
      </trkpt>
      <trkpt lat="45.04512" lon="5.52574">
        <ele>1139.82</ele>
        <time>2019-08-26T08:16:24Z</time>
      </trkpt>
      <trkpt lat="45.04514" lon="5.52575">
        <ele>1139.92</ele>
        <time>2019-08-26T08:16:25Z</time>
      </trkpt>
      <trkpt lat="45.04515" lon="5.52576">
        <ele>1140.01</ele>
        <time>2019-08-26T08:16:26Z</time>
      </trkpt>
      <trkpt lat="45.04517" lon="5.52577">
        <ele>1140.2</ele>
        <time>2019-08-26T08:16:27Z</time>
      </trkpt>
      <trkpt lat="45.04531" lon="5.52581">
        <ele>1141.55</ele>
        <time>2019-08-26T08:16:38Z</time>
      </trkpt>
      <trkpt lat="45.0455" lon="5.52582">
        <ele>1142.92</ele>
        <time>2019-08-26T08:16:53Z</time>
      </trkpt>
      <trkpt lat="45.04574" lon="5.52588">
        <ele>1145</ele>
        <time>2019-08-26T08:17:09Z</time>
      </trkpt>
      <trkpt lat="45.04599" lon="5.52592">
        <ele>1147.9</ele>
        <time>2019-08-26T08:17:25Z</time>
      </trkpt>
      <trkpt lat="45.04624" lon="5.52596">
        <ele>1149.91</ele>
        <time>2019-08-26T08:17:42Z</time>
      </trkpt>
      <trkpt lat="45.04648" lon="5.52601">
        <ele>1152.55</ele>
        <time>2019-08-26T08:17:58Z</time>
      </trkpt>
      <trkpt lat="45.04675" lon="5.52607">
        <ele>1154.85</ele>
        <time>2019-08-26T08:18:15Z</time>
      </trkpt>
      <trkpt lat="45.04697" lon="5.52607">
        <ele>1156.82</ele>
        <time>2019-08-26T08:18:30Z</time>
      </trkpt>
      <trkpt lat="45.04702" lon="5.52606">
        <ele>1157.5</ele>
        <time>2019-08-26T08:18:34Z</time>
      </trkpt>
      <trkpt lat="45.04704" lon="5.52605">
        <ele>1157.66</ele>
        <time>2019-08-26T08:18:35Z</time>
      </trkpt>
      <trkpt lat="45.04705" lon="5.52606">
        <ele>1157.83</ele>
        <time>2019-08-26T08:18:36Z</time>
      </trkpt>
      <trkpt lat="45.04706" lon="5.52606">
        <ele>1157.98</ele>
        <time>2019-08-26T08:18:37Z</time>
      </trkpt>
      <trkpt lat="45.04707" lon="5.52606">
        <ele>1158.13</ele>
        <time>2019-08-26T08:18:38Z</time>
      </trkpt>
      <trkpt lat="45.04708" lon="5.52606">
        <ele>1158.25</ele>
        <time>2019-08-26T08:18:39Z</time>
      </trkpt>
      <trkpt lat="45.04709" lon="5.52606">
        <ele>1158.39</ele>
        <time>2019-08-26T08:18:40Z</time>
      </trkpt>
      <trkpt lat="45.04733" lon="5.52613">
        <ele>1160.5</ele>
        <time>2019-08-26T08:18:55Z</time>
      </trkpt>
      <trkpt lat="45.04751" lon="5.52617">
        <ele>1162.31</ele>
        <time>2019-08-26T08:19:09Z</time>
      </trkpt>
      <trkpt lat="45.04754" lon="5.52618">
        <ele>1162.56</ele>
        <time>2019-08-26T08:19:11Z</time>
      </trkpt>
      <trkpt lat="45.04755" lon="5.52619">
        <ele>1162.67</ele>
        <time>2019-08-26T08:19:12Z</time>
      </trkpt>
      <trkpt lat="45.04757" lon="5.52619">
        <ele>1162.79</ele>
        <time>2019-08-26T08:19:13Z</time>
      </trkpt>
      <trkpt lat="45.04776" lon="5.52625">
        <ele>1164.63</ele>
        <time>2019-08-26T08:19:26Z</time>
      </trkpt>
      <trkpt lat="45.04796" lon="5.52631">
        <ele>1166.07</ele>
        <time>2019-08-26T08:19:39Z</time>
      </trkpt>
      <trkpt lat="45.04814" lon="5.52638">
        <ele>1167.84</ele>
        <time>2019-08-26T08:19:52Z</time>
      </trkpt>
      <trkpt lat="45.04819" lon="5.5264">
        <ele>1168.14</ele>
        <time>2019-08-26T08:19:55Z</time>
      </trkpt>
      <trkpt lat="45.04841" lon="5.52657">
        <ele>1169.25</ele>
        <time>2019-08-26T08:20:08Z</time>
      </trkpt>
      <trkpt lat="45.04865" lon="5.52675">
        <ele>1170.87</ele>
        <time>2019-08-26T08:20:24Z</time>
      </trkpt>
      <trkpt lat="45.04893" lon="5.52682">
        <ele>1173.56</ele>
        <time>2019-08-26T08:20:42Z</time>
      </trkpt>
      <trkpt lat="45.04901" lon="5.52684">
        <ele>1174.47</ele>
        <time>2019-08-26T08:20:48Z</time>
      </trkpt>
      <trkpt lat="45.04903" lon="5.52685">
        <ele>1174.62</ele>
        <time>2019-08-26T08:20:49Z</time>
      </trkpt>
      <trkpt lat="45.04905" lon="5.52685">
        <ele>1174.78</ele>
        <time>2019-08-26T08:20:50Z</time>
      </trkpt>
      <trkpt lat="45.04906" lon="5.52686">
        <ele>1174.93</ele>
        <time>2019-08-26T08:20:51Z</time>
      </trkpt>
      <trkpt lat="45.04907" lon="5.52686">
        <ele>1175.07</ele>
        <time>2019-08-26T08:20:52Z</time>
      </trkpt>
      <trkpt lat="45.04924" lon="5.5269">
        <ele>1176.66</ele>
        <time>2019-08-26T08:21:02Z</time>
      </trkpt>
      <trkpt lat="45.04926" lon="5.5269">
        <ele>1176.8</ele>
        <time>2019-08-26T08:21:03Z</time>
      </trkpt>
      <trkpt lat="45.04928" lon="5.5269">
        <ele>1176.93</ele>
        <time>2019-08-26T08:21:04Z</time>
      </trkpt>
      <trkpt lat="45.04934" lon="5.5269">
        <ele>1177.46</ele>
        <time>2019-08-26T08:21:08Z</time>
      </trkpt>
      <trkpt lat="45.04935" lon="5.52689">
        <ele>1177.61</ele>
        <time>2019-08-26T08:21:09Z</time>
      </trkpt>
      <trkpt lat="45.04936" lon="5.52688">
        <ele>1177.78</ele>
        <time>2019-08-26T08:21:10Z</time>
      </trkpt>
      <trkpt lat="45.04938" lon="5.52688">
        <ele>1177.96</ele>
        <time>2019-08-26T08:21:11Z</time>
      </trkpt>
      <trkpt lat="45.0494" lon="5.52688">
        <ele>1178.13</ele>
        <time>2019-08-26T08:21:12Z</time>
      </trkpt>
      <trkpt lat="45.04942" lon="5.52688">
        <ele>1178.29</ele>
        <time>2019-08-26T08:21:13Z</time>
      </trkpt>
      <trkpt lat="45.04943" lon="5.52687">
        <ele>1178.44</ele>
        <time>2019-08-26T08:21:14Z</time>
      </trkpt>
      <trkpt lat="45.04964" lon="5.52679">
        <ele>1180.79</ele>
        <time>2019-08-26T08:21:29Z</time>
      </trkpt>
      <trkpt lat="45.04984" lon="5.52678">
        <ele>1182.34</ele>
        <time>2019-08-26T08:21:42Z</time>
      </trkpt>
      <trkpt lat="45.04994" lon="5.52677">
        <ele>1183.33</ele>
        <time>2019-08-26T08:21:48Z</time>
      </trkpt>
      <trkpt lat="45.04995" lon="5.52677">
        <ele>1183.51</ele>
        <time>2019-08-26T08:21:49Z</time>
      </trkpt>
      <trkpt lat="45.04997" lon="5.52677">
        <ele>1183.68</ele>
        <time>2019-08-26T08:21:50Z</time>
      </trkpt>
      <trkpt lat="45.05013" lon="5.52673">
        <ele>1185.92</ele>
        <time>2019-08-26T08:22:01Z</time>
      </trkpt>
      <trkpt lat="45.05032" lon="5.52667">
        <ele>1188.59</ele>
        <time>2019-08-26T08:22:16Z</time>
      </trkpt>
      <trkpt lat="45.0505" lon="5.52662">
        <ele>1190.38</ele>
        <time>2019-08-26T08:22:31Z</time>
      </trkpt>
      <trkpt lat="45.05071" lon="5.5266">
        <ele>1192.63</ele>
        <time>2019-08-26T08:22:47Z</time>
      </trkpt>
      <trkpt lat="45.05095" lon="5.52658">
        <ele>1194.72</ele>
        <time>2019-08-26T08:23:04Z</time>
      </trkpt>
      <trkpt lat="45.05115" lon="5.52657">
        <ele>1196.33</ele>
        <time>2019-08-26T08:23:19Z</time>
      </trkpt>
      <trkpt lat="45.05132" lon="5.52658">
        <ele>1198.92</ele>
        <time>2019-08-26T08:23:33Z</time>
      </trkpt>
      <trkpt lat="45.05142" lon="5.52657">
        <ele>1200.54</ele>
        <time>2019-08-26T08:23:42Z</time>
      </trkpt>
      <trkpt lat="45.05156" lon="5.52658">
        <ele>1202.68</ele>
        <time>2019-08-26T08:23:55Z</time>
      </trkpt>
      <trkpt lat="45.05163" lon="5.5266">
        <ele>1203.37</ele>
        <time>2019-08-26T08:24:00Z</time>
      </trkpt>
      <trkpt lat="45.05182" lon="5.52662">
        <ele>1206.52</ele>
        <time>2019-08-26T08:24:18Z</time>
      </trkpt>
      <trkpt lat="45.05202" lon="5.52668">
        <ele>1209.69</ele>
        <time>2019-08-26T08:24:32Z</time>
      </trkpt>
      <trkpt lat="45.05216" lon="5.52669">
        <ele>1211.14</ele>
        <time>2019-08-26T08:24:44Z</time>
      </trkpt>
      <trkpt lat="45.05239" lon="5.52668">
        <ele>1214.13</ele>
        <time>2019-08-26T08:25:03Z</time>
      </trkpt>
      <trkpt lat="45.05266" lon="5.52668">
        <ele>1215.91</ele>
        <time>2019-08-26T08:25:20Z</time>
      </trkpt>
      <trkpt lat="45.05293" lon="5.52655">
        <ele>1217.64</ele>
        <time>2019-08-26T08:25:37Z</time>
      </trkpt>
      <trkpt lat="45.05298" lon="5.52654">
        <ele>1218</ele>
        <time>2019-08-26T08:25:41Z</time>
      </trkpt>
      <trkpt lat="45.053" lon="5.52653">
        <ele>1218.06</ele>
        <time>2019-08-26T08:25:42Z</time>
      </trkpt>
      <trkpt lat="45.05308" lon="5.52649">
        <ele>1218.49</ele>
        <time>2019-08-26T08:25:47Z</time>
      </trkpt>
      <trkpt lat="45.05309" lon="5.52646">
        <ele>1218.56</ele>
        <time>2019-08-26T08:25:48Z</time>
      </trkpt>
      <trkpt lat="45.05311" lon="5.52644">
        <ele>1218.64</ele>
        <time>2019-08-26T08:25:49Z</time>
      </trkpt>
      <trkpt lat="45.05312" lon="5.52642">
        <ele>1218.68</ele>
        <time>2019-08-26T08:25:50Z</time>
      </trkpt>
      <trkpt lat="45.05314" lon="5.5264">
        <ele>1218.73</ele>
        <time>2019-08-26T08:25:51Z</time>
      </trkpt>
      <trkpt lat="45.05315" lon="5.52638">
        <ele>1218.79</ele>
        <time>2019-08-26T08:25:52Z</time>
      </trkpt>
      <trkpt lat="45.05317" lon="5.52636">
        <ele>1218.84</ele>
        <time>2019-08-26T08:25:53Z</time>
      </trkpt>
      <trkpt lat="45.05319" lon="5.52634">
        <ele>1218.88</ele>
        <time>2019-08-26T08:25:54Z</time>
      </trkpt>
      <trkpt lat="45.05321" lon="5.52631">
        <ele>1218.93</ele>
        <time>2019-08-26T08:25:55Z</time>
      </trkpt>
      <trkpt lat="45.05322" lon="5.52628">
        <ele>1218.97</ele>
        <time>2019-08-26T08:25:56Z</time>
      </trkpt>
      <trkpt lat="45.05323" lon="5.52625">
        <ele>1219.01</ele>
        <time>2019-08-26T08:25:57Z</time>
      </trkpt>
      <trkpt lat="45.05326" lon="5.52624">
        <ele>1219.07</ele>
        <time>2019-08-26T08:25:58Z</time>
      </trkpt>
      <trkpt lat="45.05327" lon="5.52622">
        <ele>1219.12</ele>
        <time>2019-08-26T08:25:59Z</time>
      </trkpt>
      <trkpt lat="45.05329" lon="5.5262">
        <ele>1219.15</ele>
        <time>2019-08-26T08:26:00Z</time>
      </trkpt>
      <trkpt lat="45.0533" lon="5.52618">
        <ele>1219.2</ele>
        <time>2019-08-26T08:26:01Z</time>
      </trkpt>
      <trkpt lat="45.05332" lon="5.52617">
        <ele>1219.24</ele>
        <time>2019-08-26T08:26:02Z</time>
      </trkpt>
      <trkpt lat="45.05333" lon="5.52616">
        <ele>1219.26</ele>
        <time>2019-08-26T08:26:03Z</time>
      </trkpt>
      <trkpt lat="45.05338" lon="5.52608">
        <ele>1219.45</ele>
        <time>2019-08-26T08:26:14Z</time>
      </trkpt>
      <trkpt lat="45.05342" lon="5.52604">
        <ele>1220.49</ele>
        <time>2019-08-26T08:26:39Z</time>
      </trkpt>
      <trkpt lat="45.05343" lon="5.52605">
        <ele>1220.37</ele>
        <time>2019-08-26T08:27:19Z</time>
      </trkpt>
      <trkpt lat="45.05337" lon="5.52602">
        <ele>1220.55</ele>
        <time>2019-08-26T08:28:07Z</time>
      </trkpt>
      <trkpt lat="45.0534" lon="5.52604">
        <ele>1220.74</ele>
        <time>2019-08-26T08:29:11Z</time>
      </trkpt>
      <trkpt lat="45.05341" lon="5.52605">
        <ele>1220.53</ele>
        <time>2019-08-26T08:30:39Z</time>
      </trkpt>
      <trkpt lat="45.05343" lon="5.52605">
        <ele>1220.94</ele>
        <time>2019-08-26T08:33:02Z</time>
      </trkpt>
      <trkpt lat="45.05344" lon="5.52606">
        <ele>1220.79</ele>
        <time>2019-08-26T08:34:27Z</time>
      </trkpt>
      <trkpt lat="45.05344" lon="5.52604">
        <ele>1220.9</ele>
        <time>2019-08-26T08:35:51Z</time>
      </trkpt>
      <trkpt lat="45.05343" lon="5.52597">
        <ele>1221.37</ele>
        <time>2019-08-26T08:36:10Z</time>
      </trkpt>
      <trkpt lat="45.05343" lon="5.52592">
        <ele>1221.58</ele>
        <time>2019-08-26T08:36:14Z</time>
      </trkpt>
      <trkpt lat="45.05342" lon="5.5259">
        <ele>1221.62</ele>
        <time>2019-08-26T08:36:15Z</time>
      </trkpt>
      <trkpt lat="45.05341" lon="5.52589">
        <ele>1221.65</ele>
        <time>2019-08-26T08:36:16Z</time>
      </trkpt>
      <trkpt lat="45.0534" lon="5.52588">
        <ele>1221.69</ele>
        <time>2019-08-26T08:36:17Z</time>
      </trkpt>
      <trkpt lat="45.05339" lon="5.52587">
        <ele>1221.72</ele>
        <time>2019-08-26T08:36:18Z</time>
      </trkpt>
      <trkpt lat="45.05338" lon="5.52586">
        <ele>1221.75</ele>
        <time>2019-08-26T08:36:19Z</time>
      </trkpt>
      <trkpt lat="45.05337" lon="5.52585">
        <ele>1221.79</ele>
        <time>2019-08-26T08:36:20Z</time>
      </trkpt>
      <trkpt lat="45.05323" lon="5.52572">
        <ele>1222.85</ele>
        <time>2019-08-26T08:36:31Z</time>
      </trkpt>
      <trkpt lat="45.05305" lon="5.52552">
        <ele>1224.32</ele>
        <time>2019-08-26T08:36:44Z</time>
      </trkpt>
      <trkpt lat="45.05278" lon="5.52521">
        <ele>1225.29</ele>
        <time>2019-08-26T08:37:01Z</time>
      </trkpt>
      <trkpt lat="45.05262" lon="5.52502">
        <ele>1225.81</ele>
        <time>2019-08-26T08:37:12Z</time>
      </trkpt>
      <trkpt lat="45.05244" lon="5.52478">
        <ele>1226.79</ele>
        <time>2019-08-26T08:37:25Z</time>
      </trkpt>
      <trkpt lat="45.05232" lon="5.52462">
        <ele>1227.89</ele>
        <time>2019-08-26T08:37:35Z</time>
      </trkpt>
      <trkpt lat="45.0523" lon="5.5246">
        <ele>1228.01</ele>
        <time>2019-08-26T08:37:36Z</time>
      </trkpt>
      <trkpt lat="45.05212" lon="5.52438">
        <ele>1229.47</ele>
        <time>2019-08-26T08:37:47Z</time>
      </trkpt>
      <trkpt lat="45.05189" lon="5.52423">
        <ele>1231.31</ele>
        <time>2019-08-26T08:37:59Z</time>
      </trkpt>
      <trkpt lat="45.05165" lon="5.52408">
        <ele>1233.1</ele>
        <time>2019-08-26T08:38:12Z</time>
      </trkpt>
      <trkpt lat="45.0513" lon="5.52393">
        <ele>1234.35</ele>
        <time>2019-08-26T08:38:29Z</time>
      </trkpt>
      <trkpt lat="45.05116" lon="5.52394">
        <ele>1234.76</ele>
        <time>2019-08-26T08:38:41Z</time>
      </trkpt>
      <trkpt lat="45.05112" lon="5.52392">
        <ele>1234.84</ele>
        <time>2019-08-26T08:38:55Z</time>
      </trkpt>
      <trkpt lat="45.0511" lon="5.52392">
        <ele>1234.82</ele>
        <time>2019-08-26T08:38:56Z</time>
      </trkpt>
      <trkpt lat="45.05109" lon="5.52392">
        <ele>1234.77</ele>
        <time>2019-08-26T08:38:57Z</time>
      </trkpt>
      <trkpt lat="45.05107" lon="5.52391">
        <ele>1234.7</ele>
        <time>2019-08-26T08:38:58Z</time>
      </trkpt>
      <trkpt lat="45.05105" lon="5.52391">
        <ele>1234.61</ele>
        <time>2019-08-26T08:38:59Z</time>
      </trkpt>
      <trkpt lat="45.05103" lon="5.5239">
        <ele>1234.53</ele>
        <time>2019-08-26T08:39:00Z</time>
      </trkpt>
      <trkpt lat="45.05097" lon="5.52388">
        <ele>1234.33</ele>
        <time>2019-08-26T08:39:03Z</time>
      </trkpt>
      <trkpt lat="45.05094" lon="5.52388">
        <ele>1234.29</ele>
        <time>2019-08-26T08:39:04Z</time>
      </trkpt>
      <trkpt lat="45.05092" lon="5.52388">
        <ele>1234.25</ele>
        <time>2019-08-26T08:39:05Z</time>
      </trkpt>
      <trkpt lat="45.05084" lon="5.52389">
        <ele>1233.95</ele>
        <time>2019-08-26T08:39:10Z</time>
      </trkpt>
      <trkpt lat="45.05081" lon="5.52389">
        <ele>1233.87</ele>
        <time>2019-08-26T08:39:11Z</time>
      </trkpt>
      <trkpt lat="45.05078" lon="5.5239">
        <ele>1233.76</ele>
        <time>2019-08-26T08:39:12Z</time>
      </trkpt>
      <trkpt lat="45.05048" lon="5.52389">
        <ele>1232.6</ele>
        <time>2019-08-26T08:39:21Z</time>
      </trkpt>
      <trkpt lat="45.05017" lon="5.52387">
        <ele>1231.65</ele>
        <time>2019-08-26T08:39:30Z</time>
      </trkpt>
      <trkpt lat="45.0499" lon="5.52367">
        <ele>1231.52</ele>
        <time>2019-08-26T08:39:39Z</time>
      </trkpt>
      <trkpt lat="45.04963" lon="5.52349">
        <ele>1232.59</ele>
        <time>2019-08-26T08:39:50Z</time>
      </trkpt>
      <trkpt lat="45.04933" lon="5.5232">
        <ele>1233.2</ele>
        <time>2019-08-26T08:40:01Z</time>
      </trkpt>
      <trkpt lat="45.04913" lon="5.52311">
        <ele>1232.82</ele>
        <time>2019-08-26T08:40:06Z</time>
      </trkpt>
      <trkpt lat="45.04894" lon="5.52306">
        <ele>1232.2</ele>
        <time>2019-08-26T08:40:11Z</time>
      </trkpt>
      <trkpt lat="45.04891" lon="5.52302">
        <ele>1232.16</ele>
        <time>2019-08-26T08:40:12Z</time>
      </trkpt>
      <trkpt lat="45.04874" lon="5.52262">
        <ele>1232.16</ele>
        <time>2019-08-26T08:40:22Z</time>
      </trkpt>
      <trkpt lat="45.04857" lon="5.5222">
        <ele>1233.96</ele>
        <time>2019-08-26T08:40:34Z</time>
      </trkpt>
      <trkpt lat="45.04844" lon="5.52184">
        <ele>1236.25</ele>
        <time>2019-08-26T08:40:46Z</time>
      </trkpt>
      <trkpt lat="45.04835" lon="5.52151">
        <ele>1236.49</ele>
        <time>2019-08-26T08:40:57Z</time>
      </trkpt>
      <trkpt lat="45.04839" lon="5.52135">
        <ele>1235.97</ele>
        <time>2019-08-26T08:41:14Z</time>
      </trkpt>
      <trkpt lat="45.04838" lon="5.52133">
        <ele>1235.96</ele>
        <time>2019-08-26T08:41:15Z</time>
      </trkpt>
      <trkpt lat="45.04834" lon="5.52125">
        <ele>1235.81</ele>
        <time>2019-08-26T08:41:19Z</time>
      </trkpt>
      <trkpt lat="45.04832" lon="5.52123">
        <ele>1235.74</ele>
        <time>2019-08-26T08:41:20Z</time>
      </trkpt>
      <trkpt lat="45.04814" lon="5.52113">
        <ele>1233.55</ele>
        <time>2019-08-26T08:41:30Z</time>
      </trkpt>
      <trkpt lat="45.04796" lon="5.52114">
        <ele>1231.24</ele>
        <time>2019-08-26T08:41:36Z</time>
      </trkpt>
      <trkpt lat="45.04776" lon="5.52121">
        <ele>1229.54</ele>
        <time>2019-08-26T08:41:42Z</time>
      </trkpt>
      <trkpt lat="45.04758" lon="5.52125">
        <ele>1228.76</ele>
        <time>2019-08-26T08:41:46Z</time>
      </trkpt>
      <trkpt lat="45.04724" lon="5.52139">
        <ele>1226.97</ele>
        <time>2019-08-26T08:41:54Z</time>
      </trkpt>
      <trkpt lat="45.04679" lon="5.5216">
        <ele>1223.62</ele>
        <time>2019-08-26T08:42:02Z</time>
      </trkpt>
      <trkpt lat="45.04665" lon="5.52171">
        <ele>1223.3</ele>
        <time>2019-08-26T08:42:09Z</time>
      </trkpt>
      <trkpt lat="45.04648" lon="5.52174">
        <ele>1224.05</ele>
        <time>2019-08-26T08:42:30Z</time>
      </trkpt>
      <trkpt lat="45.0464" lon="5.5219">
        <ele>1224.95</ele>
        <time>2019-08-26T08:42:48Z</time>
      </trkpt>
      <trkpt lat="45.04627" lon="5.52185">
        <ele>1227.05</ele>
        <time>2019-08-26T08:43:04Z</time>
      </trkpt>
      <trkpt lat="45.04609" lon="5.52183">
        <ele>1228.59</ele>
        <time>2019-08-26T08:43:20Z</time>
      </trkpt>
      <trkpt lat="45.04605" lon="5.52184">
        <ele>1228.71</ele>
        <time>2019-08-26T08:43:24Z</time>
      </trkpt>
      <trkpt lat="45.04593" lon="5.52194">
        <ele>1230.76</ele>
        <time>2019-08-26T08:43:38Z</time>
      </trkpt>
      <trkpt lat="45.04588" lon="5.52192">
        <ele>1232.03</ele>
        <time>2019-08-26T08:44:00Z</time>
      </trkpt>
      <trkpt lat="45.04586" lon="5.52188">
        <ele>1232.04</ele>
        <time>2019-08-26T08:44:10Z</time>
      </trkpt>
      <trkpt lat="45.04593" lon="5.5217">
        <ele>1232.51</ele>
        <time>2019-08-26T08:44:22Z</time>
      </trkpt>
      <trkpt lat="45.04597" lon="5.52144">
        <ele>1235.43</ele>
        <time>2019-08-26T08:44:38Z</time>
      </trkpt>
      <trkpt lat="45.04597" lon="5.52116">
        <ele>1234.42</ele>
        <time>2019-08-26T08:44:46Z</time>
      </trkpt>
      <trkpt lat="45.04597" lon="5.52113">
        <ele>1234.17</ele>
        <time>2019-08-26T08:45:12Z</time>
      </trkpt>
      <trkpt lat="45.04596" lon="5.52108">
        <ele>1234.01</ele>
        <time>2019-08-26T08:45:25Z</time>
      </trkpt>
      <trkpt lat="45.046" lon="5.521">
        <ele>1233.9</ele>
        <time>2019-08-26T08:45:28Z</time>
      </trkpt>
      <trkpt lat="45.04605" lon="5.52075">
        <ele>1233.01</ele>
        <time>2019-08-26T08:45:34Z</time>
      </trkpt>
      <trkpt lat="45.04607" lon="5.52048">
        <ele>1232.26</ele>
        <time>2019-08-26T08:45:39Z</time>
      </trkpt>
      <trkpt lat="45.04609" lon="5.52036">
        <ele>1232</ele>
        <time>2019-08-26T08:45:41Z</time>
      </trkpt>
      <trkpt lat="45.04612" lon="5.52015">
        <ele>1232.08</ele>
        <time>2019-08-26T08:45:47Z</time>
      </trkpt>
      <trkpt lat="45.04609" lon="5.51988">
        <ele>1233.71</ele>
        <time>2019-08-26T08:45:56Z</time>
      </trkpt>
      <trkpt lat="45.04607" lon="5.51977">
        <ele>1234.25</ele>
        <time>2019-08-26T08:46:00Z</time>
      </trkpt>
      <trkpt lat="45.04607" lon="5.51971">
        <ele>1234.93</ele>
        <time>2019-08-26T08:46:03Z</time>
      </trkpt>
      <trkpt lat="45.04603" lon="5.51941">
        <ele>1238.44</ele>
        <time>2019-08-26T08:46:15Z</time>
      </trkpt>
      <trkpt lat="45.04594" lon="5.5192">
        <ele>1240.02</ele>
        <time>2019-08-26T08:46:25Z</time>
      </trkpt>
      <trkpt lat="45.04586" lon="5.5189">
        <ele>1239.44</ele>
        <time>2019-08-26T08:46:35Z</time>
      </trkpt>
      <trkpt lat="45.04585" lon="5.51858">
        <ele>1237.99</ele>
        <time>2019-08-26T08:46:50Z</time>
      </trkpt>
      <trkpt lat="45.04585" lon="5.51855">
        <ele>1237.82</ele>
        <time>2019-08-26T08:46:51Z</time>
      </trkpt>
      <trkpt lat="45.04601" lon="5.5183">
        <ele>1234.49</ele>
        <time>2019-08-26T08:47:01Z</time>
      </trkpt>
      <trkpt lat="45.04613" lon="5.5181">
        <ele>1232.78</ele>
        <time>2019-08-26T08:47:05Z</time>
      </trkpt>
      <trkpt lat="45.04626" lon="5.51784">
        <ele>1231.06</ele>
        <time>2019-08-26T08:47:09Z</time>
      </trkpt>
      <trkpt lat="45.04634" lon="5.51758">
        <ele>1230.28</ele>
        <time>2019-08-26T08:47:15Z</time>
      </trkpt>
      <trkpt lat="45.0464" lon="5.51747">
        <ele>1229.76</ele>
        <time>2019-08-26T08:47:18Z</time>
      </trkpt>
      <trkpt lat="45.04656" lon="5.51725">
        <ele>1228.06</ele>
        <time>2019-08-26T08:47:22Z</time>
      </trkpt>
      <trkpt lat="45.04671" lon="5.51678">
        <ele>1225.86</ele>
        <time>2019-08-26T08:47:29Z</time>
      </trkpt>
      <trkpt lat="45.04673" lon="5.51669">
        <ele>1225.53</ele>
        <time>2019-08-26T08:47:33Z</time>
      </trkpt>
      <trkpt lat="45.04679" lon="5.5164">
        <ele>1228.43</ele>
        <time>2019-08-26T08:47:45Z</time>
      </trkpt>
      <trkpt lat="45.04686" lon="5.51616">
        <ele>1230.12</ele>
        <time>2019-08-26T08:47:55Z</time>
      </trkpt>
      <trkpt lat="45.04689" lon="5.51601">
        <ele>1231.73</ele>
        <time>2019-08-26T08:48:02Z</time>
      </trkpt>
      <trkpt lat="45.0469" lon="5.51589">
        <ele>1232.65</ele>
        <time>2019-08-26T08:48:08Z</time>
      </trkpt>
      <trkpt lat="45.04678" lon="5.51558">
        <ele>1234.18</ele>
        <time>2019-08-26T08:48:22Z</time>
      </trkpt>
      <trkpt lat="45.04666" lon="5.51537">
        <ele>1235.21</ele>
        <time>2019-08-26T08:48:32Z</time>
      </trkpt>
      <trkpt lat="45.04663" lon="5.51533">
        <ele>1235.5</ele>
        <time>2019-08-26T08:48:46Z</time>
      </trkpt>
      <trkpt lat="45.04659" lon="5.51522">
        <ele>1235.79</ele>
        <time>2019-08-26T08:49:14Z</time>
      </trkpt>
      <trkpt lat="45.04662" lon="5.51514">
        <ele>1235.87</ele>
        <time>2019-08-26T08:49:44Z</time>
      </trkpt>
      <trkpt lat="45.04669" lon="5.51527">
        <ele>1236.33</ele>
        <time>2019-08-26T08:50:17Z</time>
      </trkpt>
      <trkpt lat="45.04667" lon="5.51527">
        <ele>1236.46</ele>
        <time>2019-08-26T08:50:30Z</time>
      </trkpt>
      <trkpt lat="45.04659" lon="5.51512">
        <ele>1236.02</ele>
        <time>2019-08-26T08:50:35Z</time>
      </trkpt>
      <trkpt lat="45.04648" lon="5.51481">
        <ele>1235.11</ele>
        <time>2019-08-26T08:50:43Z</time>
      </trkpt>
      <trkpt lat="45.04653" lon="5.51456">
        <ele>1235.63</ele>
        <time>2019-08-26T08:50:53Z</time>
      </trkpt>
      <trkpt lat="45.04656" lon="5.51449">
        <ele>1235.97</ele>
        <time>2019-08-26T08:50:56Z</time>
      </trkpt>
      <trkpt lat="45.04661" lon="5.51431">
        <ele>1237.18</ele>
        <time>2019-08-26T08:51:05Z</time>
      </trkpt>
      <trkpt lat="45.04665" lon="5.51421">
        <ele>1238.04</ele>
        <time>2019-08-26T08:51:11Z</time>
      </trkpt>
      <trkpt lat="45.0467" lon="5.51407">
        <ele>1238.54</ele>
        <time>2019-08-26T08:51:15Z</time>
      </trkpt>
      <trkpt lat="45.04674" lon="5.51379">
        <ele>1238.28</ele>
        <time>2019-08-26T08:51:19Z</time>
      </trkpt>
      <trkpt lat="45.04673" lon="5.51352">
        <ele>1237.1</ele>
        <time>2019-08-26T08:51:23Z</time>
      </trkpt>
      <trkpt lat="45.04678" lon="5.5133">
        <ele>1236.14</ele>
        <time>2019-08-26T08:51:27Z</time>
      </trkpt>
      <trkpt lat="45.04676" lon="5.51317">
        <ele>1235.17</ele>
        <time>2019-08-26T08:51:37Z</time>
      </trkpt>
      <trkpt lat="45.04682" lon="5.51318">
        <ele>1235.27</ele>
        <time>2019-08-26T08:52:04Z</time>
      </trkpt>
      <trkpt lat="45.04685" lon="5.51316">
        <ele>1235.38</ele>
        <time>2019-08-26T08:52:34Z</time>
      </trkpt>
      <trkpt lat="45.04686" lon="5.51313">
        <ele>1235.21</ele>
        <time>2019-08-26T08:52:38Z</time>
      </trkpt>
      <trkpt lat="45.04689" lon="5.51303">
        <ele>1234.72</ele>
        <time>2019-08-26T08:52:43Z</time>
      </trkpt>
      <trkpt lat="45.04697" lon="5.51286">
        <ele>1233.11</ele>
        <time>2019-08-26T08:52:51Z</time>
      </trkpt>
      <trkpt lat="45.04702" lon="5.51276">
        <ele>1232.5</ele>
        <time>2019-08-26T08:52:53Z</time>
      </trkpt>
      <trkpt lat="45.04711" lon="5.51257">
        <ele>1230</ele>
        <time>2019-08-26T08:52:57Z</time>
      </trkpt>
      <trkpt lat="45.04712" lon="5.51244">
        <ele>1228.54</ele>
        <time>2019-08-26T08:53:09Z</time>
      </trkpt>
      <trkpt lat="45.04712" lon="5.51237">
        <ele>1228.49</ele>
        <time>2019-08-26T08:53:11Z</time>
      </trkpt>
      <trkpt lat="45.04712" lon="5.51215">
        <ele>1228.03</ele>
        <time>2019-08-26T08:53:16Z</time>
      </trkpt>
      <trkpt lat="45.04709" lon="5.51183">
        <ele>1224.34</ele>
        <time>2019-08-26T08:53:23Z</time>
      </trkpt>
      <trkpt lat="45.04705" lon="5.5117">
        <ele>1222.67</ele>
        <time>2019-08-26T08:53:26Z</time>
      </trkpt>
      <trkpt lat="45.04703" lon="5.51166">
        <ele>1222.18</ele>
        <time>2019-08-26T08:53:27Z</time>
      </trkpt>
      <trkpt lat="45.047" lon="5.51165">
        <ele>1221.72</ele>
        <time>2019-08-26T08:53:28Z</time>
      </trkpt>
      <trkpt lat="45.04693" lon="5.51165">
        <ele>1219.58</ele>
        <time>2019-08-26T08:53:38Z</time>
      </trkpt>
      <trkpt lat="45.04689" lon="5.5116">
        <ele>1219.69</ele>
        <time>2019-08-26T08:54:05Z</time>
      </trkpt>
      <trkpt lat="45.04688" lon="5.5116">
        <ele>1219.71</ele>
        <time>2019-08-26T08:54:06Z</time>
      </trkpt>
      <trkpt lat="45.04686" lon="5.5116">
        <ele>1219.74</ele>
        <time>2019-08-26T08:54:07Z</time>
      </trkpt>
      <trkpt lat="45.04685" lon="5.5116">
        <ele>1219.77</ele>
        <time>2019-08-26T08:54:08Z</time>
      </trkpt>
      <trkpt lat="45.04683" lon="5.51159">
        <ele>1219.91</ele>
        <time>2019-08-26T08:54:09Z</time>
      </trkpt>
      <trkpt lat="45.04682" lon="5.51159">
        <ele>1220.01</ele>
        <time>2019-08-26T08:54:10Z</time>
      </trkpt>
      <trkpt lat="45.0468" lon="5.51159">
        <ele>1220.1</ele>
        <time>2019-08-26T08:54:11Z</time>
      </trkpt>
      <trkpt lat="45.04678" lon="5.51159">
        <ele>1220.18</ele>
        <time>2019-08-26T08:54:12Z</time>
      </trkpt>
      <trkpt lat="45.04658" lon="5.51155">
        <ele>1220.74</ele>
        <time>2019-08-26T08:54:23Z</time>
      </trkpt>
      <trkpt lat="45.04639" lon="5.51137">
        <ele>1221.24</ele>
        <time>2019-08-26T08:54:33Z</time>
      </trkpt>
      <trkpt lat="45.04626" lon="5.51121">
        <ele>1221.69</ele>
        <time>2019-08-26T08:54:41Z</time>
      </trkpt>
      <trkpt lat="45.04602" lon="5.51094">
        <ele>1221.83</ele>
        <time>2019-08-26T08:54:53Z</time>
      </trkpt>
      <trkpt lat="45.04584" lon="5.51069">
        <ele>1222.47</ele>
        <time>2019-08-26T08:55:04Z</time>
      </trkpt>
      <trkpt lat="45.04566" lon="5.51062">
        <ele>1223.58</ele>
        <time>2019-08-26T08:55:13Z</time>
      </trkpt>
      <trkpt lat="45.04552" lon="5.51063">
        <ele>1224.97</ele>
        <time>2019-08-26T08:55:20Z</time>
      </trkpt>
      <trkpt lat="45.0455" lon="5.51063">
        <ele>1225.15</ele>
        <time>2019-08-26T08:55:21Z</time>
      </trkpt>
      <trkpt lat="45.04548" lon="5.51064">
        <ele>1225.32</ele>
        <time>2019-08-26T08:55:22Z</time>
      </trkpt>
      <trkpt lat="45.04546" lon="5.51064">
        <ele>1225.64</ele>
        <time>2019-08-26T08:55:23Z</time>
      </trkpt>
      <trkpt lat="45.04544" lon="5.51065">
        <ele>1225.8</ele>
        <time>2019-08-26T08:55:24Z</time>
      </trkpt>
      <trkpt lat="45.04542" lon="5.51065">
        <ele>1225.95</ele>
        <time>2019-08-26T08:55:25Z</time>
      </trkpt>
      <trkpt lat="45.0454" lon="5.51065">
        <ele>1226.12</ele>
        <time>2019-08-26T08:55:26Z</time>
      </trkpt>
      <trkpt lat="45.04538" lon="5.51066">
        <ele>1226.3</ele>
        <time>2019-08-26T08:55:27Z</time>
      </trkpt>
      <trkpt lat="45.04536" lon="5.51066">
        <ele>1226.49</ele>
        <time>2019-08-26T08:55:28Z</time>
      </trkpt>
      <trkpt lat="45.04534" lon="5.51065">
        <ele>1226.68</ele>
        <time>2019-08-26T08:55:29Z</time>
      </trkpt>
      <trkpt lat="45.04533" lon="5.51065">
        <ele>1226.88</ele>
        <time>2019-08-26T08:55:30Z</time>
      </trkpt>
      <trkpt lat="45.04531" lon="5.51065">
        <ele>1227.08</ele>
        <time>2019-08-26T08:55:31Z</time>
      </trkpt>
      <trkpt lat="45.0453" lon="5.51064">
        <ele>1227.29</ele>
        <time>2019-08-26T08:55:32Z</time>
      </trkpt>
      <trkpt lat="45.04528" lon="5.51064">
        <ele>1227.49</ele>
        <time>2019-08-26T08:55:33Z</time>
      </trkpt>
      <trkpt lat="45.04526" lon="5.51063">
        <ele>1227.69</ele>
        <time>2019-08-26T08:55:34Z</time>
      </trkpt>
      <trkpt lat="45.04524" lon="5.51063">
        <ele>1227.89</ele>
        <time>2019-08-26T08:55:35Z</time>
      </trkpt>
      <trkpt lat="45.04523" lon="5.51063">
        <ele>1228.07</ele>
        <time>2019-08-26T08:55:36Z</time>
      </trkpt>
      <trkpt lat="45.04521" lon="5.51063">
        <ele>1228.24</ele>
        <time>2019-08-26T08:55:37Z</time>
      </trkpt>
      <trkpt lat="45.04519" lon="5.51062">
        <ele>1228.39</ele>
        <time>2019-08-26T08:55:38Z</time>
      </trkpt>
      <trkpt lat="45.04518" lon="5.51062">
        <ele>1228.54</ele>
        <time>2019-08-26T08:55:39Z</time>
      </trkpt>
      <trkpt lat="45.04516" lon="5.51062">
        <ele>1228.73</ele>
        <time>2019-08-26T08:55:40Z</time>
      </trkpt>
      <trkpt lat="45.04511" lon="5.51062">
        <ele>1229.62</ele>
        <time>2019-08-26T08:55:44Z</time>
      </trkpt>
      <trkpt lat="45.0451" lon="5.51062">
        <ele>1229.87</ele>
        <time>2019-08-26T08:55:45Z</time>
      </trkpt>
      <trkpt lat="45.04508" lon="5.51062">
        <ele>1230.12</ele>
        <time>2019-08-26T08:55:46Z</time>
      </trkpt>
      <trkpt lat="45.04506" lon="5.51063">
        <ele>1230.3</ele>
        <time>2019-08-26T08:55:47Z</time>
      </trkpt>
      <trkpt lat="45.04504" lon="5.51064">
        <ele>1230.47</ele>
        <time>2019-08-26T08:55:48Z</time>
      </trkpt>
      <trkpt lat="45.04502" lon="5.51065">
        <ele>1230.81</ele>
        <time>2019-08-26T08:55:49Z</time>
      </trkpt>
      <trkpt lat="45.045" lon="5.51065">
        <ele>1231.03</ele>
        <time>2019-08-26T08:55:50Z</time>
      </trkpt>
      <trkpt lat="45.04499" lon="5.51066">
        <ele>1231.25</ele>
        <time>2019-08-26T08:55:51Z</time>
      </trkpt>
      <trkpt lat="45.04497" lon="5.51067">
        <ele>1231.45</ele>
        <time>2019-08-26T08:55:52Z</time>
      </trkpt>
      <trkpt lat="45.04486" lon="5.51074">
        <ele>1232.56</ele>
        <time>2019-08-26T08:55:59Z</time>
      </trkpt>
      <trkpt lat="45.04474" lon="5.51083">
        <ele>1233.85</ele>
        <time>2019-08-26T08:56:09Z</time>
      </trkpt>
      <trkpt lat="45.04473" lon="5.51084">
        <ele>1233.99</ele>
        <time>2019-08-26T08:56:10Z</time>
      </trkpt>
      <trkpt lat="45.04472" lon="5.51085">
        <ele>1234.35</ele>
        <time>2019-08-26T08:56:11Z</time>
      </trkpt>
      <trkpt lat="45.0447" lon="5.51085">
        <ele>1234.35</ele>
        <time>2019-08-26T08:56:12Z</time>
      </trkpt>
      <trkpt lat="45.04469" lon="5.51087">
        <ele>1234.87</ele>
        <time>2019-08-26T08:56:14Z</time>
      </trkpt>
      <trkpt lat="45.04467" lon="5.51088">
        <ele>1235.01</ele>
        <time>2019-08-26T08:56:15Z</time>
      </trkpt>
      <trkpt lat="45.04466" lon="5.51088">
        <ele>1235.15</ele>
        <time>2019-08-26T08:56:16Z</time>
      </trkpt>
      <trkpt lat="45.04464" lon="5.51089">
        <ele>1235.29</ele>
        <time>2019-08-26T08:56:17Z</time>
      </trkpt>
      <trkpt lat="45.04463" lon="5.51089">
        <ele>1235.45</ele>
        <time>2019-08-26T08:56:18Z</time>
      </trkpt>
      <trkpt lat="45.04461" lon="5.51089">
        <ele>1235.6</ele>
        <time>2019-08-26T08:56:19Z</time>
      </trkpt>
      <trkpt lat="45.04442" lon="5.51088">
        <ele>1237.05</ele>
        <time>2019-08-26T08:56:32Z</time>
      </trkpt>
      <trkpt lat="45.04426" lon="5.51085">
        <ele>1238.54</ele>
        <time>2019-08-26T08:56:44Z</time>
      </trkpt>
      <trkpt lat="45.04424" lon="5.51084">
        <ele>1238.71</ele>
        <time>2019-08-26T08:56:45Z</time>
      </trkpt>
      <trkpt lat="45.04403" lon="5.51086">
        <ele>1241.03</ele>
        <time>2019-08-26T08:56:59Z</time>
      </trkpt>
      <trkpt lat="45.04397" lon="5.51086">
        <ele>1241.77</ele>
        <time>2019-08-26T08:57:03Z</time>
      </trkpt>
      <trkpt lat="45.04395" lon="5.51086">
        <ele>1241.91</ele>
        <time>2019-08-26T08:57:04Z</time>
      </trkpt>
      <trkpt lat="45.04394" lon="5.51086">
        <ele>1242.05</ele>
        <time>2019-08-26T08:57:05Z</time>
      </trkpt>
      <trkpt lat="45.04393" lon="5.51085">
        <ele>1242.19</ele>
        <time>2019-08-26T08:57:06Z</time>
      </trkpt>
      <trkpt lat="45.0438" lon="5.51074">
        <ele>1243.37</ele>
        <time>2019-08-26T08:57:18Z</time>
      </trkpt>
      <trkpt lat="45.04378" lon="5.51074">
        <ele>1243.46</ele>
        <time>2019-08-26T08:57:19Z</time>
      </trkpt>
      <trkpt lat="45.04377" lon="5.51072">
        <ele>1243.53</ele>
        <time>2019-08-26T08:57:20Z</time>
      </trkpt>
      <trkpt lat="45.04362" lon="5.51061">
        <ele>1243.68</ele>
        <time>2019-08-26T08:57:29Z</time>
      </trkpt>
      <trkpt lat="45.0436" lon="5.5106">
        <ele>1243.7</ele>
        <time>2019-08-26T08:57:30Z</time>
      </trkpt>
      <trkpt lat="45.0433" lon="5.51052">
        <ele>1243.79</ele>
        <time>2019-08-26T08:57:43Z</time>
      </trkpt>
      <trkpt lat="45.04306" lon="5.51048">
        <ele>1243.82</ele>
        <time>2019-08-26T08:57:52Z</time>
      </trkpt>
      <trkpt lat="45.04271" lon="5.51039">
        <ele>1243.79</ele>
        <time>2019-08-26T08:58:05Z</time>
      </trkpt>
      <trkpt lat="45.04268" lon="5.51037">
        <ele>1243.81</ele>
        <time>2019-08-26T08:58:07Z</time>
      </trkpt>
      <trkpt lat="45.04266" lon="5.51035">
        <ele>1243.82</ele>
        <time>2019-08-26T08:58:08Z</time>
      </trkpt>
      <trkpt lat="45.04236" lon="5.51016">
        <ele>1243.91</ele>
        <time>2019-08-26T08:58:20Z</time>
      </trkpt>
      <trkpt lat="45.04223" lon="5.5101">
        <ele>1244.03</ele>
        <time>2019-08-26T08:58:26Z</time>
      </trkpt>
      <trkpt lat="45.04221" lon="5.51008">
        <ele>1244.04</ele>
        <time>2019-08-26T08:58:27Z</time>
      </trkpt>
      <trkpt lat="45.04218" lon="5.51007">
        <ele>1244.07</ele>
        <time>2019-08-26T08:58:28Z</time>
      </trkpt>
      <trkpt lat="45.04215" lon="5.51005">
        <ele>1244.11</ele>
        <time>2019-08-26T08:58:29Z</time>
      </trkpt>
      <trkpt lat="45.04213" lon="5.51003">
        <ele>1244.18</ele>
        <time>2019-08-26T08:58:30Z</time>
      </trkpt>
      <trkpt lat="45.04211" lon="5.51001">
        <ele>1244.24</ele>
        <time>2019-08-26T08:58:31Z</time>
      </trkpt>
      <trkpt lat="45.04209" lon="5.50999">
        <ele>1244.29</ele>
        <time>2019-08-26T08:58:32Z</time>
      </trkpt>
      <trkpt lat="45.04186" lon="5.50977">
        <ele>1244.35</ele>
        <time>2019-08-26T08:58:42Z</time>
      </trkpt>
      <trkpt lat="45.04156" lon="5.50956">
        <ele>1244.34</ele>
        <time>2019-08-26T08:58:54Z</time>
      </trkpt>
      <trkpt lat="45.04152" lon="5.50958">
        <ele>1243.95</ele>
        <time>2019-08-26T08:59:06Z</time>
      </trkpt>
      <trkpt lat="45.04151" lon="5.5096">
        <ele>1244.25</ele>
        <time>2019-08-26T08:59:24Z</time>
      </trkpt>
      <trkpt lat="45.04147" lon="5.5096">
        <ele>1244.29</ele>
        <time>2019-08-26T09:00:04Z</time>
      </trkpt>
      <trkpt lat="45.04147" lon="5.50961">
        <ele>1244.22</ele>
        <time>2019-08-26T09:00:25Z</time>
      </trkpt>
      <trkpt lat="45.04147" lon="5.50962">
        <ele>1244.45</ele>
        <time>2019-08-26T09:00:52Z</time>
      </trkpt>
      <trkpt lat="45.04145" lon="5.50962">
        <ele>1244.61</ele>
        <time>2019-08-26T09:01:15Z</time>
      </trkpt>
      <trkpt lat="45.04141" lon="5.50959">
        <ele>1244.53</ele>
        <time>2019-08-26T09:01:38Z</time>
      </trkpt>
      <trkpt lat="45.04135" lon="5.50955">
        <ele>1244.58</ele>
        <time>2019-08-26T09:01:51Z</time>
      </trkpt>
      <trkpt lat="45.04114" lon="5.5095">
        <ele>1244.51</ele>
        <time>2019-08-26T09:02:02Z</time>
      </trkpt>
      <trkpt lat="45.04088" lon="5.50936">
        <ele>1244.67</ele>
        <time>2019-08-26T09:02:13Z</time>
      </trkpt>
      <trkpt lat="45.04067" lon="5.5091">
        <ele>1244.63</ele>
        <time>2019-08-26T09:02:22Z</time>
      </trkpt>
      <trkpt lat="45.04049" lon="5.50891">
        <ele>1244.69</ele>
        <time>2019-08-26T09:02:33Z</time>
      </trkpt>
      <trkpt lat="45.04045" lon="5.50888">
        <ele>1244.72</ele>
        <time>2019-08-26T09:02:38Z</time>
      </trkpt>
      <trkpt lat="45.04023" lon="5.50869">
        <ele>1244.75</ele>
        <time>2019-08-26T09:02:48Z</time>
      </trkpt>
      <trkpt lat="45.04014" lon="5.50848">
        <ele>1244.68</ele>
        <time>2019-08-26T09:02:56Z</time>
      </trkpt>
      <trkpt lat="45.04013" lon="5.50845">
        <ele>1244.68</ele>
        <time>2019-08-26T09:02:57Z</time>
      </trkpt>
      <trkpt lat="45.04013" lon="5.5084">
        <ele>1244.69</ele>
        <time>2019-08-26T09:02:59Z</time>
      </trkpt>
      <trkpt lat="45.04013" lon="5.50837">
        <ele>1244.7</ele>
        <time>2019-08-26T09:03:00Z</time>
      </trkpt>
      <trkpt lat="45.04013" lon="5.50835">
        <ele>1244.71</ele>
        <time>2019-08-26T09:03:01Z</time>
      </trkpt>
      <trkpt lat="45.04012" lon="5.50831">
        <ele>1244.72</ele>
        <time>2019-08-26T09:03:02Z</time>
      </trkpt>
      <trkpt lat="45.04011" lon="5.50828">
        <ele>1244.74</ele>
        <time>2019-08-26T09:03:03Z</time>
      </trkpt>
      <trkpt lat="45.0401" lon="5.50825">
        <ele>1244.77</ele>
        <time>2019-08-26T09:03:04Z</time>
      </trkpt>
      <trkpt lat="45.04009" lon="5.50822">
        <ele>1244.83</ele>
        <time>2019-08-26T09:03:05Z</time>
      </trkpt>
      <trkpt lat="45.04005" lon="5.508">
        <ele>1245.32</ele>
        <time>2019-08-26T09:03:12Z</time>
      </trkpt>
      <trkpt lat="45.04004" lon="5.50796">
        <ele>1245.45</ele>
        <time>2019-08-26T09:03:13Z</time>
      </trkpt>
      <trkpt lat="45.04004" lon="5.50793">
        <ele>1245.69</ele>
        <time>2019-08-26T09:03:14Z</time>
      </trkpt>
      <trkpt lat="45.03998" lon="5.50762">
        <ele>1247.09</ele>
        <time>2019-08-26T09:03:26Z</time>
      </trkpt>
      <trkpt lat="45.03998" lon="5.5076">
        <ele>1247.26</ele>
        <time>2019-08-26T09:03:27Z</time>
      </trkpt>
      <trkpt lat="45.03997" lon="5.50758">
        <ele>1247.43</ele>
        <time>2019-08-26T09:03:28Z</time>
      </trkpt>
      <trkpt lat="45.03997" lon="5.50755">
        <ele>1247.62</ele>
        <time>2019-08-26T09:03:29Z</time>
      </trkpt>
      <trkpt lat="45.03996" lon="5.50752">
        <ele>1247.81</ele>
        <time>2019-08-26T09:03:30Z</time>
      </trkpt>
      <trkpt lat="45.03996" lon="5.50749">
        <ele>1247.98</ele>
        <time>2019-08-26T09:03:31Z</time>
      </trkpt>
      <trkpt lat="45.03995" lon="5.50746">
        <ele>1248.15</ele>
        <time>2019-08-26T09:03:32Z</time>
      </trkpt>
      <trkpt lat="45.03995" lon="5.50744">
        <ele>1248.3</ele>
        <time>2019-08-26T09:03:33Z</time>
      </trkpt>
      <trkpt lat="45.03994" lon="5.50741">
        <ele>1248.42</ele>
        <time>2019-08-26T09:03:34Z</time>
      </trkpt>
      <trkpt lat="45.0399" lon="5.50718">
        <ele>1249.65</ele>
        <time>2019-08-26T09:03:43Z</time>
      </trkpt>
      <trkpt lat="45.03983" lon="5.50684">
        <ele>1251.51</ele>
        <time>2019-08-26T09:03:56Z</time>
      </trkpt>
      <trkpt lat="45.03978" lon="5.50654">
        <ele>1253.18</ele>
        <time>2019-08-26T09:04:08Z</time>
      </trkpt>
      <trkpt lat="45.03977" lon="5.50652">
        <ele>1253.33</ele>
        <time>2019-08-26T09:04:09Z</time>
      </trkpt>
      <trkpt lat="45.03977" lon="5.50649">
        <ele>1253.46</ele>
        <time>2019-08-26T09:04:10Z</time>
      </trkpt>
      <trkpt lat="45.03977" lon="5.50644">
        <ele>1253.6</ele>
        <time>2019-08-26T09:04:11Z</time>
      </trkpt>
      <trkpt lat="45.03977" lon="5.50641">
        <ele>1253.74</ele>
        <time>2019-08-26T09:04:12Z</time>
      </trkpt>
      <trkpt lat="45.03976" lon="5.50639">
        <ele>1253.88</ele>
        <time>2019-08-26T09:04:13Z</time>
      </trkpt>
      <trkpt lat="45.03975" lon="5.50624">
        <ele>1254.49</ele>
        <time>2019-08-26T09:04:18Z</time>
      </trkpt>
      <trkpt lat="45.03974" lon="5.50623">
        <ele>1254.63</ele>
        <time>2019-08-26T09:04:19Z</time>
      </trkpt>
      <trkpt lat="45.0397" lon="5.50612">
        <ele>1255.42</ele>
        <time>2019-08-26T09:04:24Z</time>
      </trkpt>
      <trkpt lat="45.0397" lon="5.5061">
        <ele>1255.58</ele>
        <time>2019-08-26T09:04:25Z</time>
      </trkpt>
      <trkpt lat="45.03969" lon="5.50607">
        <ele>1255.73</ele>
        <time>2019-08-26T09:04:26Z</time>
      </trkpt>
      <trkpt lat="45.03969" lon="5.50604">
        <ele>1256</ele>
        <time>2019-08-26T09:04:27Z</time>
      </trkpt>
      <trkpt lat="45.03969" lon="5.50602">
        <ele>1256</ele>
        <time>2019-08-26T09:04:28Z</time>
      </trkpt>
      <trkpt lat="45.03968" lon="5.506">
        <ele>1256.32</ele>
        <time>2019-08-26T09:04:29Z</time>
      </trkpt>
      <trkpt lat="45.03968" lon="5.50598">
        <ele>1256.49</ele>
        <time>2019-08-26T09:04:30Z</time>
      </trkpt>
      <trkpt lat="45.03961" lon="5.50564">
        <ele>1258.34</ele>
        <time>2019-08-26T09:04:43Z</time>
      </trkpt>
      <trkpt lat="45.03954" lon="5.50549">
        <ele>1259.41</ele>
        <time>2019-08-26T09:04:50Z</time>
      </trkpt>
      <trkpt lat="45.03953" lon="5.50548">
        <ele>1259.72</ele>
        <time>2019-08-26T09:04:51Z</time>
      </trkpt>
      <trkpt lat="45.03942" lon="5.5053">
        <ele>1261.24</ele>
        <time>2019-08-26T09:05:02Z</time>
      </trkpt>
      <trkpt lat="45.03926" lon="5.505">
        <ele>1262.65</ele>
        <time>2019-08-26T09:05:14Z</time>
      </trkpt>
      <trkpt lat="45.03923" lon="5.5047">
        <ele>1264.54</ele>
        <time>2019-08-26T09:05:24Z</time>
      </trkpt>
      <trkpt lat="45.03924" lon="5.50469">
        <ele>1264.69</ele>
        <time>2019-08-26T09:05:25Z</time>
      </trkpt>
      <trkpt lat="45.03924" lon="5.50465">
        <ele>1264.83</ele>
        <time>2019-08-26T09:05:26Z</time>
      </trkpt>
      <trkpt lat="45.03925" lon="5.50461">
        <ele>1264.95</ele>
        <time>2019-08-26T09:05:27Z</time>
      </trkpt>
      <trkpt lat="45.03925" lon="5.50459">
        <ele>1265.09</ele>
        <time>2019-08-26T09:05:28Z</time>
      </trkpt>
      <trkpt lat="45.03926" lon="5.50457">
        <ele>1265.26</ele>
        <time>2019-08-26T09:05:29Z</time>
      </trkpt>
      <trkpt lat="45.03926" lon="5.50455">
        <ele>1265.41</ele>
        <time>2019-08-26T09:05:30Z</time>
      </trkpt>
      <trkpt lat="45.03927" lon="5.50453">
        <ele>1265.56</ele>
        <time>2019-08-26T09:05:31Z</time>
      </trkpt>
      <trkpt lat="45.03927" lon="5.50451">
        <ele>1265.74</ele>
        <time>2019-08-26T09:05:32Z</time>
      </trkpt>
      <trkpt lat="45.03928" lon="5.50448">
        <ele>1265.94</ele>
        <time>2019-08-26T09:05:33Z</time>
      </trkpt>
      <trkpt lat="45.03928" lon="5.50446">
        <ele>1266.13</ele>
        <time>2019-08-26T09:05:34Z</time>
      </trkpt>
      <trkpt lat="45.03928" lon="5.50444">
        <ele>1266.31</ele>
        <time>2019-08-26T09:05:35Z</time>
      </trkpt>
      <trkpt lat="45.03929" lon="5.50441">
        <ele>1266.47</ele>
        <time>2019-08-26T09:05:36Z</time>
      </trkpt>
      <trkpt lat="45.03929" lon="5.50437">
        <ele>1266.62</ele>
        <time>2019-08-26T09:05:37Z</time>
      </trkpt>
      <trkpt lat="45.03929" lon="5.50434">
        <ele>1266.77</ele>
        <time>2019-08-26T09:05:38Z</time>
      </trkpt>
      <trkpt lat="45.03931" lon="5.50417">
        <ele>1267.92</ele>
        <time>2019-08-26T09:05:44Z</time>
      </trkpt>
      <trkpt lat="45.03931" lon="5.50415">
        <ele>1268.1</ele>
        <time>2019-08-26T09:05:45Z</time>
      </trkpt>
      <trkpt lat="45.03932" lon="5.50413">
        <ele>1268.29</ele>
        <time>2019-08-26T09:05:46Z</time>
      </trkpt>
      <trkpt lat="45.03932" lon="5.5041">
        <ele>1268.47</ele>
        <time>2019-08-26T09:05:47Z</time>
      </trkpt>
      <trkpt lat="45.03932" lon="5.50409">
        <ele>1268.63</ele>
        <time>2019-08-26T09:05:48Z</time>
      </trkpt>
      <trkpt lat="45.03932" lon="5.50406">
        <ele>1268.79</ele>
        <time>2019-08-26T09:05:49Z</time>
      </trkpt>
      <trkpt lat="45.03932" lon="5.50403">
        <ele>1268.93</ele>
        <time>2019-08-26T09:05:50Z</time>
      </trkpt>
      <trkpt lat="45.03931" lon="5.50367">
        <ele>1271.05</ele>
        <time>2019-08-26T09:06:04Z</time>
      </trkpt>
      <trkpt lat="45.03931" lon="5.50365">
        <ele>1271.2</ele>
        <time>2019-08-26T09:06:05Z</time>
      </trkpt>
      <trkpt lat="45.03921" lon="5.50345">
        <ele>1273.07</ele>
        <time>2019-08-26T09:06:18Z</time>
      </trkpt>
      <trkpt lat="45.03917" lon="5.50334">
        <ele>1273.99</ele>
        <time>2019-08-26T09:06:31Z</time>
      </trkpt>
      <trkpt lat="45.03916" lon="5.50332">
        <ele>1274.05</ele>
        <time>2019-08-26T09:06:32Z</time>
      </trkpt>
      <trkpt lat="45.03912" lon="5.50328">
        <ele>1274.37</ele>
        <time>2019-08-26T09:06:35Z</time>
      </trkpt>
      <trkpt lat="45.03911" lon="5.50326">
        <ele>1274.53</ele>
        <time>2019-08-26T09:06:36Z</time>
      </trkpt>
      <trkpt lat="45.0391" lon="5.50325">
        <ele>1274.72</ele>
        <time>2019-08-26T09:06:37Z</time>
      </trkpt>
      <trkpt lat="45.03896" lon="5.50305">
        <ele>1276.56</ele>
        <time>2019-08-26T09:06:48Z</time>
      </trkpt>
      <trkpt lat="45.03891" lon="5.50296">
        <ele>1277.46</ele>
        <time>2019-08-26T09:07:05Z</time>
      </trkpt>
      <trkpt lat="45.03888" lon="5.50293">
        <ele>1277.81</ele>
        <time>2019-08-26T09:07:28Z</time>
      </trkpt>
      <trkpt lat="45.03878" lon="5.50276">
        <ele>1278.3</ele>
        <time>2019-08-26T09:07:42Z</time>
      </trkpt>
      <trkpt lat="45.03864" lon="5.50254">
        <ele>1279.89</ele>
        <time>2019-08-26T09:07:56Z</time>
      </trkpt>
      <trkpt lat="45.03853" lon="5.50224">
        <ele>1281.65</ele>
        <time>2019-08-26T09:08:08Z</time>
      </trkpt>
      <trkpt lat="45.03856" lon="5.50191">
        <ele>1283.33</ele>
        <time>2019-08-26T09:08:20Z</time>
      </trkpt>
      <trkpt lat="45.03869" lon="5.50161">
        <ele>1284.69</ele>
        <time>2019-08-26T09:08:33Z</time>
      </trkpt>
      <trkpt lat="45.03877" lon="5.50127">
        <ele>1286.5</ele>
        <time>2019-08-26T09:08:45Z</time>
      </trkpt>
      <trkpt lat="45.03878" lon="5.50125">
        <ele>1286.68</ele>
        <time>2019-08-26T09:08:46Z</time>
      </trkpt>
      <trkpt lat="45.03885" lon="5.50098">
        <ele>1288.27</ele>
        <time>2019-08-26T09:08:58Z</time>
      </trkpt>
      <trkpt lat="45.03887" lon="5.50091">
        <ele>1288.59</ele>
        <time>2019-08-26T09:09:01Z</time>
      </trkpt>
      <trkpt lat="45.03888" lon="5.50089">
        <ele>1288.63</ele>
        <time>2019-08-26T09:09:02Z</time>
      </trkpt>
      <trkpt lat="45.03898" lon="5.50075">
        <ele>1288.7</ele>
        <time>2019-08-26T09:09:08Z</time>
      </trkpt>
      <trkpt lat="45.039" lon="5.50073">
        <ele>1288.73</ele>
        <time>2019-08-26T09:09:09Z</time>
      </trkpt>
      <trkpt lat="45.03902" lon="5.5007">
        <ele>1288.75</ele>
        <time>2019-08-26T09:09:10Z</time>
      </trkpt>
      <trkpt lat="45.03929" lon="5.50056">
        <ele>1289.16</ele>
        <time>2019-08-26T09:09:21Z</time>
      </trkpt>
      <trkpt lat="45.03952" lon="5.5005">
        <ele>1289.22</ele>
        <time>2019-08-26T09:09:28Z</time>
      </trkpt>
      <trkpt lat="45.03955" lon="5.50049">
        <ele>1289.21</ele>
        <time>2019-08-26T09:09:29Z</time>
      </trkpt>
      <trkpt lat="45.03984" lon="5.50043">
        <ele>1289.09</ele>
        <time>2019-08-26T09:09:39Z</time>
      </trkpt>
      <trkpt lat="45.04014" lon="5.50048">
        <ele>1288.76</ele>
        <time>2019-08-26T09:09:49Z</time>
      </trkpt>
      <trkpt lat="45.04041" lon="5.50051">
        <ele>1288.41</ele>
        <time>2019-08-26T09:09:59Z</time>
      </trkpt>
      <trkpt lat="45.0407" lon="5.50057">
        <ele>1288.78</ele>
        <time>2019-08-26T09:10:10Z</time>
      </trkpt>
      <trkpt lat="45.04096" lon="5.50059">
        <ele>1288.85</ele>
        <time>2019-08-26T09:10:18Z</time>
      </trkpt>
      <trkpt lat="45.04133" lon="5.50058">
        <ele>1289.14</ele>
        <time>2019-08-26T09:10:29Z</time>
      </trkpt>
      <trkpt lat="45.04146" lon="5.50062">
        <ele>1289.52</ele>
        <time>2019-08-26T09:10:34Z</time>
      </trkpt>
      <trkpt lat="45.04148" lon="5.50062">
        <ele>1289.59</ele>
        <time>2019-08-26T09:10:35Z</time>
      </trkpt>
      <trkpt lat="45.0415" lon="5.50063">
        <ele>1289.65</ele>
        <time>2019-08-26T09:10:36Z</time>
      </trkpt>
      <trkpt lat="45.04152" lon="5.50063">
        <ele>1289.68</ele>
        <time>2019-08-26T09:10:37Z</time>
      </trkpt>
      <trkpt lat="45.04154" lon="5.50063">
        <ele>1289.74</ele>
        <time>2019-08-26T09:10:38Z</time>
      </trkpt>
      <trkpt lat="45.04157" lon="5.50063">
        <ele>1289.76</ele>
        <time>2019-08-26T09:10:39Z</time>
      </trkpt>
      <trkpt lat="45.0416" lon="5.50062">
        <ele>1289.77</ele>
        <time>2019-08-26T09:10:40Z</time>
      </trkpt>
      <trkpt lat="45.04162" lon="5.50061">
        <ele>1289.78</ele>
        <time>2019-08-26T09:10:41Z</time>
      </trkpt>
      <trkpt lat="45.04165" lon="5.5006">
        <ele>1289.78</ele>
        <time>2019-08-26T09:10:42Z</time>
      </trkpt>
      <trkpt lat="45.04168" lon="5.50059">
        <ele>1289.78</ele>
        <time>2019-08-26T09:10:43Z</time>
      </trkpt>
      <trkpt lat="45.0417" lon="5.50057">
        <ele>1289.79</ele>
        <time>2019-08-26T09:10:44Z</time>
      </trkpt>
      <trkpt lat="45.04173" lon="5.50055">
        <ele>1289.8</ele>
        <time>2019-08-26T09:10:45Z</time>
      </trkpt>
      <trkpt lat="45.04176" lon="5.50054">
        <ele>1289.8</ele>
        <time>2019-08-26T09:10:46Z</time>
      </trkpt>
      <trkpt lat="45.04179" lon="5.50052">
        <ele>1289.82</ele>
        <time>2019-08-26T09:10:47Z</time>
      </trkpt>
      <trkpt lat="45.04182" lon="5.5005">
        <ele>1289.85</ele>
        <time>2019-08-26T09:10:48Z</time>
      </trkpt>
      <trkpt lat="45.04205" lon="5.50035">
        <ele>1290.5</ele>
        <time>2019-08-26T09:10:58Z</time>
      </trkpt>
      <trkpt lat="45.04226" lon="5.50008">
        <ele>1291.43</ele>
        <time>2019-08-26T09:11:08Z</time>
      </trkpt>
      <trkpt lat="45.04245" lon="5.49982">
        <ele>1292.32</ele>
        <time>2019-08-26T09:11:17Z</time>
      </trkpt>
      <trkpt lat="45.04248" lon="5.49979">
        <ele>1292.43</ele>
        <time>2019-08-26T09:11:18Z</time>
      </trkpt>
      <trkpt lat="45.0425" lon="5.49974">
        <ele>1292.52</ele>
        <time>2019-08-26T09:11:19Z</time>
      </trkpt>
      <trkpt lat="45.0426" lon="5.49953">
        <ele>1293.05</ele>
        <time>2019-08-26T09:11:25Z</time>
      </trkpt>
      <trkpt lat="45.0426" lon="5.49948">
        <ele>1293.28</ele>
        <time>2019-08-26T09:11:27Z</time>
      </trkpt>
      <trkpt lat="45.04261" lon="5.49947">
        <ele>1293.35</ele>
        <time>2019-08-26T09:11:28Z</time>
      </trkpt>
      <trkpt lat="45.04264" lon="5.49938">
        <ele>1294.15</ele>
        <time>2019-08-26T09:11:37Z</time>
      </trkpt>
      <trkpt lat="45.04263" lon="5.49936">
        <ele>1294.23</ele>
        <time>2019-08-26T09:11:38Z</time>
      </trkpt>
      <trkpt lat="45.04261" lon="5.49923">
        <ele>1294.83</ele>
        <time>2019-08-26T09:11:49Z</time>
      </trkpt>
      <trkpt lat="45.04255" lon="5.49924">
        <ele>1295.48</ele>
        <time>2019-08-26T09:12:03Z</time>
      </trkpt>
      <trkpt lat="45.04258" lon="5.4993">
        <ele>1295.47</ele>
        <time>2019-08-26T09:12:24Z</time>
      </trkpt>
      <trkpt lat="45.04262" lon="5.49932">
        <ele>1295.28</ele>
        <time>2019-08-26T09:12:40Z</time>
      </trkpt>
      <trkpt lat="45.04263" lon="5.49933">
        <ele>1295.35</ele>
        <time>2019-08-26T09:13:02Z</time>
      </trkpt>
      <trkpt lat="45.04262" lon="5.49931">
        <ele>1295.13</ele>
        <time>2019-08-26T09:13:30Z</time>
      </trkpt>
      <trkpt lat="45.04261" lon="5.49931">
        <ele>1295.21</ele>
        <time>2019-08-26T09:13:57Z</time>
      </trkpt>
      <trkpt lat="45.04258" lon="5.49928">
        <ele>1295.76</ele>
        <time>2019-08-26T09:14:14Z</time>
      </trkpt>
      <trkpt lat="45.04259" lon="5.49926">
        <ele>1295.79</ele>
        <time>2019-08-26T09:14:39Z</time>
      </trkpt>
      <trkpt lat="45.04259" lon="5.49931">
        <ele>1295.91</ele>
        <time>2019-08-26T09:15:04Z</time>
      </trkpt>
      <trkpt lat="45.04255" lon="5.49929">
        <ele>1295.93</ele>
        <time>2019-08-26T09:15:26Z</time>
      </trkpt>
      <trkpt lat="45.04254" lon="5.49929">
        <ele>1295.94</ele>
        <time>2019-08-26T09:15:27Z</time>
      </trkpt>
      <trkpt lat="45.04253" lon="5.49928">
        <ele>1295.95</ele>
        <time>2019-08-26T09:15:28Z</time>
      </trkpt>
      <trkpt lat="45.04252" lon="5.49928">
        <ele>1295.97</ele>
        <time>2019-08-26T09:15:29Z</time>
      </trkpt>
      <trkpt lat="45.04251" lon="5.49928">
        <ele>1295.96</ele>
        <time>2019-08-26T09:15:30Z</time>
      </trkpt>
      <trkpt lat="45.04249" lon="5.49927">
        <ele>1295.95</ele>
        <time>2019-08-26T09:15:31Z</time>
      </trkpt>
      <trkpt lat="45.04248" lon="5.49927">
        <ele>1295.95</ele>
        <time>2019-08-26T09:15:32Z</time>
      </trkpt>
      <trkpt lat="45.04246" lon="5.49926">
        <ele>1295.97</ele>
        <time>2019-08-26T09:15:33Z</time>
      </trkpt>
      <trkpt lat="45.04238" lon="5.49921">
        <ele>1295.95</ele>
        <time>2019-08-26T09:15:38Z</time>
      </trkpt>
      <trkpt lat="45.04236" lon="5.49919">
        <ele>1295.92</ele>
        <time>2019-08-26T09:15:39Z</time>
      </trkpt>
      <trkpt lat="45.04222" lon="5.49909">
        <ele>1295.92</ele>
        <time>2019-08-26T09:15:45Z</time>
      </trkpt>
      <trkpt lat="45.0422" lon="5.49907">
        <ele>1295.93</ele>
        <time>2019-08-26T09:15:46Z</time>
      </trkpt>
      <trkpt lat="45.04217" lon="5.49906">
        <ele>1295.94</ele>
        <time>2019-08-26T09:15:47Z</time>
      </trkpt>
      <trkpt lat="45.04215" lon="5.49904">
        <ele>1295.94</ele>
        <time>2019-08-26T09:15:48Z</time>
      </trkpt>
      <trkpt lat="45.04212" lon="5.49903">
        <ele>1295.93</ele>
        <time>2019-08-26T09:15:49Z</time>
      </trkpt>
      <trkpt lat="45.04208" lon="5.49902">
        <ele>1295.9</ele>
        <time>2019-08-26T09:15:50Z</time>
      </trkpt>
      <trkpt lat="45.04205" lon="5.499">
        <ele>1295.89</ele>
        <time>2019-08-26T09:15:51Z</time>
      </trkpt>
      <trkpt lat="45.04202" lon="5.49899">
        <ele>1295.89</ele>
        <time>2019-08-26T09:15:52Z</time>
      </trkpt>
      <trkpt lat="45.042" lon="5.49897">
        <ele>1295.87</ele>
        <time>2019-08-26T09:15:53Z</time>
      </trkpt>
      <trkpt lat="45.04198" lon="5.49896">
        <ele>1295.86</ele>
        <time>2019-08-26T09:15:54Z</time>
      </trkpt>
      <trkpt lat="45.04196" lon="5.49896">
        <ele>1295.87</ele>
        <time>2019-08-26T09:15:55Z</time>
      </trkpt>
      <trkpt lat="45.04187" lon="5.49894">
        <ele>1295.85</ele>
        <time>2019-08-26T09:16:11Z</time>
      </trkpt>
      <trkpt lat="45.04177" lon="5.49887">
        <ele>1295.48</ele>
        <time>2019-08-26T09:16:42Z</time>
      </trkpt>
      <trkpt lat="45.04174" lon="5.49885">
        <ele>1295.49</ele>
        <time>2019-08-26T09:16:45Z</time>
      </trkpt>
      <trkpt lat="45.04172" lon="5.49884">
        <ele>1295.49</ele>
        <time>2019-08-26T09:16:46Z</time>
      </trkpt>
      <trkpt lat="45.04171" lon="5.49883">
        <ele>1295.47</ele>
        <time>2019-08-26T09:16:47Z</time>
      </trkpt>
      <trkpt lat="45.04169" lon="5.49882">
        <ele>1295.44</ele>
        <time>2019-08-26T09:16:48Z</time>
      </trkpt>
      <trkpt lat="45.04168" lon="5.49881">
        <ele>1295.39</ele>
        <time>2019-08-26T09:16:49Z</time>
      </trkpt>
      <trkpt lat="45.04146" lon="5.49865">
        <ele>1295.18</ele>
        <time>2019-08-26T09:17:00Z</time>
      </trkpt>
      <trkpt lat="45.04128" lon="5.49837">
        <ele>1294.95</ele>
        <time>2019-08-26T09:17:10Z</time>
      </trkpt>
      <trkpt lat="45.04103" lon="5.49813">
        <ele>1294.44</ele>
        <time>2019-08-26T09:17:21Z</time>
      </trkpt>
      <trkpt lat="45.04065" lon="5.4979">
        <ele>1293.95</ele>
        <time>2019-08-26T09:17:37Z</time>
      </trkpt>
      <trkpt lat="45.04055" lon="5.49788">
        <ele>1293.87</ele>
        <time>2019-08-26T09:17:40Z</time>
      </trkpt>
      <trkpt lat="45.04052" lon="5.49789">
        <ele>1293.85</ele>
        <time>2019-08-26T09:17:41Z</time>
      </trkpt>
      <trkpt lat="45.04049" lon="5.49789">
        <ele>1293.84</ele>
        <time>2019-08-26T09:17:42Z</time>
      </trkpt>
      <trkpt lat="45.04047" lon="5.4979">
        <ele>1293.84</ele>
        <time>2019-08-26T09:17:43Z</time>
      </trkpt>
      <trkpt lat="45.04045" lon="5.4979">
        <ele>1293.84</ele>
        <time>2019-08-26T09:17:44Z</time>
      </trkpt>
      <trkpt lat="45.04042" lon="5.4979">
        <ele>1293.86</ele>
        <time>2019-08-26T09:17:45Z</time>
      </trkpt>
      <trkpt lat="45.0404" lon="5.49791">
        <ele>1293.9</ele>
        <time>2019-08-26T09:17:46Z</time>
      </trkpt>
      <trkpt lat="45.04038" lon="5.49791">
        <ele>1293.95</ele>
        <time>2019-08-26T09:17:47Z</time>
      </trkpt>
      <trkpt lat="45.04035" lon="5.49792">
        <ele>1294.02</ele>
        <time>2019-08-26T09:17:48Z</time>
      </trkpt>
      <trkpt lat="45.04032" lon="5.49791">
        <ele>1294.1</ele>
        <time>2019-08-26T09:17:49Z</time>
      </trkpt>
      <trkpt lat="45.04029" lon="5.4979">
        <ele>1294.17</ele>
        <time>2019-08-26T09:17:50Z</time>
      </trkpt>
      <trkpt lat="45.04026" lon="5.4979">
        <ele>1294.24</ele>
        <time>2019-08-26T09:17:51Z</time>
      </trkpt>
      <trkpt lat="45.04023" lon="5.4979">
        <ele>1294.3</ele>
        <time>2019-08-26T09:17:52Z</time>
      </trkpt>
      <trkpt lat="45.0402" lon="5.49789">
        <ele>1294.35</ele>
        <time>2019-08-26T09:17:53Z</time>
      </trkpt>
      <trkpt lat="45.03992" lon="5.49786">
        <ele>1294.58</ele>
        <time>2019-08-26T09:18:03Z</time>
      </trkpt>
      <trkpt lat="45.03988" lon="5.49787">
        <ele>1294.54</ele>
        <time>2019-08-26T09:18:04Z</time>
      </trkpt>
      <trkpt lat="45.03985" lon="5.49788">
        <ele>1294.5</ele>
        <time>2019-08-26T09:18:05Z</time>
      </trkpt>
      <trkpt lat="45.03945" lon="5.49803">
        <ele>1294.26</ele>
        <time>2019-08-26T09:18:18Z</time>
      </trkpt>
      <trkpt lat="45.03914" lon="5.49806">
        <ele>1293.7</ele>
        <time>2019-08-26T09:18:28Z</time>
      </trkpt>
      <trkpt lat="45.03881" lon="5.49811">
        <ele>1293.33</ele>
        <time>2019-08-26T09:18:39Z</time>
      </trkpt>
      <trkpt lat="45.03849" lon="5.49813">
        <ele>1292.8</ele>
        <time>2019-08-26T09:18:50Z</time>
      </trkpt>
      <trkpt lat="45.03818" lon="5.49813">
        <ele>1292.2</ele>
        <time>2019-08-26T09:19:00Z</time>
      </trkpt>
      <trkpt lat="45.03784" lon="5.49817">
        <ele>1291.57</ele>
        <time>2019-08-26T09:19:10Z</time>
      </trkpt>
      <trkpt lat="45.03748" lon="5.49822">
        <ele>1291.02</ele>
        <time>2019-08-26T09:19:21Z</time>
      </trkpt>
      <trkpt lat="45.03716" lon="5.49828">
        <ele>1290.44</ele>
        <time>2019-08-26T09:19:31Z</time>
      </trkpt>
      <trkpt lat="45.03689" lon="5.49829">
        <ele>1290.63</ele>
        <time>2019-08-26T09:19:41Z</time>
      </trkpt>
      <trkpt lat="45.03659" lon="5.49828">
        <ele>1291.68</ele>
        <time>2019-08-26T09:19:52Z</time>
      </trkpt>
      <trkpt lat="45.03631" lon="5.49851">
        <ele>1292.76</ele>
        <time>2019-08-26T09:20:04Z</time>
      </trkpt>
      <trkpt lat="45.03622" lon="5.49863">
        <ele>1293.41</ele>
        <time>2019-08-26T09:20:09Z</time>
      </trkpt>
      <trkpt lat="45.03617" lon="5.49868">
        <ele>1293.92</ele>
        <time>2019-08-26T09:20:12Z</time>
      </trkpt>
      <trkpt lat="45.03616" lon="5.4987">
        <ele>1294.1</ele>
        <time>2019-08-26T09:20:13Z</time>
      </trkpt>
      <trkpt lat="45.03614" lon="5.49871">
        <ele>1294.25</ele>
        <time>2019-08-26T09:20:14Z</time>
      </trkpt>
      <trkpt lat="45.03611" lon="5.49873">
        <ele>1294.6</ele>
        <time>2019-08-26T09:20:16Z</time>
      </trkpt>
      <trkpt lat="45.0361" lon="5.49874">
        <ele>1294.69</ele>
        <time>2019-08-26T09:20:17Z</time>
      </trkpt>
      <trkpt lat="45.03593" lon="5.49886">
        <ele>1296.16</ele>
        <time>2019-08-26T09:20:31Z</time>
      </trkpt>
      <trkpt lat="45.03586" lon="5.49899">
        <ele>1299.01</ele>
        <time>2019-08-26T09:20:50Z</time>
      </trkpt>
      <trkpt lat="45.03584" lon="5.49903">
        <ele>1299.21</ele>
        <time>2019-08-26T09:20:53Z</time>
      </trkpt>
      <trkpt lat="45.03583" lon="5.49904">
        <ele>1299.27</ele>
        <time>2019-08-26T09:20:54Z</time>
      </trkpt>
      <trkpt lat="45.03571" lon="5.49915">
        <ele>1300.8</ele>
        <time>2019-08-26T09:21:07Z</time>
      </trkpt>
      <trkpt lat="45.03555" lon="5.49924">
        <ele>1301.63</ele>
        <time>2019-08-26T09:21:20Z</time>
      </trkpt>
      <trkpt lat="45.03546" lon="5.49933">
        <ele>1301.51</ele>
        <time>2019-08-26T09:21:27Z</time>
      </trkpt>
      <trkpt lat="45.03545" lon="5.49935">
        <ele>1301.53</ele>
        <time>2019-08-26T09:21:28Z</time>
      </trkpt>
      <trkpt lat="45.03543" lon="5.49937">
        <ele>1301.55</ele>
        <time>2019-08-26T09:21:29Z</time>
      </trkpt>
      <trkpt lat="45.03542" lon="5.49938">
        <ele>1301.58</ele>
        <time>2019-08-26T09:21:30Z</time>
      </trkpt>
      <trkpt lat="45.03541" lon="5.49939">
        <ele>1301.64</ele>
        <time>2019-08-26T09:21:31Z</time>
      </trkpt>
      <trkpt lat="45.03525" lon="5.49949">
        <ele>1303.36</ele>
        <time>2019-08-26T09:21:44Z</time>
      </trkpt>
      <trkpt lat="45.0351" lon="5.49961">
        <ele>1305.64</ele>
        <time>2019-08-26T09:21:57Z</time>
      </trkpt>
      <trkpt lat="45.03497" lon="5.49972">
        <ele>1308.22</ele>
        <time>2019-08-26T09:22:09Z</time>
      </trkpt>
      <trkpt lat="45.03496" lon="5.49977">
        <ele>1308.77</ele>
        <time>2019-08-26T09:22:20Z</time>
      </trkpt>
      <trkpt lat="45.03487" lon="5.49976">
        <ele>1308.5</ele>
        <time>2019-08-26T09:22:48Z</time>
      </trkpt>
      <trkpt lat="45.03484" lon="5.49973">
        <ele>1308.61</ele>
        <time>2019-08-26T09:23:11Z</time>
      </trkpt>
      <trkpt lat="45.03489" lon="5.49972">
        <ele>1308.29</ele>
        <time>2019-08-26T09:23:37Z</time>
      </trkpt>
      <trkpt lat="45.03495" lon="5.49976">
        <ele>1308.21</ele>
        <time>2019-08-26T09:23:55Z</time>
      </trkpt>
      <trkpt lat="45.03492" lon="5.49977">
        <ele>1307.93</ele>
        <time>2019-08-26T09:24:23Z</time>
      </trkpt>
      <trkpt lat="45.03493" lon="5.49974">
        <ele>1307.98</ele>
        <time>2019-08-26T09:24:47Z</time>
      </trkpt>
      <trkpt lat="45.03494" lon="5.49976">
        <ele>1307.74</ele>
        <time>2019-08-26T09:25:16Z</time>
      </trkpt>
      <trkpt lat="45.03491" lon="5.4998">
        <ele>1307.64</ele>
        <time>2019-08-26T09:25:46Z</time>
      </trkpt>
      <trkpt lat="45.03486" lon="5.49972">
        <ele>1306.82</ele>
        <time>2019-08-26T09:26:09Z</time>
      </trkpt>
      <trkpt lat="45.03487" lon="5.49971">
        <ele>1306.91</ele>
        <time>2019-08-26T09:26:39Z</time>
      </trkpt>
      <trkpt lat="45.03486" lon="5.49971">
        <ele>1306.68</ele>
        <time>2019-08-26T09:27:20Z</time>
      </trkpt>
      <trkpt lat="45.03492" lon="5.49971">
        <ele>1306.3</ele>
        <time>2019-08-26T09:27:49Z</time>
      </trkpt>
      <trkpt lat="45.03491" lon="5.49973">
        <ele>1306.18</ele>
        <time>2019-08-26T09:28:29Z</time>
      </trkpt>
      <trkpt lat="45.03491" lon="5.49973">
        <ele>1305.84</ele>
        <time>2019-08-26T09:29:08Z</time>
      </trkpt>
      <trkpt lat="45.03491" lon="5.4997">
        <ele>1305.62</ele>
        <time>2019-08-26T09:29:47Z</time>
      </trkpt>
      <trkpt lat="45.03489" lon="5.49971">
        <ele>1305.42</ele>
        <time>2019-08-26T09:30:24Z</time>
      </trkpt>
      <trkpt lat="45.03488" lon="5.49966">
        <ele>1305.57</ele>
        <time>2019-08-26T09:30:33Z</time>
      </trkpt>
      <trkpt lat="45.03487" lon="5.49963">
        <ele>1305.55</ele>
        <time>2019-08-26T09:30:34Z</time>
      </trkpt>
      <trkpt lat="45.03487" lon="5.4996">
        <ele>1305.54</ele>
        <time>2019-08-26T09:30:35Z</time>
      </trkpt>
      <trkpt lat="45.03486" lon="5.49957">
        <ele>1305.52</ele>
        <time>2019-08-26T09:30:36Z</time>
      </trkpt>
      <trkpt lat="45.03484" lon="5.49953">
        <ele>1305.49</ele>
        <time>2019-08-26T09:30:37Z</time>
      </trkpt>
      <trkpt lat="45.0348" lon="5.49938">
        <ele>1305.32</ele>
        <time>2019-08-26T09:30:40Z</time>
      </trkpt>
      <trkpt lat="45.03476" lon="5.49926">
        <ele>1305.1</ele>
        <time>2019-08-26T09:30:42Z</time>
      </trkpt>
      <trkpt lat="45.03474" lon="5.4992">
        <ele>1304.94</ele>
        <time>2019-08-26T09:30:43Z</time>
      </trkpt>
      <trkpt lat="45.03449" lon="5.49869">
        <ele>1302.91</ele>
        <time>2019-08-26T09:30:51Z</time>
      </trkpt>
      <trkpt lat="45.03427" lon="5.49834">
        <ele>1302.16</ele>
        <time>2019-08-26T09:31:01Z</time>
      </trkpt>
      <trkpt lat="45.03422" lon="5.49824">
        <ele>1302.3</ele>
        <time>2019-08-26T09:31:05Z</time>
      </trkpt>
      <trkpt lat="45.03421" lon="5.49821">
        <ele>1302.35</ele>
        <time>2019-08-26T09:31:06Z</time>
      </trkpt>
      <trkpt lat="45.0342" lon="5.49818">
        <ele>1302.41</ele>
        <time>2019-08-26T09:31:07Z</time>
      </trkpt>
      <trkpt lat="45.03419" lon="5.49816">
        <ele>1302.49</ele>
        <time>2019-08-26T09:31:08Z</time>
      </trkpt>
      <trkpt lat="45.03419" lon="5.49814">
        <ele>1302.62</ele>
        <time>2019-08-26T09:31:09Z</time>
      </trkpt>
      <trkpt lat="45.03419" lon="5.49811">
        <ele>1302.75</ele>
        <time>2019-08-26T09:31:10Z</time>
      </trkpt>
      <trkpt lat="45.03418" lon="5.49809">
        <ele>1302.9</ele>
        <time>2019-08-26T09:31:11Z</time>
      </trkpt>
      <trkpt lat="45.03418" lon="5.49807">
        <ele>1303.04</ele>
        <time>2019-08-26T09:31:12Z</time>
      </trkpt>
      <trkpt lat="45.03417" lon="5.49805">
        <ele>1303.22</ele>
        <time>2019-08-26T09:31:13Z</time>
      </trkpt>
      <trkpt lat="45.03417" lon="5.49803">
        <ele>1303.45</ele>
        <time>2019-08-26T09:31:14Z</time>
      </trkpt>
      <trkpt lat="45.03416" lon="5.498">
        <ele>1303.87</ele>
        <time>2019-08-26T09:31:15Z</time>
      </trkpt>
      <trkpt lat="45.03415" lon="5.49798">
        <ele>1304.03</ele>
        <time>2019-08-26T09:31:16Z</time>
      </trkpt>
      <trkpt lat="45.03412" lon="5.49775">
        <ele>1305.29</ele>
        <time>2019-08-26T09:31:25Z</time>
      </trkpt>
      <trkpt lat="45.03414" lon="5.49754">
        <ele>1305.96</ele>
        <time>2019-08-26T09:31:31Z</time>
      </trkpt>
      <trkpt lat="45.03414" lon="5.4975">
        <ele>1305.98</ele>
        <time>2019-08-26T09:31:32Z</time>
      </trkpt>
      <trkpt lat="45.03413" lon="5.49746">
        <ele>1306.02</ele>
        <time>2019-08-26T09:31:33Z</time>
      </trkpt>
      <trkpt lat="45.03414" lon="5.49743">
        <ele>1306.06</ele>
        <time>2019-08-26T09:31:34Z</time>
      </trkpt>
      <trkpt lat="45.03414" lon="5.49739">
        <ele>1306.09</ele>
        <time>2019-08-26T09:31:35Z</time>
      </trkpt>
      <trkpt lat="45.03415" lon="5.49736">
        <ele>1306.1</ele>
        <time>2019-08-26T09:31:36Z</time>
      </trkpt>
      <trkpt lat="45.03415" lon="5.49734">
        <ele>1306.11</ele>
        <time>2019-08-26T09:31:37Z</time>
      </trkpt>
      <trkpt lat="45.03421" lon="5.49712">
        <ele>1307.33</ele>
        <time>2019-08-26T09:31:48Z</time>
      </trkpt>
      <trkpt lat="45.03428" lon="5.49685">
        <ele>1309.05</ele>
        <time>2019-08-26T09:32:02Z</time>
      </trkpt>
      <trkpt lat="45.03424" lon="5.49672">
        <ele>1310.38</ele>
        <time>2019-08-26T09:32:10Z</time>
      </trkpt>
      <trkpt lat="45.03423" lon="5.4967">
        <ele>1310.53</ele>
        <time>2019-08-26T09:32:11Z</time>
      </trkpt>
      <trkpt lat="45.03422" lon="5.49669">
        <ele>1310.71</ele>
        <time>2019-08-26T09:32:12Z</time>
      </trkpt>
      <trkpt lat="45.0341" lon="5.49658">
        <ele>1312.62</ele>
        <time>2019-08-26T09:32:25Z</time>
      </trkpt>
      <trkpt lat="45.03404" lon="5.49648">
        <ele>1313.99</ele>
        <time>2019-08-26T09:32:34Z</time>
      </trkpt>
      <trkpt lat="45.03403" lon="5.49647">
        <ele>1314.16</ele>
        <time>2019-08-26T09:32:35Z</time>
      </trkpt>
      <trkpt lat="45.03386" lon="5.49638">
        <ele>1315.63</ele>
        <time>2019-08-26T09:32:47Z</time>
      </trkpt>
      <trkpt lat="45.03366" lon="5.4964">
        <ele>1317.58</ele>
        <time>2019-08-26T09:33:01Z</time>
      </trkpt>
      <trkpt lat="45.03354" lon="5.49644">
        <ele>1318.1</ele>
        <time>2019-08-26T09:33:09Z</time>
      </trkpt>
      <trkpt lat="45.03352" lon="5.49645">
        <ele>1318.13</ele>
        <time>2019-08-26T09:33:10Z</time>
      </trkpt>
      <trkpt lat="45.0335" lon="5.49646">
        <ele>1318.19</ele>
        <time>2019-08-26T09:33:11Z</time>
      </trkpt>
      <trkpt lat="45.03349" lon="5.49647">
        <ele>1318.24</ele>
        <time>2019-08-26T09:33:12Z</time>
      </trkpt>
      <trkpt lat="45.03347" lon="5.49647">
        <ele>1318.31</ele>
        <time>2019-08-26T09:33:13Z</time>
      </trkpt>
      <trkpt lat="45.03333" lon="5.49654">
        <ele>1319.4</ele>
        <time>2019-08-26T09:33:22Z</time>
      </trkpt>
      <trkpt lat="45.03331" lon="5.49654">
        <ele>1319.68</ele>
        <time>2019-08-26T09:33:23Z</time>
      </trkpt>
      <trkpt lat="45.03329" lon="5.49654">
        <ele>1319.84</ele>
        <time>2019-08-26T09:33:24Z</time>
      </trkpt>
      <trkpt lat="45.03328" lon="5.49655">
        <ele>1320.02</ele>
        <time>2019-08-26T09:33:25Z</time>
      </trkpt>
      <trkpt lat="45.03326" lon="5.49655">
        <ele>1320.19</ele>
        <time>2019-08-26T09:33:26Z</time>
      </trkpt>
      <trkpt lat="45.03324" lon="5.49654">
        <ele>1320.33</ele>
        <time>2019-08-26T09:33:27Z</time>
      </trkpt>
      <trkpt lat="45.03322" lon="5.49654">
        <ele>1320.46</ele>
        <time>2019-08-26T09:33:28Z</time>
      </trkpt>
      <trkpt lat="45.0332" lon="5.49654">
        <ele>1320.57</ele>
        <time>2019-08-26T09:33:29Z</time>
      </trkpt>
      <trkpt lat="45.03318" lon="5.49654">
        <ele>1320.65</ele>
        <time>2019-08-26T09:33:30Z</time>
      </trkpt>
      <trkpt lat="45.03313" lon="5.49652">
        <ele>1320.78</ele>
        <time>2019-08-26T09:33:32Z</time>
      </trkpt>
      <trkpt lat="45.033" lon="5.49646">
        <ele>1320.89</ele>
        <time>2019-08-26T09:33:38Z</time>
      </trkpt>
      <trkpt lat="45.03298" lon="5.49645">
        <ele>1320.87</ele>
        <time>2019-08-26T09:33:39Z</time>
      </trkpt>
      <trkpt lat="45.03297" lon="5.49643">
        <ele>1320.85</ele>
        <time>2019-08-26T09:33:40Z</time>
      </trkpt>
      <trkpt lat="45.03295" lon="5.49642">
        <ele>1320.83</ele>
        <time>2019-08-26T09:33:41Z</time>
      </trkpt>
      <trkpt lat="45.03294" lon="5.4964">
        <ele>1320.81</ele>
        <time>2019-08-26T09:33:42Z</time>
      </trkpt>
      <trkpt lat="45.03292" lon="5.49639">
        <ele>1320.8</ele>
        <time>2019-08-26T09:33:43Z</time>
      </trkpt>
      <trkpt lat="45.0329" lon="5.49637">
        <ele>1320.79</ele>
        <time>2019-08-26T09:33:44Z</time>
      </trkpt>
      <trkpt lat="45.03288" lon="5.49636">
        <ele>1320.78</ele>
        <time>2019-08-26T09:33:45Z</time>
      </trkpt>
      <trkpt lat="45.03275" lon="5.49631">
        <ele>1320.53</ele>
        <time>2019-08-26T09:33:50Z</time>
      </trkpt>
      <trkpt lat="45.03274" lon="5.49631">
        <ele>1320.47</ele>
        <time>2019-08-26T09:33:51Z</time>
      </trkpt>
      <trkpt lat="45.03272" lon="5.4963">
        <ele>1320.44</ele>
        <time>2019-08-26T09:33:52Z</time>
      </trkpt>
      <trkpt lat="45.03271" lon="5.49629">
        <ele>1320.41</ele>
        <time>2019-08-26T09:33:53Z</time>
      </trkpt>
      <trkpt lat="45.03269" lon="5.49629">
        <ele>1320.4</ele>
        <time>2019-08-26T09:33:54Z</time>
      </trkpt>
      <trkpt lat="45.03267" lon="5.49628">
        <ele>1320.41</ele>
        <time>2019-08-26T09:33:55Z</time>
      </trkpt>
      <trkpt lat="45.03265" lon="5.49627">
        <ele>1320.44</ele>
        <time>2019-08-26T09:33:56Z</time>
      </trkpt>
      <trkpt lat="45.03264" lon="5.49626">
        <ele>1320.47</ele>
        <time>2019-08-26T09:33:57Z</time>
      </trkpt>
      <trkpt lat="45.03246" lon="5.49615">
        <ele>1322.01</ele>
        <time>2019-08-26T09:34:08Z</time>
      </trkpt>
      <trkpt lat="45.03235" lon="5.49613">
        <ele>1323</ele>
        <time>2019-08-26T09:34:13Z</time>
      </trkpt>
      <trkpt lat="45.03233" lon="5.49613">
        <ele>1323.13</ele>
        <time>2019-08-26T09:34:14Z</time>
      </trkpt>
      <trkpt lat="45.03231" lon="5.49613">
        <ele>1323.25</ele>
        <time>2019-08-26T09:34:15Z</time>
      </trkpt>
      <trkpt lat="45.03229" lon="5.49613">
        <ele>1323.33</ele>
        <time>2019-08-26T09:34:16Z</time>
      </trkpt>
      <trkpt lat="45.03227" lon="5.49613">
        <ele>1323.39</ele>
        <time>2019-08-26T09:34:17Z</time>
      </trkpt>
      <trkpt lat="45.03197" lon="5.49602">
        <ele>1323.59</ele>
        <time>2019-08-26T09:34:29Z</time>
      </trkpt>
      <trkpt lat="45.03194" lon="5.49599">
        <ele>1323.68</ele>
        <time>2019-08-26T09:34:31Z</time>
      </trkpt>
      <trkpt lat="45.03191" lon="5.49598">
        <ele>1323.75</ele>
        <time>2019-08-26T09:34:32Z</time>
      </trkpt>
      <trkpt lat="45.03189" lon="5.49596">
        <ele>1323.84</ele>
        <time>2019-08-26T09:34:33Z</time>
      </trkpt>
      <trkpt lat="45.03187" lon="5.49594">
        <ele>1323.98</ele>
        <time>2019-08-26T09:34:34Z</time>
      </trkpt>
      <trkpt lat="45.03185" lon="5.49593">
        <ele>1324.18</ele>
        <time>2019-08-26T09:34:35Z</time>
      </trkpt>
      <trkpt lat="45.03176" lon="5.49584">
        <ele>1325.33</ele>
        <time>2019-08-26T09:34:40Z</time>
      </trkpt>
      <trkpt lat="45.03175" lon="5.49583">
        <ele>1325.49</ele>
        <time>2019-08-26T09:34:41Z</time>
      </trkpt>
      <trkpt lat="45.03174" lon="5.49582">
        <ele>1325.65</ele>
        <time>2019-08-26T09:34:42Z</time>
      </trkpt>
      <trkpt lat="45.03172" lon="5.49581">
        <ele>1325.87</ele>
        <time>2019-08-26T09:34:43Z</time>
      </trkpt>
      <trkpt lat="45.0317" lon="5.49579">
        <ele>1326.08</ele>
        <time>2019-08-26T09:34:44Z</time>
      </trkpt>
      <trkpt lat="45.03169" lon="5.49578">
        <ele>1326.26</ele>
        <time>2019-08-26T09:34:45Z</time>
      </trkpt>
      <trkpt lat="45.03151" lon="5.49556">
        <ele>1327.31</ele>
        <time>2019-08-26T09:34:57Z</time>
      </trkpt>
      <trkpt lat="45.0315" lon="5.49555">
        <ele>1327.36</ele>
        <time>2019-08-26T09:34:58Z</time>
      </trkpt>
      <trkpt lat="45.03149" lon="5.49553">
        <ele>1327.4</ele>
        <time>2019-08-26T09:34:59Z</time>
      </trkpt>
      <trkpt lat="45.03147" lon="5.49551">
        <ele>1327.43</ele>
        <time>2019-08-26T09:35:00Z</time>
      </trkpt>
      <trkpt lat="45.03145" lon="5.49548">
        <ele>1327.44</ele>
        <time>2019-08-26T09:35:01Z</time>
      </trkpt>
      <trkpt lat="45.03143" lon="5.49546">
        <ele>1327.46</ele>
        <time>2019-08-26T09:35:02Z</time>
      </trkpt>
      <trkpt lat="45.03141" lon="5.49544">
        <ele>1327.52</ele>
        <time>2019-08-26T09:35:03Z</time>
      </trkpt>
      <trkpt lat="45.03138" lon="5.49543">
        <ele>1327.6</ele>
        <time>2019-08-26T09:35:04Z</time>
      </trkpt>
      <trkpt lat="45.03137" lon="5.49542">
        <ele>1327.76</ele>
        <time>2019-08-26T09:35:05Z</time>
      </trkpt>
      <trkpt lat="45.03135" lon="5.49541">
        <ele>1327.96</ele>
        <time>2019-08-26T09:35:06Z</time>
      </trkpt>
      <trkpt lat="45.03129" lon="5.4954">
        <ele>1328.56</ele>
        <time>2019-08-26T09:35:09Z</time>
      </trkpt>
      <trkpt lat="45.03127" lon="5.4954">
        <ele>1328.78</ele>
        <time>2019-08-26T09:35:10Z</time>
      </trkpt>
      <trkpt lat="45.03125" lon="5.4954">
        <ele>1328.98</ele>
        <time>2019-08-26T09:35:11Z</time>
      </trkpt>
      <trkpt lat="45.03124" lon="5.4954">
        <ele>1329.18</ele>
        <time>2019-08-26T09:35:12Z</time>
      </trkpt>
      <trkpt lat="45.03122" lon="5.4954">
        <ele>1329.37</ele>
        <time>2019-08-26T09:35:13Z</time>
      </trkpt>
      <trkpt lat="45.0312" lon="5.4954">
        <ele>1329.54</ele>
        <time>2019-08-26T09:35:14Z</time>
      </trkpt>
      <trkpt lat="45.03119" lon="5.4954">
        <ele>1329.71</ele>
        <time>2019-08-26T09:35:15Z</time>
      </trkpt>
      <trkpt lat="45.03107" lon="5.49543">
        <ele>1330.67</ele>
        <time>2019-08-26T09:35:23Z</time>
      </trkpt>
      <trkpt lat="45.03099" lon="5.49546">
        <ele>1330.93</ele>
        <time>2019-08-26T09:35:26Z</time>
      </trkpt>
      <trkpt lat="45.03094" lon="5.49547">
        <ele>1330.91</ele>
        <time>2019-08-26T09:35:27Z</time>
      </trkpt>
      <trkpt lat="45.03083" lon="5.4955">
        <ele>1330.64</ele>
        <time>2019-08-26T09:35:29Z</time>
      </trkpt>
      <trkpt lat="45.03077" lon="5.49551">
        <ele>1330.43</ele>
        <time>2019-08-26T09:35:30Z</time>
      </trkpt>
      <trkpt lat="45.03072" lon="5.49553">
        <ele>1330.19</ele>
        <time>2019-08-26T09:35:31Z</time>
      </trkpt>
      <trkpt lat="45.03066" lon="5.49556">
        <ele>1329.95</ele>
        <time>2019-08-26T09:35:32Z</time>
      </trkpt>
      <trkpt lat="45.0306" lon="5.49557">
        <ele>1329.73</ele>
        <time>2019-08-26T09:35:33Z</time>
      </trkpt>
      <trkpt lat="45.03054" lon="5.49559">
        <ele>1329.53</ele>
        <time>2019-08-26T09:35:34Z</time>
      </trkpt>
      <trkpt lat="45.03049" lon="5.4956">
        <ele>1329.32</ele>
        <time>2019-08-26T09:35:35Z</time>
      </trkpt>
      <trkpt lat="45.03043" lon="5.49562">
        <ele>1329.13</ele>
        <time>2019-08-26T09:35:36Z</time>
      </trkpt>
      <trkpt lat="45.03038" lon="5.49564">
        <ele>1328.97</ele>
        <time>2019-08-26T09:35:37Z</time>
      </trkpt>
      <trkpt lat="45.03005" lon="5.4957">
        <ele>1326.67</ele>
        <time>2019-08-26T09:35:46Z</time>
      </trkpt>
      <trkpt lat="45.03" lon="5.49567">
        <ele>1326.35</ele>
        <time>2019-08-26T09:35:47Z</time>
      </trkpt>
      <trkpt lat="45.02995" lon="5.49564">
        <ele>1326.02</ele>
        <time>2019-08-26T09:35:48Z</time>
      </trkpt>
      <trkpt lat="45.02989" lon="5.49562">
        <ele>1325.65</ele>
        <time>2019-08-26T09:35:49Z</time>
      </trkpt>
      <trkpt lat="45.02983" lon="5.49559">
        <ele>1325.27</ele>
        <time>2019-08-26T09:35:50Z</time>
      </trkpt>
      <trkpt lat="45.02976" lon="5.49555">
        <ele>1324.59</ele>
        <time>2019-08-26T09:35:51Z</time>
      </trkpt>
      <trkpt lat="45.0297" lon="5.49554">
        <ele>1324.25</ele>
        <time>2019-08-26T09:35:52Z</time>
      </trkpt>
      <trkpt lat="45.02963" lon="5.49553">
        <ele>1323.89</ele>
        <time>2019-08-26T09:35:53Z</time>
      </trkpt>
      <trkpt lat="45.02957" lon="5.49553">
        <ele>1323.55</ele>
        <time>2019-08-26T09:35:54Z</time>
      </trkpt>
      <trkpt lat="45.02952" lon="5.49553">
        <ele>1323.26</ele>
        <time>2019-08-26T09:35:55Z</time>
      </trkpt>
      <trkpt lat="45.02948" lon="5.49552">
        <ele>1323.03</ele>
        <time>2019-08-26T09:35:56Z</time>
      </trkpt>
      <trkpt lat="45.02944" lon="5.49551">
        <ele>1322.84</ele>
        <time>2019-08-26T09:35:57Z</time>
      </trkpt>
      <trkpt lat="45.02937" lon="5.4955">
        <ele>1322.78</ele>
        <time>2019-08-26T09:36:05Z</time>
      </trkpt>
      <trkpt lat="45.02927" lon="5.49554">
        <ele>1322.73</ele>
        <time>2019-08-26T09:36:17Z</time>
      </trkpt>
      <trkpt lat="45.02924" lon="5.49553">
        <ele>1322.73</ele>
        <time>2019-08-26T09:36:18Z</time>
      </trkpt>
      <trkpt lat="45.02922" lon="5.49553">
        <ele>1322.73</ele>
        <time>2019-08-26T09:36:19Z</time>
      </trkpt>
      <trkpt lat="45.02919" lon="5.49553">
        <ele>1322.7</ele>
        <time>2019-08-26T09:36:20Z</time>
      </trkpt>
      <trkpt lat="45.02916" lon="5.49554">
        <ele>1322.67</ele>
        <time>2019-08-26T09:36:21Z</time>
      </trkpt>
      <trkpt lat="45.02912" lon="5.49555">
        <ele>1322.6</ele>
        <time>2019-08-26T09:36:22Z</time>
      </trkpt>
      <trkpt lat="45.02885" lon="5.49567">
        <ele>1321.58</ele>
        <time>2019-08-26T09:36:30Z</time>
      </trkpt>
      <trkpt lat="45.02881" lon="5.4957">
        <ele>1321.48</ele>
        <time>2019-08-26T09:36:31Z</time>
      </trkpt>
      <trkpt lat="45.02878" lon="5.49573">
        <ele>1321.39</ele>
        <time>2019-08-26T09:36:32Z</time>
      </trkpt>
      <trkpt lat="45.02855" lon="5.49601">
        <ele>1321.56</ele>
        <time>2019-08-26T09:36:40Z</time>
      </trkpt>
      <trkpt lat="45.02826" lon="5.49639">
        <ele>1321.64</ele>
        <time>2019-08-26T09:36:51Z</time>
      </trkpt>
      <trkpt lat="45.02822" lon="5.49641">
        <ele>1321.56</ele>
        <time>2019-08-26T09:36:52Z</time>
      </trkpt>
      <trkpt lat="45.02799" lon="5.49651">
        <ele>1320.92</ele>
        <time>2019-08-26T09:36:56Z</time>
      </trkpt>
      <trkpt lat="45.02793" lon="5.49651">
        <ele>1320.59</ele>
        <time>2019-08-26T09:36:57Z</time>
      </trkpt>
      <trkpt lat="45.02781" lon="5.49651">
        <ele>1319.88</ele>
        <time>2019-08-26T09:36:59Z</time>
      </trkpt>
      <trkpt lat="45.02737" lon="5.4965">
        <ele>1318.23</ele>
        <time>2019-08-26T09:37:08Z</time>
      </trkpt>
      <trkpt lat="45.02705" lon="5.49665">
        <ele>1319.45</ele>
        <time>2019-08-26T09:37:19Z</time>
      </trkpt>
      <trkpt lat="45.02674" lon="5.49685">
        <ele>1320.65</ele>
        <time>2019-08-26T09:37:30Z</time>
      </trkpt>
      <trkpt lat="45.0265" lon="5.49704">
        <ele>1321.91</ele>
        <time>2019-08-26T09:37:41Z</time>
      </trkpt>
      <trkpt lat="45.02618" lon="5.49717">
        <ele>1321.95</ele>
        <time>2019-08-26T09:37:52Z</time>
      </trkpt>
      <trkpt lat="45.02593" lon="5.49709">
        <ele>1322.54</ele>
        <time>2019-08-26T09:38:02Z</time>
      </trkpt>
      <trkpt lat="45.02588" lon="5.49703">
        <ele>1323.6</ele>
        <time>2019-08-26T09:38:07Z</time>
      </trkpt>
      <trkpt lat="45.02588" lon="5.49677">
        <ele>1325.29</ele>
        <time>2019-08-26T09:38:19Z</time>
      </trkpt>
      <trkpt lat="45.02589" lon="5.49672">
        <ele>1325.58</ele>
        <time>2019-08-26T09:38:21Z</time>
      </trkpt>
      <trkpt lat="45.02589" lon="5.4967">
        <ele>1325.67</ele>
        <time>2019-08-26T09:38:22Z</time>
      </trkpt>
      <trkpt lat="45.02589" lon="5.49668">
        <ele>1325.75</ele>
        <time>2019-08-26T09:38:23Z</time>
      </trkpt>
      <trkpt lat="45.0259" lon="5.49665">
        <ele>1325.81</ele>
        <time>2019-08-26T09:38:24Z</time>
      </trkpt>
      <trkpt lat="45.0259" lon="5.49662">
        <ele>1325.87</ele>
        <time>2019-08-26T09:38:25Z</time>
      </trkpt>
      <trkpt lat="45.0259" lon="5.49659">
        <ele>1325.91</ele>
        <time>2019-08-26T09:38:26Z</time>
      </trkpt>
      <trkpt lat="45.02589" lon="5.49656">
        <ele>1325.93</ele>
        <time>2019-08-26T09:38:27Z</time>
      </trkpt>
      <trkpt lat="45.02589" lon="5.49653">
        <ele>1325.96</ele>
        <time>2019-08-26T09:38:28Z</time>
      </trkpt>
      <trkpt lat="45.02588" lon="5.4965">
        <ele>1326</ele>
        <time>2019-08-26T09:38:29Z</time>
      </trkpt>
      <trkpt lat="45.02588" lon="5.49648">
        <ele>1326.06</ele>
        <time>2019-08-26T09:38:30Z</time>
      </trkpt>
      <trkpt lat="45.02587" lon="5.49645">
        <ele>1326.18</ele>
        <time>2019-08-26T09:38:31Z</time>
      </trkpt>
      <trkpt lat="45.02579" lon="5.49624">
        <ele>1327.36</ele>
        <time>2019-08-26T09:38:41Z</time>
      </trkpt>
      <trkpt lat="45.0257" lon="5.49625">
        <ele>1327.04</ele>
        <time>2019-08-26T09:39:04Z</time>
      </trkpt>
      <trkpt lat="45.02568" lon="5.49624">
        <ele>1327.02</ele>
        <time>2019-08-26T09:39:05Z</time>
      </trkpt>
      <trkpt lat="45.02567" lon="5.49623">
        <ele>1327.03</ele>
        <time>2019-08-26T09:39:06Z</time>
      </trkpt>
      <trkpt lat="45.02565" lon="5.49622">
        <ele>1327.04</ele>
        <time>2019-08-26T09:39:07Z</time>
      </trkpt>
      <trkpt lat="45.02564" lon="5.49622">
        <ele>1327.05</ele>
        <time>2019-08-26T09:39:08Z</time>
      </trkpt>
      <trkpt lat="45.02562" lon="5.49621">
        <ele>1327.04</ele>
        <time>2019-08-26T09:39:09Z</time>
      </trkpt>
      <trkpt lat="45.02561" lon="5.4962">
        <ele>1327.01</ele>
        <time>2019-08-26T09:39:10Z</time>
      </trkpt>
      <trkpt lat="45.02559" lon="5.49619">
        <ele>1326.92</ele>
        <time>2019-08-26T09:39:11Z</time>
      </trkpt>
      <trkpt lat="45.02556" lon="5.49618">
        <ele>1326.81</ele>
        <time>2019-08-26T09:39:12Z</time>
      </trkpt>
      <trkpt lat="45.02554" lon="5.49617">
        <ele>1326.69</ele>
        <time>2019-08-26T09:39:13Z</time>
      </trkpt>
      <trkpt lat="45.02533" lon="5.49592">
        <ele>1325.4</ele>
        <time>2019-08-26T09:39:21Z</time>
      </trkpt>
      <trkpt lat="45.02528" lon="5.4959">
        <ele>1325.07</ele>
        <time>2019-08-26T09:39:22Z</time>
      </trkpt>
      <trkpt lat="45.02522" lon="5.49589">
        <ele>1324.7</ele>
        <time>2019-08-26T09:39:23Z</time>
      </trkpt>
      <trkpt lat="45.02516" lon="5.49591">
        <ele>1324.33</ele>
        <time>2019-08-26T09:39:24Z</time>
      </trkpt>
      <trkpt lat="45.02511" lon="5.49594">
        <ele>1323.93</ele>
        <time>2019-08-26T09:39:25Z</time>
      </trkpt>
      <trkpt lat="45.02506" lon="5.49597">
        <ele>1323.57</ele>
        <time>2019-08-26T09:39:26Z</time>
      </trkpt>
      <trkpt lat="45.025" lon="5.496">
        <ele>1323.02</ele>
        <time>2019-08-26T09:39:28Z</time>
      </trkpt>
      <trkpt lat="45.02498" lon="5.49601">
        <ele>1322.82</ele>
        <time>2019-08-26T09:39:29Z</time>
      </trkpt>
      <trkpt lat="45.02496" lon="5.49601">
        <ele>1322.67</ele>
        <time>2019-08-26T09:39:30Z</time>
      </trkpt>
      <trkpt lat="45.02479" lon="5.49591">
        <ele>1323.34</ele>
        <time>2019-08-26T09:39:38Z</time>
      </trkpt>
      <trkpt lat="45.02478" lon="5.49589">
        <ele>1323.55</ele>
        <time>2019-08-26T09:39:39Z</time>
      </trkpt>
      <trkpt lat="45.02476" lon="5.49587">
        <ele>1323.77</ele>
        <time>2019-08-26T09:39:40Z</time>
      </trkpt>
      <trkpt lat="45.02475" lon="5.49586">
        <ele>1323.97</ele>
        <time>2019-08-26T09:39:41Z</time>
      </trkpt>
      <trkpt lat="45.02473" lon="5.49585">
        <ele>1324.16</ele>
        <time>2019-08-26T09:39:42Z</time>
      </trkpt>
      <trkpt lat="45.02472" lon="5.49584">
        <ele>1324.36</ele>
        <time>2019-08-26T09:39:43Z</time>
      </trkpt>
      <trkpt lat="45.0247" lon="5.49581">
        <ele>1324.87</ele>
        <time>2019-08-26T09:39:45Z</time>
      </trkpt>
      <trkpt lat="45.02468" lon="5.49579">
        <ele>1325.12</ele>
        <time>2019-08-26T09:39:46Z</time>
      </trkpt>
      <trkpt lat="45.02449" lon="5.49563">
        <ele>1327.91</ele>
        <time>2019-08-26T09:39:59Z</time>
      </trkpt>
      <trkpt lat="45.02439" lon="5.49554">
        <ele>1328.56</ele>
        <time>2019-08-26T09:40:05Z</time>
      </trkpt>
      <trkpt lat="45.02438" lon="5.49552">
        <ele>1328.61</ele>
        <time>2019-08-26T09:40:06Z</time>
      </trkpt>
      <trkpt lat="45.02431" lon="5.4954">
        <ele>1328.66</ele>
        <time>2019-08-26T09:40:11Z</time>
      </trkpt>
      <trkpt lat="45.0243" lon="5.49538">
        <ele>1328.68</ele>
        <time>2019-08-26T09:40:12Z</time>
      </trkpt>
      <trkpt lat="45.02429" lon="5.49536">
        <ele>1328.72</ele>
        <time>2019-08-26T09:40:13Z</time>
      </trkpt>
      <trkpt lat="45.02427" lon="5.49534">
        <ele>1328.8</ele>
        <time>2019-08-26T09:40:14Z</time>
      </trkpt>
      <trkpt lat="45.02426" lon="5.49533">
        <ele>1328.88</ele>
        <time>2019-08-26T09:40:15Z</time>
      </trkpt>
      <trkpt lat="45.02424" lon="5.49531">
        <ele>1328.97</ele>
        <time>2019-08-26T09:40:16Z</time>
      </trkpt>
      <trkpt lat="45.02423" lon="5.4953">
        <ele>1329.04</ele>
        <time>2019-08-26T09:40:17Z</time>
      </trkpt>
      <trkpt lat="45.02422" lon="5.49528">
        <ele>1329.1</ele>
        <time>2019-08-26T09:40:18Z</time>
      </trkpt>
      <trkpt lat="45.02421" lon="5.49526">
        <ele>1329.15</ele>
        <time>2019-08-26T09:40:19Z</time>
      </trkpt>
      <trkpt lat="45.0242" lon="5.49524">
        <ele>1329.25</ele>
        <time>2019-08-26T09:40:20Z</time>
      </trkpt>
      <trkpt lat="45.02419" lon="5.49523">
        <ele>1329.54</ele>
        <time>2019-08-26T09:40:21Z</time>
      </trkpt>
      <trkpt lat="45.02417" lon="5.49522">
        <ele>1329.85</ele>
        <time>2019-08-26T09:40:23Z</time>
      </trkpt>
      <trkpt lat="45.02416" lon="5.4952">
        <ele>1330.01</ele>
        <time>2019-08-26T09:40:24Z</time>
      </trkpt>
      <trkpt lat="45.02415" lon="5.49518">
        <ele>1330.17</ele>
        <time>2019-08-26T09:40:25Z</time>
      </trkpt>
      <trkpt lat="45.02413" lon="5.49517">
        <ele>1330.31</ele>
        <time>2019-08-26T09:40:26Z</time>
      </trkpt>
      <trkpt lat="45.02412" lon="5.49517">
        <ele>1330.46</ele>
        <time>2019-08-26T09:40:27Z</time>
      </trkpt>
      <trkpt lat="45.0241" lon="5.49516">
        <ele>1330.63</ele>
        <time>2019-08-26T09:40:28Z</time>
      </trkpt>
      <trkpt lat="45.02408" lon="5.49515">
        <ele>1330.79</ele>
        <time>2019-08-26T09:40:29Z</time>
      </trkpt>
      <trkpt lat="45.02406" lon="5.49513">
        <ele>1330.95</ele>
        <time>2019-08-26T09:40:30Z</time>
      </trkpt>
      <trkpt lat="45.02388" lon="5.49507">
        <ele>1332.83</ele>
        <time>2019-08-26T09:40:39Z</time>
      </trkpt>
      <trkpt lat="45.02387" lon="5.49507">
        <ele>1333.06</ele>
        <time>2019-08-26T09:40:40Z</time>
      </trkpt>
      <trkpt lat="45.02385" lon="5.49507">
        <ele>1333.28</ele>
        <time>2019-08-26T09:40:41Z</time>
      </trkpt>
      <trkpt lat="45.02384" lon="5.49508">
        <ele>1333.46</ele>
        <time>2019-08-26T09:40:42Z</time>
      </trkpt>
      <trkpt lat="45.02383" lon="5.49508">
        <ele>1333.64</ele>
        <time>2019-08-26T09:40:43Z</time>
      </trkpt>
      <trkpt lat="45.02381" lon="5.49509">
        <ele>1333.82</ele>
        <time>2019-08-26T09:40:44Z</time>
      </trkpt>
      <trkpt lat="45.0238" lon="5.49509">
        <ele>1334.17</ele>
        <time>2019-08-26T09:40:45Z</time>
      </trkpt>
      <trkpt lat="45.0236" lon="5.49518">
        <ele>1335.86</ele>
        <time>2019-08-26T09:40:59Z</time>
      </trkpt>
      <trkpt lat="45.02357" lon="5.49519">
        <ele>1335.87</ele>
        <time>2019-08-26T09:41:01Z</time>
      </trkpt>
      <trkpt lat="45.02356" lon="5.4952">
        <ele>1335.86</ele>
        <time>2019-08-26T09:41:02Z</time>
      </trkpt>
      <trkpt lat="45.02354" lon="5.4952">
        <ele>1335.85</ele>
        <time>2019-08-26T09:41:03Z</time>
      </trkpt>
      <trkpt lat="45.02352" lon="5.49521">
        <ele>1335.85</ele>
        <time>2019-08-26T09:41:04Z</time>
      </trkpt>
      <trkpt lat="45.02343" lon="5.4952">
        <ele>1335.24</ele>
        <time>2019-08-26T09:41:16Z</time>
      </trkpt>
      <trkpt lat="45.02322" lon="5.49524">
        <ele>1334.13</ele>
        <time>2019-08-26T09:41:26Z</time>
      </trkpt>
      <trkpt lat="45.02308" lon="5.49528">
        <ele>1333.48</ele>
        <time>2019-08-26T09:41:29Z</time>
      </trkpt>
      <trkpt lat="45.02303" lon="5.4953">
        <ele>1333.12</ele>
        <time>2019-08-26T09:41:30Z</time>
      </trkpt>
      <trkpt lat="45.02298" lon="5.49532">
        <ele>1332.77</ele>
        <time>2019-08-26T09:41:31Z</time>
      </trkpt>
      <trkpt lat="45.02271" lon="5.49539">
        <ele>1331.37</ele>
        <time>2019-08-26T09:41:39Z</time>
      </trkpt>
      <trkpt lat="45.02254" lon="5.49541">
        <ele>1331.39</ele>
        <time>2019-08-26T09:41:46Z</time>
      </trkpt>
      <trkpt lat="45.02252" lon="5.49543">
        <ele>1331.4</ele>
        <time>2019-08-26T09:41:47Z</time>
      </trkpt>
      <trkpt lat="45.02222" lon="5.49554">
        <ele>1330.84</ele>
        <time>2019-08-26T09:41:57Z</time>
      </trkpt>
      <trkpt lat="45.02191" lon="5.49566">
        <ele>1329.99</ele>
        <time>2019-08-26T09:42:04Z</time>
      </trkpt>
      <trkpt lat="45.02179" lon="5.49566">
        <ele>1329.37</ele>
        <time>2019-08-26T09:42:06Z</time>
      </trkpt>
      <trkpt lat="45.02155" lon="5.49564">
        <ele>1327.82</ele>
        <time>2019-08-26T09:42:10Z</time>
      </trkpt>
      <trkpt lat="45.02148" lon="5.49564">
        <ele>1327.43</ele>
        <time>2019-08-26T09:42:11Z</time>
      </trkpt>
      <trkpt lat="45.02142" lon="5.49566">
        <ele>1327.05</ele>
        <time>2019-08-26T09:42:12Z</time>
      </trkpt>
      <trkpt lat="45.02093" lon="5.49591">
        <ele>1324.07</ele>
        <time>2019-08-26T09:42:19Z</time>
      </trkpt>
      <trkpt lat="45.0207" lon="5.49598">
        <ele>1324.93</ele>
        <time>2019-08-26T09:42:28Z</time>
      </trkpt>
      <trkpt lat="45.02043" lon="5.49593">
        <ele>1328.03</ele>
        <time>2019-08-26T09:42:41Z</time>
      </trkpt>
      <trkpt lat="45.02028" lon="5.4959">
        <ele>1329.53</ele>
        <time>2019-08-26T09:42:50Z</time>
      </trkpt>
      <trkpt lat="45.02026" lon="5.4959">
        <ele>1329.6</ele>
        <time>2019-08-26T09:42:51Z</time>
      </trkpt>
      <trkpt lat="45.02024" lon="5.49589">
        <ele>1329.66</ele>
        <time>2019-08-26T09:42:52Z</time>
      </trkpt>
      <trkpt lat="45.02022" lon="5.49588">
        <ele>1329.72</ele>
        <time>2019-08-26T09:42:53Z</time>
      </trkpt>
      <trkpt lat="45.0202" lon="5.49588">
        <ele>1329.79</ele>
        <time>2019-08-26T09:42:54Z</time>
      </trkpt>
      <trkpt lat="45.02018" lon="5.49587">
        <ele>1329.86</ele>
        <time>2019-08-26T09:42:55Z</time>
      </trkpt>
      <trkpt lat="45.02012" lon="5.49586">
        <ele>1330.06</ele>
        <time>2019-08-26T09:42:59Z</time>
      </trkpt>
      <trkpt lat="45.0201" lon="5.49585">
        <ele>1330.13</ele>
        <time>2019-08-26T09:43:00Z</time>
      </trkpt>
      <trkpt lat="45.02009" lon="5.49585">
        <ele>1330.21</ele>
        <time>2019-08-26T09:43:01Z</time>
      </trkpt>
      <trkpt lat="45.02006" lon="5.49584">
        <ele>1330.25</ele>
        <time>2019-08-26T09:43:02Z</time>
      </trkpt>
      <trkpt lat="45.02004" lon="5.49582">
        <ele>1330.29</ele>
        <time>2019-08-26T09:43:03Z</time>
      </trkpt>
      <trkpt lat="45.02001" lon="5.4958">
        <ele>1330.32</ele>
        <time>2019-08-26T09:43:04Z</time>
      </trkpt>
      <trkpt lat="45.01971" lon="5.49564">
        <ele>1330.44</ele>
        <time>2019-08-26T09:43:15Z</time>
      </trkpt>
      <trkpt lat="45.0194" lon="5.49559">
        <ele>1330.99</ele>
        <time>2019-08-26T09:43:26Z</time>
      </trkpt>
      <trkpt lat="45.01933" lon="5.49558">
        <ele>1331.03</ele>
        <time>2019-08-26T09:43:28Z</time>
      </trkpt>
      <trkpt lat="45.0193" lon="5.49556">
        <ele>1331.03</ele>
        <time>2019-08-26T09:43:29Z</time>
      </trkpt>
      <trkpt lat="45.01899" lon="5.49553">
        <ele>1332.05</ele>
        <time>2019-08-26T09:43:40Z</time>
      </trkpt>
      <trkpt lat="45.01886" lon="5.49553">
        <ele>1332.74</ele>
        <time>2019-08-26T09:43:45Z</time>
      </trkpt>
      <trkpt lat="45.01884" lon="5.49553">
        <ele>1332.88</ele>
        <time>2019-08-26T09:43:46Z</time>
      </trkpt>
      <trkpt lat="45.01882" lon="5.49553">
        <ele>1333</ele>
        <time>2019-08-26T09:43:47Z</time>
      </trkpt>
      <trkpt lat="45.0185" lon="5.49553">
        <ele>1333.87</ele>
        <time>2019-08-26T09:43:59Z</time>
      </trkpt>
      <trkpt lat="45.01817" lon="5.49548">
        <ele>1333.9</ele>
        <time>2019-08-26T09:44:11Z</time>
      </trkpt>
      <trkpt lat="45.01808" lon="5.49546">
        <ele>1334.78</ele>
        <time>2019-08-26T09:44:17Z</time>
      </trkpt>
      <trkpt lat="45.01806" lon="5.49546">
        <ele>1334.88</ele>
        <time>2019-08-26T09:44:18Z</time>
      </trkpt>
      <trkpt lat="45.01804" lon="5.49545">
        <ele>1335.02</ele>
        <time>2019-08-26T09:44:19Z</time>
      </trkpt>
      <trkpt lat="45.01783" lon="5.49537">
        <ele>1337.39</ele>
        <time>2019-08-26T09:44:30Z</time>
      </trkpt>
      <trkpt lat="45.01759" lon="5.49532">
        <ele>1339.38</ele>
        <time>2019-08-26T09:44:43Z</time>
      </trkpt>
      <trkpt lat="45.01727" lon="5.49526">
        <ele>1340.05</ele>
        <time>2019-08-26T09:44:57Z</time>
      </trkpt>
      <trkpt lat="45.01702" lon="5.49526">
        <ele>1340.27</ele>
        <time>2019-08-26T09:45:08Z</time>
      </trkpt>
      <trkpt lat="45.01679" lon="5.4952">
        <ele>1341.57</ele>
        <time>2019-08-26T09:45:20Z</time>
      </trkpt>
      <trkpt lat="45.01671" lon="5.49518">
        <ele>1342.08</ele>
        <time>2019-08-26T09:45:24Z</time>
      </trkpt>
      <trkpt lat="45.01669" lon="5.49518">
        <ele>1342.23</ele>
        <time>2019-08-26T09:45:25Z</time>
      </trkpt>
      <trkpt lat="45.01659" lon="5.49519">
        <ele>1342.82</ele>
        <time>2019-08-26T09:45:30Z</time>
      </trkpt>
      <trkpt lat="45.01658" lon="5.4952">
        <ele>1342.91</ele>
        <time>2019-08-26T09:45:31Z</time>
      </trkpt>
      <trkpt lat="45.01656" lon="5.49521">
        <ele>1343.03</ele>
        <time>2019-08-26T09:45:32Z</time>
      </trkpt>
      <trkpt lat="45.01654" lon="5.49523">
        <ele>1343.11</ele>
        <time>2019-08-26T09:45:33Z</time>
      </trkpt>
      <trkpt lat="45.01653" lon="5.49524">
        <ele>1343.19</ele>
        <time>2019-08-26T09:45:34Z</time>
      </trkpt>
      <trkpt lat="45.01651" lon="5.49526">
        <ele>1343.27</ele>
        <time>2019-08-26T09:45:35Z</time>
      </trkpt>
      <trkpt lat="45.01649" lon="5.49528">
        <ele>1343.5</ele>
        <time>2019-08-26T09:45:37Z</time>
      </trkpt>
      <trkpt lat="45.01648" lon="5.49529">
        <ele>1343.63</ele>
        <time>2019-08-26T09:45:38Z</time>
      </trkpt>
      <trkpt lat="45.01647" lon="5.4953">
        <ele>1343.91</ele>
        <time>2019-08-26T09:45:39Z</time>
      </trkpt>
      <trkpt lat="45.01645" lon="5.49532">
        <ele>1343.91</ele>
        <time>2019-08-26T09:45:40Z</time>
      </trkpt>
      <trkpt lat="45.01644" lon="5.49534">
        <ele>1344.23</ele>
        <time>2019-08-26T09:45:41Z</time>
      </trkpt>
      <trkpt lat="45.01643" lon="5.49536">
        <ele>1344.35</ele>
        <time>2019-08-26T09:45:42Z</time>
      </trkpt>
      <trkpt lat="45.01642" lon="5.49539">
        <ele>1344.45</ele>
        <time>2019-08-26T09:45:43Z</time>
      </trkpt>
      <trkpt lat="45.0162" lon="5.49578">
        <ele>1344</ele>
        <time>2019-08-26T09:45:56Z</time>
      </trkpt>
      <trkpt lat="45.01596" lon="5.49604">
        <ele>1343.65</ele>
        <time>2019-08-26T09:46:07Z</time>
      </trkpt>
      <trkpt lat="45.01589" lon="5.4961">
        <ele>1343.45</ele>
        <time>2019-08-26T09:46:09Z</time>
      </trkpt>
      <trkpt lat="45.01586" lon="5.49613">
        <ele>1343.33</ele>
        <time>2019-08-26T09:46:10Z</time>
      </trkpt>
      <trkpt lat="45.01582" lon="5.49617">
        <ele>1343.2</ele>
        <time>2019-08-26T09:46:11Z</time>
      </trkpt>
      <trkpt lat="45.01567" lon="5.49625">
        <ele>1342.63</ele>
        <time>2019-08-26T09:46:19Z</time>
      </trkpt>
      <trkpt lat="45.01566" lon="5.49629">
        <ele>1342.96</ele>
        <time>2019-08-26T09:46:46Z</time>
      </trkpt>
      <trkpt lat="45.01566" lon="5.4963">
        <ele>1343.59</ele>
        <time>2019-08-26T09:47:17Z</time>
      </trkpt>
      <trkpt lat="45.01567" lon="5.49626">
        <ele>1343.76</ele>
        <time>2019-08-26T09:47:47Z</time>
      </trkpt>
      <trkpt lat="45.01555" lon="5.49629">
        <ele>1343.6</ele>
        <time>2019-08-26T09:48:02Z</time>
      </trkpt>
      <trkpt lat="45.01551" lon="5.49631">
        <ele>1343.55</ele>
        <time>2019-08-26T09:48:03Z</time>
      </trkpt>
      <trkpt lat="45.0153" lon="5.49641">
        <ele>1342.85</ele>
        <time>2019-08-26T09:48:07Z</time>
      </trkpt>
      <trkpt lat="45.01508" lon="5.49649">
        <ele>1341.66</ele>
        <time>2019-08-26T09:48:10Z</time>
      </trkpt>
      <trkpt lat="45.015" lon="5.4965">
        <ele>1340.79</ele>
        <time>2019-08-26T09:48:11Z</time>
      </trkpt>
      <trkpt lat="45.01487" lon="5.49652">
        <ele>1340.09</ele>
        <time>2019-08-26T09:48:13Z</time>
      </trkpt>
      <trkpt lat="45.01472" lon="5.4966">
        <ele>1339.44</ele>
        <time>2019-08-26T09:48:16Z</time>
      </trkpt>
      <trkpt lat="45.01455" lon="5.49673">
        <ele>1339.11</ele>
        <time>2019-08-26T09:48:19Z</time>
      </trkpt>
      <trkpt lat="45.01429" lon="5.49695">
        <ele>1338.09</ele>
        <time>2019-08-26T09:48:23Z</time>
      </trkpt>
      <trkpt lat="45.01422" lon="5.49702">
        <ele>1337.73</ele>
        <time>2019-08-26T09:48:24Z</time>
      </trkpt>
      <trkpt lat="45.01403" lon="5.4972">
        <ele>1336.52</ele>
        <time>2019-08-26T09:48:27Z</time>
      </trkpt>
      <trkpt lat="45.01397" lon="5.49723">
        <ele>1336.2</ele>
        <time>2019-08-26T09:48:28Z</time>
      </trkpt>
      <trkpt lat="45.01392" lon="5.49726">
        <ele>1335.91</ele>
        <time>2019-08-26T09:48:29Z</time>
      </trkpt>
      <trkpt lat="45.01388" lon="5.49728">
        <ele>1335.67</ele>
        <time>2019-08-26T09:48:30Z</time>
      </trkpt>
      <trkpt lat="45.01383" lon="5.49729">
        <ele>1335.53</ele>
        <time>2019-08-26T09:48:31Z</time>
      </trkpt>
      <trkpt lat="45.01359" lon="5.4974">
        <ele>1335.85</ele>
        <time>2019-08-26T09:48:39Z</time>
      </trkpt>
      <trkpt lat="45.01323" lon="5.49767">
        <ele>1337.11</ele>
        <time>2019-08-26T09:48:51Z</time>
      </trkpt>
      <trkpt lat="45.01303" lon="5.49791">
        <ele>1338.43</ele>
        <time>2019-08-26T09:49:02Z</time>
      </trkpt>
      <trkpt lat="45.01282" lon="5.49841">
        <ele>1337.9</ele>
        <time>2019-08-26T09:49:13Z</time>
      </trkpt>
      <trkpt lat="45.01269" lon="5.49861">
        <ele>1338.09</ele>
        <time>2019-08-26T09:49:20Z</time>
      </trkpt>
      <trkpt lat="45.01267" lon="5.49861">
        <ele>1338.21</ele>
        <time>2019-08-26T09:49:21Z</time>
      </trkpt>
      <trkpt lat="45.01239" lon="5.4987">
        <ele>1339.48</ele>
        <time>2019-08-26T09:49:33Z</time>
      </trkpt>
      <trkpt lat="45.01234" lon="5.49871">
        <ele>1339.71</ele>
        <time>2019-08-26T09:49:36Z</time>
      </trkpt>
      <trkpt lat="45.01232" lon="5.49871">
        <ele>1339.82</ele>
        <time>2019-08-26T09:49:37Z</time>
      </trkpt>
      <trkpt lat="45.0123" lon="5.49871">
        <ele>1339.96</ele>
        <time>2019-08-26T09:49:38Z</time>
      </trkpt>
      <trkpt lat="45.01229" lon="5.49871">
        <ele>1340.13</ele>
        <time>2019-08-26T09:49:39Z</time>
      </trkpt>
      <trkpt lat="45.01227" lon="5.49872">
        <ele>1340.32</ele>
        <time>2019-08-26T09:49:40Z</time>
      </trkpt>
      <trkpt lat="45.01226" lon="5.49872">
        <ele>1340.54</ele>
        <time>2019-08-26T09:49:41Z</time>
      </trkpt>
      <trkpt lat="45.01225" lon="5.49871">
        <ele>1340.75</ele>
        <time>2019-08-26T09:49:42Z</time>
      </trkpt>
      <trkpt lat="45.01223" lon="5.49871">
        <ele>1340.97</ele>
        <time>2019-08-26T09:49:43Z</time>
      </trkpt>
      <trkpt lat="45.01221" lon="5.49871">
        <ele>1341.22</ele>
        <time>2019-08-26T09:49:44Z</time>
      </trkpt>
      <trkpt lat="45.0122" lon="5.4987">
        <ele>1341.44</ele>
        <time>2019-08-26T09:49:45Z</time>
      </trkpt>
      <trkpt lat="45.01215" lon="5.49869">
        <ele>1342.01</ele>
        <time>2019-08-26T09:49:48Z</time>
      </trkpt>
      <trkpt lat="45.01214" lon="5.49868">
        <ele>1342.18</ele>
        <time>2019-08-26T09:49:49Z</time>
      </trkpt>
      <trkpt lat="45.01211" lon="5.49865">
        <ele>1342.91</ele>
        <time>2019-08-26T09:49:53Z</time>
      </trkpt>
      <trkpt lat="45.0121" lon="5.49863">
        <ele>1343.12</ele>
        <time>2019-08-26T09:49:54Z</time>
      </trkpt>
      <trkpt lat="45.0121" lon="5.49862">
        <ele>1343.33</ele>
        <time>2019-08-26T09:49:55Z</time>
      </trkpt>
      <trkpt lat="45.01209" lon="5.4986">
        <ele>1343.52</ele>
        <time>2019-08-26T09:49:56Z</time>
      </trkpt>
      <trkpt lat="45.01209" lon="5.49859">
        <ele>1343.89</ele>
        <time>2019-08-26T09:49:57Z</time>
      </trkpt>
      <trkpt lat="45.01208" lon="5.49857">
        <ele>1343.89</ele>
        <time>2019-08-26T09:49:58Z</time>
      </trkpt>
      <trkpt lat="45.01207" lon="5.49855">
        <ele>1344.27</ele>
        <time>2019-08-26T09:49:59Z</time>
      </trkpt>
      <trkpt lat="45.01207" lon="5.49853">
        <ele>1344.47</ele>
        <time>2019-08-26T09:50:00Z</time>
      </trkpt>
      <trkpt lat="45.01207" lon="5.49851">
        <ele>1344.69</ele>
        <time>2019-08-26T09:50:01Z</time>
      </trkpt>
      <trkpt lat="45.01206" lon="5.49849">
        <ele>1344.88</ele>
        <time>2019-08-26T09:50:02Z</time>
      </trkpt>
      <trkpt lat="45.01206" lon="5.49847">
        <ele>1345.05</ele>
        <time>2019-08-26T09:50:03Z</time>
      </trkpt>
      <trkpt lat="45.01206" lon="5.49845">
        <ele>1345.22</ele>
        <time>2019-08-26T09:50:04Z</time>
      </trkpt>
      <trkpt lat="45.01206" lon="5.49843">
        <ele>1345.4</ele>
        <time>2019-08-26T09:50:05Z</time>
      </trkpt>
      <trkpt lat="45.01205" lon="5.4984">
        <ele>1345.75</ele>
        <time>2019-08-26T09:50:07Z</time>
      </trkpt>
      <trkpt lat="45.01205" lon="5.49838">
        <ele>1345.9</ele>
        <time>2019-08-26T09:50:08Z</time>
      </trkpt>
      <trkpt lat="45.01204" lon="5.49836">
        <ele>1346.02</ele>
        <time>2019-08-26T09:50:09Z</time>
      </trkpt>
      <trkpt lat="45.01204" lon="5.49834">
        <ele>1346.12</ele>
        <time>2019-08-26T09:50:10Z</time>
      </trkpt>
      <trkpt lat="45.01203" lon="5.49832">
        <ele>1346.2</ele>
        <time>2019-08-26T09:50:11Z</time>
      </trkpt>
      <trkpt lat="45.01202" lon="5.49828">
        <ele>1346.26</ele>
        <time>2019-08-26T09:50:12Z</time>
      </trkpt>
      <trkpt lat="45.01201" lon="5.49824">
        <ele>1346.27</ele>
        <time>2019-08-26T09:50:13Z</time>
      </trkpt>
      <trkpt lat="45.01199" lon="5.49818">
        <ele>1346.23</ele>
        <time>2019-08-26T09:50:14Z</time>
      </trkpt>
      <trkpt lat="45.01197" lon="5.49811">
        <ele>1346.12</ele>
        <time>2019-08-26T09:50:15Z</time>
      </trkpt>
      <trkpt lat="45.01194" lon="5.49805">
        <ele>1345.91</ele>
        <time>2019-08-26T09:50:16Z</time>
      </trkpt>
      <trkpt lat="45.01171" lon="5.4975">
        <ele>1344</ele>
        <time>2019-08-26T09:50:24Z</time>
      </trkpt>
      <trkpt lat="45.01168" lon="5.49746">
        <ele>1343.82</ele>
        <time>2019-08-26T09:50:25Z</time>
      </trkpt>
      <trkpt lat="45.01165" lon="5.49743">
        <ele>1343.68</ele>
        <time>2019-08-26T09:50:26Z</time>
      </trkpt>
      <trkpt lat="45.01163" lon="5.4974">
        <ele>1343.49</ele>
        <time>2019-08-26T09:50:27Z</time>
      </trkpt>
      <trkpt lat="45.01161" lon="5.49739">
        <ele>1343.5</ele>
        <time>2019-08-26T09:50:28Z</time>
      </trkpt>
      <trkpt lat="45.01134" lon="5.4973">
        <ele>1345.01</ele>
        <time>2019-08-26T09:50:41Z</time>
      </trkpt>
      <trkpt lat="45.01111" lon="5.4972">
        <ele>1346.12</ele>
        <time>2019-08-26T09:50:53Z</time>
      </trkpt>
      <trkpt lat="45.01087" lon="5.49711">
        <ele>1347.65</ele>
        <time>2019-08-26T09:51:05Z</time>
      </trkpt>
      <trkpt lat="45.01079" lon="5.49708">
        <ele>1348.26</ele>
        <time>2019-08-26T09:51:10Z</time>
      </trkpt>
      <trkpt lat="45.01077" lon="5.49708">
        <ele>1348.41</ele>
        <time>2019-08-26T09:51:11Z</time>
      </trkpt>
      <trkpt lat="45.01075" lon="5.49707">
        <ele>1348.61</ele>
        <time>2019-08-26T09:51:12Z</time>
      </trkpt>
      <trkpt lat="45.01074" lon="5.49707">
        <ele>1348.82</ele>
        <time>2019-08-26T09:51:13Z</time>
      </trkpt>
      <trkpt lat="45.01072" lon="5.49707">
        <ele>1349.01</ele>
        <time>2019-08-26T09:51:14Z</time>
      </trkpt>
      <trkpt lat="45.01046" lon="5.49707">
        <ele>1351.81</ele>
        <time>2019-08-26T09:51:31Z</time>
      </trkpt>
      <trkpt lat="45.01038" lon="5.49705">
        <ele>1352.32</ele>
        <time>2019-08-26T09:51:36Z</time>
      </trkpt>
      <trkpt lat="45.01037" lon="5.49705">
        <ele>1352.45</ele>
        <time>2019-08-26T09:51:37Z</time>
      </trkpt>
      <trkpt lat="45.01035" lon="5.49704">
        <ele>1352.59</ele>
        <time>2019-08-26T09:51:38Z</time>
      </trkpt>
      <trkpt lat="45.01024" lon="5.497">
        <ele>1353.69</ele>
        <time>2019-08-26T09:51:46Z</time>
      </trkpt>
      <trkpt lat="45.01023" lon="5.49698">
        <ele>1353.79</ele>
        <time>2019-08-26T09:51:47Z</time>
      </trkpt>
      <trkpt lat="45.01022" lon="5.49697">
        <ele>1353.86</ele>
        <time>2019-08-26T09:51:48Z</time>
      </trkpt>
      <trkpt lat="45.01021" lon="5.49696">
        <ele>1353.93</ele>
        <time>2019-08-26T09:51:49Z</time>
      </trkpt>
      <trkpt lat="45.01018" lon="5.49695">
        <ele>1353.96</ele>
        <time>2019-08-26T09:51:50Z</time>
      </trkpt>
      <trkpt lat="45.01016" lon="5.49693">
        <ele>1354</ele>
        <time>2019-08-26T09:51:51Z</time>
      </trkpt>
      <trkpt lat="45.01014" lon="5.49693">
        <ele>1354.03</ele>
        <time>2019-08-26T09:51:52Z</time>
      </trkpt>
      <trkpt lat="45.01011" lon="5.49692">
        <ele>1354.03</ele>
        <time>2019-08-26T09:51:53Z</time>
      </trkpt>
      <trkpt lat="45.01007" lon="5.49691">
        <ele>1354.01</ele>
        <time>2019-08-26T09:51:54Z</time>
      </trkpt>
      <trkpt lat="45.01004" lon="5.4969">
        <ele>1353.98</ele>
        <time>2019-08-26T09:51:55Z</time>
      </trkpt>
      <trkpt lat="45.01002" lon="5.4969">
        <ele>1353.95</ele>
        <time>2019-08-26T09:51:56Z</time>
      </trkpt>
      <trkpt lat="45.00999" lon="5.49689">
        <ele>1353.91</ele>
        <time>2019-08-26T09:51:57Z</time>
      </trkpt>
      <trkpt lat="45.00996" lon="5.49688">
        <ele>1353.87</ele>
        <time>2019-08-26T09:51:58Z</time>
      </trkpt>
      <trkpt lat="45.00993" lon="5.49688">
        <ele>1353.84</ele>
        <time>2019-08-26T09:51:59Z</time>
      </trkpt>
      <trkpt lat="45.00989" lon="5.49687">
        <ele>1353.8</ele>
        <time>2019-08-26T09:52:00Z</time>
      </trkpt>
      <trkpt lat="45.00986" lon="5.49687">
        <ele>1353.78</ele>
        <time>2019-08-26T09:52:01Z</time>
      </trkpt>
      <trkpt lat="45.00983" lon="5.49687">
        <ele>1353.76</ele>
        <time>2019-08-26T09:52:02Z</time>
      </trkpt>
      <trkpt lat="45.0098" lon="5.49687">
        <ele>1353.73</ele>
        <time>2019-08-26T09:52:03Z</time>
      </trkpt>
      <trkpt lat="45.00976" lon="5.49688">
        <ele>1353.71</ele>
        <time>2019-08-26T09:52:04Z</time>
      </trkpt>
      <trkpt lat="45.00971" lon="5.49688">
        <ele>1353.57</ele>
        <time>2019-08-26T09:52:05Z</time>
      </trkpt>
      <trkpt lat="45.00935" lon="5.49692">
        <ele>1352.95</ele>
        <time>2019-08-26T09:52:17Z</time>
      </trkpt>
      <trkpt lat="45.00928" lon="5.49693">
        <ele>1353.17</ele>
        <time>2019-08-26T09:52:21Z</time>
      </trkpt>
      <trkpt lat="45.00925" lon="5.49691">
        <ele>1352.66</ele>
        <time>2019-08-26T09:52:39Z</time>
      </trkpt>
      <trkpt lat="45.00916" lon="5.49694">
        <ele>1352.94</ele>
        <time>2019-08-26T09:53:07Z</time>
      </trkpt>
      <trkpt lat="45.00909" lon="5.49693">
        <ele>1352.67</ele>
        <time>2019-08-26T09:53:12Z</time>
      </trkpt>
      <trkpt lat="45.00908" lon="5.49691">
        <ele>1352.66</ele>
        <time>2019-08-26T09:53:13Z</time>
      </trkpt>
      <trkpt lat="45.00906" lon="5.4969">
        <ele>1352.65</ele>
        <time>2019-08-26T09:53:14Z</time>
      </trkpt>
      <trkpt lat="45.00905" lon="5.4969">
        <ele>1352.67</ele>
        <time>2019-08-26T09:53:15Z</time>
      </trkpt>
      <trkpt lat="45.00903" lon="5.49689">
        <ele>1352.71</ele>
        <time>2019-08-26T09:53:16Z</time>
      </trkpt>
      <trkpt lat="45.00902" lon="5.49689">
        <ele>1352.76</ele>
        <time>2019-08-26T09:53:17Z</time>
      </trkpt>
      <trkpt lat="45.009" lon="5.49688">
        <ele>1352.81</ele>
        <time>2019-08-26T09:53:18Z</time>
      </trkpt>
      <trkpt lat="45.00899" lon="5.49687">
        <ele>1352.84</ele>
        <time>2019-08-26T09:53:19Z</time>
      </trkpt>
      <trkpt lat="45.00898" lon="5.49687">
        <ele>1352.98</ele>
        <time>2019-08-26T09:53:20Z</time>
      </trkpt>
      <trkpt lat="45.00879" lon="5.4968">
        <ele>1355.09</ele>
        <time>2019-08-26T09:53:35Z</time>
      </trkpt>
      <trkpt lat="45.00863" lon="5.49674">
        <ele>1357</ele>
        <time>2019-08-26T09:53:47Z</time>
      </trkpt>
      <trkpt lat="45.00847" lon="5.49664">
        <ele>1359.18</ele>
        <time>2019-08-26T09:54:00Z</time>
      </trkpt>
      <trkpt lat="45.00834" lon="5.49654">
        <ele>1360.96</ele>
        <time>2019-08-26T09:54:12Z</time>
      </trkpt>
      <trkpt lat="45.00825" lon="5.49641">
        <ele>1361.77</ele>
        <time>2019-08-26T09:54:24Z</time>
      </trkpt>
      <trkpt lat="45.00822" lon="5.49636">
        <ele>1361.99</ele>
        <time>2019-08-26T09:54:27Z</time>
      </trkpt>
      <trkpt lat="45.00821" lon="5.49634">
        <ele>1362.06</ele>
        <time>2019-08-26T09:54:28Z</time>
      </trkpt>
      <trkpt lat="45.00819" lon="5.49629">
        <ele>1362.38</ele>
        <time>2019-08-26T09:54:31Z</time>
      </trkpt>
      <trkpt lat="45.00818" lon="5.49627">
        <ele>1362.52</ele>
        <time>2019-08-26T09:54:32Z</time>
      </trkpt>
      <trkpt lat="45.00817" lon="5.49624">
        <ele>1362.86</ele>
        <time>2019-08-26T09:54:33Z</time>
      </trkpt>
      <trkpt lat="45.00816" lon="5.49623">
        <ele>1362.86</ele>
        <time>2019-08-26T09:54:34Z</time>
      </trkpt>
      <trkpt lat="45.00816" lon="5.49621">
        <ele>1363.26</ele>
        <time>2019-08-26T09:54:35Z</time>
      </trkpt>
      <trkpt lat="45.00803" lon="5.49598">
        <ele>1365.33</ele>
        <time>2019-08-26T09:54:49Z</time>
      </trkpt>
      <trkpt lat="45.00803" lon="5.49597">
        <ele>1365.49</ele>
        <time>2019-08-26T09:54:50Z</time>
      </trkpt>
      <trkpt lat="45.00799" lon="5.49589">
        <ele>1366.38</ele>
        <time>2019-08-26T09:54:55Z</time>
      </trkpt>
      <trkpt lat="45.00798" lon="5.49587">
        <ele>1366.54</ele>
        <time>2019-08-26T09:54:56Z</time>
      </trkpt>
      <trkpt lat="45.00797" lon="5.49586">
        <ele>1366.7</ele>
        <time>2019-08-26T09:54:57Z</time>
      </trkpt>
      <trkpt lat="45.00796" lon="5.49585">
        <ele>1366.89</ele>
        <time>2019-08-26T09:54:58Z</time>
      </trkpt>
      <trkpt lat="45.00795" lon="5.49583">
        <ele>1367.09</ele>
        <time>2019-08-26T09:54:59Z</time>
      </trkpt>
      <trkpt lat="45.00782" lon="5.4957">
        <ele>1369.14</ele>
        <time>2019-08-26T09:55:09Z</time>
      </trkpt>
      <trkpt lat="45.0078" lon="5.49569">
        <ele>1369.31</ele>
        <time>2019-08-26T09:55:10Z</time>
      </trkpt>
      <trkpt lat="45.00758" lon="5.49558">
        <ele>1371.54</ele>
        <time>2019-08-26T09:55:23Z</time>
      </trkpt>
      <trkpt lat="45.00757" lon="5.49558">
        <ele>1371.68</ele>
        <time>2019-08-26T09:55:24Z</time>
      </trkpt>
      <trkpt lat="45.00756" lon="5.49557">
        <ele>1371.81</ele>
        <time>2019-08-26T09:55:25Z</time>
      </trkpt>
      <trkpt lat="45.00753" lon="5.49554">
        <ele>1372.14</ele>
        <time>2019-08-26T09:55:27Z</time>
      </trkpt>
      <trkpt lat="45.00752" lon="5.49553">
        <ele>1372.25</ele>
        <time>2019-08-26T09:55:28Z</time>
      </trkpt>
      <trkpt lat="45.0075" lon="5.49551">
        <ele>1372.49</ele>
        <time>2019-08-26T09:55:30Z</time>
      </trkpt>
      <trkpt lat="45.00749" lon="5.4955">
        <ele>1372.61</ele>
        <time>2019-08-26T09:55:31Z</time>
      </trkpt>
      <trkpt lat="45.00749" lon="5.49547">
        <ele>1372.74</ele>
        <time>2019-08-26T09:55:32Z</time>
      </trkpt>
      <trkpt lat="45.00749" lon="5.49542">
        <ele>1372.99</ele>
        <time>2019-08-26T09:55:34Z</time>
      </trkpt>
      <trkpt lat="45.0075" lon="5.4954">
        <ele>1373.08</ele>
        <time>2019-08-26T09:55:35Z</time>
      </trkpt>
      <trkpt lat="45.0075" lon="5.49537">
        <ele>1373.16</ele>
        <time>2019-08-26T09:55:36Z</time>
      </trkpt>
      <trkpt lat="45.0075" lon="5.49534">
        <ele>1373.25</ele>
        <time>2019-08-26T09:55:37Z</time>
      </trkpt>
      <trkpt lat="45.00751" lon="5.49532">
        <ele>1373.33</ele>
        <time>2019-08-26T09:55:38Z</time>
      </trkpt>
      <trkpt lat="45.00752" lon="5.4953">
        <ele>1373.44</ele>
        <time>2019-08-26T09:55:39Z</time>
      </trkpt>
      <trkpt lat="45.00753" lon="5.49528">
        <ele>1373.53</ele>
        <time>2019-08-26T09:55:40Z</time>
      </trkpt>
      <trkpt lat="45.00754" lon="5.49526">
        <ele>1373.6</ele>
        <time>2019-08-26T09:55:41Z</time>
      </trkpt>
      <trkpt lat="45.00755" lon="5.49525">
        <ele>1373.68</ele>
        <time>2019-08-26T09:55:42Z</time>
      </trkpt>
      <trkpt lat="45.00767" lon="5.49514">
        <ele>1374.99</ele>
        <time>2019-08-26T09:55:53Z</time>
      </trkpt>
      <trkpt lat="45.00773" lon="5.49503">
        <ele>1376.3</ele>
        <time>2019-08-26T09:55:59Z</time>
      </trkpt>
      <trkpt lat="45.00774" lon="5.49502">
        <ele>1376.55</ele>
        <time>2019-08-26T09:56:00Z</time>
      </trkpt>
      <trkpt lat="45.00776" lon="5.495">
        <ele>1376.78</ele>
        <time>2019-08-26T09:56:01Z</time>
      </trkpt>
      <trkpt lat="45.00777" lon="5.49499">
        <ele>1377</ele>
        <time>2019-08-26T09:56:02Z</time>
      </trkpt>
      <trkpt lat="45.00778" lon="5.49497">
        <ele>1377.25</ele>
        <time>2019-08-26T09:56:03Z</time>
      </trkpt>
      <trkpt lat="45.00795" lon="5.49472">
        <ele>1379.05</ele>
        <time>2019-08-26T09:56:17Z</time>
      </trkpt>
      <trkpt lat="45.0081" lon="5.49448">
        <ele>1379.81</ele>
        <time>2019-08-26T09:56:28Z</time>
      </trkpt>
      <trkpt lat="45.00829" lon="5.49412">
        <ele>1379.65</ele>
        <time>2019-08-26T09:56:40Z</time>
      </trkpt>
      <trkpt lat="45.00842" lon="5.49378">
        <ele>1380.29</ele>
        <time>2019-08-26T09:56:52Z</time>
      </trkpt>
      <trkpt lat="45.00843" lon="5.49376">
        <ele>1380.4</ele>
        <time>2019-08-26T09:56:53Z</time>
      </trkpt>
      <trkpt lat="45.00844" lon="5.49373">
        <ele>1380.51</ele>
        <time>2019-08-26T09:56:54Z</time>
      </trkpt>
      <trkpt lat="45.00846" lon="5.49371">
        <ele>1380.61</ele>
        <time>2019-08-26T09:56:55Z</time>
      </trkpt>
      <trkpt lat="45.00847" lon="5.49368">
        <ele>1380.69</ele>
        <time>2019-08-26T09:56:56Z</time>
      </trkpt>
      <trkpt lat="45.00848" lon="5.49366">
        <ele>1380.77</ele>
        <time>2019-08-26T09:56:57Z</time>
      </trkpt>
      <trkpt lat="45.00849" lon="5.49363">
        <ele>1380.83</ele>
        <time>2019-08-26T09:56:58Z</time>
      </trkpt>
      <trkpt lat="45.00851" lon="5.4936">
        <ele>1380.88</ele>
        <time>2019-08-26T09:56:59Z</time>
      </trkpt>
      <trkpt lat="45.0087" lon="5.49333">
        <ele>1381.79</ele>
        <time>2019-08-26T09:57:12Z</time>
      </trkpt>
      <trkpt lat="45.00878" lon="5.49323">
        <ele>1382.79</ele>
        <time>2019-08-26T09:57:19Z</time>
      </trkpt>
      <trkpt lat="45.00879" lon="5.49321">
        <ele>1382.99</ele>
        <time>2019-08-26T09:57:20Z</time>
      </trkpt>
      <trkpt lat="45.0088" lon="5.4932">
        <ele>1383.17</ele>
        <time>2019-08-26T09:57:21Z</time>
      </trkpt>
      <trkpt lat="45.00881" lon="5.49319">
        <ele>1383.33</ele>
        <time>2019-08-26T09:57:22Z</time>
      </trkpt>
      <trkpt lat="45.00882" lon="5.49318">
        <ele>1383.5</ele>
        <time>2019-08-26T09:57:23Z</time>
      </trkpt>
      <trkpt lat="45.00883" lon="5.49318">
        <ele>1383.72</ele>
        <time>2019-08-26T09:57:24Z</time>
      </trkpt>
      <trkpt lat="45.00884" lon="5.49317">
        <ele>1383.95</ele>
        <time>2019-08-26T09:57:25Z</time>
      </trkpt>
      <trkpt lat="45.00887" lon="5.49316">
        <ele>1384.4</ele>
        <time>2019-08-26T09:57:27Z</time>
      </trkpt>
      <trkpt lat="45.00888" lon="5.49315">
        <ele>1384.6</ele>
        <time>2019-08-26T09:57:28Z</time>
      </trkpt>
      <trkpt lat="45.00903" lon="5.49303">
        <ele>1386.73</ele>
        <time>2019-08-26T09:57:40Z</time>
      </trkpt>
      <trkpt lat="45.00914" lon="5.49299">
        <ele>1388.01</ele>
        <time>2019-08-26T09:57:47Z</time>
      </trkpt>
      <trkpt lat="45.00917" lon="5.493">
        <ele>1388.2</ele>
        <time>2019-08-26T09:57:48Z</time>
      </trkpt>
      <trkpt lat="45.00919" lon="5.493">
        <ele>1388.37</ele>
        <time>2019-08-26T09:57:49Z</time>
      </trkpt>
      <trkpt lat="45.00921" lon="5.493">
        <ele>1388.54</ele>
        <time>2019-08-26T09:57:50Z</time>
      </trkpt>
      <trkpt lat="45.00923" lon="5.493">
        <ele>1388.7</ele>
        <time>2019-08-26T09:57:51Z</time>
      </trkpt>
      <trkpt lat="45.00926" lon="5.493">
        <ele>1389</ele>
        <time>2019-08-26T09:57:53Z</time>
      </trkpt>
      <trkpt lat="45.00939" lon="5.49299">
        <ele>1390.88</ele>
        <time>2019-08-26T09:58:05Z</time>
      </trkpt>
      <trkpt lat="45.00953" lon="5.49296">
        <ele>1392.43</ele>
        <time>2019-08-26T09:58:18Z</time>
      </trkpt>
      <trkpt lat="45.00963" lon="5.49293">
        <ele>1394.33</ele>
        <time>2019-08-26T09:58:29Z</time>
      </trkpt>
      <trkpt lat="45.00975" lon="5.49288">
        <ele>1396.16</ele>
        <time>2019-08-26T09:58:43Z</time>
      </trkpt>
      <trkpt lat="45.00992" lon="5.49277">
        <ele>1398.93</ele>
        <time>2019-08-26T09:59:03Z</time>
      </trkpt>
      <trkpt lat="45.01008" lon="5.49252">
        <ele>1400.91</ele>
        <time>2019-08-26T09:59:17Z</time>
      </trkpt>
      <trkpt lat="45.01011" lon="5.49249">
        <ele>1401.15</ele>
        <time>2019-08-26T09:59:19Z</time>
      </trkpt>
      <trkpt lat="45.01023" lon="5.49229">
        <ele>1402.83</ele>
        <time>2019-08-26T09:59:33Z</time>
      </trkpt>
      <trkpt lat="45.01025" lon="5.49225">
        <ele>1403.1</ele>
        <time>2019-08-26T09:59:36Z</time>
      </trkpt>
      <trkpt lat="45.01035" lon="5.49203">
        <ele>1404.97</ele>
        <time>2019-08-26T09:59:52Z</time>
      </trkpt>
      <trkpt lat="45.01042" lon="5.49184">
        <ele>1406.48</ele>
        <time>2019-08-26T10:00:05Z</time>
      </trkpt>
      <trkpt lat="45.01049" lon="5.49171">
        <ele>1408.05</ele>
        <time>2019-08-26T10:00:18Z</time>
      </trkpt>
      <trkpt lat="45.01052" lon="5.4916">
        <ele>1409.4</ele>
        <time>2019-08-26T10:00:37Z</time>
      </trkpt>
      <trkpt lat="45.01068" lon="5.49139">
        <ele>1411.23</ele>
        <time>2019-08-26T10:00:58Z</time>
      </trkpt>
      <trkpt lat="45.01084" lon="5.49117">
        <ele>1412.93</ele>
        <time>2019-08-26T10:01:15Z</time>
      </trkpt>
      <trkpt lat="45.01091" lon="5.49105">
        <ele>1413.79</ele>
        <time>2019-08-26T10:01:24Z</time>
      </trkpt>
      <trkpt lat="45.01091" lon="5.49099">
        <ele>1414.47</ele>
        <time>2019-08-26T10:01:29Z</time>
      </trkpt>
      <trkpt lat="45.01089" lon="5.49087">
        <ele>1416.02</ele>
        <time>2019-08-26T10:01:41Z</time>
      </trkpt>
      <trkpt lat="45.01082" lon="5.49063">
        <ele>1416.31</ele>
        <time>2019-08-26T10:01:51Z</time>
      </trkpt>
      <trkpt lat="45.01082" lon="5.4906">
        <ele>1416.33</ele>
        <time>2019-08-26T10:01:52Z</time>
      </trkpt>
      <trkpt lat="45.01081" lon="5.49057">
        <ele>1416.36</ele>
        <time>2019-08-26T10:01:53Z</time>
      </trkpt>
      <trkpt lat="45.0108" lon="5.49052">
        <ele>1416.46</ele>
        <time>2019-08-26T10:01:55Z</time>
      </trkpt>
      <trkpt lat="45.01079" lon="5.49051">
        <ele>1416.5</ele>
        <time>2019-08-26T10:01:56Z</time>
      </trkpt>
      <trkpt lat="45.01079" lon="5.49048">
        <ele>1416.54</ele>
        <time>2019-08-26T10:01:57Z</time>
      </trkpt>
      <trkpt lat="45.01079" lon="5.49045">
        <ele>1416.57</ele>
        <time>2019-08-26T10:01:58Z</time>
      </trkpt>
      <trkpt lat="45.01078" lon="5.49043">
        <ele>1416.59</ele>
        <time>2019-08-26T10:01:59Z</time>
      </trkpt>
      <trkpt lat="45.01074" lon="5.49029">
        <ele>1416.29</ele>
        <time>2019-08-26T10:02:11Z</time>
      </trkpt>
      <trkpt lat="45.01076" lon="5.49019">
        <ele>1415.95</ele>
        <time>2019-08-26T10:02:33Z</time>
      </trkpt>
      <trkpt lat="45.01079" lon="5.49026">
        <ele>1416.25</ele>
        <time>2019-08-26T10:03:03Z</time>
      </trkpt>
      <trkpt lat="45.01076" lon="5.49022">
        <ele>1416.03</ele>
        <time>2019-08-26T10:03:32Z</time>
      </trkpt>
      <trkpt lat="45.01076" lon="5.49018">
        <ele>1416.51</ele>
        <time>2019-08-26T10:04:03Z</time>
      </trkpt>
      <trkpt lat="45.01075" lon="5.49017">
        <ele>1416.38</ele>
        <time>2019-08-26T10:04:33Z</time>
      </trkpt>
      <trkpt lat="45.0107" lon="5.49019">
        <ele>1416.69</ele>
        <time>2019-08-26T10:05:03Z</time>
      </trkpt>
      <trkpt lat="45.01068" lon="5.49017">
        <ele>1416.66</ele>
        <time>2019-08-26T10:05:05Z</time>
      </trkpt>
      <trkpt lat="45.01067" lon="5.49016">
        <ele>1416.64</ele>
        <time>2019-08-26T10:05:06Z</time>
      </trkpt>
      <trkpt lat="45.01066" lon="5.49015">
        <ele>1416.63</ele>
        <time>2019-08-26T10:05:07Z</time>
      </trkpt>
      <trkpt lat="45.01064" lon="5.49012">
        <ele>1416.6</ele>
        <time>2019-08-26T10:05:08Z</time>
      </trkpt>
      <trkpt lat="45.01062" lon="5.4901">
        <ele>1416.54</ele>
        <time>2019-08-26T10:05:09Z</time>
      </trkpt>
      <trkpt lat="45.01058" lon="5.49007">
        <ele>1416.46</ele>
        <time>2019-08-26T10:05:10Z</time>
      </trkpt>
      <trkpt lat="45.01054" lon="5.49006">
        <ele>1416.35</ele>
        <time>2019-08-26T10:05:11Z</time>
      </trkpt>
      <trkpt lat="45.0105" lon="5.49005">
        <ele>1416.21</ele>
        <time>2019-08-26T10:05:12Z</time>
      </trkpt>
      <trkpt lat="45.01047" lon="5.49005">
        <ele>1416.02</ele>
        <time>2019-08-26T10:05:13Z</time>
      </trkpt>
      <trkpt lat="45.01043" lon="5.49006">
        <ele>1415.84</ele>
        <time>2019-08-26T10:05:14Z</time>
      </trkpt>
      <trkpt lat="45.01039" lon="5.49006">
        <ele>1415.68</ele>
        <time>2019-08-26T10:05:15Z</time>
      </trkpt>
      <trkpt lat="45.01034" lon="5.49006">
        <ele>1415.47</ele>
        <time>2019-08-26T10:05:16Z</time>
      </trkpt>
      <trkpt lat="45.0103" lon="5.49003">
        <ele>1415.22</ele>
        <time>2019-08-26T10:05:17Z</time>
      </trkpt>
      <trkpt lat="45.01026" lon="5.49">
        <ele>1414.93</ele>
        <time>2019-08-26T10:05:18Z</time>
      </trkpt>
      <trkpt lat="45.01023" lon="5.48995">
        <ele>1414.62</ele>
        <time>2019-08-26T10:05:19Z</time>
      </trkpt>
      <trkpt lat="45.01022" lon="5.48987">
        <ele>1414.26</ele>
        <time>2019-08-26T10:05:20Z</time>
      </trkpt>
      <trkpt lat="45.01023" lon="5.48981">
        <ele>1413.85</ele>
        <time>2019-08-26T10:05:21Z</time>
      </trkpt>
      <trkpt lat="45.01024" lon="5.48974">
        <ele>1413.45</ele>
        <time>2019-08-26T10:05:22Z</time>
      </trkpt>
      <trkpt lat="45.01025" lon="5.48968">
        <ele>1413.06</ele>
        <time>2019-08-26T10:05:23Z</time>
      </trkpt>
      <trkpt lat="45.01026" lon="5.48962">
        <ele>1412.71</ele>
        <time>2019-08-26T10:05:24Z</time>
      </trkpt>
      <trkpt lat="45.01025" lon="5.48956">
        <ele>1412.12</ele>
        <time>2019-08-26T10:05:25Z</time>
      </trkpt>
      <trkpt lat="45.01024" lon="5.4895">
        <ele>1411.87</ele>
        <time>2019-08-26T10:05:26Z</time>
      </trkpt>
      <trkpt lat="45.01024" lon="5.48944">
        <ele>1411.63</ele>
        <time>2019-08-26T10:05:27Z</time>
      </trkpt>
      <trkpt lat="45.01022" lon="5.48924">
        <ele>1411.07</ele>
        <time>2019-08-26T10:05:30Z</time>
      </trkpt>
      <trkpt lat="45.01021" lon="5.4892">
        <ele>1410.94</ele>
        <time>2019-08-26T10:05:31Z</time>
      </trkpt>
      <trkpt lat="45.01019" lon="5.48915">
        <ele>1410.82</ele>
        <time>2019-08-26T10:05:32Z</time>
      </trkpt>
      <trkpt lat="45.01017" lon="5.4891">
        <ele>1410.7</ele>
        <time>2019-08-26T10:05:33Z</time>
      </trkpt>
      <trkpt lat="45.01015" lon="5.48904">
        <ele>1410.58</ele>
        <time>2019-08-26T10:05:34Z</time>
      </trkpt>
      <trkpt lat="45.01014" lon="5.48897">
        <ele>1410.48</ele>
        <time>2019-08-26T10:05:35Z</time>
      </trkpt>
      <trkpt lat="45.01013" lon="5.48889">
        <ele>1410.36</ele>
        <time>2019-08-26T10:05:36Z</time>
      </trkpt>
      <trkpt lat="45.01012" lon="5.48881">
        <ele>1410.23</ele>
        <time>2019-08-26T10:05:37Z</time>
      </trkpt>
      <trkpt lat="45.01012" lon="5.48865">
        <ele>1409.93</ele>
        <time>2019-08-26T10:05:39Z</time>
      </trkpt>
      <trkpt lat="45.01011" lon="5.48817">
        <ele>1408.37</ele>
        <time>2019-08-26T10:05:49Z</time>
      </trkpt>
      <trkpt lat="45.01004" lon="5.48805">
        <ele>1407.38</ele>
        <time>2019-08-26T10:06:11Z</time>
      </trkpt>
      <trkpt lat="45.00985" lon="5.48782">
        <ele>1406.8</ele>
        <time>2019-08-26T10:06:21Z</time>
      </trkpt>
      <trkpt lat="45.00977" lon="5.48775">
        <ele>1406.52</ele>
        <time>2019-08-26T10:06:23Z</time>
      </trkpt>
      <trkpt lat="45.00972" lon="5.48773">
        <ele>1406.35</ele>
        <time>2019-08-26T10:06:24Z</time>
      </trkpt>
      <trkpt lat="45.00966" lon="5.48771">
        <ele>1406.18</ele>
        <time>2019-08-26T10:06:25Z</time>
      </trkpt>
      <trkpt lat="45.00947" lon="5.48764">
        <ele>1405.22</ele>
        <time>2019-08-26T10:06:30Z</time>
      </trkpt>
      <trkpt lat="45.00945" lon="5.48764">
        <ele>1405.12</ele>
        <time>2019-08-26T10:06:31Z</time>
      </trkpt>
      <trkpt lat="45.00942" lon="5.48762">
        <ele>1405.1</ele>
        <time>2019-08-26T10:06:32Z</time>
      </trkpt>
      <trkpt lat="45.00939" lon="5.48761">
        <ele>1405.14</ele>
        <time>2019-08-26T10:06:33Z</time>
      </trkpt>
      <trkpt lat="45.00936" lon="5.48759">
        <ele>1405.22</ele>
        <time>2019-08-26T10:06:34Z</time>
      </trkpt>
      <trkpt lat="45.00914" lon="5.48757">
        <ele>1408.38</ele>
        <time>2019-08-26T10:06:44Z</time>
      </trkpt>
      <trkpt lat="45.00885" lon="5.48775">
        <ele>1409.55</ele>
        <time>2019-08-26T10:06:57Z</time>
      </trkpt>
      <trkpt lat="45.00848" lon="5.48792">
        <ele>1408.96</ele>
        <time>2019-08-26T10:07:08Z</time>
      </trkpt>
      <trkpt lat="45.00844" lon="5.48794">
        <ele>1408.85</ele>
        <time>2019-08-26T10:07:09Z</time>
      </trkpt>
      <trkpt lat="45.0083" lon="5.48799">
        <ele>1408.52</ele>
        <time>2019-08-26T10:07:12Z</time>
      </trkpt>
      <trkpt lat="45.008" lon="5.48806">
        <ele>1407.65</ele>
        <time>2019-08-26T10:07:18Z</time>
      </trkpt>
      <trkpt lat="45.00795" lon="5.48808">
        <ele>1407.53</ele>
        <time>2019-08-26T10:07:19Z</time>
      </trkpt>
      <trkpt lat="45.00758" lon="5.48823">
        <ele>1406.3</ele>
        <time>2019-08-26T10:07:26Z</time>
      </trkpt>
      <trkpt lat="45.00749" lon="5.48829">
        <ele>1405.7</ele>
        <time>2019-08-26T10:07:28Z</time>
      </trkpt>
      <trkpt lat="45.00745" lon="5.48833">
        <ele>1405.19</ele>
        <time>2019-08-26T10:07:29Z</time>
      </trkpt>
      <trkpt lat="45.00741" lon="5.48836">
        <ele>1404.87</ele>
        <time>2019-08-26T10:07:30Z</time>
      </trkpt>
      <trkpt lat="45.00736" lon="5.48838">
        <ele>1404.51</ele>
        <time>2019-08-26T10:07:31Z</time>
      </trkpt>
      <trkpt lat="45.00731" lon="5.48839">
        <ele>1404.08</ele>
        <time>2019-08-26T10:07:32Z</time>
      </trkpt>
      <trkpt lat="45.00725" lon="5.48839">
        <ele>1403.61</ele>
        <time>2019-08-26T10:07:33Z</time>
      </trkpt>
      <trkpt lat="45.0072" lon="5.48836">
        <ele>1403.13</ele>
        <time>2019-08-26T10:07:34Z</time>
      </trkpt>
      <trkpt lat="45.00717" lon="5.48833">
        <ele>1402.65</ele>
        <time>2019-08-26T10:07:35Z</time>
      </trkpt>
      <trkpt lat="45.00714" lon="5.48828">
        <ele>1402.21</ele>
        <time>2019-08-26T10:07:36Z</time>
      </trkpt>
      <trkpt lat="45.00713" lon="5.48822">
        <ele>1401.83</ele>
        <time>2019-08-26T10:07:37Z</time>
      </trkpt>
      <trkpt lat="45.00712" lon="5.48816">
        <ele>1401.49</ele>
        <time>2019-08-26T10:07:38Z</time>
      </trkpt>
      <trkpt lat="45.00712" lon="5.4881">
        <ele>1401.19</ele>
        <time>2019-08-26T10:07:39Z</time>
      </trkpt>
      <trkpt lat="45.00712" lon="5.48804">
        <ele>1400.91</ele>
        <time>2019-08-26T10:07:40Z</time>
      </trkpt>
      <trkpt lat="45.00711" lon="5.48798">
        <ele>1400.62</ele>
        <time>2019-08-26T10:07:41Z</time>
      </trkpt>
      <trkpt lat="45.00711" lon="5.48792">
        <ele>1400.35</ele>
        <time>2019-08-26T10:07:42Z</time>
      </trkpt>
      <trkpt lat="45.00711" lon="5.48786">
        <ele>1400.13</ele>
        <time>2019-08-26T10:07:43Z</time>
      </trkpt>
      <trkpt lat="45.007" lon="5.48747">
        <ele>1400.72</ele>
        <time>2019-08-26T10:07:53Z</time>
      </trkpt>
      <trkpt lat="45.00685" lon="5.48705">
        <ele>1403.05</ele>
        <time>2019-08-26T10:08:07Z</time>
      </trkpt>
      <trkpt lat="45.00671" lon="5.48671">
        <ele>1402.9</ele>
        <time>2019-08-26T10:08:16Z</time>
      </trkpt>
      <trkpt lat="45.00662" lon="5.48658">
        <ele>1404.01</ele>
        <time>2019-08-26T10:08:24Z</time>
      </trkpt>
      <trkpt lat="45.00661" lon="5.48657">
        <ele>1404.31</ele>
        <time>2019-08-26T10:08:25Z</time>
      </trkpt>
      <trkpt lat="45.0066" lon="5.48656">
        <ele>1404.59</ele>
        <time>2019-08-26T10:08:26Z</time>
      </trkpt>
      <trkpt lat="45.00659" lon="5.48654">
        <ele>1404.87</ele>
        <time>2019-08-26T10:08:27Z</time>
      </trkpt>
      <trkpt lat="45.00656" lon="5.48651">
        <ele>1405.36</ele>
        <time>2019-08-26T10:08:29Z</time>
      </trkpt>
      <trkpt lat="45.00655" lon="5.4865">
        <ele>1405.55</ele>
        <time>2019-08-26T10:08:30Z</time>
      </trkpt>
      <trkpt lat="45.00654" lon="5.48648">
        <ele>1405.74</ele>
        <time>2019-08-26T10:08:31Z</time>
      </trkpt>
      <trkpt lat="45.00652" lon="5.48647">
        <ele>1405.94</ele>
        <time>2019-08-26T10:08:32Z</time>
      </trkpt>
      <trkpt lat="45.00648" lon="5.48642">
        <ele>1406.66</ele>
        <time>2019-08-26T10:08:35Z</time>
      </trkpt>
      <trkpt lat="45.00647" lon="5.4864">
        <ele>1406.93</ele>
        <time>2019-08-26T10:08:36Z</time>
      </trkpt>
      <trkpt lat="45.00646" lon="5.48637">
        <ele>1407.17</ele>
        <time>2019-08-26T10:08:37Z</time>
      </trkpt>
      <trkpt lat="45.00645" lon="5.48636">
        <ele>1407.36</ele>
        <time>2019-08-26T10:08:38Z</time>
      </trkpt>
      <trkpt lat="45.00643" lon="5.48634">
        <ele>1407.52</ele>
        <time>2019-08-26T10:08:39Z</time>
      </trkpt>
      <trkpt lat="45.00631" lon="5.48621">
        <ele>1408.41</ele>
        <time>2019-08-26T10:08:46Z</time>
      </trkpt>
      <trkpt lat="45.0063" lon="5.4862">
        <ele>1408.48</ele>
        <time>2019-08-26T10:08:47Z</time>
      </trkpt>
      <trkpt lat="45.00628" lon="5.48614">
        <ele>1408.73</ele>
        <time>2019-08-26T10:08:50Z</time>
      </trkpt>
      <trkpt lat="45.00627" lon="5.48613">
        <ele>1408.86</ele>
        <time>2019-08-26T10:08:51Z</time>
      </trkpt>
      <trkpt lat="45.00621" lon="5.48608">
        <ele>1409.38</ele>
        <time>2019-08-26T10:08:56Z</time>
      </trkpt>
      <trkpt lat="45.00603" lon="5.48592">
        <ele>1410.4</ele>
        <time>2019-08-26T10:09:07Z</time>
      </trkpt>
      <trkpt lat="45.00585" lon="5.48572">
        <ele>1410.12</ele>
        <time>2019-08-26T10:09:15Z</time>
      </trkpt>
      <trkpt lat="45.00556" lon="5.48552">
        <ele>1409.39</ele>
        <time>2019-08-26T10:09:24Z</time>
      </trkpt>
      <trkpt lat="45.00554" lon="5.48552">
        <ele>1409.4</ele>
        <time>2019-08-26T10:09:25Z</time>
      </trkpt>
      <trkpt lat="45.00551" lon="5.48553">
        <ele>1409.44</ele>
        <time>2019-08-26T10:09:26Z</time>
      </trkpt>
      <trkpt lat="45.00549" lon="5.48553">
        <ele>1409.54</ele>
        <time>2019-08-26T10:09:27Z</time>
      </trkpt>
      <trkpt lat="45.00546" lon="5.48554">
        <ele>1409.67</ele>
        <time>2019-08-26T10:09:28Z</time>
      </trkpt>
      <trkpt lat="45.00544" lon="5.48554">
        <ele>1409.81</ele>
        <time>2019-08-26T10:09:29Z</time>
      </trkpt>
      <trkpt lat="45.00515" lon="5.4855">
        <ele>1412</ele>
        <time>2019-08-26T10:09:41Z</time>
      </trkpt>
      <trkpt lat="45.00511" lon="5.48549">
        <ele>1412.33</ele>
        <time>2019-08-26T10:09:43Z</time>
      </trkpt>
      <trkpt lat="45.00509" lon="5.48548">
        <ele>1412.47</ele>
        <time>2019-08-26T10:09:44Z</time>
      </trkpt>
      <trkpt lat="45.00507" lon="5.48548">
        <ele>1412.6</ele>
        <time>2019-08-26T10:09:45Z</time>
      </trkpt>
      <trkpt lat="45.00505" lon="5.48548">
        <ele>1412.74</ele>
        <time>2019-08-26T10:09:46Z</time>
      </trkpt>
      <trkpt lat="45.00503" lon="5.48549">
        <ele>1412.9</ele>
        <time>2019-08-26T10:09:47Z</time>
      </trkpt>
      <trkpt lat="45.00501" lon="5.48549">
        <ele>1413.06</ele>
        <time>2019-08-26T10:09:48Z</time>
      </trkpt>
      <trkpt lat="45.00499" lon="5.48549">
        <ele>1413.24</ele>
        <time>2019-08-26T10:09:49Z</time>
      </trkpt>
      <trkpt lat="45.00497" lon="5.4855">
        <ele>1413.45</ele>
        <time>2019-08-26T10:09:50Z</time>
      </trkpt>
      <trkpt lat="45.00496" lon="5.4855">
        <ele>1413.65</ele>
        <time>2019-08-26T10:09:51Z</time>
      </trkpt>
      <trkpt lat="45.00486" lon="5.48555">
        <ele>1415.03</ele>
        <time>2019-08-26T10:09:59Z</time>
      </trkpt>
      <trkpt lat="45.00485" lon="5.48555">
        <ele>1415.17</ele>
        <time>2019-08-26T10:10:00Z</time>
      </trkpt>
      <trkpt lat="45.00484" lon="5.48557">
        <ele>1415.33</ele>
        <time>2019-08-26T10:10:01Z</time>
      </trkpt>
      <trkpt lat="45.00462" lon="5.48568">
        <ele>1418.11</ele>
        <time>2019-08-26T10:10:20Z</time>
      </trkpt>
      <trkpt lat="45.00436" lon="5.48588">
        <ele>1421.15</ele>
        <time>2019-08-26T10:10:42Z</time>
      </trkpt>
      <trkpt lat="45.00428" lon="5.48594">
        <ele>1421.47</ele>
        <time>2019-08-26T10:10:48Z</time>
      </trkpt>
      <trkpt lat="45.00427" lon="5.48595">
        <ele>1421.51</ele>
        <time>2019-08-26T10:10:49Z</time>
      </trkpt>
      <trkpt lat="45.00425" lon="5.48597">
        <ele>1421.54</ele>
        <time>2019-08-26T10:10:50Z</time>
      </trkpt>
      <trkpt lat="45.00423" lon="5.48598">
        <ele>1421.56</ele>
        <time>2019-08-26T10:10:51Z</time>
      </trkpt>
      <trkpt lat="45.00421" lon="5.486">
        <ele>1421.6</ele>
        <time>2019-08-26T10:10:52Z</time>
      </trkpt>
      <trkpt lat="45.0041" lon="5.4861">
        <ele>1422.73</ele>
        <time>2019-08-26T10:11:03Z</time>
      </trkpt>
      <trkpt lat="45.00396" lon="5.48613">
        <ele>1423.76</ele>
        <time>2019-08-26T10:11:11Z</time>
      </trkpt>
      <trkpt lat="45.0039" lon="5.48617">
        <ele>1424.05</ele>
        <time>2019-08-26T10:11:14Z</time>
      </trkpt>
      <trkpt lat="45.00369" lon="5.4863">
        <ele>1425.02</ele>
        <time>2019-08-26T10:11:23Z</time>
      </trkpt>
      <trkpt lat="45.00347" lon="5.48659">
        <ele>1424.3</ele>
        <time>2019-08-26T10:11:33Z</time>
      </trkpt>
      <trkpt lat="45.00343" lon="5.48665">
        <ele>1424.51</ele>
        <time>2019-08-26T10:11:36Z</time>
      </trkpt>
      <trkpt lat="45.00323" lon="5.48683">
        <ele>1426</ele>
        <time>2019-08-26T10:11:47Z</time>
      </trkpt>
      <trkpt lat="45.00297" lon="5.48701">
        <ele>1427.92</ele>
        <time>2019-08-26T10:12:00Z</time>
      </trkpt>
      <trkpt lat="45.00274" lon="5.48708">
        <ele>1429.44</ele>
        <time>2019-08-26T10:12:12Z</time>
      </trkpt>
      <trkpt lat="45.00273" lon="5.48708">
        <ele>1429.52</ele>
        <time>2019-08-26T10:12:13Z</time>
      </trkpt>
      <trkpt lat="45.00271" lon="5.48709">
        <ele>1429.61</ele>
        <time>2019-08-26T10:12:14Z</time>
      </trkpt>
      <trkpt lat="45.0027" lon="5.4871">
        <ele>1429.68</ele>
        <time>2019-08-26T10:12:15Z</time>
      </trkpt>
      <trkpt lat="45.00268" lon="5.4871">
        <ele>1429.76</ele>
        <time>2019-08-26T10:12:16Z</time>
      </trkpt>
      <trkpt lat="45.00266" lon="5.48712">
        <ele>1430.45</ele>
        <time>2019-08-26T10:12:29Z</time>
      </trkpt>
      <trkpt lat="45.00267" lon="5.4871">
        <ele>1430.45</ele>
        <time>2019-08-26T10:13:06Z</time>
      </trkpt>
      <trkpt lat="45.00262" lon="5.48709">
        <ele>1430.42</ele>
        <time>2019-08-26T10:13:36Z</time>
      </trkpt>
      <trkpt lat="45.00265" lon="5.48714">
        <ele>1430.6</ele>
        <time>2019-08-26T10:14:03Z</time>
      </trkpt>
      <trkpt lat="45.00258" lon="5.48706">
        <ele>1430.64</ele>
        <time>2019-08-26T10:14:19Z</time>
      </trkpt>
      <trkpt lat="45.00257" lon="5.48705">
        <ele>1430.73</ele>
        <time>2019-08-26T10:14:20Z</time>
      </trkpt>
      <trkpt lat="45.00253" lon="5.48698">
        <ele>1431.06</ele>
        <time>2019-08-26T10:14:25Z</time>
      </trkpt>
      <trkpt lat="45.00249" lon="5.48678">
        <ele>1432.13</ele>
        <time>2019-08-26T10:14:38Z</time>
      </trkpt>
      <trkpt lat="45.00249" lon="5.48661">
        <ele>1433.86</ele>
        <time>2019-08-26T10:14:52Z</time>
      </trkpt>
      <trkpt lat="45.00251" lon="5.48639">
        <ele>1436.13</ele>
        <time>2019-08-26T10:15:07Z</time>
      </trkpt>
      <trkpt lat="45.00253" lon="5.48621">
        <ele>1437.96</ele>
        <time>2019-08-26T10:15:21Z</time>
      </trkpt>
      <trkpt lat="45.00258" lon="5.48597">
        <ele>1436.63</ele>
        <time>2019-08-26T10:15:27Z</time>
      </trkpt>
      <trkpt lat="45.00253" lon="5.48553">
        <ele>1432.77</ele>
        <time>2019-08-26T10:15:36Z</time>
      </trkpt>
      <trkpt lat="45.00252" lon="5.4855">
        <ele>1432.09</ele>
        <time>2019-08-26T10:15:37Z</time>
      </trkpt>
      <trkpt lat="45.00248" lon="5.48524">
        <ele>1427.94</ele>
        <time>2019-08-26T10:15:43Z</time>
      </trkpt>
      <trkpt lat="45.00248" lon="5.48519">
        <ele>1427.38</ele>
        <time>2019-08-26T10:15:44Z</time>
      </trkpt>
      <trkpt lat="45.00231" lon="5.48505">
        <ele>1424.1</ele>
        <time>2019-08-26T10:15:49Z</time>
      </trkpt>
      <trkpt lat="45.00218" lon="5.48508">
        <ele>1422.07</ele>
        <time>2019-08-26T10:15:53Z</time>
      </trkpt>
      <trkpt lat="45.00206" lon="5.48529">
        <ele>1418.45</ele>
        <time>2019-08-26T10:16:01Z</time>
      </trkpt>
      <trkpt lat="45.00202" lon="5.48546">
        <ele>1415.23</ele>
        <time>2019-08-26T10:16:07Z</time>
      </trkpt>
      <trkpt lat="45.002" lon="5.48549">
        <ele>1414.43</ele>
        <time>2019-08-26T10:16:08Z</time>
      </trkpt>
      <trkpt lat="45.00183" lon="5.48562">
        <ele>1410.82</ele>
        <time>2019-08-26T10:16:16Z</time>
      </trkpt>
      <trkpt lat="45.00175" lon="5.48564">
        <ele>1409.02</ele>
        <time>2019-08-26T10:16:19Z</time>
      </trkpt>
      <trkpt lat="45.00149" lon="5.48579">
        <ele>1406.38</ele>
        <time>2019-08-26T10:16:23Z</time>
      </trkpt>
      <trkpt lat="45.00111" lon="5.48627">
        <ele>1402.18</ele>
        <time>2019-08-26T10:16:30Z</time>
      </trkpt>
      <trkpt lat="45.00102" lon="5.48638">
        <ele>1400.81</ele>
        <time>2019-08-26T10:16:33Z</time>
      </trkpt>
      <trkpt lat="45.00059" lon="5.48672">
        <ele>1398.16</ele>
        <time>2019-08-26T10:16:43Z</time>
      </trkpt>
      <trkpt lat="45.00056" lon="5.48675">
        <ele>1397.87</ele>
        <time>2019-08-26T10:16:44Z</time>
      </trkpt>
      <trkpt lat="45.00041" lon="5.48696">
        <ele>1396.8</ele>
        <time>2019-08-26T10:16:48Z</time>
      </trkpt>
      <trkpt lat="45.00019" lon="5.48725">
        <ele>1395.48</ele>
        <time>2019-08-26T10:16:54Z</time>
      </trkpt>
      <trkpt lat="44.99995" lon="5.48742">
        <ele>1394.79</ele>
        <time>2019-08-26T10:17:00Z</time>
      </trkpt>
      <trkpt lat="44.99981" lon="5.4875">
        <ele>1394.28</ele>
        <time>2019-08-26T10:17:03Z</time>
      </trkpt>
      <trkpt lat="44.99953" lon="5.48759">
        <ele>1393.14</ele>
        <time>2019-08-26T10:17:09Z</time>
      </trkpt>
      <trkpt lat="44.99934" lon="5.48767">
        <ele>1392.93</ele>
        <time>2019-08-26T10:17:16Z</time>
      </trkpt>
      <trkpt lat="44.99927" lon="5.48769">
        <ele>1392.23</ele>
        <time>2019-08-26T10:17:33Z</time>
      </trkpt>
      <trkpt lat="44.99926" lon="5.48767">
        <ele>1392.56</ele>
        <time>2019-08-26T10:17:59Z</time>
      </trkpt>
      <trkpt lat="44.99924" lon="5.48767">
        <ele>1392.54</ele>
        <time>2019-08-26T10:18:26Z</time>
      </trkpt>
      <trkpt lat="44.99927" lon="5.48765">
        <ele>1392.82</ele>
        <time>2019-08-26T10:18:46Z</time>
      </trkpt>
      <trkpt lat="44.99925" lon="5.4876">
        <ele>1393.19</ele>
        <time>2019-08-26T10:18:58Z</time>
      </trkpt>
      <trkpt lat="44.99921" lon="5.48723">
        <ele>1392.45</ele>
        <time>2019-08-26T10:19:08Z</time>
      </trkpt>
      <trkpt lat="44.99912" lon="5.48703">
        <ele>1391.49</ele>
        <time>2019-08-26T10:19:14Z</time>
      </trkpt>
      <trkpt lat="44.99911" lon="5.4869">
        <ele>1391.43</ele>
        <time>2019-08-26T10:19:19Z</time>
      </trkpt>
      <trkpt lat="44.99919" lon="5.4866">
        <ele>1392.96</ele>
        <time>2019-08-26T10:19:32Z</time>
      </trkpt>
      <trkpt lat="44.99921" lon="5.48652">
        <ele>1393.35</ele>
        <time>2019-08-26T10:19:36Z</time>
      </trkpt>
      <trkpt lat="44.99927" lon="5.48645">
        <ele>1393.56</ele>
        <time>2019-08-26T10:19:40Z</time>
      </trkpt>
      <trkpt lat="44.99929" lon="5.48643">
        <ele>1393.61</ele>
        <time>2019-08-26T10:19:42Z</time>
      </trkpt>
      <trkpt lat="44.99937" lon="5.48625">
        <ele>1393.92</ele>
        <time>2019-08-26T10:19:52Z</time>
      </trkpt>
      <trkpt lat="44.99941" lon="5.48606">
        <ele>1395.26</ele>
        <time>2019-08-26T10:20:12Z</time>
      </trkpt>
      <trkpt lat="44.99958" lon="5.4859">
        <ele>1398.33</ele>
        <time>2019-08-26T10:20:31Z</time>
      </trkpt>
      <trkpt lat="44.99963" lon="5.48588">
        <ele>1401.16</ele>
        <time>2019-08-26T10:20:53Z</time>
      </trkpt>
      <trkpt lat="44.99963" lon="5.48588">
        <ele>1400.87</ele>
        <time>2019-08-26T10:21:24Z</time>
      </trkpt>
      <trkpt lat="44.99969" lon="5.48584">
        <ele>1400.77</ele>
        <time>2019-08-26T10:21:49Z</time>
      </trkpt>
      <trkpt lat="44.99965" lon="5.48588">
        <ele>1401.23</ele>
        <time>2019-08-26T10:22:18Z</time>
      </trkpt>
      <trkpt lat="44.99967" lon="5.48594">
        <ele>1401.6</ele>
        <time>2019-08-26T10:22:49Z</time>
      </trkpt>
      <trkpt lat="44.99966" lon="5.48588">
        <ele>1401.55</ele>
        <time>2019-08-26T10:23:27Z</time>
      </trkpt>
      <trkpt lat="44.99966" lon="5.48593">
        <ele>1402.08</ele>
        <time>2019-08-26T10:24:03Z</time>
      </trkpt>
      <trkpt lat="44.99975" lon="5.48589">
        <ele>1403.27</ele>
        <time>2019-08-26T10:24:40Z</time>
      </trkpt>
      <trkpt lat="44.99976" lon="5.48576">
        <ele>1406.27</ele>
        <time>2019-08-26T10:24:54Z</time>
      </trkpt>
      <trkpt lat="44.99975" lon="5.48564">
        <ele>1408.57</ele>
        <time>2019-08-26T10:25:06Z</time>
      </trkpt>
      <trkpt lat="44.99979" lon="5.48548">
        <ele>1411.78</ele>
        <time>2019-08-26T10:25:25Z</time>
      </trkpt>
      <trkpt lat="44.99989" lon="5.48529">
        <ele>1414.42</ele>
        <time>2019-08-26T10:25:45Z</time>
      </trkpt>
      <trkpt lat="44.99996" lon="5.48515">
        <ele>1416.82</ele>
        <time>2019-08-26T10:26:08Z</time>
      </trkpt>
      <trkpt lat="44.99998" lon="5.48512">
        <ele>1416.93</ele>
        <time>2019-08-26T10:26:44Z</time>
      </trkpt>
      <trkpt lat="44.99998" lon="5.48509">
        <ele>1417.11</ele>
        <time>2019-08-26T10:27:06Z</time>
      </trkpt>
      <trkpt lat="44.99998" lon="5.48508">
        <ele>1416.87</ele>
        <time>2019-08-26T10:27:27Z</time>
      </trkpt>
      <trkpt lat="44.99999" lon="5.48503">
        <ele>1416.46</ele>
        <time>2019-08-26T10:27:49Z</time>
      </trkpt>
      <trkpt lat="45" lon="5.48495">
        <ele>1416.34</ele>
        <time>2019-08-26T10:27:53Z</time>
      </trkpt>
      <trkpt lat="45.00002" lon="5.48479">
        <ele>1415.53</ele>
        <time>2019-08-26T10:27:59Z</time>
      </trkpt>
      <trkpt lat="45.00004" lon="5.4847">
        <ele>1414.45</ele>
        <time>2019-08-26T10:28:02Z</time>
      </trkpt>
      <trkpt lat="45.00008" lon="5.48463">
        <ele>1412.7</ele>
        <time>2019-08-26T10:28:05Z</time>
      </trkpt>
      <trkpt lat="45.00026" lon="5.48447">
        <ele>1410.53</ele>
        <time>2019-08-26T10:28:17Z</time>
      </trkpt>
      <trkpt lat="45.00038" lon="5.48436">
        <ele>1411.21</ele>
        <time>2019-08-26T10:28:29Z</time>
      </trkpt>
      <trkpt lat="45.00043" lon="5.48432">
        <ele>1411.35</ele>
        <time>2019-08-26T10:28:38Z</time>
      </trkpt>
      <trkpt lat="45.00076" lon="5.48412">
        <ele>1411.2</ele>
        <time>2019-08-26T10:28:52Z</time>
      </trkpt>
      <trkpt lat="45.00078" lon="5.4841">
        <ele>1411.1</ele>
        <time>2019-08-26T10:28:53Z</time>
      </trkpt>
      <trkpt lat="45.00102" lon="5.48387">
        <ele>1409.69</ele>
        <time>2019-08-26T10:29:01Z</time>
      </trkpt>
      <trkpt lat="45.0012" lon="5.4837">
        <ele>1408.1</ele>
        <time>2019-08-26T10:29:06Z</time>
      </trkpt>
      <trkpt lat="45.00131" lon="5.48362">
        <ele>1406.77</ele>
        <time>2019-08-26T10:29:09Z</time>
      </trkpt>
      <trkpt lat="45.0015" lon="5.48343">
        <ele>1404.57</ele>
        <time>2019-08-26T10:29:14Z</time>
      </trkpt>
      <trkpt lat="45.00176" lon="5.48324">
        <ele>1400.66</ele>
        <time>2019-08-26T10:29:21Z</time>
      </trkpt>
      <trkpt lat="45.00208" lon="5.48298">
        <ele>1397.35</ele>
        <time>2019-08-26T10:29:29Z</time>
      </trkpt>
      <trkpt lat="45.00212" lon="5.48294">
        <ele>1396.84</ele>
        <time>2019-08-26T10:29:30Z</time>
      </trkpt>
      <trkpt lat="45.00223" lon="5.48282">
        <ele>1395.28</ele>
        <time>2019-08-26T10:29:33Z</time>
      </trkpt>
      <trkpt lat="45.00245" lon="5.48263">
        <ele>1392.32</ele>
        <time>2019-08-26T10:29:39Z</time>
      </trkpt>
      <trkpt lat="45.00253" lon="5.48258">
        <ele>1391.31</ele>
        <time>2019-08-26T10:29:41Z</time>
      </trkpt>
      <trkpt lat="45.00283" lon="5.48236">
        <ele>1387.63</ele>
        <time>2019-08-26T10:29:48Z</time>
      </trkpt>
      <trkpt lat="45.00315" lon="5.48214">
        <ele>1383.77</ele>
        <time>2019-08-26T10:29:55Z</time>
      </trkpt>
      <trkpt lat="45.00343" lon="5.48195">
        <ele>1381.02</ele>
        <time>2019-08-26T10:30:00Z</time>
      </trkpt>
      <trkpt lat="45.00361" lon="5.48187">
        <ele>1379.12</ele>
        <time>2019-08-26T10:30:03Z</time>
      </trkpt>
      <trkpt lat="45.00373" lon="5.48184">
        <ele>1377.9</ele>
        <time>2019-08-26T10:30:05Z</time>
      </trkpt>
      <trkpt lat="45.00385" lon="5.48183">
        <ele>1376.86</ele>
        <time>2019-08-26T10:30:07Z</time>
      </trkpt>
      <trkpt lat="45.00429" lon="5.48179">
        <ele>1373.72</ele>
        <time>2019-08-26T10:30:15Z</time>
      </trkpt>
      <trkpt lat="45.00445" lon="5.48179">
        <ele>1373</ele>
        <time>2019-08-26T10:30:18Z</time>
      </trkpt>
      <trkpt lat="45.00478" lon="5.48184">
        <ele>1372</ele>
        <time>2019-08-26T10:30:24Z</time>
      </trkpt>
      <trkpt lat="45.00501" lon="5.4819">
        <ele>1371.49</ele>
        <time>2019-08-26T10:30:28Z</time>
      </trkpt>
      <trkpt lat="45.00522" lon="5.48222">
        <ele>1370.38</ele>
        <time>2019-08-26T10:30:35Z</time>
      </trkpt>
      <trkpt lat="45.00538" lon="5.48269">
        <ele>1369.56</ele>
        <time>2019-08-26T10:30:45Z</time>
      </trkpt>
      <trkpt lat="45.00556" lon="5.48287">
        <ele>1370.66</ele>
        <time>2019-08-26T10:30:54Z</time>
      </trkpt>
      <trkpt lat="45.00566" lon="5.48291">
        <ele>1371.64</ele>
        <time>2019-08-26T10:30:58Z</time>
      </trkpt>
      <trkpt lat="45.00591" lon="5.48289">
        <ele>1373.64</ele>
        <time>2019-08-26T10:31:09Z</time>
      </trkpt>
      <trkpt lat="45.00596" lon="5.48286">
        <ele>1374.73</ele>
        <time>2019-08-26T10:31:24Z</time>
      </trkpt>
      <trkpt lat="45.00607" lon="5.48285">
        <ele>1375.31</ele>
        <time>2019-08-26T10:31:47Z</time>
      </trkpt>
      <trkpt lat="45.00631" lon="5.48278">
        <ele>1376.4</ele>
        <time>2019-08-26T10:32:00Z</time>
      </trkpt>
      <trkpt lat="45.00654" lon="5.4827">
        <ele>1377.91</ele>
        <time>2019-08-26T10:32:11Z</time>
      </trkpt>
      <trkpt lat="45.00677" lon="5.4826">
        <ele>1379.76</ele>
        <time>2019-08-26T10:32:22Z</time>
      </trkpt>
      <trkpt lat="45.00687" lon="5.48255">
        <ele>1380.44</ele>
        <time>2019-08-26T10:32:28Z</time>
      </trkpt>
      <trkpt lat="45.00694" lon="5.4825">
        <ele>1380.78</ele>
        <time>2019-08-26T10:32:31Z</time>
      </trkpt>
      <trkpt lat="45.00717" lon="5.48237">
        <ele>1382.3</ele>
        <time>2019-08-26T10:32:42Z</time>
      </trkpt>
      <trkpt lat="45.00732" lon="5.48229">
        <ele>1382.98</ele>
        <time>2019-08-26T10:32:49Z</time>
      </trkpt>
      <trkpt lat="45.0074" lon="5.48224">
        <ele>1383.21</ele>
        <time>2019-08-26T10:32:53Z</time>
      </trkpt>
      <trkpt lat="45.0076" lon="5.48211">
        <ele>1383.91</ele>
        <time>2019-08-26T10:33:04Z</time>
      </trkpt>
      <trkpt lat="45.00774" lon="5.482">
        <ele>1384.1</ele>
        <time>2019-08-26T10:33:24Z</time>
      </trkpt>
      <trkpt lat="45.00782" lon="5.48189">
        <ele>1383.17</ele>
        <time>2019-08-26T10:33:40Z</time>
      </trkpt>
      <trkpt lat="45.0078" lon="5.48188">
        <ele>1383.29</ele>
        <time>2019-08-26T10:34:14Z</time>
      </trkpt>
      <trkpt lat="45.00782" lon="5.48189">
        <ele>1383.28</ele>
        <time>2019-08-26T10:34:43Z</time>
      </trkpt>
      <trkpt lat="45.00787" lon="5.48198">
        <ele>1383.48</ele>
        <time>2019-08-26T10:35:11Z</time>
      </trkpt>
      <trkpt lat="45.0079" lon="5.4817">
        <ele>1383.02</ele>
        <time>2019-08-26T10:35:31Z</time>
      </trkpt>
      <trkpt lat="45.00778" lon="5.48134">
        <ele>1379.58</ele>
        <time>2019-08-26T10:35:40Z</time>
      </trkpt>
      <trkpt lat="45.00766" lon="5.48109">
        <ele>1376.36</ele>
        <time>2019-08-26T10:35:45Z</time>
      </trkpt>
      <trkpt lat="45.00757" lon="5.48085">
        <ele>1373.17</ele>
        <time>2019-08-26T10:35:51Z</time>
      </trkpt>
      <trkpt lat="45.00753" lon="5.48073">
        <ele>1371.13</ele>
        <time>2019-08-26T10:36:05Z</time>
      </trkpt>
      <trkpt lat="45.0075" lon="5.48072">
        <ele>1370.52</ele>
        <time>2019-08-26T10:36:22Z</time>
      </trkpt>
      <trkpt lat="45.00754" lon="5.48068">
        <ele>1370.05</ele>
        <time>2019-08-26T10:36:29Z</time>
      </trkpt>
      <trkpt lat="45.00755" lon="5.48066">
        <ele>1369.96</ele>
        <time>2019-08-26T10:36:30Z</time>
      </trkpt>
      <trkpt lat="45.00755" lon="5.48063">
        <ele>1369.89</ele>
        <time>2019-08-26T10:36:31Z</time>
      </trkpt>
      <trkpt lat="45.00756" lon="5.48061">
        <ele>1369.8</ele>
        <time>2019-08-26T10:36:32Z</time>
      </trkpt>
      <trkpt lat="45.00756" lon="5.48058">
        <ele>1369.66</ele>
        <time>2019-08-26T10:36:33Z</time>
      </trkpt>
      <trkpt lat="45.00758" lon="5.48054">
        <ele>1368.96</ele>
        <time>2019-08-26T10:36:36Z</time>
      </trkpt>
      <trkpt lat="45.00763" lon="5.48031">
        <ele>1366.03</ele>
        <time>2019-08-26T10:36:47Z</time>
      </trkpt>
      <trkpt lat="45.00766" lon="5.48019">
        <ele>1364.75</ele>
        <time>2019-08-26T10:36:52Z</time>
      </trkpt>
      <trkpt lat="45.00767" lon="5.48017">
        <ele>1364.47</ele>
        <time>2019-08-26T10:36:53Z</time>
      </trkpt>
      <trkpt lat="45.00767" lon="5.48014">
        <ele>1364.21</ele>
        <time>2019-08-26T10:36:54Z</time>
      </trkpt>
      <trkpt lat="45.00774" lon="5.47988">
        <ele>1361.05</ele>
        <time>2019-08-26T10:37:02Z</time>
      </trkpt>
      <trkpt lat="45.00781" lon="5.47967">
        <ele>1357.96</ele>
        <time>2019-08-26T10:37:09Z</time>
      </trkpt>
      <trkpt lat="45.0079" lon="5.47943">
        <ele>1354.58</ele>
        <time>2019-08-26T10:37:16Z</time>
      </trkpt>
      <trkpt lat="45.00798" lon="5.47924">
        <ele>1351.51</ele>
        <time>2019-08-26T10:37:22Z</time>
      </trkpt>
      <trkpt lat="45.00808" lon="5.47903">
        <ele>1348.35</ele>
        <time>2019-08-26T10:37:29Z</time>
      </trkpt>
      <trkpt lat="45.00811" lon="5.47892">
        <ele>1346.36</ele>
        <time>2019-08-26T10:37:32Z</time>
      </trkpt>
      <trkpt lat="45.00818" lon="5.47873">
        <ele>1343.18</ele>
        <time>2019-08-26T10:37:38Z</time>
      </trkpt>
      <trkpt lat="45.00824" lon="5.47855">
        <ele>1339.92</ele>
        <time>2019-08-26T10:37:45Z</time>
      </trkpt>
      <trkpt lat="45.0083" lon="5.47841">
        <ele>1337.89</ele>
        <time>2019-08-26T10:37:50Z</time>
      </trkpt>
      <trkpt lat="45.00832" lon="5.47837">
        <ele>1337.27</ele>
        <time>2019-08-26T10:37:51Z</time>
      </trkpt>
      <trkpt lat="45.00843" lon="5.47811">
        <ele>1333.98</ele>
        <time>2019-08-26T10:37:57Z</time>
      </trkpt>
      <trkpt lat="45.0085" lon="5.47785">
        <ele>1331.64</ele>
        <time>2019-08-26T10:38:01Z</time>
      </trkpt>
      <trkpt lat="45.00851" lon="5.47779">
        <ele>1331.06</ele>
        <time>2019-08-26T10:38:02Z</time>
      </trkpt>
      <trkpt lat="45.00853" lon="5.47774">
        <ele>1330.39</ele>
        <time>2019-08-26T10:38:03Z</time>
      </trkpt>
      <trkpt lat="45.00855" lon="5.47769">
        <ele>1329.74</ele>
        <time>2019-08-26T10:38:04Z</time>
      </trkpt>
      <trkpt lat="45.00856" lon="5.47764">
        <ele>1329.13</ele>
        <time>2019-08-26T10:38:05Z</time>
      </trkpt>
      <trkpt lat="45.00859" lon="5.47746">
        <ele>1326.02</ele>
        <time>2019-08-26T10:38:11Z</time>
      </trkpt>
      <trkpt lat="45.0086" lon="5.47735">
        <ele>1324.24</ele>
        <time>2019-08-26T10:38:31Z</time>
      </trkpt>
      <trkpt lat="45.00865" lon="5.47731">
        <ele>1324.21</ele>
        <time>2019-08-26T10:38:47Z</time>
      </trkpt>
      <trkpt lat="45.00866" lon="5.4773">
        <ele>1324.2</ele>
        <time>2019-08-26T10:38:48Z</time>
      </trkpt>
      <trkpt lat="45.00868" lon="5.47729">
        <ele>1324.2</ele>
        <time>2019-08-26T10:38:49Z</time>
      </trkpt>
      <trkpt lat="45.00871" lon="5.47729">
        <ele>1324.2</ele>
        <time>2019-08-26T10:38:50Z</time>
      </trkpt>
      <trkpt lat="45.00873" lon="5.47728">
        <ele>1324.18</ele>
        <time>2019-08-26T10:38:51Z</time>
      </trkpt>
      <trkpt lat="45.00876" lon="5.47727">
        <ele>1324.16</ele>
        <time>2019-08-26T10:38:52Z</time>
      </trkpt>
      <trkpt lat="45.009" lon="5.47708">
        <ele>1323.95</ele>
        <time>2019-08-26T10:39:01Z</time>
      </trkpt>
      <trkpt lat="45.00904" lon="5.47703">
        <ele>1323.88</ele>
        <time>2019-08-26T10:39:02Z</time>
      </trkpt>
      <trkpt lat="45.00913" lon="5.47694">
        <ele>1323.72</ele>
        <time>2019-08-26T10:39:04Z</time>
      </trkpt>
      <trkpt lat="45.00929" lon="5.47685">
        <ele>1322.92</ele>
        <time>2019-08-26T10:39:07Z</time>
      </trkpt>
      <trkpt lat="45.00933" lon="5.47682">
        <ele>1322.64</ele>
        <time>2019-08-26T10:39:08Z</time>
      </trkpt>
      <trkpt lat="45.00936" lon="5.47679">
        <ele>1322.41</ele>
        <time>2019-08-26T10:39:09Z</time>
      </trkpt>
      <trkpt lat="45.00939" lon="5.47675">
        <ele>1322.22</ele>
        <time>2019-08-26T10:39:10Z</time>
      </trkpt>
      <trkpt lat="45.00943" lon="5.47672">
        <ele>1321.97</ele>
        <time>2019-08-26T10:39:11Z</time>
      </trkpt>
      <trkpt lat="45.00945" lon="5.4767">
        <ele>1321.89</ele>
        <time>2019-08-26T10:39:12Z</time>
      </trkpt>
      <trkpt lat="45.00947" lon="5.47668">
        <ele>1321.84</ele>
        <time>2019-08-26T10:39:13Z</time>
      </trkpt>
      <trkpt lat="45.00949" lon="5.47666">
        <ele>1321.8</ele>
        <time>2019-08-26T10:39:14Z</time>
      </trkpt>
      <trkpt lat="45.00951" lon="5.47666">
        <ele>1321.77</ele>
        <time>2019-08-26T10:39:15Z</time>
      </trkpt>
      <trkpt lat="45.00953" lon="5.47665">
        <ele>1321.77</ele>
        <time>2019-08-26T10:39:16Z</time>
      </trkpt>
      <trkpt lat="45.00955" lon="5.47664">
        <ele>1321.82</ele>
        <time>2019-08-26T10:39:17Z</time>
      </trkpt>
      <trkpt lat="45.00957" lon="5.47662">
        <ele>1321.86</ele>
        <time>2019-08-26T10:39:18Z</time>
      </trkpt>
      <trkpt lat="45.00975" lon="5.47652">
        <ele>1322.68</ele>
        <time>2019-08-26T10:39:30Z</time>
      </trkpt>
      <trkpt lat="45.0099" lon="5.47636">
        <ele>1322.7</ele>
        <time>2019-08-26T10:39:48Z</time>
      </trkpt>
      <trkpt lat="45.01012" lon="5.47613">
        <ele>1322.26</ele>
        <time>2019-08-26T10:39:59Z</time>
      </trkpt>
      <trkpt lat="45.01035" lon="5.47594">
        <ele>1322.24</ele>
        <time>2019-08-26T10:40:11Z</time>
      </trkpt>
      <trkpt lat="45.0105" lon="5.47571">
        <ele>1322.26</ele>
        <time>2019-08-26T10:40:19Z</time>
      </trkpt>
      <trkpt lat="45.01061" lon="5.47534">
        <ele>1322.32</ele>
        <time>2019-08-26T10:40:32Z</time>
      </trkpt>
      <trkpt lat="45.01071" lon="5.475">
        <ele>1321.51</ele>
        <time>2019-08-26T10:40:45Z</time>
      </trkpt>
      <trkpt lat="45.01082" lon="5.47472">
        <ele>1321.07</ele>
        <time>2019-08-26T10:40:55Z</time>
      </trkpt>
      <trkpt lat="45.01084" lon="5.47469">
        <ele>1320.82</ele>
        <time>2019-08-26T10:41:12Z</time>
      </trkpt>
      <trkpt lat="45.01092" lon="5.47464">
        <ele>1320.54</ele>
        <time>2019-08-26T10:41:38Z</time>
      </trkpt>
      <trkpt lat="45.01093" lon="5.47463">
        <ele>1320.5</ele>
        <time>2019-08-26T10:41:39Z</time>
      </trkpt>
      <trkpt lat="45.01094" lon="5.47461">
        <ele>1320.47</ele>
        <time>2019-08-26T10:41:40Z</time>
      </trkpt>
      <trkpt lat="45.01096" lon="5.47458">
        <ele>1320.45</ele>
        <time>2019-08-26T10:41:41Z</time>
      </trkpt>
      <trkpt lat="45.01098" lon="5.47457">
        <ele>1320.41</ele>
        <time>2019-08-26T10:41:42Z</time>
      </trkpt>
      <trkpt lat="45.01101" lon="5.47455">
        <ele>1320.35</ele>
        <time>2019-08-26T10:41:43Z</time>
      </trkpt>
      <trkpt lat="45.01127" lon="5.4744">
        <ele>1319.31</ele>
        <time>2019-08-26T10:41:51Z</time>
      </trkpt>
      <trkpt lat="45.0113" lon="5.47435">
        <ele>1319.08</ele>
        <time>2019-08-26T10:41:52Z</time>
      </trkpt>
      <trkpt lat="45.01132" lon="5.4743">
        <ele>1318.77</ele>
        <time>2019-08-26T10:41:53Z</time>
      </trkpt>
      <trkpt lat="45.01135" lon="5.47424">
        <ele>1318.45</ele>
        <time>2019-08-26T10:41:54Z</time>
      </trkpt>
      <trkpt lat="45.01138" lon="5.47419">
        <ele>1318.15</ele>
        <time>2019-08-26T10:41:55Z</time>
      </trkpt>
      <trkpt lat="45.0114" lon="5.47412">
        <ele>1317.88</ele>
        <time>2019-08-26T10:41:56Z</time>
      </trkpt>
      <trkpt lat="45.01142" lon="5.47405">
        <ele>1317.62</ele>
        <time>2019-08-26T10:41:57Z</time>
      </trkpt>
      <trkpt lat="45.01153" lon="5.47384">
        <ele>1316.78</ele>
        <time>2019-08-26T10:42:00Z</time>
      </trkpt>
      <trkpt lat="45.01158" lon="5.47378">
        <ele>1316.44</ele>
        <time>2019-08-26T10:42:01Z</time>
      </trkpt>
      <trkpt lat="45.01166" lon="5.47365">
        <ele>1315.78</ele>
        <time>2019-08-26T10:42:03Z</time>
      </trkpt>
      <trkpt lat="45.0117" lon="5.47357">
        <ele>1315.48</ele>
        <time>2019-08-26T10:42:04Z</time>
      </trkpt>
      <trkpt lat="45.01176" lon="5.47343">
        <ele>1314.89</ele>
        <time>2019-08-26T10:42:06Z</time>
      </trkpt>
      <trkpt lat="45.01179" lon="5.47337">
        <ele>1314.59</ele>
        <time>2019-08-26T10:42:07Z</time>
      </trkpt>
      <trkpt lat="45.01186" lon="5.47327">
        <ele>1314.01</ele>
        <time>2019-08-26T10:42:09Z</time>
      </trkpt>
      <trkpt lat="45.01195" lon="5.47319">
        <ele>1313.51</ele>
        <time>2019-08-26T10:42:11Z</time>
      </trkpt>
      <trkpt lat="45.01201" lon="5.47317">
        <ele>1313.24</ele>
        <time>2019-08-26T10:42:12Z</time>
      </trkpt>
      <trkpt lat="45.01213" lon="5.47313">
        <ele>1312.73</ele>
        <time>2019-08-26T10:42:14Z</time>
      </trkpt>
      <trkpt lat="45.01218" lon="5.4731">
        <ele>1312.26</ele>
        <time>2019-08-26T10:42:15Z</time>
      </trkpt>
      <trkpt lat="45.01224" lon="5.47305">
        <ele>1311.97</ele>
        <time>2019-08-26T10:42:16Z</time>
      </trkpt>
      <trkpt lat="45.01229" lon="5.473">
        <ele>1311.68</ele>
        <time>2019-08-26T10:42:17Z</time>
      </trkpt>
      <trkpt lat="45.01234" lon="5.47292">
        <ele>1311.41</ele>
        <time>2019-08-26T10:42:18Z</time>
      </trkpt>
      <trkpt lat="45.01239" lon="5.47284">
        <ele>1311.13</ele>
        <time>2019-08-26T10:42:19Z</time>
      </trkpt>
      <trkpt lat="45.01251" lon="5.47263">
        <ele>1310.28</ele>
        <time>2019-08-26T10:42:22Z</time>
      </trkpt>
      <trkpt lat="45.01255" lon="5.47259">
        <ele>1309.98</ele>
        <time>2019-08-26T10:42:23Z</time>
      </trkpt>
      <trkpt lat="45.01263" lon="5.47252">
        <ele>1309.41</ele>
        <time>2019-08-26T10:42:25Z</time>
      </trkpt>
      <trkpt lat="45.01267" lon="5.47249">
        <ele>1309.15</ele>
        <time>2019-08-26T10:42:26Z</time>
      </trkpt>
      <trkpt lat="45.01271" lon="5.47247">
        <ele>1308.9</ele>
        <time>2019-08-26T10:42:27Z</time>
      </trkpt>
      <trkpt lat="45.01275" lon="5.47244">
        <ele>1308.69</ele>
        <time>2019-08-26T10:42:28Z</time>
      </trkpt>
      <trkpt lat="45.01277" lon="5.4724">
        <ele>1308.47</ele>
        <time>2019-08-26T10:42:29Z</time>
      </trkpt>
      <trkpt lat="45.0128" lon="5.47236">
        <ele>1308.2</ele>
        <time>2019-08-26T10:42:30Z</time>
      </trkpt>
      <trkpt lat="45.01282" lon="5.47233">
        <ele>1307.93</ele>
        <time>2019-08-26T10:42:31Z</time>
      </trkpt>
      <trkpt lat="45.01283" lon="5.47229">
        <ele>1307.68</ele>
        <time>2019-08-26T10:42:32Z</time>
      </trkpt>
      <trkpt lat="45.01283" lon="5.47225">
        <ele>1307.44</ele>
        <time>2019-08-26T10:42:33Z</time>
      </trkpt>
      <trkpt lat="45.01282" lon="5.4722">
        <ele>1307.21</ele>
        <time>2019-08-26T10:42:34Z</time>
      </trkpt>
      <trkpt lat="45.0128" lon="5.47216">
        <ele>1307</ele>
        <time>2019-08-26T10:42:35Z</time>
      </trkpt>
      <trkpt lat="45.01278" lon="5.47213">
        <ele>1306.81</ele>
        <time>2019-08-26T10:42:36Z</time>
      </trkpt>
      <trkpt lat="45.01273" lon="5.47204">
        <ele>1306.11</ele>
        <time>2019-08-26T10:42:39Z</time>
      </trkpt>
      <trkpt lat="45.01276" lon="5.472">
        <ele>1305.07</ele>
        <time>2019-08-26T10:42:51Z</time>
      </trkpt>
      <trkpt lat="45.0128" lon="5.47197">
        <ele>1304.69</ele>
        <time>2019-08-26T10:43:10Z</time>
      </trkpt>
      <trkpt lat="45.01281" lon="5.47196">
        <ele>1304.29</ele>
        <time>2019-08-26T10:43:40Z</time>
      </trkpt>
      <trkpt lat="45.0128" lon="5.47202">
        <ele>1304.56</ele>
        <time>2019-08-26T10:43:49Z</time>
      </trkpt>
      <trkpt lat="45.01287" lon="5.47216">
        <ele>1304.59</ele>
        <time>2019-08-26T10:44:01Z</time>
      </trkpt>
      <trkpt lat="45.01291" lon="5.47218">
        <ele>1304.59</ele>
        <time>2019-08-26T10:44:05Z</time>
      </trkpt>
      <trkpt lat="45.01312" lon="5.47235">
        <ele>1305.38</ele>
        <time>2019-08-26T10:44:26Z</time>
      </trkpt>
      <trkpt lat="45.01316" lon="5.47242">
        <ele>1305.62</ele>
        <time>2019-08-26T10:44:43Z</time>
      </trkpt>
      <trkpt lat="45.0133" lon="5.47254">
        <ele>1306.29</ele>
        <time>2019-08-26T10:44:58Z</time>
      </trkpt>
      <trkpt lat="45.01345" lon="5.47261">
        <ele>1307.58</ele>
        <time>2019-08-26T10:45:12Z</time>
      </trkpt>
      <trkpt lat="45.01362" lon="5.47278">
        <ele>1308.54</ele>
        <time>2019-08-26T10:45:25Z</time>
      </trkpt>
      <trkpt lat="45.01362" lon="5.47282">
        <ele>1308.56</ele>
        <time>2019-08-26T10:45:26Z</time>
      </trkpt>
      <trkpt lat="45.01363" lon="5.47285">
        <ele>1308.59</ele>
        <time>2019-08-26T10:45:27Z</time>
      </trkpt>
      <trkpt lat="45.01362" lon="5.47289">
        <ele>1308.6</ele>
        <time>2019-08-26T10:45:28Z</time>
      </trkpt>
      <trkpt lat="45.01362" lon="5.47293">
        <ele>1308.61</ele>
        <time>2019-08-26T10:45:29Z</time>
      </trkpt>
      <trkpt lat="45.01362" lon="5.47297">
        <ele>1308.62</ele>
        <time>2019-08-26T10:45:30Z</time>
      </trkpt>
      <trkpt lat="45.01367" lon="5.47326">
        <ele>1309.66</ele>
        <time>2019-08-26T10:45:41Z</time>
      </trkpt>
      <trkpt lat="45.01368" lon="5.47328">
        <ele>1309.79</ele>
        <time>2019-08-26T10:45:42Z</time>
      </trkpt>
      <trkpt lat="45.01375" lon="5.47337">
        <ele>1310.41</ele>
        <time>2019-08-26T10:45:57Z</time>
      </trkpt>
      <trkpt lat="45.01378" lon="5.47341">
        <ele>1310.39</ele>
        <time>2019-08-26T10:46:01Z</time>
      </trkpt>
      <trkpt lat="45.01379" lon="5.47343">
        <ele>1310.43</ele>
        <time>2019-08-26T10:46:02Z</time>
      </trkpt>
      <trkpt lat="45.01381" lon="5.47345">
        <ele>1310.46</ele>
        <time>2019-08-26T10:46:03Z</time>
      </trkpt>
      <trkpt lat="45.01382" lon="5.47347">
        <ele>1310.49</ele>
        <time>2019-08-26T10:46:04Z</time>
      </trkpt>
      <trkpt lat="45.01383" lon="5.4735">
        <ele>1310.56</ele>
        <time>2019-08-26T10:46:05Z</time>
      </trkpt>
      <trkpt lat="45.01389" lon="5.47355">
        <ele>1311.01</ele>
        <time>2019-08-26T10:46:09Z</time>
      </trkpt>
      <trkpt lat="45.01391" lon="5.47357">
        <ele>1311.19</ele>
        <time>2019-08-26T10:46:10Z</time>
      </trkpt>
      <trkpt lat="45.01399" lon="5.47366">
        <ele>1312.45</ele>
        <time>2019-08-26T10:46:17Z</time>
      </trkpt>
      <trkpt lat="45.014" lon="5.47367">
        <ele>1312.63</ele>
        <time>2019-08-26T10:46:18Z</time>
      </trkpt>
      <trkpt lat="45.01401" lon="5.47368">
        <ele>1312.8</ele>
        <time>2019-08-26T10:46:19Z</time>
      </trkpt>
      <trkpt lat="45.01403" lon="5.47369">
        <ele>1312.93</ele>
        <time>2019-08-26T10:46:20Z</time>
      </trkpt>
      <trkpt lat="45.01405" lon="5.4737">
        <ele>1313.04</ele>
        <time>2019-08-26T10:46:21Z</time>
      </trkpt>
      <trkpt lat="45.01407" lon="5.47371">
        <ele>1313.14</ele>
        <time>2019-08-26T10:46:22Z</time>
      </trkpt>
      <trkpt lat="45.01409" lon="5.47372">
        <ele>1313.23</ele>
        <time>2019-08-26T10:46:23Z</time>
      </trkpt>
      <trkpt lat="45.0141" lon="5.47372">
        <ele>1313.31</ele>
        <time>2019-08-26T10:46:24Z</time>
      </trkpt>
      <trkpt lat="45.01426" lon="5.47369">
        <ele>1313.68</ele>
        <time>2019-08-26T10:46:32Z</time>
      </trkpt>
      <trkpt lat="45.01444" lon="5.47358">
        <ele>1314.41</ele>
        <time>2019-08-26T10:46:42Z</time>
      </trkpt>
      <trkpt lat="45.01464" lon="5.47356">
        <ele>1315.71</ele>
        <time>2019-08-26T10:46:52Z</time>
      </trkpt>
      <trkpt lat="45.01493" lon="5.4734">
        <ele>1316.18</ele>
        <time>2019-08-26T10:47:05Z</time>
      </trkpt>
      <trkpt lat="45.01526" lon="5.47324">
        <ele>1316.15</ele>
        <time>2019-08-26T10:47:16Z</time>
      </trkpt>
      <trkpt lat="45.01537" lon="5.47334">
        <ele>1316.37</ele>
        <time>2019-08-26T10:47:21Z</time>
      </trkpt>
      <trkpt lat="45.01539" lon="5.47337">
        <ele>1316.4</ele>
        <time>2019-08-26T10:47:22Z</time>
      </trkpt>
      <trkpt lat="45.01544" lon="5.47342">
        <ele>1316.27</ele>
        <time>2019-08-26T10:47:33Z</time>
      </trkpt>
      <trkpt lat="45.01549" lon="5.47338">
        <ele>1316.37</ele>
        <time>2019-08-26T10:47:48Z</time>
      </trkpt>
      <trkpt lat="45.01551" lon="5.47337">
        <ele>1316.35</ele>
        <time>2019-08-26T10:47:49Z</time>
      </trkpt>
      <trkpt lat="45.01552" lon="5.47337">
        <ele>1316.34</ele>
        <time>2019-08-26T10:47:50Z</time>
      </trkpt>
      <trkpt lat="45.01554" lon="5.47336">
        <ele>1316.36</ele>
        <time>2019-08-26T10:47:51Z</time>
      </trkpt>
      <trkpt lat="45.01555" lon="5.47336">
        <ele>1316.38</ele>
        <time>2019-08-26T10:47:52Z</time>
      </trkpt>
      <trkpt lat="45.01557" lon="5.47337">
        <ele>1316.42</ele>
        <time>2019-08-26T10:47:53Z</time>
      </trkpt>
      <trkpt lat="45.01559" lon="5.47337">
        <ele>1316.46</ele>
        <time>2019-08-26T10:47:54Z</time>
      </trkpt>
      <trkpt lat="45.01561" lon="5.47338">
        <ele>1316.5</ele>
        <time>2019-08-26T10:47:55Z</time>
      </trkpt>
      <trkpt lat="45.01564" lon="5.47338">
        <ele>1316.52</ele>
        <time>2019-08-26T10:47:56Z</time>
      </trkpt>
      <trkpt lat="45.01568" lon="5.47338">
        <ele>1316.53</ele>
        <time>2019-08-26T10:47:57Z</time>
      </trkpt>
      <trkpt lat="45.01607" lon="5.47336">
        <ele>1316.57</ele>
        <time>2019-08-26T10:48:09Z</time>
      </trkpt>
      <trkpt lat="45.01623" lon="5.47324">
        <ele>1316.52</ele>
        <time>2019-08-26T10:48:15Z</time>
      </trkpt>
      <trkpt lat="45.01645" lon="5.473">
        <ele>1316.43</ele>
        <time>2019-08-26T10:48:23Z</time>
      </trkpt>
      <trkpt lat="45.01648" lon="5.47297">
        <ele>1316.44</ele>
        <time>2019-08-26T10:48:24Z</time>
      </trkpt>
      <trkpt lat="45.01676" lon="5.47271">
        <ele>1317.28</ele>
        <time>2019-08-26T10:48:35Z</time>
      </trkpt>
      <trkpt lat="45.01701" lon="5.47232">
        <ele>1317.66</ele>
        <time>2019-08-26T10:48:44Z</time>
      </trkpt>
      <trkpt lat="45.01751" lon="5.47235">
        <ele>1317.97</ele>
        <time>2019-08-26T10:48:56Z</time>
      </trkpt>
      <trkpt lat="45.0179" lon="5.47239">
        <ele>1318.35</ele>
        <time>2019-08-26T10:49:07Z</time>
      </trkpt>
      <trkpt lat="45.01828" lon="5.47251">
        <ele>1318.1</ele>
        <time>2019-08-26T10:49:19Z</time>
      </trkpt>
      <trkpt lat="45.01865" lon="5.47278">
        <ele>1316.7</ele>
        <time>2019-08-26T10:49:29Z</time>
      </trkpt>
      <trkpt lat="45.01906" lon="5.47297">
        <ele>1315</ele>
        <time>2019-08-26T10:49:40Z</time>
      </trkpt>
      <trkpt lat="45.01947" lon="5.47315">
        <ele>1313.5</ele>
        <time>2019-08-26T10:49:52Z</time>
      </trkpt>
      <trkpt lat="45.0197" lon="5.47337">
        <ele>1312.27</ele>
        <time>2019-08-26T10:50:02Z</time>
      </trkpt>
      <trkpt lat="45.01977" lon="5.4734">
        <ele>1311.19</ele>
        <time>2019-08-26T10:50:27Z</time>
      </trkpt>
      <trkpt lat="45.01983" lon="5.47351">
        <ele>1310.58</ele>
        <time>2019-08-26T10:50:42Z</time>
      </trkpt>
      <trkpt lat="45.01985" lon="5.47353">
        <ele>1310.52</ele>
        <time>2019-08-26T10:50:43Z</time>
      </trkpt>
      <trkpt lat="45.01986" lon="5.47356">
        <ele>1310.46</ele>
        <time>2019-08-26T10:50:44Z</time>
      </trkpt>
      <trkpt lat="45.01988" lon="5.47358">
        <ele>1310.36</ele>
        <time>2019-08-26T10:50:45Z</time>
      </trkpt>
      <trkpt lat="45.0199" lon="5.47359">
        <ele>1310.26</ele>
        <time>2019-08-26T10:50:46Z</time>
      </trkpt>
      <trkpt lat="45.01991" lon="5.4736">
        <ele>1310.16</ele>
        <time>2019-08-26T10:50:47Z</time>
      </trkpt>
      <trkpt lat="45.01993" lon="5.4736">
        <ele>1310.08</ele>
        <time>2019-08-26T10:50:48Z</time>
      </trkpt>
      <trkpt lat="45.01995" lon="5.47362">
        <ele>1309.91</ele>
        <time>2019-08-26T10:50:51Z</time>
      </trkpt>
      <trkpt lat="45.02004" lon="5.47396">
        <ele>1309.28</ele>
        <time>2019-08-26T10:51:04Z</time>
      </trkpt>
      <trkpt lat="45.02012" lon="5.47422">
        <ele>1309.01</ele>
        <time>2019-08-26T10:51:09Z</time>
      </trkpt>
      <trkpt lat="45.02022" lon="5.47447">
        <ele>1308.01</ele>
        <time>2019-08-26T10:51:13Z</time>
      </trkpt>
      <trkpt lat="45.02027" lon="5.47466">
        <ele>1307.26</ele>
        <time>2019-08-26T10:51:16Z</time>
      </trkpt>
      <trkpt lat="45.02028" lon="5.47473">
        <ele>1307.03</ele>
        <time>2019-08-26T10:51:17Z</time>
      </trkpt>
      <trkpt lat="45.02027" lon="5.47481">
        <ele>1306.79</ele>
        <time>2019-08-26T10:51:18Z</time>
      </trkpt>
      <trkpt lat="45.02027" lon="5.47488">
        <ele>1306.52</ele>
        <time>2019-08-26T10:51:19Z</time>
      </trkpt>
      <trkpt lat="45.02029" lon="5.47496">
        <ele>1306.2</ele>
        <time>2019-08-26T10:51:20Z</time>
      </trkpt>
      <trkpt lat="45.02029" lon="5.47504">
        <ele>1305.81</ele>
        <time>2019-08-26T10:51:21Z</time>
      </trkpt>
      <trkpt lat="45.0203" lon="5.47512">
        <ele>1305.43</ele>
        <time>2019-08-26T10:51:22Z</time>
      </trkpt>
      <trkpt lat="45.02033" lon="5.47519">
        <ele>1305.12</ele>
        <time>2019-08-26T10:51:23Z</time>
      </trkpt>
      <trkpt lat="45.02035" lon="5.47526">
        <ele>1304.86</ele>
        <time>2019-08-26T10:51:24Z</time>
      </trkpt>
      <trkpt lat="45.0204" lon="5.47541">
        <ele>1304.43</ele>
        <time>2019-08-26T10:51:26Z</time>
      </trkpt>
      <trkpt lat="45.02045" lon="5.47547">
        <ele>1304.15</ele>
        <time>2019-08-26T10:51:27Z</time>
      </trkpt>
      <trkpt lat="45.02051" lon="5.47552">
        <ele>1303.81</ele>
        <time>2019-08-26T10:51:28Z</time>
      </trkpt>
      <trkpt lat="45.02064" lon="5.47555">
        <ele>1303.1</ele>
        <time>2019-08-26T10:51:30Z</time>
      </trkpt>
      <trkpt lat="45.02103" lon="5.47562">
        <ele>1301.66</ele>
        <time>2019-08-26T10:51:39Z</time>
      </trkpt>
      <trkpt lat="45.02129" lon="5.47573">
        <ele>1301.09</ele>
        <time>2019-08-26T10:51:45Z</time>
      </trkpt>
      <trkpt lat="45.02176" lon="5.47593">
        <ele>1300.17</ele>
        <time>2019-08-26T10:51:55Z</time>
      </trkpt>
      <trkpt lat="45.02205" lon="5.47605">
        <ele>1299.89</ele>
        <time>2019-08-26T10:52:02Z</time>
      </trkpt>
      <trkpt lat="45.02221" lon="5.47606">
        <ele>1299.52</ele>
        <time>2019-08-26T10:52:05Z</time>
      </trkpt>
      <trkpt lat="45.02255" lon="5.47612">
        <ele>1298.05</ele>
        <time>2019-08-26T10:52:10Z</time>
      </trkpt>
      <trkpt lat="45.02284" lon="5.4762">
        <ele>1296.73</ele>
        <time>2019-08-26T10:52:14Z</time>
      </trkpt>
      <trkpt lat="45.02302" lon="5.47628">
        <ele>1295.96</ele>
        <time>2019-08-26T10:52:17Z</time>
      </trkpt>
      <trkpt lat="45.02331" lon="5.47639">
        <ele>1294.6</ele>
        <time>2019-08-26T10:52:25Z</time>
      </trkpt>
      <trkpt lat="45.02339" lon="5.47637">
        <ele>1294.33</ele>
        <time>2019-08-26T10:52:30Z</time>
      </trkpt>
      <trkpt lat="45.02342" lon="5.47628">
        <ele>1293.93</ele>
        <time>2019-08-26T10:52:40Z</time>
      </trkpt>
      <trkpt lat="45.02344" lon="5.47621">
        <ele>1293.81</ele>
        <time>2019-08-26T10:52:55Z</time>
      </trkpt>
      <trkpt lat="45.02349" lon="5.47621">
        <ele>1292.74</ele>
        <time>2019-08-26T10:53:21Z</time>
      </trkpt>
      <trkpt lat="45.02342" lon="5.47618">
        <ele>1292.51</ele>
        <time>2019-08-26T10:53:52Z</time>
      </trkpt>
      <trkpt lat="45.02348" lon="5.47623">
        <ele>1292.27</ele>
        <time>2019-08-26T10:54:43Z</time>
      </trkpt>
      <trkpt lat="45.02345" lon="5.47621">
        <ele>1292.17</ele>
        <time>2019-08-26T10:56:00Z</time>
      </trkpt>
      <trkpt lat="45.02346" lon="5.47619">
        <ele>1292.7</ele>
        <time>2019-08-26T10:56:47Z</time>
      </trkpt>
      <trkpt lat="45.02351" lon="5.47615">
        <ele>1292.68</ele>
        <time>2019-08-26T10:57:20Z</time>
      </trkpt>
      <trkpt lat="45.0235" lon="5.47617">
        <ele>1292.08</ele>
        <time>2019-08-26T10:57:48Z</time>
      </trkpt>
      <trkpt lat="45.02347" lon="5.47626">
        <ele>1291.81</ele>
        <time>2019-08-26T10:58:59Z</time>
      </trkpt>
      <trkpt lat="45.02347" lon="5.47624">
        <ele>1291.47</ele>
        <time>2019-08-26T10:59:44Z</time>
      </trkpt>
      <trkpt lat="45.02347" lon="5.4762">
        <ele>1291.22</ele>
        <time>2019-08-26T11:01:08Z</time>
      </trkpt>
      <trkpt lat="45.02346" lon="5.4762">
        <ele>1290.87</ele>
        <time>2019-08-26T11:03:16Z</time>
      </trkpt>
      <trkpt lat="45.02347" lon="5.47621">
        <ele>1290.59</ele>
        <time>2019-08-26T11:05:12Z</time>
      </trkpt>
      <trkpt lat="45.02349" lon="5.47622">
        <ele>1290.51</ele>
        <time>2019-08-26T11:06:18Z</time>
      </trkpt>
      <trkpt lat="45.02348" lon="5.4762">
        <ele>1290.29</ele>
        <time>2019-08-26T11:07:31Z</time>
      </trkpt>
      <trkpt lat="45.02348" lon="5.47621">
        <ele>1290.07</ele>
        <time>2019-08-26T11:08:40Z</time>
      </trkpt>
      <trkpt lat="45.02349" lon="5.47617">
        <ele>1289.81</ele>
        <time>2019-08-26T11:09:40Z</time>
      </trkpt>
      <trkpt lat="45.02349" lon="5.47617">
        <ele>1288.77</ele>
        <time>2019-08-26T11:12:21Z</time>
      </trkpt>
      <trkpt lat="45.02349" lon="5.47616">
        <ele>1287.73</ele>
        <time>2019-08-26T11:16:26Z</time>
      </trkpt>
      <trkpt lat="45.02348" lon="5.47619">
        <ele>1287.88</ele>
        <time>2019-08-26T11:17:57Z</time>
      </trkpt>
      <trkpt lat="45.02346" lon="5.47616">
        <ele>1287.43</ele>
        <time>2019-08-26T11:19:19Z</time>
      </trkpt>
      <trkpt lat="45.02346" lon="5.47619">
        <ele>1287.33</ele>
        <time>2019-08-26T11:20:11Z</time>
      </trkpt>
      <trkpt lat="45.02353" lon="5.47619">
        <ele>1287.15</ele>
        <time>2019-08-26T11:22:16Z</time>
      </trkpt>
      <trkpt lat="45.02347" lon="5.4762">
        <ele>1287.31</ele>
        <time>2019-08-26T11:23:30Z</time>
      </trkpt>
      <trkpt lat="45.0235" lon="5.47619">
        <ele>1287.51</ele>
        <time>2019-08-26T11:26:15Z</time>
      </trkpt>
      <trkpt lat="45.02349" lon="5.47618">
        <ele>1287.19</ele>
        <time>2019-08-26T11:28:13Z</time>
      </trkpt>
      <trkpt lat="45.02351" lon="5.4762">
        <ele>1287.07</ele>
        <time>2019-08-26T11:29:24Z</time>
      </trkpt>
      <trkpt lat="45.0235" lon="5.47619">
        <ele>1287.12</ele>
        <time>2019-08-26T11:30:29Z</time>
      </trkpt>
      <trkpt lat="45.02348" lon="5.47619">
        <ele>1287.05</ele>
        <time>2019-08-26T11:31:33Z</time>
      </trkpt>
      <trkpt lat="45.02347" lon="5.47621">
        <ele>1287.34</ele>
        <time>2019-08-26T11:32:47Z</time>
      </trkpt>
      <trkpt lat="45.02347" lon="5.47618">
        <ele>1287.94</ele>
        <time>2019-08-26T11:33:55Z</time>
      </trkpt>
      <trkpt lat="45.02344" lon="5.47616">
        <ele>1287.83</ele>
        <time>2019-08-26T11:34:56Z</time>
      </trkpt>
      <trkpt lat="45.02344" lon="5.47611">
        <ele>1288.45</ele>
        <time>2019-08-26T11:36:02Z</time>
      </trkpt>
      <trkpt lat="45.02347" lon="5.47616">
        <ele>1288.02</ele>
        <time>2019-08-26T11:36:56Z</time>
      </trkpt>
      <trkpt lat="45.02344" lon="5.47618">
        <ele>1288.52</ele>
        <time>2019-08-26T11:38:00Z</time>
      </trkpt>
      <trkpt lat="45.02348" lon="5.4762">
        <ele>1288.64</ele>
        <time>2019-08-26T11:39:07Z</time>
      </trkpt>
      <trkpt lat="45.02348" lon="5.4762">
        <ele>1288.46</ele>
        <time>2019-08-26T11:40:12Z</time>
      </trkpt>
      <trkpt lat="45.02347" lon="5.47626">
        <ele>1289.05</ele>
        <time>2019-08-26T11:41:40Z</time>
      </trkpt>
      <trkpt lat="45.02347" lon="5.4762">
        <ele>1290.02</ele>
        <time>2019-08-26T11:43:30Z</time>
      </trkpt>
      <trkpt lat="45.02346" lon="5.4762">
        <ele>1290.2</ele>
        <time>2019-08-26T11:45:15Z</time>
      </trkpt>
      <trkpt lat="45.02345" lon="5.4762">
        <ele>1291.01</ele>
        <time>2019-08-26T11:46:21Z</time>
      </trkpt>
      <trkpt lat="45.02347" lon="5.47621">
        <ele>1291.06</ele>
        <time>2019-08-26T11:47:12Z</time>
      </trkpt>
      <trkpt lat="45.02349" lon="5.47624">
        <ele>1291.49</ele>
        <time>2019-08-26T11:47:43Z</time>
      </trkpt>
      <trkpt lat="45.02347" lon="5.4762">
        <ele>1291.61</ele>
        <time>2019-08-26T11:48:54Z</time>
      </trkpt>
      <trkpt lat="45.02345" lon="5.47619">
        <ele>1292.01</ele>
        <time>2019-08-26T11:50:44Z</time>
      </trkpt>
      <trkpt lat="45.02343" lon="5.47617">
        <ele>1292.21</ele>
        <time>2019-08-26T11:52:07Z</time>
      </trkpt>
      <trkpt lat="45.02346" lon="5.47617">
        <ele>1292.45</ele>
        <time>2019-08-26T11:53:00Z</time>
      </trkpt>
      <trkpt lat="45.02348" lon="5.4762">
        <ele>1292.03</ele>
        <time>2019-08-26T11:55:03Z</time>
      </trkpt>
      <trkpt lat="45.02348" lon="5.4762">
        <ele>1291.59</ele>
        <time>2019-08-26T11:58:48Z</time>
      </trkpt>
      <trkpt lat="45.02346" lon="5.47621">
        <ele>1292.16</ele>
        <time>2019-08-26T11:59:46Z</time>
      </trkpt>
      <trkpt lat="45.02349" lon="5.47619">
        <ele>1292.32</ele>
        <time>2019-08-26T12:00:13Z</time>
      </trkpt>
      <trkpt lat="45.02348" lon="5.47623">
        <ele>1292.02</ele>
        <time>2019-08-26T12:00:36Z</time>
      </trkpt>
      <trkpt lat="45.02346" lon="5.47631">
        <ele>1291.87</ele>
        <time>2019-08-26T12:00:53Z</time>
      </trkpt>
      <trkpt lat="45.02344" lon="5.47636">
        <ele>1292.13</ele>
        <time>2019-08-26T12:01:07Z</time>
      </trkpt>
      <trkpt lat="45.02344" lon="5.47633">
        <ele>1292.43</ele>
        <time>2019-08-26T12:01:32Z</time>
      </trkpt>
      <trkpt lat="45.02341" lon="5.47636">
        <ele>1292.37</ele>
        <time>2019-08-26T12:02:02Z</time>
      </trkpt>
      <trkpt lat="45.02337" lon="5.47632">
        <ele>1292.7</ele>
        <time>2019-08-26T12:02:36Z</time>
      </trkpt>
      <trkpt lat="45.02336" lon="5.47633">
        <ele>1292.63</ele>
        <time>2019-08-26T12:03:05Z</time>
      </trkpt>
      <trkpt lat="45.02336" lon="5.47638">
        <ele>1292.2</ele>
        <time>2019-08-26T12:03:38Z</time>
      </trkpt>
      <trkpt lat="45.02337" lon="5.47635">
        <ele>1292.73</ele>
        <time>2019-08-26T12:04:14Z</time>
      </trkpt>
      <trkpt lat="45.02341" lon="5.47639">
        <ele>1292.61</ele>
        <time>2019-08-26T12:04:39Z</time>
      </trkpt>
      <trkpt lat="45.02344" lon="5.4764">
        <ele>1292.59</ele>
        <time>2019-08-26T12:04:44Z</time>
      </trkpt>
      <trkpt lat="45.02367" lon="5.47644">
        <ele>1292.39</ele>
        <time>2019-08-26T12:04:57Z</time>
      </trkpt>
      <trkpt lat="45.02404" lon="5.47656">
        <ele>1290.91</ele>
        <time>2019-08-26T12:05:10Z</time>
      </trkpt>
      <trkpt lat="45.02416" lon="5.47661">
        <ele>1290.48</ele>
        <time>2019-08-26T12:05:13Z</time>
      </trkpt>
      <trkpt lat="45.02505" lon="5.47672">
        <ele>1287.8</ele>
        <time>2019-08-26T12:05:29Z</time>
      </trkpt>
      <trkpt lat="45.0257" lon="5.47688">
        <ele>1284.51</ele>
        <time>2019-08-26T12:05:39Z</time>
      </trkpt>
      <trkpt lat="45.02617" lon="5.47701">
        <ele>1282.97</ele>
        <time>2019-08-26T12:05:50Z</time>
      </trkpt>
      <trkpt lat="45.02652" lon="5.4771">
        <ele>1284.97</ele>
        <time>2019-08-26T12:06:08Z</time>
      </trkpt>
      <trkpt lat="45.02706" lon="5.4772">
        <ele>1287.03</ele>
        <time>2019-08-26T12:06:33Z</time>
      </trkpt>
      <trkpt lat="45.02759" lon="5.47713">
        <ele>1288.7</ele>
        <time>2019-08-26T12:06:57Z</time>
      </trkpt>
      <trkpt lat="45.02789" lon="5.47704">
        <ele>1290.26</ele>
        <time>2019-08-26T12:07:15Z</time>
      </trkpt>
      <trkpt lat="45.02818" lon="5.47698">
        <ele>1292.3</ele>
        <time>2019-08-26T12:07:34Z</time>
      </trkpt>
      <trkpt lat="45.02844" lon="5.47698">
        <ele>1294.3</ele>
        <time>2019-08-26T12:07:50Z</time>
      </trkpt>
      <trkpt lat="45.02873" lon="5.47703">
        <ele>1295.69</ele>
        <time>2019-08-26T12:08:07Z</time>
      </trkpt>
      <trkpt lat="45.02914" lon="5.47713">
        <ele>1296.06</ele>
        <time>2019-08-26T12:08:29Z</time>
      </trkpt>
      <trkpt lat="45.02952" lon="5.47719">
        <ele>1296.37</ele>
        <time>2019-08-26T12:08:49Z</time>
      </trkpt>
      <trkpt lat="45.02997" lon="5.47724">
        <ele>1296.81</ele>
        <time>2019-08-26T12:09:10Z</time>
      </trkpt>
      <trkpt lat="45.03037" lon="5.47736">
        <ele>1297.93</ele>
        <time>2019-08-26T12:09:30Z</time>
      </trkpt>
      <trkpt lat="45.03074" lon="5.47745">
        <ele>1298.14</ele>
        <time>2019-08-26T12:09:48Z</time>
      </trkpt>
      <trkpt lat="45.03115" lon="5.47769">
        <ele>1297.49</ele>
        <time>2019-08-26T12:10:06Z</time>
      </trkpt>
      <trkpt lat="45.03151" lon="5.47778">
        <ele>1296.81</ele>
        <time>2019-08-26T12:10:22Z</time>
      </trkpt>
      <trkpt lat="45.03196" lon="5.47782">
        <ele>1296.27</ele>
        <time>2019-08-26T12:10:40Z</time>
      </trkpt>
      <trkpt lat="45.03231" lon="5.47782">
        <ele>1296.3</ele>
        <time>2019-08-26T12:10:56Z</time>
      </trkpt>
      <trkpt lat="45.03269" lon="5.47795">
        <ele>1297.14</ele>
        <time>2019-08-26T12:11:15Z</time>
      </trkpt>
      <trkpt lat="45.03293" lon="5.47828">
        <ele>1298.18</ele>
        <time>2019-08-26T12:11:33Z</time>
      </trkpt>
      <trkpt lat="45.03321" lon="5.47868">
        <ele>1299.98</ele>
        <time>2019-08-26T12:11:54Z</time>
      </trkpt>
      <trkpt lat="45.03346" lon="5.47901">
        <ele>1301.49</ele>
        <time>2019-08-26T12:12:13Z</time>
      </trkpt>
      <trkpt lat="45.03368" lon="5.47932">
        <ele>1303.49</ele>
        <time>2019-08-26T12:12:33Z</time>
      </trkpt>
      <trkpt lat="45.03383" lon="5.47952">
        <ele>1305.63</ele>
        <time>2019-08-26T12:12:48Z</time>
      </trkpt>
      <trkpt lat="45.03392" lon="5.47962">
        <ele>1306.94</ele>
        <time>2019-08-26T12:12:58Z</time>
      </trkpt>
      <trkpt lat="45.03407" lon="5.47971">
        <ele>1309.17</ele>
        <time>2019-08-26T12:13:13Z</time>
      </trkpt>
      <trkpt lat="45.03425" lon="5.47972">
        <ele>1311.54</ele>
        <time>2019-08-26T12:13:28Z</time>
      </trkpt>
      <trkpt lat="45.03444" lon="5.47974">
        <ele>1313.58</ele>
        <time>2019-08-26T12:13:42Z</time>
      </trkpt>
      <trkpt lat="45.03455" lon="5.47975">
        <ele>1314.2</ele>
        <time>2019-08-26T12:13:50Z</time>
      </trkpt>
      <trkpt lat="45.03458" lon="5.47974">
        <ele>1314.42</ele>
        <time>2019-08-26T12:13:52Z</time>
      </trkpt>
      <trkpt lat="45.03481" lon="5.47975">
        <ele>1315.86</ele>
        <time>2019-08-26T12:14:07Z</time>
      </trkpt>
      <trkpt lat="45.03513" lon="5.47974">
        <ele>1317.63</ele>
        <time>2019-08-26T12:14:25Z</time>
      </trkpt>
      <trkpt lat="45.03537" lon="5.47972">
        <ele>1318.72</ele>
        <time>2019-08-26T12:14:40Z</time>
      </trkpt>
      <trkpt lat="45.03567" lon="5.47967">
        <ele>1320.37</ele>
        <time>2019-08-26T12:14:58Z</time>
      </trkpt>
      <trkpt lat="45.03589" lon="5.47964">
        <ele>1322.22</ele>
        <time>2019-08-26T12:15:13Z</time>
      </trkpt>
      <trkpt lat="45.03613" lon="5.47962">
        <ele>1324.09</ele>
        <time>2019-08-26T12:15:29Z</time>
      </trkpt>
      <trkpt lat="45.03639" lon="5.47955">
        <ele>1326.17</ele>
        <time>2019-08-26T12:15:46Z</time>
      </trkpt>
      <trkpt lat="45.03663" lon="5.47939">
        <ele>1327.68</ele>
        <time>2019-08-26T12:16:01Z</time>
      </trkpt>
      <trkpt lat="45.03691" lon="5.47907">
        <ele>1328.44</ele>
        <time>2019-08-26T12:16:17Z</time>
      </trkpt>
      <trkpt lat="45.03718" lon="5.47876">
        <ele>1328.86</ele>
        <time>2019-08-26T12:16:32Z</time>
      </trkpt>
      <trkpt lat="45.03742" lon="5.47852">
        <ele>1329.42</ele>
        <time>2019-08-26T12:16:46Z</time>
      </trkpt>
      <trkpt lat="45.03759" lon="5.47831">
        <ele>1330.08</ele>
        <time>2019-08-26T12:16:58Z</time>
      </trkpt>
      <trkpt lat="45.03782" lon="5.47812">
        <ele>1331.47</ele>
        <time>2019-08-26T12:17:12Z</time>
      </trkpt>
      <trkpt lat="45.03808" lon="5.478">
        <ele>1332.32</ele>
        <time>2019-08-26T12:17:25Z</time>
      </trkpt>
      <trkpt lat="45.03829" lon="5.47789">
        <ele>1333.27</ele>
        <time>2019-08-26T12:17:37Z</time>
      </trkpt>
      <trkpt lat="45.03854" lon="5.47779">
        <ele>1334.49</ele>
        <time>2019-08-26T12:17:50Z</time>
      </trkpt>
      <trkpt lat="45.0388" lon="5.47769">
        <ele>1336.07</ele>
        <time>2019-08-26T12:18:03Z</time>
      </trkpt>
      <trkpt lat="45.03907" lon="5.47757">
        <ele>1337.84</ele>
        <time>2019-08-26T12:18:18Z</time>
      </trkpt>
      <trkpt lat="45.0393" lon="5.47748">
        <ele>1339.99</ele>
        <time>2019-08-26T12:18:36Z</time>
      </trkpt>
      <trkpt lat="45.03934" lon="5.47748">
        <ele>1340.25</ele>
        <time>2019-08-26T12:18:39Z</time>
      </trkpt>
      <trkpt lat="45.03935" lon="5.47747">
        <ele>1340.36</ele>
        <time>2019-08-26T12:18:40Z</time>
      </trkpt>
      <trkpt lat="45.0394" lon="5.47745">
        <ele>1341.01</ele>
        <time>2019-08-26T12:18:44Z</time>
      </trkpt>
      <trkpt lat="45.03943" lon="5.47745">
        <ele>1341.28</ele>
        <time>2019-08-26T12:18:46Z</time>
      </trkpt>
      <trkpt lat="45.03944" lon="5.47745">
        <ele>1341.39</ele>
        <time>2019-08-26T12:18:47Z</time>
      </trkpt>
      <trkpt lat="45.03958" lon="5.47737">
        <ele>1342.49</ele>
        <time>2019-08-26T12:18:58Z</time>
      </trkpt>
      <trkpt lat="45.03975" lon="5.47729">
        <ele>1344.51</ele>
        <time>2019-08-26T12:19:12Z</time>
      </trkpt>
      <trkpt lat="45.03993" lon="5.47721">
        <ele>1346.19</ele>
        <time>2019-08-26T12:19:24Z</time>
      </trkpt>
      <trkpt lat="45.04004" lon="5.47718">
        <ele>1347.44</ele>
        <time>2019-08-26T12:19:32Z</time>
      </trkpt>
      <trkpt lat="45.04026" lon="5.47712">
        <ele>1349.65</ele>
        <time>2019-08-26T12:19:47Z</time>
      </trkpt>
      <trkpt lat="45.04049" lon="5.47702">
        <ele>1352.17</ele>
        <time>2019-08-26T12:20:04Z</time>
      </trkpt>
      <trkpt lat="45.04067" lon="5.4769">
        <ele>1353.82</ele>
        <time>2019-08-26T12:20:18Z</time>
      </trkpt>
      <trkpt lat="45.04084" lon="5.47683">
        <ele>1355.65</ele>
        <time>2019-08-26T12:20:32Z</time>
      </trkpt>
      <trkpt lat="45.04105" lon="5.47675">
        <ele>1357.61</ele>
        <time>2019-08-26T12:20:47Z</time>
      </trkpt>
      <trkpt lat="45.04128" lon="5.4767">
        <ele>1359.78</ele>
        <time>2019-08-26T12:21:02Z</time>
      </trkpt>
      <trkpt lat="45.04152" lon="5.47668">
        <ele>1361.59</ele>
        <time>2019-08-26T12:21:17Z</time>
      </trkpt>
      <trkpt lat="45.04165" lon="5.47664">
        <ele>1362.49</ele>
        <time>2019-08-26T12:21:25Z</time>
      </trkpt>
      <trkpt lat="45.04167" lon="5.47664">
        <ele>1362.57</ele>
        <time>2019-08-26T12:21:26Z</time>
      </trkpt>
      <trkpt lat="45.04169" lon="5.47664">
        <ele>1362.68</ele>
        <time>2019-08-26T12:21:27Z</time>
      </trkpt>
      <trkpt lat="45.04191" lon="5.47659">
        <ele>1364.27</ele>
        <time>2019-08-26T12:21:40Z</time>
      </trkpt>
      <trkpt lat="45.04219" lon="5.47649">
        <ele>1363.96</ele>
        <time>2019-08-26T12:21:50Z</time>
      </trkpt>
      <trkpt lat="45.04229" lon="5.47647">
        <ele>1364.49</ele>
        <time>2019-08-26T12:21:59Z</time>
      </trkpt>
      <trkpt lat="45.04234" lon="5.47647">
        <ele>1364.79</ele>
        <time>2019-08-26T12:22:21Z</time>
      </trkpt>
      <trkpt lat="45.04239" lon="5.4764">
        <ele>1365.31</ele>
        <time>2019-08-26T12:22:45Z</time>
      </trkpt>
      <trkpt lat="45.0424" lon="5.47639">
        <ele>1365.35</ele>
        <time>2019-08-26T12:22:46Z</time>
      </trkpt>
      <trkpt lat="45.04249" lon="5.47633">
        <ele>1366.25</ele>
        <time>2019-08-26T12:22:54Z</time>
      </trkpt>
      <trkpt lat="45.0425" lon="5.47632">
        <ele>1366.36</ele>
        <time>2019-08-26T12:22:55Z</time>
      </trkpt>
      <trkpt lat="45.04252" lon="5.47631">
        <ele>1366.48</ele>
        <time>2019-08-26T12:22:56Z</time>
      </trkpt>
      <trkpt lat="45.04253" lon="5.47631">
        <ele>1366.63</ele>
        <time>2019-08-26T12:22:57Z</time>
      </trkpt>
      <trkpt lat="45.04254" lon="5.4763">
        <ele>1366.78</ele>
        <time>2019-08-26T12:22:58Z</time>
      </trkpt>
      <trkpt lat="45.04255" lon="5.47629">
        <ele>1366.91</ele>
        <time>2019-08-26T12:22:59Z</time>
      </trkpt>
      <trkpt lat="45.04267" lon="5.47622">
        <ele>1368.22</ele>
        <time>2019-08-26T12:23:11Z</time>
      </trkpt>
      <trkpt lat="45.04273" lon="5.47618">
        <ele>1369.46</ele>
        <time>2019-08-26T12:23:29Z</time>
      </trkpt>
      <trkpt lat="45.04288" lon="5.47615">
        <ele>1370.14</ele>
        <time>2019-08-26T12:23:45Z</time>
      </trkpt>
      <trkpt lat="45.04304" lon="5.4761">
        <ele>1372.13</ele>
        <time>2019-08-26T12:24:03Z</time>
      </trkpt>
      <trkpt lat="45.04307" lon="5.4761">
        <ele>1372.5</ele>
        <time>2019-08-26T12:24:06Z</time>
      </trkpt>
      <trkpt lat="45.04308" lon="5.47609">
        <ele>1372.64</ele>
        <time>2019-08-26T12:24:07Z</time>
      </trkpt>
      <trkpt lat="45.04314" lon="5.47606">
        <ele>1373.22</ele>
        <time>2019-08-26T12:24:12Z</time>
      </trkpt>
      <trkpt lat="45.04315" lon="5.47606">
        <ele>1373.31</ele>
        <time>2019-08-26T12:24:13Z</time>
      </trkpt>
      <trkpt lat="45.04324" lon="5.47602">
        <ele>1374.15</ele>
        <time>2019-08-26T12:24:21Z</time>
      </trkpt>
      <trkpt lat="45.04325" lon="5.47602">
        <ele>1374.26</ele>
        <time>2019-08-26T12:24:22Z</time>
      </trkpt>
      <trkpt lat="45.04337" lon="5.47596">
        <ele>1375.64</ele>
        <time>2019-08-26T12:24:38Z</time>
      </trkpt>
      <trkpt lat="45.04343" lon="5.47593">
        <ele>1376.58</ele>
        <time>2019-08-26T12:25:05Z</time>
      </trkpt>
      <trkpt lat="45.04355" lon="5.47592">
        <ele>1376.23</ele>
        <time>2019-08-26T12:25:24Z</time>
      </trkpt>
      <trkpt lat="45.04363" lon="5.47595">
        <ele>1376.07</ele>
        <time>2019-08-26T12:25:48Z</time>
      </trkpt>
      <trkpt lat="45.04374" lon="5.47593">
        <ele>1375.6</ele>
        <time>2019-08-26T12:26:03Z</time>
      </trkpt>
      <trkpt lat="45.04378" lon="5.47598">
        <ele>1375.17</ele>
        <time>2019-08-26T12:26:19Z</time>
      </trkpt>
      <trkpt lat="45.04379" lon="5.47592">
        <ele>1375.03</ele>
        <time>2019-08-26T12:26:44Z</time>
      </trkpt>
      <trkpt lat="45.04376" lon="5.47589">
        <ele>1374.96</ele>
        <time>2019-08-26T12:27:13Z</time>
      </trkpt>
      <trkpt lat="45.04377" lon="5.47591">
        <ele>1375.15</ele>
        <time>2019-08-26T12:27:48Z</time>
      </trkpt>
      <trkpt lat="45.04383" lon="5.47591">
        <ele>1375.46</ele>
        <time>2019-08-26T12:28:14Z</time>
      </trkpt>
      <trkpt lat="45.04385" lon="5.47592">
        <ele>1375.47</ele>
        <time>2019-08-26T12:28:16Z</time>
      </trkpt>
      <trkpt lat="45.04401" lon="5.47609">
        <ele>1373.63</ele>
        <time>2019-08-26T12:28:26Z</time>
      </trkpt>
      <trkpt lat="45.04407" lon="5.47629">
        <ele>1371.9</ele>
        <time>2019-08-26T12:28:34Z</time>
      </trkpt>
      <trkpt lat="45.04439" lon="5.4764">
        <ele>1369.56</ele>
        <time>2019-08-26T12:28:48Z</time>
      </trkpt>
      <trkpt lat="45.04471" lon="5.47649">
        <ele>1369.05</ele>
        <time>2019-08-26T12:28:58Z</time>
      </trkpt>
      <trkpt lat="45.04507" lon="5.47655">
        <ele>1369.4</ele>
        <time>2019-08-26T12:29:10Z</time>
      </trkpt>
      <trkpt lat="45.04546" lon="5.47656">
        <ele>1370.07</ele>
        <time>2019-08-26T12:29:23Z</time>
      </trkpt>
      <trkpt lat="45.04568" lon="5.47654">
        <ele>1369.53</ele>
        <time>2019-08-26T12:29:33Z</time>
      </trkpt>
      <trkpt lat="45.04589" lon="5.47651">
        <ele>1368.98</ele>
        <time>2019-08-26T12:29:45Z</time>
      </trkpt>
      <trkpt lat="45.04609" lon="5.47648">
        <ele>1368.34</ele>
        <time>2019-08-26T12:29:55Z</time>
      </trkpt>
      <trkpt lat="45.04622" lon="5.47647">
        <ele>1367.46</ele>
        <time>2019-08-26T12:30:03Z</time>
      </trkpt>
      <trkpt lat="45.04645" lon="5.47641">
        <ele>1366.27</ele>
        <time>2019-08-26T12:30:16Z</time>
      </trkpt>
      <trkpt lat="45.04662" lon="5.4764">
        <ele>1364.63</ele>
        <time>2019-08-26T12:30:28Z</time>
      </trkpt>
      <trkpt lat="45.04666" lon="5.47648">
        <ele>1364.19</ele>
        <time>2019-08-26T12:30:51Z</time>
      </trkpt>
      <trkpt lat="45.04676" lon="5.47659">
        <ele>1363.46</ele>
        <time>2019-08-26T12:31:07Z</time>
      </trkpt>
      <trkpt lat="45.04683" lon="5.47676">
        <ele>1363.02</ele>
        <time>2019-08-26T12:31:23Z</time>
      </trkpt>
      <trkpt lat="45.04686" lon="5.47685">
        <ele>1363.04</ele>
        <time>2019-08-26T12:31:43Z</time>
      </trkpt>
      <trkpt lat="45.04714" lon="5.47684">
        <ele>1362.2</ele>
        <time>2019-08-26T12:31:52Z</time>
      </trkpt>
      <trkpt lat="45.04747" lon="5.47679">
        <ele>1360.11</ele>
        <time>2019-08-26T12:32:00Z</time>
      </trkpt>
      <trkpt lat="45.04773" lon="5.47675">
        <ele>1357.9</ele>
        <time>2019-08-26T12:32:06Z</time>
      </trkpt>
      <trkpt lat="45.04795" lon="5.47669">
        <ele>1355.46</ele>
        <time>2019-08-26T12:32:12Z</time>
      </trkpt>
      <trkpt lat="45.04839" lon="5.47664">
        <ele>1352.83</ele>
        <time>2019-08-26T12:32:22Z</time>
      </trkpt>
      <trkpt lat="45.04875" lon="5.47662">
        <ele>1350.39</ele>
        <time>2019-08-26T12:32:29Z</time>
      </trkpt>
      <trkpt lat="45.0492" lon="5.47655">
        <ele>1346.92</ele>
        <time>2019-08-26T12:32:36Z</time>
      </trkpt>
      <trkpt lat="45.04939" lon="5.47652">
        <ele>1345.4</ele>
        <time>2019-08-26T12:32:39Z</time>
      </trkpt>
      <trkpt lat="45.04952" lon="5.47647">
        <ele>1344.42</ele>
        <time>2019-08-26T12:32:41Z</time>
      </trkpt>
      <trkpt lat="45.04969" lon="5.47635">
        <ele>1342.42</ele>
        <time>2019-08-26T12:32:45Z</time>
      </trkpt>
      <trkpt lat="45.04992" lon="5.47629">
        <ele>1339.91</ele>
        <time>2019-08-26T12:32:49Z</time>
      </trkpt>
      <trkpt lat="45.05006" lon="5.47623">
        <ele>1338.84</ele>
        <time>2019-08-26T12:32:51Z</time>
      </trkpt>
      <trkpt lat="45.0502" lon="5.47615">
        <ele>1337.57</ele>
        <time>2019-08-26T12:32:53Z</time>
      </trkpt>
      <trkpt lat="45.05049" lon="5.47597">
        <ele>1333.44</ele>
        <time>2019-08-26T12:32:58Z</time>
      </trkpt>
      <trkpt lat="45.05077" lon="5.4758">
        <ele>1329.67</ele>
        <time>2019-08-26T12:33:04Z</time>
      </trkpt>
      <trkpt lat="45.0508" lon="5.47576">
        <ele>1329.2</ele>
        <time>2019-08-26T12:33:05Z</time>
      </trkpt>
      <trkpt lat="45.05082" lon="5.47572">
        <ele>1328.77</ele>
        <time>2019-08-26T12:33:06Z</time>
      </trkpt>
      <trkpt lat="45.05084" lon="5.47568">
        <ele>1328.38</ele>
        <time>2019-08-26T12:33:07Z</time>
      </trkpt>
      <trkpt lat="45.05086" lon="5.47565">
        <ele>1328.03</ele>
        <time>2019-08-26T12:33:08Z</time>
      </trkpt>
      <trkpt lat="45.05088" lon="5.47562">
        <ele>1327.73</ele>
        <time>2019-08-26T12:33:09Z</time>
      </trkpt>
      <trkpt lat="45.0509" lon="5.47559">
        <ele>1327.42</ele>
        <time>2019-08-26T12:33:10Z</time>
      </trkpt>
      <trkpt lat="45.05091" lon="5.47557">
        <ele>1327.04</ele>
        <time>2019-08-26T12:33:11Z</time>
      </trkpt>
      <trkpt lat="45.05095" lon="5.47544">
        <ele>1324.71</ele>
        <time>2019-08-26T12:33:20Z</time>
      </trkpt>
      <trkpt lat="45.05096" lon="5.47538">
        <ele>1324.36</ele>
        <time>2019-08-26T12:33:21Z</time>
      </trkpt>
      <trkpt lat="45.05098" lon="5.47532">
        <ele>1324.15</ele>
        <time>2019-08-26T12:33:22Z</time>
      </trkpt>
      <trkpt lat="45.051" lon="5.47525">
        <ele>1323.91</ele>
        <time>2019-08-26T12:33:23Z</time>
      </trkpt>
      <trkpt lat="45.05102" lon="5.47519">
        <ele>1323.65</ele>
        <time>2019-08-26T12:33:24Z</time>
      </trkpt>
      <trkpt lat="45.05106" lon="5.47512">
        <ele>1323.38</ele>
        <time>2019-08-26T12:33:25Z</time>
      </trkpt>
      <trkpt lat="45.05109" lon="5.47506">
        <ele>1323.06</ele>
        <time>2019-08-26T12:33:26Z</time>
      </trkpt>
      <trkpt lat="45.05113" lon="5.475">
        <ele>1322.69</ele>
        <time>2019-08-26T12:33:27Z</time>
      </trkpt>
      <trkpt lat="45.05117" lon="5.47496">
        <ele>1322.26</ele>
        <time>2019-08-26T12:33:28Z</time>
      </trkpt>
      <trkpt lat="45.05137" lon="5.47485">
        <ele>1318.69</ele>
        <time>2019-08-26T12:33:35Z</time>
      </trkpt>
      <trkpt lat="45.05139" lon="5.47484">
        <ele>1318.11</ele>
        <time>2019-08-26T12:33:36Z</time>
      </trkpt>
      <trkpt lat="45.05141" lon="5.47482">
        <ele>1317.58</ele>
        <time>2019-08-26T12:33:37Z</time>
      </trkpt>
      <trkpt lat="45.05143" lon="5.47478">
        <ele>1317.11</ele>
        <time>2019-08-26T12:33:38Z</time>
      </trkpt>
      <trkpt lat="45.05144" lon="5.47474">
        <ele>1316.64</ele>
        <time>2019-08-26T12:33:39Z</time>
      </trkpt>
      <trkpt lat="45.05147" lon="5.47471">
        <ele>1316.12</ele>
        <time>2019-08-26T12:33:40Z</time>
      </trkpt>
      <trkpt lat="45.05149" lon="5.47469">
        <ele>1315.57</ele>
        <time>2019-08-26T12:33:41Z</time>
      </trkpt>
      <trkpt lat="45.05152" lon="5.47469">
        <ele>1315.05</ele>
        <time>2019-08-26T12:33:42Z</time>
      </trkpt>
      <trkpt lat="45.05156" lon="5.47471">
        <ele>1314.6</ele>
        <time>2019-08-26T12:33:43Z</time>
      </trkpt>
      <trkpt lat="45.05159" lon="5.47474">
        <ele>1314.17</ele>
        <time>2019-08-26T12:33:44Z</time>
      </trkpt>
      <trkpt lat="45.05164" lon="5.47477">
        <ele>1313.76</ele>
        <time>2019-08-26T12:33:45Z</time>
      </trkpt>
      <trkpt lat="45.05169" lon="5.4748">
        <ele>1313.38</ele>
        <time>2019-08-26T12:33:46Z</time>
      </trkpt>
      <trkpt lat="45.05181" lon="5.47485">
        <ele>1312.65</ele>
        <time>2019-08-26T12:33:48Z</time>
      </trkpt>
      <trkpt lat="45.05188" lon="5.47488">
        <ele>1312.22</ele>
        <time>2019-08-26T12:33:49Z</time>
      </trkpt>
      <trkpt lat="45.05196" lon="5.47492">
        <ele>1311.75</ele>
        <time>2019-08-26T12:33:50Z</time>
      </trkpt>
      <trkpt lat="45.05242" lon="5.47516">
        <ele>1307.78</ele>
        <time>2019-08-26T12:33:55Z</time>
      </trkpt>
      <trkpt lat="45.05285" lon="5.47536">
        <ele>1304.4</ele>
        <time>2019-08-26T12:33:59Z</time>
      </trkpt>
      <trkpt lat="45.05331" lon="5.47568">
        <ele>1300.49</ele>
        <time>2019-08-26T12:34:03Z</time>
      </trkpt>
      <trkpt lat="45.05357" lon="5.47587">
        <ele>1298.63</ele>
        <time>2019-08-26T12:34:05Z</time>
      </trkpt>
      <trkpt lat="45.05369" lon="5.47594">
        <ele>1297.57</ele>
        <time>2019-08-26T12:34:06Z</time>
      </trkpt>
      <trkpt lat="45.05383" lon="5.47599">
        <ele>1296.48</ele>
        <time>2019-08-26T12:34:07Z</time>
      </trkpt>
      <trkpt lat="45.05424" lon="5.47613">
        <ele>1293.07</ele>
        <time>2019-08-26T12:34:10Z</time>
      </trkpt>
      <trkpt lat="45.05467" lon="5.47628">
        <ele>1289.23</ele>
        <time>2019-08-26T12:34:13Z</time>
      </trkpt>
      <trkpt lat="45.05503" lon="5.47641">
        <ele>1284.97</ele>
        <time>2019-08-26T12:34:16Z</time>
      </trkpt>
      <trkpt lat="45.05534" lon="5.4765">
        <ele>1281.01</ele>
        <time>2019-08-26T12:34:19Z</time>
      </trkpt>
      <trkpt lat="45.05543" lon="5.47656">
        <ele>1279.89</ele>
        <time>2019-08-26T12:34:20Z</time>
      </trkpt>
      <trkpt lat="45.05551" lon="5.47664">
        <ele>1277.81</ele>
        <time>2019-08-26T12:34:21Z</time>
      </trkpt>
      <trkpt lat="45.05558" lon="5.47673">
        <ele>1276.77</ele>
        <time>2019-08-26T12:34:22Z</time>
      </trkpt>
      <trkpt lat="45.05581" lon="5.47703">
        <ele>1273.91</ele>
        <time>2019-08-26T12:34:25Z</time>
      </trkpt>
      <trkpt lat="45.05591" lon="5.47711">
        <ele>1273.12</ele>
        <time>2019-08-26T12:34:26Z</time>
      </trkpt>
      <trkpt lat="45.05636" lon="5.47754">
        <ele>1269.84</ele>
        <time>2019-08-26T12:34:31Z</time>
      </trkpt>
      <trkpt lat="45.05669" lon="5.47796">
        <ele>1267.89</ele>
        <time>2019-08-26T12:34:35Z</time>
      </trkpt>
      <trkpt lat="45.05708" lon="5.47857">
        <ele>1264.82</ele>
        <time>2019-08-26T12:34:42Z</time>
      </trkpt>
      <trkpt lat="45.05719" lon="5.47882">
        <ele>1262.39</ele>
        <time>2019-08-26T12:34:48Z</time>
      </trkpt>
      <trkpt lat="45.05721" lon="5.4788">
        <ele>1261</ele>
        <time>2019-08-26T12:35:01Z</time>
      </trkpt>
      <trkpt lat="45.05717" lon="5.47884">
        <ele>1260.85</ele>
        <time>2019-08-26T12:35:31Z</time>
      </trkpt>
      <trkpt lat="45.05717" lon="5.47881">
        <ele>1260.49</ele>
        <time>2019-08-26T12:36:08Z</time>
      </trkpt>
      <trkpt lat="45.05716" lon="5.47881">
        <ele>1260.48</ele>
        <time>2019-08-26T12:36:45Z</time>
      </trkpt>
      <trkpt lat="45.05718" lon="5.47886">
        <ele>1260.34</ele>
        <time>2019-08-26T12:36:58Z</time>
      </trkpt>
      <trkpt lat="45.05718" lon="5.47888">
        <ele>1260.31</ele>
        <time>2019-08-26T12:36:59Z</time>
      </trkpt>
      <trkpt lat="45.05719" lon="5.4789">
        <ele>1260.27</ele>
        <time>2019-08-26T12:37:00Z</time>
      </trkpt>
      <trkpt lat="45.0572" lon="5.47892">
        <ele>1260.24</ele>
        <time>2019-08-26T12:37:01Z</time>
      </trkpt>
      <trkpt lat="45.05722" lon="5.47894">
        <ele>1260.21</ele>
        <time>2019-08-26T12:37:02Z</time>
      </trkpt>
      <trkpt lat="45.05723" lon="5.47897">
        <ele>1260.17</ele>
        <time>2019-08-26T12:37:03Z</time>
      </trkpt>
      <trkpt lat="45.05744" lon="5.47918">
        <ele>1259.2</ele>
        <time>2019-08-26T12:37:14Z</time>
      </trkpt>
      <trkpt lat="45.05747" lon="5.47925">
        <ele>1257.9</ele>
        <time>2019-08-26T12:37:27Z</time>
      </trkpt>
      <trkpt lat="45.05752" lon="5.47931">
        <ele>1257.02</ele>
        <time>2019-08-26T12:37:42Z</time>
      </trkpt>
      <trkpt lat="45.05752" lon="5.47946">
        <ele>1256.44</ele>
        <time>2019-08-26T12:38:08Z</time>
      </trkpt>
      <trkpt lat="45.0576" lon="5.47959">
        <ele>1255.88</ele>
        <time>2019-08-26T12:38:13Z</time>
      </trkpt>
      <trkpt lat="45.05783" lon="5.47983">
        <ele>1254</ele>
        <time>2019-08-26T12:38:23Z</time>
      </trkpt>
      <trkpt lat="45.05788" lon="5.47994">
        <ele>1252.63</ele>
        <time>2019-08-26T12:38:27Z</time>
      </trkpt>
      <trkpt lat="45.0579" lon="5.47996">
        <ele>1252.63</ele>
        <time>2019-08-26T12:38:28Z</time>
      </trkpt>
      <trkpt lat="45.05792" lon="5.47998">
        <ele>1252.18</ele>
        <time>2019-08-26T12:38:29Z</time>
      </trkpt>
      <trkpt lat="45.05793" lon="5.48">
        <ele>1251.93</ele>
        <time>2019-08-26T12:38:30Z</time>
      </trkpt>
      <trkpt lat="45.05795" lon="5.48001">
        <ele>1251.69</ele>
        <time>2019-08-26T12:38:31Z</time>
      </trkpt>
      <trkpt lat="45.05796" lon="5.48004">
        <ele>1251.47</ele>
        <time>2019-08-26T12:38:32Z</time>
      </trkpt>
      <trkpt lat="45.05797" lon="5.48006">
        <ele>1251.29</ele>
        <time>2019-08-26T12:38:33Z</time>
      </trkpt>
      <trkpt lat="45.05804" lon="5.48021">
        <ele>1249.27</ele>
        <time>2019-08-26T12:38:45Z</time>
      </trkpt>
      <trkpt lat="45.05815" lon="5.48037">
        <ele>1246.72</ele>
        <time>2019-08-26T12:39:04Z</time>
      </trkpt>
      <trkpt lat="45.05816" lon="5.48046">
        <ele>1246.32</ele>
        <time>2019-08-26T12:39:13Z</time>
      </trkpt>
      <trkpt lat="45.05817" lon="5.48047">
        <ele>1246.32</ele>
        <time>2019-08-26T12:39:14Z</time>
      </trkpt>
      <trkpt lat="45.05819" lon="5.48051">
        <ele>1246.3</ele>
        <time>2019-08-26T12:39:16Z</time>
      </trkpt>
      <trkpt lat="45.05822" lon="5.48053">
        <ele>1245.79</ele>
        <time>2019-08-26T12:39:19Z</time>
      </trkpt>
      <trkpt lat="45.05823" lon="5.48054">
        <ele>1245.61</ele>
        <time>2019-08-26T12:39:20Z</time>
      </trkpt>
      <trkpt lat="45.05827" lon="5.48057">
        <ele>1244.94</ele>
        <time>2019-08-26T12:39:23Z</time>
      </trkpt>
      <trkpt lat="45.05836" lon="5.48072">
        <ele>1242.06</ele>
        <time>2019-08-26T12:39:35Z</time>
      </trkpt>
      <trkpt lat="45.05838" lon="5.48077">
        <ele>1241.37</ele>
        <time>2019-08-26T12:39:38Z</time>
      </trkpt>
      <trkpt lat="45.0585" lon="5.48094">
        <ele>1239.1</ele>
        <time>2019-08-26T12:39:46Z</time>
      </trkpt>
      <trkpt lat="45.05858" lon="5.48099">
        <ele>1237.13</ele>
        <time>2019-08-26T12:40:02Z</time>
      </trkpt>
      <trkpt lat="45.05854" lon="5.48103">
        <ele>1237.8</ele>
        <time>2019-08-26T12:40:27Z</time>
      </trkpt>
      <trkpt lat="45.05848" lon="5.48088">
        <ele>1238.86</ele>
        <time>2019-08-26T12:40:46Z</time>
      </trkpt>
      <trkpt lat="45.0584" lon="5.48073">
        <ele>1241.29</ele>
        <time>2019-08-26T12:41:06Z</time>
      </trkpt>
      <trkpt lat="45.05832" lon="5.48064">
        <ele>1243.15</ele>
        <time>2019-08-26T12:41:26Z</time>
      </trkpt>
      <trkpt lat="45.05819" lon="5.48047">
        <ele>1244.69</ele>
        <time>2019-08-26T12:41:44Z</time>
      </trkpt>
      <trkpt lat="45.05816" lon="5.4804">
        <ele>1245.95</ele>
        <time>2019-08-26T12:42:05Z</time>
      </trkpt>
      <trkpt lat="45.0581" lon="5.48025">
        <ele>1247.76</ele>
        <time>2019-08-26T12:42:21Z</time>
      </trkpt>
      <trkpt lat="45.058" lon="5.48007">
        <ele>1249.25</ele>
        <time>2019-08-26T12:42:37Z</time>
      </trkpt>
      <trkpt lat="45.05799" lon="5.48005">
        <ele>1249.31</ele>
        <time>2019-08-26T12:42:38Z</time>
      </trkpt>
      <trkpt lat="45.05789" lon="5.47984">
        <ele>1250.75</ele>
        <time>2019-08-26T12:42:54Z</time>
      </trkpt>
      <trkpt lat="45.05778" lon="5.47969">
        <ele>1252.3</ele>
        <time>2019-08-26T12:43:10Z</time>
      </trkpt>
      <trkpt lat="45.0577" lon="5.47954">
        <ele>1253.37</ele>
        <time>2019-08-26T12:43:24Z</time>
      </trkpt>
      <trkpt lat="45.0576" lon="5.47939">
        <ele>1254.64</ele>
        <time>2019-08-26T12:43:37Z</time>
      </trkpt>
      <trkpt lat="45.05752" lon="5.47945">
        <ele>1255.34</ele>
        <time>2019-08-26T12:43:52Z</time>
      </trkpt>
      <trkpt lat="45.05746" lon="5.47951">
        <ele>1255.24</ele>
        <time>2019-08-26T12:44:06Z</time>
      </trkpt>
      <trkpt lat="45.05747" lon="5.47962">
        <ele>1255.19</ele>
        <time>2019-08-26T12:44:11Z</time>
      </trkpt>
      <trkpt lat="45.05748" lon="5.47965">
        <ele>1255.14</ele>
        <time>2019-08-26T12:44:12Z</time>
      </trkpt>
      <trkpt lat="45.05749" lon="5.47968">
        <ele>1255.07</ele>
        <time>2019-08-26T12:44:13Z</time>
      </trkpt>
      <trkpt lat="45.05767" lon="5.4803">
        <ele>1253.11</ele>
        <time>2019-08-26T12:44:25Z</time>
      </trkpt>
      <trkpt lat="45.05772" lon="5.48049">
        <ele>1252.22</ele>
        <time>2019-08-26T12:44:28Z</time>
      </trkpt>
      <trkpt lat="45.05773" lon="5.48054">
        <ele>1251.93</ele>
        <time>2019-08-26T12:44:29Z</time>
      </trkpt>
      <trkpt lat="45.05775" lon="5.48059">
        <ele>1251.65</ele>
        <time>2019-08-26T12:44:30Z</time>
      </trkpt>
      <trkpt lat="45.058" lon="5.48115">
        <ele>1249.02</ele>
        <time>2019-08-26T12:44:42Z</time>
      </trkpt>
      <trkpt lat="45.05801" lon="5.48121">
        <ele>1248.86</ele>
        <time>2019-08-26T12:44:43Z</time>
      </trkpt>
      <trkpt lat="45.05804" lon="5.48127">
        <ele>1248.69</ele>
        <time>2019-08-26T12:44:44Z</time>
      </trkpt>
      <trkpt lat="45.0581" lon="5.48141">
        <ele>1248.32</ele>
        <time>2019-08-26T12:44:46Z</time>
      </trkpt>
      <trkpt lat="45.05812" lon="5.48149">
        <ele>1248.08</ele>
        <time>2019-08-26T12:44:47Z</time>
      </trkpt>
      <trkpt lat="45.05815" lon="5.48157">
        <ele>1247.84</ele>
        <time>2019-08-26T12:44:48Z</time>
      </trkpt>
      <trkpt lat="45.05842" lon="5.48207">
        <ele>1246.18</ele>
        <time>2019-08-26T12:44:54Z</time>
      </trkpt>
      <trkpt lat="45.05847" lon="5.48215">
        <ele>1245.86</ele>
        <time>2019-08-26T12:44:55Z</time>
      </trkpt>
      <trkpt lat="45.05852" lon="5.48223">
        <ele>1245.53</ele>
        <time>2019-08-26T12:44:56Z</time>
      </trkpt>
      <trkpt lat="45.05857" lon="5.48231">
        <ele>1245.2</ele>
        <time>2019-08-26T12:44:57Z</time>
      </trkpt>
      <trkpt lat="45.05862" lon="5.4824">
        <ele>1244.88</ele>
        <time>2019-08-26T12:44:58Z</time>
      </trkpt>
      <trkpt lat="45.05918" lon="5.48332">
        <ele>1241.7</ele>
        <time>2019-08-26T12:45:09Z</time>
      </trkpt>
      <trkpt lat="45.05974" lon="5.48442">
        <ele>1238.48</ele>
        <time>2019-08-26T12:45:20Z</time>
      </trkpt>
      <trkpt lat="45.0603" lon="5.48548">
        <ele>1235.25</ele>
        <time>2019-08-26T12:45:31Z</time>
      </trkpt>
      <trkpt lat="45.06045" lon="5.48578">
        <ele>1234.61</ele>
        <time>2019-08-26T12:45:34Z</time>
      </trkpt>
      <trkpt lat="45.0605" lon="5.48589">
        <ele>1234.4</ele>
        <time>2019-08-26T12:45:35Z</time>
      </trkpt>
      <trkpt lat="45.06072" lon="5.48632">
        <ele>1233.43</ele>
        <time>2019-08-26T12:45:39Z</time>
      </trkpt>
      <trkpt lat="45.06078" lon="5.48642">
        <ele>1233.16</ele>
        <time>2019-08-26T12:45:40Z</time>
      </trkpt>
      <trkpt lat="45.06084" lon="5.48652">
        <ele>1232.89</ele>
        <time>2019-08-26T12:45:41Z</time>
      </trkpt>
      <trkpt lat="45.06112" lon="5.48685">
        <ele>1231.75</ele>
        <time>2019-08-26T12:45:45Z</time>
      </trkpt>
      <trkpt lat="45.0612" lon="5.48691">
        <ele>1231.43</ele>
        <time>2019-08-26T12:45:46Z</time>
      </trkpt>
      <trkpt lat="45.0613" lon="5.48696">
        <ele>1231.09</ele>
        <time>2019-08-26T12:45:47Z</time>
      </trkpt>
      <trkpt lat="45.06186" lon="5.48737">
        <ele>1228.53</ele>
        <time>2019-08-26T12:45:54Z</time>
      </trkpt>
      <trkpt lat="45.06198" lon="5.48752">
        <ele>1227.99</ele>
        <time>2019-08-26T12:45:56Z</time>
      </trkpt>
      <trkpt lat="45.06204" lon="5.48759">
        <ele>1227.74</ele>
        <time>2019-08-26T12:45:57Z</time>
      </trkpt>
      <trkpt lat="45.06211" lon="5.48767">
        <ele>1227.49</ele>
        <time>2019-08-26T12:45:58Z</time>
      </trkpt>
      <trkpt lat="45.06226" lon="5.48786">
        <ele>1227.06</ele>
        <time>2019-08-26T12:46:00Z</time>
      </trkpt>
      <trkpt lat="45.0624" lon="5.48808">
        <ele>1226.53</ele>
        <time>2019-08-26T12:46:02Z</time>
      </trkpt>
      <trkpt lat="45.06272" lon="5.48867">
        <ele>1224.97</ele>
        <time>2019-08-26T12:46:07Z</time>
      </trkpt>
      <trkpt lat="45.06297" lon="5.48929">
        <ele>1223.04</ele>
        <time>2019-08-26T12:46:12Z</time>
      </trkpt>
      <trkpt lat="45.063" lon="5.48943">
        <ele>1222.56</ele>
        <time>2019-08-26T12:46:13Z</time>
      </trkpt>
      <trkpt lat="45.06309" lon="5.48999">
        <ele>1219.77</ele>
        <time>2019-08-26T12:46:17Z</time>
      </trkpt>
      <trkpt lat="45.06308" lon="5.49013">
        <ele>1219.12</ele>
        <time>2019-08-26T12:46:18Z</time>
      </trkpt>
      <trkpt lat="45.06307" lon="5.49028">
        <ele>1218.51</ele>
        <time>2019-08-26T12:46:19Z</time>
      </trkpt>
      <trkpt lat="45.06303" lon="5.49057">
        <ele>1217.27</ele>
        <time>2019-08-26T12:46:21Z</time>
      </trkpt>
      <trkpt lat="45.06286" lon="5.49129">
        <ele>1214.21</ele>
        <time>2019-08-26T12:46:26Z</time>
      </trkpt>
      <trkpt lat="45.06266" lon="5.49203">
        <ele>1210.69</ele>
        <time>2019-08-26T12:46:32Z</time>
      </trkpt>
      <trkpt lat="45.06261" lon="5.49213">
        <ele>1210.18</ele>
        <time>2019-08-26T12:46:33Z</time>
      </trkpt>
      <trkpt lat="45.06246" lon="5.4924">
        <ele>1208.71</ele>
        <time>2019-08-26T12:46:36Z</time>
      </trkpt>
      <trkpt lat="45.06237" lon="5.49258">
        <ele>1207.83</ele>
        <time>2019-08-26T12:46:38Z</time>
      </trkpt>
      <trkpt lat="45.06234" lon="5.49263">
        <ele>1207.32</ele>
        <time>2019-08-26T12:46:39Z</time>
      </trkpt>
      <trkpt lat="45.06234" lon="5.49271">
        <ele>1206.84</ele>
        <time>2019-08-26T12:46:40Z</time>
      </trkpt>
      <trkpt lat="45.0624" lon="5.49283">
        <ele>1205.97</ele>
        <time>2019-08-26T12:46:42Z</time>
      </trkpt>
      <trkpt lat="45.06246" lon="5.49288">
        <ele>1205.32</ele>
        <time>2019-08-26T12:46:43Z</time>
      </trkpt>
      <trkpt lat="45.06252" lon="5.49292">
        <ele>1205.05</ele>
        <time>2019-08-26T12:46:44Z</time>
      </trkpt>
      <trkpt lat="45.06258" lon="5.49298">
        <ele>1204.83</ele>
        <time>2019-08-26T12:46:45Z</time>
      </trkpt>
      <trkpt lat="45.06276" lon="5.49318">
        <ele>1204.19</ele>
        <time>2019-08-26T12:46:48Z</time>
      </trkpt>
      <trkpt lat="45.06314" lon="5.4939">
        <ele>1201.88</ele>
        <time>2019-08-26T12:46:56Z</time>
      </trkpt>
      <trkpt lat="45.06319" lon="5.49399">
        <ele>1201.58</ele>
        <time>2019-08-26T12:46:57Z</time>
      </trkpt>
      <trkpt lat="45.06324" lon="5.49407">
        <ele>1201.3</ele>
        <time>2019-08-26T12:46:58Z</time>
      </trkpt>
      <trkpt lat="45.06378" lon="5.49479">
        <ele>1197.65</ele>
        <time>2019-08-26T12:47:08Z</time>
      </trkpt>
      <trkpt lat="45.06389" lon="5.49485">
        <ele>1197.06</ele>
        <time>2019-08-26T12:47:10Z</time>
      </trkpt>
      <trkpt lat="45.06407" lon="5.49489">
        <ele>1196.32</ele>
        <time>2019-08-26T12:47:13Z</time>
      </trkpt>
      <trkpt lat="45.06422" lon="5.4949">
        <ele>1195.7</ele>
        <time>2019-08-26T12:47:16Z</time>
      </trkpt>
      <trkpt lat="45.06426" lon="5.49492">
        <ele>1195.52</ele>
        <time>2019-08-26T12:47:17Z</time>
      </trkpt>
      <trkpt lat="45.06431" lon="5.49496">
        <ele>1195.33</ele>
        <time>2019-08-26T12:47:18Z</time>
      </trkpt>
      <trkpt lat="45.06434" lon="5.49499">
        <ele>1195.17</ele>
        <time>2019-08-26T12:47:19Z</time>
      </trkpt>
      <trkpt lat="45.06437" lon="5.49503">
        <ele>1195.02</ele>
        <time>2019-08-26T12:47:20Z</time>
      </trkpt>
      <trkpt lat="45.06441" lon="5.49507">
        <ele>1194.87</ele>
        <time>2019-08-26T12:47:21Z</time>
      </trkpt>
      <trkpt lat="45.06444" lon="5.4951">
        <ele>1194.72</ele>
        <time>2019-08-26T12:47:22Z</time>
      </trkpt>
      <trkpt lat="45.06448" lon="5.4951">
        <ele>1194.58</ele>
        <time>2019-08-26T12:47:23Z</time>
      </trkpt>
      <trkpt lat="45.06451" lon="5.4951">
        <ele>1194.45</ele>
        <time>2019-08-26T12:47:24Z</time>
      </trkpt>
      <trkpt lat="45.06454" lon="5.4951">
        <ele>1194.32</ele>
        <time>2019-08-26T12:47:25Z</time>
      </trkpt>
      <trkpt lat="45.06456" lon="5.4951">
        <ele>1194.19</ele>
        <time>2019-08-26T12:47:26Z</time>
      </trkpt>
      <trkpt lat="45.0646" lon="5.49513">
        <ele>1193.33</ele>
        <time>2019-08-26T12:47:36Z</time>
      </trkpt>
      <trkpt lat="45.06461" lon="5.49514">
        <ele>1193.27</ele>
        <time>2019-08-26T12:48:04Z</time>
      </trkpt>
      <trkpt lat="45.06461" lon="5.49512">
        <ele>1192.2</ele>
        <time>2019-08-26T12:50:28Z</time>
      </trkpt>
      <trkpt lat="45.06459" lon="5.49518">
        <ele>1191.9</ele>
        <time>2019-08-26T12:52:41Z</time>
      </trkpt>
      <trkpt lat="45.06459" lon="5.49517">
        <ele>1190.6</ele>
        <time>2019-08-26T12:55:21Z</time>
      </trkpt>
      <trkpt lat="45.06457" lon="5.49517">
        <ele>1189.5</ele>
        <time>2019-08-26T12:57:14Z</time>
      </trkpt>
      <trkpt lat="45.06456" lon="5.49519">
        <ele>1189.34</ele>
        <time>2019-08-26T12:57:31Z</time>
      </trkpt>
      <trkpt lat="45.06449" lon="5.4952">
        <ele>1189.6</ele>
        <time>2019-08-26T12:57:48Z</time>
      </trkpt>
      <trkpt lat="45.06452" lon="5.49524">
        <ele>1189.83</ele>
        <time>2019-08-26T12:58:13Z</time>
      </trkpt>
      <trkpt lat="45.06454" lon="5.49525">
        <ele>1189.85</ele>
        <time>2019-08-26T12:58:15Z</time>
      </trkpt>
      <trkpt lat="45.06455" lon="5.49531">
        <ele>1189.86</ele>
        <time>2019-08-26T12:58:18Z</time>
      </trkpt>
      <trkpt lat="45.06456" lon="5.49534">
        <ele>1189.86</ele>
        <time>2019-08-26T12:58:19Z</time>
      </trkpt>
      <trkpt lat="45.06457" lon="5.49537">
        <ele>1189.87</ele>
        <time>2019-08-26T12:58:20Z</time>
      </trkpt>
      <trkpt lat="45.06458" lon="5.49541">
        <ele>1189.87</ele>
        <time>2019-08-26T12:58:21Z</time>
      </trkpt>
      <trkpt lat="45.06477" lon="5.4958">
        <ele>1190.76</ele>
        <time>2019-08-26T12:58:34Z</time>
      </trkpt>
      <trkpt lat="45.06505" lon="5.49611">
        <ele>1191.46</ele>
        <time>2019-08-26T12:58:47Z</time>
      </trkpt>
      <trkpt lat="45.06535" lon="5.4963">
        <ele>1192.07</ele>
        <time>2019-08-26T12:58:59Z</time>
      </trkpt>
      <trkpt lat="45.06562" lon="5.49648">
        <ele>1192.97</ele>
        <time>2019-08-26T12:59:11Z</time>
      </trkpt>
      <trkpt lat="45.06584" lon="5.49692">
        <ele>1193.86</ele>
        <time>2019-08-26T12:59:22Z</time>
      </trkpt>
      <trkpt lat="45.06603" lon="5.49752">
        <ele>1193.96</ele>
        <time>2019-08-26T12:59:35Z</time>
      </trkpt>
      <trkpt lat="45.0662" lon="5.49792">
        <ele>1194.28</ele>
        <time>2019-08-26T12:59:45Z</time>
      </trkpt>
      <trkpt lat="45.06625" lon="5.49833">
        <ele>1194.7</ele>
        <time>2019-08-26T12:59:56Z</time>
      </trkpt>
      <trkpt lat="45.06616" lon="5.49856">
        <ele>1195.04</ele>
        <time>2019-08-26T13:00:04Z</time>
      </trkpt>
      <trkpt lat="45.06614" lon="5.49859">
        <ele>1195.04</ele>
        <time>2019-08-26T13:00:05Z</time>
      </trkpt>
      <trkpt lat="45.06612" lon="5.49862">
        <ele>1195.04</ele>
        <time>2019-08-26T13:00:06Z</time>
      </trkpt>
      <trkpt lat="45.06603" lon="5.49895">
        <ele>1194.8</ele>
        <time>2019-08-26T13:00:14Z</time>
      </trkpt>
      <trkpt lat="45.06615" lon="5.49932">
        <ele>1195.05</ele>
        <time>2019-08-26T13:00:24Z</time>
      </trkpt>
      <trkpt lat="45.0663" lon="5.49963">
        <ele>1195.24</ele>
        <time>2019-08-26T13:00:33Z</time>
      </trkpt>
      <trkpt lat="45.06631" lon="5.49967">
        <ele>1195.24</ele>
        <time>2019-08-26T13:00:34Z</time>
      </trkpt>
      <trkpt lat="45.06631" lon="5.49971">
        <ele>1195.25</ele>
        <time>2019-08-26T13:00:35Z</time>
      </trkpt>
      <trkpt lat="45.0663" lon="5.49975">
        <ele>1195.24</ele>
        <time>2019-08-26T13:00:36Z</time>
      </trkpt>
      <trkpt lat="45.06629" lon="5.49978">
        <ele>1195.28</ele>
        <time>2019-08-26T13:00:37Z</time>
      </trkpt>
      <trkpt lat="45.06629" lon="5.49982">
        <ele>1195.32</ele>
        <time>2019-08-26T13:00:38Z</time>
      </trkpt>
      <trkpt lat="45.06627" lon="5.49985">
        <ele>1195.38</ele>
        <time>2019-08-26T13:00:39Z</time>
      </trkpt>
      <trkpt lat="45.06625" lon="5.49989">
        <ele>1195.42</ele>
        <time>2019-08-26T13:00:40Z</time>
      </trkpt>
      <trkpt lat="45.06623" lon="5.49991">
        <ele>1195.46</ele>
        <time>2019-08-26T13:00:41Z</time>
      </trkpt>
      <trkpt lat="45.06622" lon="5.49994">
        <ele>1195.51</ele>
        <time>2019-08-26T13:00:42Z</time>
      </trkpt>
      <trkpt lat="45.0661" lon="5.5001">
        <ele>1195.43</ele>
        <time>2019-08-26T13:00:53Z</time>
      </trkpt>
      <trkpt lat="45.06608" lon="5.50013">
        <ele>1194.96</ele>
        <time>2019-08-26T13:01:41Z</time>
      </trkpt>
      <trkpt lat="45.06603" lon="5.50022">
        <ele>1194.71</ele>
        <time>2019-08-26T13:01:55Z</time>
      </trkpt>
      <trkpt lat="45.06587" lon="5.50042">
        <ele>1191.66</ele>
        <time>2019-08-26T13:02:03Z</time>
      </trkpt>
      <trkpt lat="45.06584" lon="5.50045">
        <ele>1190.37</ele>
        <time>2019-08-26T13:02:06Z</time>
      </trkpt>
      <trkpt lat="45.06575" lon="5.5006">
        <ele>1188.11</ele>
        <time>2019-08-26T13:02:14Z</time>
      </trkpt>
      <trkpt lat="45.06559" lon="5.50081">
        <ele>1184.84</ele>
        <time>2019-08-26T13:02:23Z</time>
      </trkpt>
      <trkpt lat="45.06539" lon="5.50095">
        <ele>1183.25</ele>
        <time>2019-08-26T13:02:32Z</time>
      </trkpt>
      <trkpt lat="45.06538" lon="5.50097">
        <ele>1183.09</ele>
        <time>2019-08-26T13:02:33Z</time>
      </trkpt>
      <trkpt lat="45.06535" lon="5.501">
        <ele>1182.76</ele>
        <time>2019-08-26T13:02:35Z</time>
      </trkpt>
      <trkpt lat="45.06532" lon="5.50103">
        <ele>1182.58</ele>
        <time>2019-08-26T13:02:36Z</time>
      </trkpt>
      <trkpt lat="45.06529" lon="5.50105">
        <ele>1182.37</ele>
        <time>2019-08-26T13:02:37Z</time>
      </trkpt>
      <trkpt lat="45.06527" lon="5.50108">
        <ele>1182.16</ele>
        <time>2019-08-26T13:02:38Z</time>
      </trkpt>
      <trkpt lat="45.06526" lon="5.5011">
        <ele>1181.91</ele>
        <time>2019-08-26T13:02:39Z</time>
      </trkpt>
      <trkpt lat="45.06523" lon="5.50112">
        <ele>1181.65</ele>
        <time>2019-08-26T13:02:40Z</time>
      </trkpt>
      <trkpt lat="45.06519" lon="5.50115">
        <ele>1181.38</ele>
        <time>2019-08-26T13:02:41Z</time>
      </trkpt>
      <trkpt lat="45.06516" lon="5.50118">
        <ele>1181.09</ele>
        <time>2019-08-26T13:02:42Z</time>
      </trkpt>
      <trkpt lat="45.06513" lon="5.50123">
        <ele>1180.76</ele>
        <time>2019-08-26T13:02:43Z</time>
      </trkpt>
      <trkpt lat="45.06509" lon="5.50127">
        <ele>1180.39</ele>
        <time>2019-08-26T13:02:44Z</time>
      </trkpt>
      <trkpt lat="45.06507" lon="5.50131">
        <ele>1179.63</ele>
        <time>2019-08-26T13:02:45Z</time>
      </trkpt>
      <trkpt lat="45.06504" lon="5.50135">
        <ele>1179.22</ele>
        <time>2019-08-26T13:02:46Z</time>
      </trkpt>
      <trkpt lat="45.065" lon="5.50139">
        <ele>1178.77</ele>
        <time>2019-08-26T13:02:47Z</time>
      </trkpt>
      <trkpt lat="45.06495" lon="5.50145">
        <ele>1178.27</ele>
        <time>2019-08-26T13:02:48Z</time>
      </trkpt>
      <trkpt lat="45.06491" lon="5.5015">
        <ele>1177.72</ele>
        <time>2019-08-26T13:02:49Z</time>
      </trkpt>
      <trkpt lat="45.06488" lon="5.50154">
        <ele>1177.13</ele>
        <time>2019-08-26T13:02:50Z</time>
      </trkpt>
      <trkpt lat="45.06478" lon="5.50174">
        <ele>1174.81</ele>
        <time>2019-08-26T13:02:54Z</time>
      </trkpt>
      <trkpt lat="45.06467" lon="5.50197">
        <ele>1172.16</ele>
        <time>2019-08-26T13:03:02Z</time>
      </trkpt>
      <trkpt lat="45.06466" lon="5.502">
        <ele>1171.86</ele>
        <time>2019-08-26T13:03:03Z</time>
      </trkpt>
      <trkpt lat="45.06464" lon="5.50207">
        <ele>1170.55</ele>
        <time>2019-08-26T13:03:08Z</time>
      </trkpt>
      <trkpt lat="45.0646" lon="5.50231">
        <ele>1168.07</ele>
        <time>2019-08-26T13:03:23Z</time>
      </trkpt>
      <trkpt lat="45.06452" lon="5.50251">
        <ele>1165.85</ele>
        <time>2019-08-26T13:03:39Z</time>
      </trkpt>
      <trkpt lat="45.06445" lon="5.5026">
        <ele>1165.45</ele>
        <time>2019-08-26T13:03:43Z</time>
      </trkpt>
      <trkpt lat="45.06444" lon="5.50263">
        <ele>1165.38</ele>
        <time>2019-08-26T13:03:44Z</time>
      </trkpt>
      <trkpt lat="45.06443" lon="5.50265">
        <ele>1165.32</ele>
        <time>2019-08-26T13:03:45Z</time>
      </trkpt>
      <trkpt lat="45.06442" lon="5.50267">
        <ele>1165.3</ele>
        <time>2019-08-26T13:03:46Z</time>
      </trkpt>
      <trkpt lat="45.06441" lon="5.5027">
        <ele>1165.29</ele>
        <time>2019-08-26T13:03:47Z</time>
      </trkpt>
      <trkpt lat="45.06439" lon="5.50273">
        <ele>1165.28</ele>
        <time>2019-08-26T13:03:48Z</time>
      </trkpt>
      <trkpt lat="45.06438" lon="5.50277">
        <ele>1165.28</ele>
        <time>2019-08-26T13:03:49Z</time>
      </trkpt>
      <trkpt lat="45.06436" lon="5.50281">
        <ele>1165.28</ele>
        <time>2019-08-26T13:03:50Z</time>
      </trkpt>
      <trkpt lat="45.06434" lon="5.50284">
        <ele>1165.29</ele>
        <time>2019-08-26T13:03:51Z</time>
      </trkpt>
      <trkpt lat="45.06432" lon="5.50287">
        <ele>1165.3</ele>
        <time>2019-08-26T13:03:52Z</time>
      </trkpt>
      <trkpt lat="45.06431" lon="5.50291">
        <ele>1165.34</ele>
        <time>2019-08-26T13:03:53Z</time>
      </trkpt>
      <trkpt lat="45.06431" lon="5.50294">
        <ele>1165.39</ele>
        <time>2019-08-26T13:03:54Z</time>
      </trkpt>
      <trkpt lat="45.06428" lon="5.5031">
        <ele>1166.35</ele>
        <time>2019-08-26T13:04:03Z</time>
      </trkpt>
      <trkpt lat="45.06419" lon="5.50338">
        <ele>1166.66</ele>
        <time>2019-08-26T13:04:31Z</time>
      </trkpt>
      <trkpt lat="45.06416" lon="5.50342">
        <ele>1166.58</ele>
        <time>2019-08-26T13:04:33Z</time>
      </trkpt>
      <trkpt lat="45.06415" lon="5.50345">
        <ele>1166.52</ele>
        <time>2019-08-26T13:04:34Z</time>
      </trkpt>
      <trkpt lat="45.06412" lon="5.50349">
        <ele>1166.41</ele>
        <time>2019-08-26T13:04:35Z</time>
      </trkpt>
      <trkpt lat="45.0641" lon="5.50353">
        <ele>1166.22</ele>
        <time>2019-08-26T13:04:36Z</time>
      </trkpt>
      <trkpt lat="45.06407" lon="5.50356">
        <ele>1165.98</ele>
        <time>2019-08-26T13:04:37Z</time>
      </trkpt>
      <trkpt lat="45.06405" lon="5.50359">
        <ele>1165.74</ele>
        <time>2019-08-26T13:04:38Z</time>
      </trkpt>
      <trkpt lat="45.06403" lon="5.50361">
        <ele>1165.55</ele>
        <time>2019-08-26T13:04:39Z</time>
      </trkpt>
      <trkpt lat="45.06398" lon="5.50368">
        <ele>1165.22</ele>
        <time>2019-08-26T13:04:42Z</time>
      </trkpt>
      <trkpt lat="45.06396" lon="5.50372">
        <ele>1165.25</ele>
        <time>2019-08-26T13:04:44Z</time>
      </trkpt>
      <trkpt lat="45.06393" lon="5.50373">
        <ele>1165.3</ele>
        <time>2019-08-26T13:04:45Z</time>
      </trkpt>
      <trkpt lat="45.06391" lon="5.50375">
        <ele>1165.38</ele>
        <time>2019-08-26T13:04:46Z</time>
      </trkpt>
      <trkpt lat="45.06389" lon="5.50377">
        <ele>1165.49</ele>
        <time>2019-08-26T13:04:47Z</time>
      </trkpt>
      <trkpt lat="45.06388" lon="5.5038">
        <ele>1165.59</ele>
        <time>2019-08-26T13:04:48Z</time>
      </trkpt>
      <trkpt lat="45.06381" lon="5.50401">
        <ele>1166.06</ele>
        <time>2019-08-26T13:04:56Z</time>
      </trkpt>
      <trkpt lat="45.0638" lon="5.50403">
        <ele>1166.05</ele>
        <time>2019-08-26T13:04:57Z</time>
      </trkpt>
      <trkpt lat="45.06379" lon="5.50407">
        <ele>1166.06</ele>
        <time>2019-08-26T13:04:58Z</time>
      </trkpt>
      <trkpt lat="45.06377" lon="5.50411">
        <ele>1166.09</ele>
        <time>2019-08-26T13:04:59Z</time>
      </trkpt>
      <trkpt lat="45.06375" lon="5.50414">
        <ele>1166.13</ele>
        <time>2019-08-26T13:05:00Z</time>
      </trkpt>
      <trkpt lat="45.06373" lon="5.50418">
        <ele>1166.18</ele>
        <time>2019-08-26T13:05:01Z</time>
      </trkpt>
      <trkpt lat="45.06371" lon="5.50422">
        <ele>1166.24</ele>
        <time>2019-08-26T13:05:02Z</time>
      </trkpt>
      <trkpt lat="45.06369" lon="5.50426">
        <ele>1166.3</ele>
        <time>2019-08-26T13:05:03Z</time>
      </trkpt>
      <trkpt lat="45.06369" lon="5.50429">
        <ele>1166.38</ele>
        <time>2019-08-26T13:05:04Z</time>
      </trkpt>
      <trkpt lat="45.06367" lon="5.50432">
        <ele>1166.47</ele>
        <time>2019-08-26T13:05:05Z</time>
      </trkpt>
      <trkpt lat="45.06365" lon="5.50435">
        <ele>1166.58</ele>
        <time>2019-08-26T13:05:06Z</time>
      </trkpt>
      <trkpt lat="45.06364" lon="5.50438">
        <ele>1166.73</ele>
        <time>2019-08-26T13:05:07Z</time>
      </trkpt>
      <trkpt lat="45.06362" lon="5.50444">
        <ele>1167.32</ele>
        <time>2019-08-26T13:05:10Z</time>
      </trkpt>
      <trkpt lat="45.06358" lon="5.50452">
        <ele>1167.87</ele>
        <time>2019-08-26T13:05:13Z</time>
      </trkpt>
      <trkpt lat="45.06354" lon="5.50458">
        <ele>1168.25</ele>
        <time>2019-08-26T13:05:15Z</time>
      </trkpt>
      <trkpt lat="45.0634" lon="5.50483">
        <ele>1169.96</ele>
        <time>2019-08-26T13:05:28Z</time>
      </trkpt>
      <trkpt lat="45.06328" lon="5.505">
        <ele>1171.03</ele>
        <time>2019-08-26T13:05:35Z</time>
      </trkpt>
      <trkpt lat="45.06325" lon="5.50503">
        <ele>1171.38</ele>
        <time>2019-08-26T13:05:37Z</time>
      </trkpt>
      <trkpt lat="45.06324" lon="5.50505">
        <ele>1171.56</ele>
        <time>2019-08-26T13:05:38Z</time>
      </trkpt>
      <trkpt lat="45.06315" lon="5.50512">
        <ele>1172.46</ele>
        <time>2019-08-26T13:05:43Z</time>
      </trkpt>
      <trkpt lat="45.06314" lon="5.50514">
        <ele>1172.65</ele>
        <time>2019-08-26T13:05:44Z</time>
      </trkpt>
      <trkpt lat="45.06312" lon="5.50515">
        <ele>1172.84</ele>
        <time>2019-08-26T13:05:45Z</time>
      </trkpt>
      <trkpt lat="45.0631" lon="5.50516">
        <ele>1173.01</ele>
        <time>2019-08-26T13:05:46Z</time>
      </trkpt>
      <trkpt lat="45.06292" lon="5.50527">
        <ele>1174.86</ele>
        <time>2019-08-26T13:05:57Z</time>
      </trkpt>
      <trkpt lat="45.06289" lon="5.50528">
        <ele>1175.16</ele>
        <time>2019-08-26T13:05:59Z</time>
      </trkpt>
      <trkpt lat="45.06288" lon="5.50528">
        <ele>1175.32</ele>
        <time>2019-08-26T13:06:00Z</time>
      </trkpt>
      <trkpt lat="45.0627" lon="5.50538">
        <ele>1177.45</ele>
        <time>2019-08-26T13:06:13Z</time>
      </trkpt>
      <trkpt lat="45.06269" lon="5.50539">
        <ele>1177.54</ele>
        <time>2019-08-26T13:06:14Z</time>
      </trkpt>
      <trkpt lat="45.06267" lon="5.5054">
        <ele>1177.62</ele>
        <time>2019-08-26T13:06:15Z</time>
      </trkpt>
      <trkpt lat="45.06266" lon="5.50541">
        <ele>1177.71</ele>
        <time>2019-08-26T13:06:16Z</time>
      </trkpt>
      <trkpt lat="45.06265" lon="5.50542">
        <ele>1177.78</ele>
        <time>2019-08-26T13:06:17Z</time>
      </trkpt>
      <trkpt lat="45.06264" lon="5.50543">
        <ele>1177.85</ele>
        <time>2019-08-26T13:06:18Z</time>
      </trkpt>
      <trkpt lat="45.06253" lon="5.50551">
        <ele>1179.35</ele>
        <time>2019-08-26T13:06:29Z</time>
      </trkpt>
      <trkpt lat="45.06252" lon="5.50552">
        <ele>1179.56</ele>
        <time>2019-08-26T13:06:30Z</time>
      </trkpt>
      <trkpt lat="45.06231" lon="5.50563">
        <ele>1182.72</ele>
        <time>2019-08-26T13:06:45Z</time>
      </trkpt>
      <trkpt lat="45.06215" lon="5.50572">
        <ele>1184.68</ele>
        <time>2019-08-26T13:06:57Z</time>
      </trkpt>
      <trkpt lat="45.06204" lon="5.50575">
        <ele>1185.83</ele>
        <time>2019-08-26T13:07:07Z</time>
      </trkpt>
      <trkpt lat="45.06188" lon="5.50586">
        <ele>1186.98</ele>
        <time>2019-08-26T13:07:21Z</time>
      </trkpt>
      <trkpt lat="45.06179" lon="5.50602">
        <ele>1188.31</ele>
        <time>2019-08-26T13:07:37Z</time>
      </trkpt>
      <trkpt lat="45.06173" lon="5.50606">
        <ele>1189.34</ele>
        <time>2019-08-26T13:07:52Z</time>
      </trkpt>
      <trkpt lat="45.06169" lon="5.50623">
        <ele>1189.41</ele>
        <time>2019-08-26T13:08:08Z</time>
      </trkpt>
      <trkpt lat="45.06152" lon="5.50653">
        <ele>1189.69</ele>
        <time>2019-08-26T13:08:20Z</time>
      </trkpt>
      <trkpt lat="45.06136" lon="5.50671">
        <ele>1189.31</ele>
        <time>2019-08-26T13:08:30Z</time>
      </trkpt>
      <trkpt lat="45.06122" lon="5.50685">
        <ele>1188.99</ele>
        <time>2019-08-26T13:08:48Z</time>
      </trkpt>
      <trkpt lat="45.06089" lon="5.5071">
        <ele>1188.26</ele>
        <time>2019-08-26T13:09:00Z</time>
      </trkpt>
      <trkpt lat="45.06052" lon="5.50732">
        <ele>1187.32</ele>
        <time>2019-08-26T13:09:09Z</time>
      </trkpt>
      <trkpt lat="45.06028" lon="5.50752">
        <ele>1186.78</ele>
        <time>2019-08-26T13:09:15Z</time>
      </trkpt>
      <trkpt lat="45.05983" lon="5.50809">
        <ele>1185.37</ele>
        <time>2019-08-26T13:09:29Z</time>
      </trkpt>
      <trkpt lat="45.0598" lon="5.50814">
        <ele>1185.29</ele>
        <time>2019-08-26T13:09:30Z</time>
      </trkpt>
      <trkpt lat="45.05973" lon="5.50827">
        <ele>1185.15</ele>
        <time>2019-08-26T13:09:32Z</time>
      </trkpt>
      <trkpt lat="45.05971" lon="5.50832">
        <ele>1185.09</ele>
        <time>2019-08-26T13:09:33Z</time>
      </trkpt>
      <trkpt lat="45.05952" lon="5.50864">
        <ele>1184.58</ele>
        <time>2019-08-26T13:09:39Z</time>
      </trkpt>
      <trkpt lat="45.05934" lon="5.50883">
        <ele>1184.15</ele>
        <time>2019-08-26T13:09:43Z</time>
      </trkpt>
      <trkpt lat="45.05885" lon="5.50943">
        <ele>1182.83</ele>
        <time>2019-08-26T13:09:55Z</time>
      </trkpt>
      <trkpt lat="45.05882" lon="5.50948">
        <ele>1182.77</ele>
        <time>2019-08-26T13:09:56Z</time>
      </trkpt>
      <trkpt lat="45.05875" lon="5.50963">
        <ele>1182.65</ele>
        <time>2019-08-26T13:09:59Z</time>
      </trkpt>
      <trkpt lat="45.05872" lon="5.50968">
        <ele>1182.61</ele>
        <time>2019-08-26T13:10:00Z</time>
      </trkpt>
      <trkpt lat="45.05869" lon="5.50973">
        <ele>1182.57</ele>
        <time>2019-08-26T13:10:01Z</time>
      </trkpt>
      <trkpt lat="45.05856" lon="5.50995">
        <ele>1182.24</ele>
        <time>2019-08-26T13:10:05Z</time>
      </trkpt>
      <trkpt lat="45.05852" lon="5.50999">
        <ele>1182.15</ele>
        <time>2019-08-26T13:10:06Z</time>
      </trkpt>
      <trkpt lat="45.05839" lon="5.51012">
        <ele>1181.86</ele>
        <time>2019-08-26T13:10:09Z</time>
      </trkpt>
      <trkpt lat="45.05829" lon="5.51019">
        <ele>1181.71</ele>
        <time>2019-08-26T13:10:11Z</time>
      </trkpt>
      <trkpt lat="45.05823" lon="5.51022">
        <ele>1181.65</ele>
        <time>2019-08-26T13:10:12Z</time>
      </trkpt>
      <trkpt lat="45.05817" lon="5.51025">
        <ele>1181.6</ele>
        <time>2019-08-26T13:10:13Z</time>
      </trkpt>
      <trkpt lat="45.05777" lon="5.51046">
        <ele>1181.15</ele>
        <time>2019-08-26T13:10:21Z</time>
      </trkpt>
      <trkpt lat="45.05771" lon="5.51049">
        <ele>1181.07</ele>
        <time>2019-08-26T13:10:22Z</time>
      </trkpt>
      <trkpt lat="45.05766" lon="5.51051">
        <ele>1180.99</ele>
        <time>2019-08-26T13:10:23Z</time>
      </trkpt>
      <trkpt lat="45.05743" lon="5.51063">
        <ele>1180.57</ele>
        <time>2019-08-26T13:10:28Z</time>
      </trkpt>
      <trkpt lat="45.05739" lon="5.51068">
        <ele>1180.52</ele>
        <time>2019-08-26T13:10:29Z</time>
      </trkpt>
      <trkpt lat="45.05736" lon="5.51073">
        <ele>1180.49</ele>
        <time>2019-08-26T13:10:30Z</time>
      </trkpt>
      <trkpt lat="45.05734" lon="5.51078">
        <ele>1180.46</ele>
        <time>2019-08-26T13:10:31Z</time>
      </trkpt>
      <trkpt lat="45.05732" lon="5.51084">
        <ele>1180.41</ele>
        <time>2019-08-26T13:10:32Z</time>
      </trkpt>
      <trkpt lat="45.05723" lon="5.51114">
        <ele>1180.09</ele>
        <time>2019-08-26T13:10:37Z</time>
      </trkpt>
      <trkpt lat="45.05721" lon="5.51119">
        <ele>1180.04</ele>
        <time>2019-08-26T13:10:38Z</time>
      </trkpt>
      <trkpt lat="45.05716" lon="5.51124">
        <ele>1179.98</ele>
        <time>2019-08-26T13:10:39Z</time>
      </trkpt>
      <trkpt lat="45.05711" lon="5.51127">
        <ele>1179.93</ele>
        <time>2019-08-26T13:10:40Z</time>
      </trkpt>
      <trkpt lat="45.05706" lon="5.5113">
        <ele>1179.85</ele>
        <time>2019-08-26T13:10:41Z</time>
      </trkpt>
      <trkpt lat="45.057" lon="5.51133">
        <ele>1179.8</ele>
        <time>2019-08-26T13:10:42Z</time>
      </trkpt>
      <trkpt lat="45.05694" lon="5.51134">
        <ele>1179.71</ele>
        <time>2019-08-26T13:10:43Z</time>
      </trkpt>
      <trkpt lat="45.05689" lon="5.51136">
        <ele>1179.62</ele>
        <time>2019-08-26T13:10:44Z</time>
      </trkpt>
      <trkpt lat="45.05683" lon="5.51136">
        <ele>1179.45</ele>
        <time>2019-08-26T13:10:45Z</time>
      </trkpt>
      <trkpt lat="45.05667" lon="5.51136">
        <ele>1179.27</ele>
        <time>2019-08-26T13:10:48Z</time>
      </trkpt>
      <trkpt lat="45.05619" lon="5.51135">
        <ele>1178.93</ele>
        <time>2019-08-26T13:10:57Z</time>
      </trkpt>
      <trkpt lat="45.05603" lon="5.51138">
        <ele>1178.73</ele>
        <time>2019-08-26T13:11:00Z</time>
      </trkpt>
      <trkpt lat="45.05598" lon="5.51141">
        <ele>1178.66</ele>
        <time>2019-08-26T13:11:01Z</time>
      </trkpt>
      <trkpt lat="45.05593" lon="5.51143">
        <ele>1178.6</ele>
        <time>2019-08-26T13:11:02Z</time>
      </trkpt>
      <trkpt lat="45.05588" lon="5.51145">
        <ele>1178.54</ele>
        <time>2019-08-26T13:11:03Z</time>
      </trkpt>
      <trkpt lat="45.05584" lon="5.51147">
        <ele>1178.47</ele>
        <time>2019-08-26T13:11:04Z</time>
      </trkpt>
      <trkpt lat="45.05581" lon="5.51151">
        <ele>1178.42</ele>
        <time>2019-08-26T13:11:05Z</time>
      </trkpt>
      <trkpt lat="45.05579" lon="5.51155">
        <ele>1178.38</ele>
        <time>2019-08-26T13:11:06Z</time>
      </trkpt>
      <trkpt lat="45.05578" lon="5.5116">
        <ele>1178.32</ele>
        <time>2019-08-26T13:11:07Z</time>
      </trkpt>
      <trkpt lat="45.05577" lon="5.51165">
        <ele>1178.27</ele>
        <time>2019-08-26T13:11:08Z</time>
      </trkpt>
      <trkpt lat="45.05578" lon="5.5117">
        <ele>1178.21</ele>
        <time>2019-08-26T13:11:09Z</time>
      </trkpt>
      <trkpt lat="45.05579" lon="5.51175">
        <ele>1178.18</ele>
        <time>2019-08-26T13:11:10Z</time>
      </trkpt>
      <trkpt lat="45.0558" lon="5.5118">
        <ele>1178.09</ele>
        <time>2019-08-26T13:11:11Z</time>
      </trkpt>
      <trkpt lat="45.05585" lon="5.51199">
        <ele>1177.91</ele>
        <time>2019-08-26T13:11:14Z</time>
      </trkpt>
      <trkpt lat="45.05589" lon="5.51205">
        <ele>1177.83</ele>
        <time>2019-08-26T13:11:15Z</time>
      </trkpt>
      <trkpt lat="45.05623" lon="5.51251">
        <ele>1176.57</ele>
        <time>2019-08-26T13:11:22Z</time>
      </trkpt>
      <trkpt lat="45.05637" lon="5.5128">
        <ele>1175.57</ele>
        <time>2019-08-26T13:11:25Z</time>
      </trkpt>
      <trkpt lat="45.0565" lon="5.51329">
        <ele>1173.84</ele>
        <time>2019-08-26T13:11:29Z</time>
      </trkpt>
      <trkpt lat="45.0565" lon="5.51342">
        <ele>1173.27</ele>
        <time>2019-08-26T13:11:30Z</time>
      </trkpt>
      <trkpt lat="45.05648" lon="5.51354">
        <ele>1172.69</ele>
        <time>2019-08-26T13:11:31Z</time>
      </trkpt>
      <trkpt lat="45.05644" lon="5.51365">
        <ele>1172.1</ele>
        <time>2019-08-26T13:11:32Z</time>
      </trkpt>
      <trkpt lat="45.05638" lon="5.51373">
        <ele>1171.52</ele>
        <time>2019-08-26T13:11:33Z</time>
      </trkpt>
      <trkpt lat="45.0563" lon="5.51381">
        <ele>1170.96</ele>
        <time>2019-08-26T13:11:34Z</time>
      </trkpt>
      <trkpt lat="45.05623" lon="5.51388">
        <ele>1170.43</ele>
        <time>2019-08-26T13:11:35Z</time>
      </trkpt>
      <trkpt lat="45.05617" lon="5.51397">
        <ele>1169.89</ele>
        <time>2019-08-26T13:11:36Z</time>
      </trkpt>
      <trkpt lat="45.05613" lon="5.5141">
        <ele>1168.77</ele>
        <time>2019-08-26T13:11:37Z</time>
      </trkpt>
      <trkpt lat="45.05613" lon="5.51422">
        <ele>1168.22</ele>
        <time>2019-08-26T13:11:38Z</time>
      </trkpt>
      <trkpt lat="45.05614" lon="5.51436">
        <ele>1167.68</ele>
        <time>2019-08-26T13:11:39Z</time>
      </trkpt>
      <trkpt lat="45.05616" lon="5.51449">
        <ele>1167.17</ele>
        <time>2019-08-26T13:11:40Z</time>
      </trkpt>
      <trkpt lat="45.05618" lon="5.51477">
        <ele>1166.11</ele>
        <time>2019-08-26T13:11:42Z</time>
      </trkpt>
      <trkpt lat="45.05618" lon="5.51491">
        <ele>1165.49</ele>
        <time>2019-08-26T13:11:43Z</time>
      </trkpt>
      <trkpt lat="45.05615" lon="5.51503">
        <ele>1164.86</ele>
        <time>2019-08-26T13:11:44Z</time>
      </trkpt>
      <trkpt lat="45.05607" lon="5.51513">
        <ele>1164.23</ele>
        <time>2019-08-26T13:11:45Z</time>
      </trkpt>
      <trkpt lat="45.05599" lon="5.5152">
        <ele>1163.63</ele>
        <time>2019-08-26T13:11:46Z</time>
      </trkpt>
      <trkpt lat="45.0559" lon="5.51525">
        <ele>1163.03</ele>
        <time>2019-08-26T13:11:47Z</time>
      </trkpt>
      <trkpt lat="45.05579" lon="5.51529">
        <ele>1162.46</ele>
        <time>2019-08-26T13:11:48Z</time>
      </trkpt>
      <trkpt lat="45.05569" lon="5.51532">
        <ele>1161.9</ele>
        <time>2019-08-26T13:11:49Z</time>
      </trkpt>
      <trkpt lat="45.05551" lon="5.51539">
        <ele>1160.78</ele>
        <time>2019-08-26T13:11:51Z</time>
      </trkpt>
      <trkpt lat="45.05544" lon="5.51547">
        <ele>1160.19</ele>
        <time>2019-08-26T13:11:52Z</time>
      </trkpt>
      <trkpt lat="45.0554" lon="5.51558">
        <ele>1159.59</ele>
        <time>2019-08-26T13:11:53Z</time>
      </trkpt>
      <trkpt lat="45.05538" lon="5.51571">
        <ele>1159.01</ele>
        <time>2019-08-26T13:11:54Z</time>
      </trkpt>
      <trkpt lat="45.05537" lon="5.51584">
        <ele>1158.42</ele>
        <time>2019-08-26T13:11:55Z</time>
      </trkpt>
      <trkpt lat="45.05537" lon="5.51595">
        <ele>1157.8</ele>
        <time>2019-08-26T13:11:56Z</time>
      </trkpt>
      <trkpt lat="45.05538" lon="5.51607">
        <ele>1157.17</ele>
        <time>2019-08-26T13:11:57Z</time>
      </trkpt>
      <trkpt lat="45.05539" lon="5.51619">
        <ele>1156.58</ele>
        <time>2019-08-26T13:11:58Z</time>
      </trkpt>
      <trkpt lat="45.05541" lon="5.5163">
        <ele>1156.04</ele>
        <time>2019-08-26T13:11:59Z</time>
      </trkpt>
      <trkpt lat="45.05543" lon="5.51641">
        <ele>1155.51</ele>
        <time>2019-08-26T13:12:00Z</time>
      </trkpt>
      <trkpt lat="45.05547" lon="5.5165">
        <ele>1154.99</ele>
        <time>2019-08-26T13:12:01Z</time>
      </trkpt>
      <trkpt lat="45.05552" lon="5.51659">
        <ele>1154.54</ele>
        <time>2019-08-26T13:12:02Z</time>
      </trkpt>
      <trkpt lat="45.05557" lon="5.51667">
        <ele>1153.74</ele>
        <time>2019-08-26T13:12:03Z</time>
      </trkpt>
      <trkpt lat="45.05562" lon="5.51674">
        <ele>1153.74</ele>
        <time>2019-08-26T13:12:04Z</time>
      </trkpt>
      <trkpt lat="45.05566" lon="5.51682">
        <ele>1153.14</ele>
        <time>2019-08-26T13:12:05Z</time>
      </trkpt>
      <trkpt lat="45.05568" lon="5.51691">
        <ele>1152.9</ele>
        <time>2019-08-26T13:12:06Z</time>
      </trkpt>
      <trkpt lat="45.0557" lon="5.517">
        <ele>1152.7</ele>
        <time>2019-08-26T13:12:07Z</time>
      </trkpt>
      <trkpt lat="45.0557" lon="5.5171">
        <ele>1152.55</ele>
        <time>2019-08-26T13:12:08Z</time>
      </trkpt>
      <trkpt lat="45.0557" lon="5.5172">
        <ele>1152.41</ele>
        <time>2019-08-26T13:12:09Z</time>
      </trkpt>
      <trkpt lat="45.05569" lon="5.51729">
        <ele>1152.28</ele>
        <time>2019-08-26T13:12:10Z</time>
      </trkpt>
      <trkpt lat="45.0557" lon="5.51738">
        <ele>1152.16</ele>
        <time>2019-08-26T13:12:11Z</time>
      </trkpt>
      <trkpt lat="45.05572" lon="5.51746">
        <ele>1152.03</ele>
        <time>2019-08-26T13:12:12Z</time>
      </trkpt>
      <trkpt lat="45.05574" lon="5.51754">
        <ele>1151.9</ele>
        <time>2019-08-26T13:12:13Z</time>
      </trkpt>
      <trkpt lat="45.05576" lon="5.51761">
        <ele>1151.78</ele>
        <time>2019-08-26T13:12:14Z</time>
      </trkpt>
      <trkpt lat="45.05579" lon="5.51768">
        <ele>1151.69</ele>
        <time>2019-08-26T13:12:15Z</time>
      </trkpt>
      <trkpt lat="45.05581" lon="5.51775">
        <ele>1151.62</ele>
        <time>2019-08-26T13:12:16Z</time>
      </trkpt>
      <trkpt lat="45.05583" lon="5.51783">
        <ele>1151.57</ele>
        <time>2019-08-26T13:12:17Z</time>
      </trkpt>
      <trkpt lat="45.05582" lon="5.51791">
        <ele>1151.55</ele>
        <time>2019-08-26T13:12:18Z</time>
      </trkpt>
      <trkpt lat="45.05581" lon="5.51798">
        <ele>1151.53</ele>
        <time>2019-08-26T13:12:19Z</time>
      </trkpt>
      <trkpt lat="45.05579" lon="5.51804">
        <ele>1151.51</ele>
        <time>2019-08-26T13:12:20Z</time>
      </trkpt>
      <trkpt lat="45.05577" lon="5.51811">
        <ele>1151.51</ele>
        <time>2019-08-26T13:12:21Z</time>
      </trkpt>
      <trkpt lat="45.0557" lon="5.5183">
        <ele>1151.44</ele>
        <time>2019-08-26T13:12:24Z</time>
      </trkpt>
      <trkpt lat="45.05568" lon="5.51838">
        <ele>1151.42</ele>
        <time>2019-08-26T13:12:25Z</time>
      </trkpt>
      <trkpt lat="45.05567" lon="5.51847">
        <ele>1151.41</ele>
        <time>2019-08-26T13:12:26Z</time>
      </trkpt>
      <trkpt lat="45.05568" lon="5.51856">
        <ele>1151.4</ele>
        <time>2019-08-26T13:12:27Z</time>
      </trkpt>
      <trkpt lat="45.05569" lon="5.51865">
        <ele>1151.39</ele>
        <time>2019-08-26T13:12:28Z</time>
      </trkpt>
      <trkpt lat="45.05572" lon="5.51874">
        <ele>1151.39</ele>
        <time>2019-08-26T13:12:29Z</time>
      </trkpt>
      <trkpt lat="45.05575" lon="5.51883">
        <ele>1151.39</ele>
        <time>2019-08-26T13:12:30Z</time>
      </trkpt>
      <trkpt lat="45.05576" lon="5.51891">
        <ele>1151.39</ele>
        <time>2019-08-26T13:12:31Z</time>
      </trkpt>
      <trkpt lat="45.05578" lon="5.519">
        <ele>1151.41</ele>
        <time>2019-08-26T13:12:32Z</time>
      </trkpt>
      <trkpt lat="45.05579" lon="5.51909">
        <ele>1151.38</ele>
        <time>2019-08-26T13:12:33Z</time>
      </trkpt>
      <trkpt lat="45.05581" lon="5.51918">
        <ele>1151.37</ele>
        <time>2019-08-26T13:12:34Z</time>
      </trkpt>
      <trkpt lat="45.05582" lon="5.51926">
        <ele>1151.33</ele>
        <time>2019-08-26T13:12:35Z</time>
      </trkpt>
      <trkpt lat="45.05585" lon="5.51935">
        <ele>1151.32</ele>
        <time>2019-08-26T13:12:36Z</time>
      </trkpt>
      <trkpt lat="45.05589" lon="5.51952">
        <ele>1151.3</ele>
        <time>2019-08-26T13:12:38Z</time>
      </trkpt>
      <trkpt lat="45.05592" lon="5.51967">
        <ele>1151.32</ele>
        <time>2019-08-26T13:12:40Z</time>
      </trkpt>
      <trkpt lat="45.05592" lon="5.51976">
        <ele>1151.33</ele>
        <time>2019-08-26T13:12:41Z</time>
      </trkpt>
      <trkpt lat="45.05592" lon="5.51993">
        <ele>1151.33</ele>
        <time>2019-08-26T13:12:43Z</time>
      </trkpt>
      <trkpt lat="45.05593" lon="5.52002">
        <ele>1151.3</ele>
        <time>2019-08-26T13:12:44Z</time>
      </trkpt>
      <trkpt lat="45.05598" lon="5.52027">
        <ele>1151.21</ele>
        <time>2019-08-26T13:12:47Z</time>
      </trkpt>
      <trkpt lat="45.0564" lon="5.52128">
        <ele>1151.01</ele>
        <time>2019-08-26T13:13:00Z</time>
      </trkpt>
      <trkpt lat="45.05644" lon="5.52136">
        <ele>1150.89</ele>
        <time>2019-08-26T13:13:01Z</time>
      </trkpt>
      <trkpt lat="45.05648" lon="5.52143">
        <ele>1150.75</ele>
        <time>2019-08-26T13:13:02Z</time>
      </trkpt>
      <trkpt lat="45.05653" lon="5.5215">
        <ele>1150.61</ele>
        <time>2019-08-26T13:13:03Z</time>
      </trkpt>
      <trkpt lat="45.05664" lon="5.52163">
        <ele>1150.38</ele>
        <time>2019-08-26T13:13:05Z</time>
      </trkpt>
      <trkpt lat="45.0567" lon="5.52168">
        <ele>1150.26</ele>
        <time>2019-08-26T13:13:06Z</time>
      </trkpt>
      <trkpt lat="45.05759" lon="5.52217">
        <ele>1148.88</ele>
        <time>2019-08-26T13:13:20Z</time>
      </trkpt>
      <trkpt lat="45.05826" lon="5.52232">
        <ele>1147.82</ele>
        <time>2019-08-26T13:13:30Z</time>
      </trkpt>
      <trkpt lat="45.05868" lon="5.52254">
        <ele>1147.15</ele>
        <time>2019-08-26T13:13:37Z</time>
      </trkpt>
      <trkpt lat="45.05873" lon="5.52257">
        <ele>1147.06</ele>
        <time>2019-08-26T13:13:38Z</time>
      </trkpt>
      <trkpt lat="45.05879" lon="5.5226">
        <ele>1146.99</ele>
        <time>2019-08-26T13:13:39Z</time>
      </trkpt>
      <trkpt lat="45.05884" lon="5.52263">
        <ele>1146.94</ele>
        <time>2019-08-26T13:13:40Z</time>
      </trkpt>
      <trkpt lat="45.0589" lon="5.52267">
        <ele>1146.91</ele>
        <time>2019-08-26T13:13:41Z</time>
      </trkpt>
      <trkpt lat="45.05956" lon="5.52297">
        <ele>1147.65</ele>
        <time>2019-08-26T13:13:55Z</time>
      </trkpt>
      <trkpt lat="45.05996" lon="5.52288">
        <ele>1147.96</ele>
        <time>2019-08-26T13:14:06Z</time>
      </trkpt>
      <trkpt lat="45.05996" lon="5.52285">
        <ele>1147.96</ele>
        <time>2019-08-26T13:14:07Z</time>
      </trkpt>
      <trkpt lat="45.05997" lon="5.52282">
        <ele>1147.92</ele>
        <time>2019-08-26T13:14:08Z</time>
      </trkpt>
      <trkpt lat="45.05995" lon="5.52281">
        <ele>1147.7</ele>
        <time>2019-08-26T13:14:23Z</time>
      </trkpt>
      <trkpt lat="45.05996" lon="5.52282">
        <ele>1147.49</ele>
        <time>2019-08-26T13:14:57Z</time>
      </trkpt>
      <trkpt lat="45.05995" lon="5.52281">
        <ele>1147.27</ele>
        <time>2019-08-26T13:15:25Z</time>
      </trkpt>
      <trkpt lat="45.05997" lon="5.52282">
        <ele>1146.94</ele>
        <time>2019-08-26T13:15:50Z</time>
      </trkpt>
      <trkpt lat="45.05997" lon="5.52281">
        <ele>1147.04</ele>
        <time>2019-08-26T13:16:17Z</time>
      </trkpt>
      <trkpt lat="45.05995" lon="5.52279">
        <ele>1147.38</ele>
        <time>2019-08-26T13:16:55Z</time>
      </trkpt>
      <trkpt lat="45.05995" lon="5.52279">
        <ele>1147.01</ele>
        <time>2019-08-26T13:17:26Z</time>
      </trkpt>
      <trkpt lat="45.05996" lon="5.52277">
        <ele>1147.09</ele>
        <time>2019-08-26T13:17:47Z</time>
      </trkpt>
      <trkpt lat="45.05998" lon="5.52274">
        <ele>1147.12</ele>
        <time>2019-08-26T13:17:49Z</time>
      </trkpt>
      <trkpt lat="45.05999" lon="5.52273">
        <ele>1147.12</ele>
        <time>2019-08-26T13:17:50Z</time>
      </trkpt>
      <trkpt lat="45.06001" lon="5.52274">
        <ele>1147.12</ele>
        <time>2019-08-26T13:17:51Z</time>
      </trkpt>
      <trkpt lat="45.06035" lon="5.52294">
        <ele>1147.29</ele>
        <time>2019-08-26T13:18:04Z</time>
      </trkpt>
      <trkpt lat="45.06041" lon="5.52301">
        <ele>1147.59</ele>
        <time>2019-08-26T13:18:08Z</time>
      </trkpt>
      <trkpt lat="45.06042" lon="5.52304">
        <ele>1147.67</ele>
        <time>2019-08-26T13:18:09Z</time>
      </trkpt>
      <trkpt lat="45.0606" lon="5.52349">
        <ele>1148.29</ele>
        <time>2019-08-26T13:18:21Z</time>
      </trkpt>
      <trkpt lat="45.06064" lon="5.52365">
        <ele>1148.23</ele>
        <time>2019-08-26T13:18:24Z</time>
      </trkpt>
      <trkpt lat="45.06066" lon="5.52371">
        <ele>1148.21</ele>
        <time>2019-08-26T13:18:25Z</time>
      </trkpt>
      <trkpt lat="45.06067" lon="5.52377">
        <ele>1148.18</ele>
        <time>2019-08-26T13:18:26Z</time>
      </trkpt>
      <trkpt lat="45.06069" lon="5.52383">
        <ele>1148.16</ele>
        <time>2019-08-26T13:18:27Z</time>
      </trkpt>
      <trkpt lat="45.06071" lon="5.52389">
        <ele>1148.14</ele>
        <time>2019-08-26T13:18:28Z</time>
      </trkpt>
      <trkpt lat="45.06074" lon="5.52396">
        <ele>1148.11</ele>
        <time>2019-08-26T13:18:29Z</time>
      </trkpt>
      <trkpt lat="45.06077" lon="5.52401">
        <ele>1148.06</ele>
        <time>2019-08-26T13:18:30Z</time>
      </trkpt>
      <trkpt lat="45.06081" lon="5.52406">
        <ele>1148.01</ele>
        <time>2019-08-26T13:18:31Z</time>
      </trkpt>
      <trkpt lat="45.06085" lon="5.52411">
        <ele>1147.96</ele>
        <time>2019-08-26T13:18:32Z</time>
      </trkpt>
      <trkpt lat="45.0609" lon="5.52413">
        <ele>1147.9</ele>
        <time>2019-08-26T13:18:33Z</time>
      </trkpt>
      <trkpt lat="45.06094" lon="5.52415">
        <ele>1147.84</ele>
        <time>2019-08-26T13:18:34Z</time>
      </trkpt>
      <trkpt lat="45.06099" lon="5.52416">
        <ele>1147.78</ele>
        <time>2019-08-26T13:18:35Z</time>
      </trkpt>
      <trkpt lat="45.06169" lon="5.52433">
        <ele>1147.06</ele>
        <time>2019-08-26T13:18:50Z</time>
      </trkpt>
      <trkpt lat="45.06231" lon="5.52473">
        <ele>1147.16</ele>
        <time>2019-08-26T13:19:05Z</time>
      </trkpt>
      <trkpt lat="45.06272" lon="5.5249">
        <ele>1147.17</ele>
        <time>2019-08-26T13:19:15Z</time>
      </trkpt>
      <trkpt lat="45.0628" lon="5.52491">
        <ele>1147.18</ele>
        <time>2019-08-26T13:19:17Z</time>
      </trkpt>
      <trkpt lat="45.06296" lon="5.5249">
        <ele>1147.22</ele>
        <time>2019-08-26T13:19:21Z</time>
      </trkpt>
      <trkpt lat="45.06347" lon="5.52473">
        <ele>1147.46</ele>
        <time>2019-08-26T13:19:35Z</time>
      </trkpt>
      <trkpt lat="45.06411" lon="5.52448">
        <ele>1148.2</ele>
        <time>2019-08-26T13:19:52Z</time>
      </trkpt>
      <trkpt lat="45.06464" lon="5.52444">
        <ele>1148.17</ele>
        <time>2019-08-26T13:20:06Z</time>
      </trkpt>
      <trkpt lat="45.0648" lon="5.52461">
        <ele>1148.08</ele>
        <time>2019-08-26T13:20:11Z</time>
      </trkpt>
      <trkpt lat="45.06483" lon="5.52465">
        <ele>1148.06</ele>
        <time>2019-08-26T13:20:12Z</time>
      </trkpt>
      <trkpt lat="45.06486" lon="5.5247">
        <ele>1148.04</ele>
        <time>2019-08-26T13:20:13Z</time>
      </trkpt>
      <trkpt lat="45.06489" lon="5.52476">
        <ele>1148.02</ele>
        <time>2019-08-26T13:20:14Z</time>
      </trkpt>
      <trkpt lat="45.06492" lon="5.52482">
        <ele>1148</ele>
        <time>2019-08-26T13:20:15Z</time>
      </trkpt>
      <trkpt lat="45.0651" lon="5.52533">
        <ele>1147.58</ele>
        <time>2019-08-26T13:20:24Z</time>
      </trkpt>
      <trkpt lat="45.06541" lon="5.52615">
        <ele>1147.22</ele>
        <time>2019-08-26T13:20:40Z</time>
      </trkpt>
      <trkpt lat="45.06589" lon="5.52715">
        <ele>1146.27</ele>
        <time>2019-08-26T13:21:00Z</time>
      </trkpt>
      <trkpt lat="45.06609" lon="5.52781">
        <ele>1145.25</ele>
        <time>2019-08-26T13:21:15Z</time>
      </trkpt>
      <trkpt lat="45.06605" lon="5.52867">
        <ele>1143.28</ele>
        <time>2019-08-26T13:21:29Z</time>
      </trkpt>
      <trkpt lat="45.06604" lon="5.52882">
        <ele>1143.01</ele>
        <time>2019-08-26T13:21:31Z</time>
      </trkpt>
      <trkpt lat="45.06596" lon="5.52998">
        <ele>1140.45</ele>
        <time>2019-08-26T13:21:44Z</time>
      </trkpt>
      <trkpt lat="45.06582" lon="5.53124">
        <ele>1137.31</ele>
        <time>2019-08-26T13:21:57Z</time>
      </trkpt>
      <trkpt lat="45.06579" lon="5.53133">
        <ele>1137.1</ele>
        <time>2019-08-26T13:21:58Z</time>
      </trkpt>
      <trkpt lat="45.06576" lon="5.5314">
        <ele>1136.89</ele>
        <time>2019-08-26T13:21:59Z</time>
      </trkpt>
      <trkpt lat="45.0656" lon="5.53188">
        <ele>1135.55</ele>
        <time>2019-08-26T13:22:09Z</time>
      </trkpt>
      <trkpt lat="45.06556" lon="5.5319">
        <ele>1135.33</ele>
        <time>2019-08-26T13:22:23Z</time>
      </trkpt>
      <trkpt lat="45.06555" lon="5.53193">
        <ele>1135.26</ele>
        <time>2019-08-26T13:22:46Z</time>
      </trkpt>
      <trkpt lat="45.06555" lon="5.53195">
        <ele>1135.26</ele>
        <time>2019-08-26T13:22:47Z</time>
      </trkpt>
      <trkpt lat="45.06571" lon="5.53234">
        <ele>1134.93</ele>
        <time>2019-08-26T13:22:59Z</time>
      </trkpt>
      <trkpt lat="45.06612" lon="5.5325">
        <ele>1134.25</ele>
        <time>2019-08-26T13:23:09Z</time>
      </trkpt>
      <trkpt lat="45.06688" lon="5.53249">
        <ele>1131.96</ele>
        <time>2019-08-26T13:23:22Z</time>
      </trkpt>
      <trkpt lat="45.06778" lon="5.53268">
        <ele>1128.85</ele>
        <time>2019-08-26T13:23:34Z</time>
      </trkpt>
      <trkpt lat="45.06828" lon="5.53295">
        <ele>1126.38</ele>
        <time>2019-08-26T13:23:40Z</time>
      </trkpt>
      <trkpt lat="45.06843" lon="5.53311">
        <ele>1124.93</ele>
        <time>2019-08-26T13:23:42Z</time>
      </trkpt>
      <trkpt lat="45.06849" lon="5.53322">
        <ele>1124.4</ele>
        <time>2019-08-26T13:23:43Z</time>
      </trkpt>
      <trkpt lat="45.06853" lon="5.53335">
        <ele>1123.86</ele>
        <time>2019-08-26T13:23:44Z</time>
      </trkpt>
      <trkpt lat="45.06857" lon="5.53348">
        <ele>1123.32</ele>
        <time>2019-08-26T13:23:45Z</time>
      </trkpt>
      <trkpt lat="45.0686" lon="5.53361">
        <ele>1122.79</ele>
        <time>2019-08-26T13:23:46Z</time>
      </trkpt>
      <trkpt lat="45.06861" lon="5.53374">
        <ele>1122.23</ele>
        <time>2019-08-26T13:23:47Z</time>
      </trkpt>
      <trkpt lat="45.06862" lon="5.53387">
        <ele>1121.65</ele>
        <time>2019-08-26T13:23:48Z</time>
      </trkpt>
      <trkpt lat="45.06863" lon="5.534">
        <ele>1121.06</ele>
        <time>2019-08-26T13:23:49Z</time>
      </trkpt>
      <trkpt lat="45.06861" lon="5.53424">
        <ele>1119.83</ele>
        <time>2019-08-26T13:23:51Z</time>
      </trkpt>
      <trkpt lat="45.06859" lon="5.53433">
        <ele>1119.19</ele>
        <time>2019-08-26T13:23:52Z</time>
      </trkpt>
      <trkpt lat="45.06858" lon="5.53441">
        <ele>1118.54</ele>
        <time>2019-08-26T13:23:53Z</time>
      </trkpt>
      <trkpt lat="45.06856" lon="5.53448">
        <ele>1117.88</ele>
        <time>2019-08-26T13:23:54Z</time>
      </trkpt>
      <trkpt lat="45.06855" lon="5.53454">
        <ele>1117.21</ele>
        <time>2019-08-26T13:23:55Z</time>
      </trkpt>
      <trkpt lat="45.06855" lon="5.53472">
        <ele>1114.06</ele>
        <time>2019-08-26T13:24:00Z</time>
      </trkpt>
      <trkpt lat="45.0686" lon="5.53467">
        <ele>1111.19</ele>
        <time>2019-08-26T13:24:22Z</time>
      </trkpt>
      <trkpt lat="45.06861" lon="5.53479">
        <ele>1111.2</ele>
        <time>2019-08-26T13:24:43Z</time>
      </trkpt>
      <trkpt lat="45.06859" lon="5.53483">
        <ele>1111.14</ele>
        <time>2019-08-26T13:24:44Z</time>
      </trkpt>
      <trkpt lat="45.06857" lon="5.53488">
        <ele>1111.08</ele>
        <time>2019-08-26T13:24:45Z</time>
      </trkpt>
      <trkpt lat="45.06853" lon="5.53493">
        <ele>1111</ele>
        <time>2019-08-26T13:24:46Z</time>
      </trkpt>
      <trkpt lat="45.06848" lon="5.53497">
        <ele>1110.9</ele>
        <time>2019-08-26T13:24:47Z</time>
      </trkpt>
      <trkpt lat="45.06843" lon="5.53501">
        <ele>1110.71</ele>
        <time>2019-08-26T13:24:48Z</time>
      </trkpt>
      <trkpt lat="45.06837" lon="5.53505">
        <ele>1110.45</ele>
        <time>2019-08-26T13:24:49Z</time>
      </trkpt>
      <trkpt lat="45.0683" lon="5.53508">
        <ele>1110.14</ele>
        <time>2019-08-26T13:24:50Z</time>
      </trkpt>
      <trkpt lat="45.06769" lon="5.53536">
        <ele>1106.79</ele>
        <time>2019-08-26T13:24:57Z</time>
      </trkpt>
      <trkpt lat="45.06759" lon="5.53537">
        <ele>1106.26</ele>
        <time>2019-08-26T13:24:58Z</time>
      </trkpt>
      <trkpt lat="45.06697" lon="5.53547">
        <ele>1102.63</ele>
        <time>2019-08-26T13:25:04Z</time>
      </trkpt>
      <trkpt lat="45.06642" lon="5.53561">
        <ele>1098.81</ele>
        <time>2019-08-26T13:25:09Z</time>
      </trkpt>
      <trkpt lat="45.06612" lon="5.53575">
        <ele>1096.3</ele>
        <time>2019-08-26T13:25:12Z</time>
      </trkpt>
      <trkpt lat="45.06598" lon="5.53588">
        <ele>1094.57</ele>
        <time>2019-08-26T13:25:14Z</time>
      </trkpt>
      <trkpt lat="45.06593" lon="5.53599">
        <ele>1093.69</ele>
        <time>2019-08-26T13:25:15Z</time>
      </trkpt>
      <trkpt lat="45.06588" lon="5.53613">
        <ele>1092.87</ele>
        <time>2019-08-26T13:25:16Z</time>
      </trkpt>
      <trkpt lat="45.06586" lon="5.53627">
        <ele>1092.1</ele>
        <time>2019-08-26T13:25:17Z</time>
      </trkpt>
      <trkpt lat="45.06587" lon="5.53639">
        <ele>1091.33</ele>
        <time>2019-08-26T13:25:18Z</time>
      </trkpt>
      <trkpt lat="45.0659" lon="5.5365">
        <ele>1090.57</ele>
        <time>2019-08-26T13:25:19Z</time>
      </trkpt>
      <trkpt lat="45.06598" lon="5.53658">
        <ele>1089.78</ele>
        <time>2019-08-26T13:25:20Z</time>
      </trkpt>
      <trkpt lat="45.06606" lon="5.53666">
        <ele>1088.28</ele>
        <time>2019-08-26T13:25:21Z</time>
      </trkpt>
      <trkpt lat="45.06613" lon="5.53675">
        <ele>1087.64</ele>
        <time>2019-08-26T13:25:22Z</time>
      </trkpt>
      <trkpt lat="45.06657" lon="5.53719">
        <ele>1084.09</ele>
        <time>2019-08-26T13:25:27Z</time>
      </trkpt>
      <trkpt lat="45.06696" lon="5.53755">
        <ele>1080.62</ele>
        <time>2019-08-26T13:25:31Z</time>
      </trkpt>
      <trkpt lat="45.0672" lon="5.53773">
        <ele>1078.83</ele>
        <time>2019-08-26T13:25:33Z</time>
      </trkpt>
      <trkpt lat="45.06732" lon="5.53779">
        <ele>1077.96</ele>
        <time>2019-08-26T13:25:34Z</time>
      </trkpt>
      <trkpt lat="45.06744" lon="5.53785">
        <ele>1077.06</ele>
        <time>2019-08-26T13:25:35Z</time>
      </trkpt>
      <trkpt lat="45.06756" lon="5.53792">
        <ele>1076.12</ele>
        <time>2019-08-26T13:25:36Z</time>
      </trkpt>
      <trkpt lat="45.06769" lon="5.53797">
        <ele>1075.18</ele>
        <time>2019-08-26T13:25:37Z</time>
      </trkpt>
      <trkpt lat="45.06808" lon="5.53818">
        <ele>1072.16</ele>
        <time>2019-08-26T13:25:40Z</time>
      </trkpt>
      <trkpt lat="45.06857" lon="5.53855">
        <ele>1068.26</ele>
        <time>2019-08-26T13:25:44Z</time>
      </trkpt>
      <trkpt lat="45.06881" lon="5.53874">
        <ele>1065.09</ele>
        <time>2019-08-26T13:25:46Z</time>
      </trkpt>
      <trkpt lat="45.06927" lon="5.53912">
        <ele>1061.37</ele>
        <time>2019-08-26T13:25:50Z</time>
      </trkpt>
      <trkpt lat="45.06949" lon="5.53928">
        <ele>1059.64</ele>
        <time>2019-08-26T13:25:52Z</time>
      </trkpt>
      <trkpt lat="45.0696" lon="5.53935">
        <ele>1058.8</ele>
        <time>2019-08-26T13:25:53Z</time>
      </trkpt>
      <trkpt lat="45.06971" lon="5.53939">
        <ele>1057.91</ele>
        <time>2019-08-26T13:25:54Z</time>
      </trkpt>
      <trkpt lat="45.06983" lon="5.53944">
        <ele>1056.99</ele>
        <time>2019-08-26T13:25:55Z</time>
      </trkpt>
      <trkpt lat="45.06994" lon="5.53948">
        <ele>1056.06</ele>
        <time>2019-08-26T13:25:56Z</time>
      </trkpt>
      <trkpt lat="45.07038" lon="5.53975">
        <ele>1052.46</ele>
        <time>2019-08-26T13:26:00Z</time>
      </trkpt>
      <trkpt lat="45.07048" lon="5.53986">
        <ele>1051.58</ele>
        <time>2019-08-26T13:26:01Z</time>
      </trkpt>
      <trkpt lat="45.07057" lon="5.53998">
        <ele>1050.67</ele>
        <time>2019-08-26T13:26:02Z</time>
      </trkpt>
      <trkpt lat="45.0709" lon="5.54048">
        <ele>1046.78</ele>
        <time>2019-08-26T13:26:06Z</time>
      </trkpt>
      <trkpt lat="45.07112" lon="5.5409">
        <ele>1043.17</ele>
        <time>2019-08-26T13:26:09Z</time>
      </trkpt>
      <trkpt lat="45.07117" lon="5.54107">
        <ele>1042.27</ele>
        <time>2019-08-26T13:26:10Z</time>
      </trkpt>
      <trkpt lat="45.07121" lon="5.54124">
        <ele>1041.36</ele>
        <time>2019-08-26T13:26:11Z</time>
      </trkpt>
      <trkpt lat="45.07125" lon="5.5414">
        <ele>1040.49</ele>
        <time>2019-08-26T13:26:12Z</time>
      </trkpt>
      <trkpt lat="45.07131" lon="5.54156">
        <ele>1039.62</ele>
        <time>2019-08-26T13:26:13Z</time>
      </trkpt>
      <trkpt lat="45.07136" lon="5.54171">
        <ele>1038.72</ele>
        <time>2019-08-26T13:26:14Z</time>
      </trkpt>
      <trkpt lat="45.07161" lon="5.54226">
        <ele>1035.14</ele>
        <time>2019-08-26T13:26:18Z</time>
      </trkpt>
      <trkpt lat="45.07186" lon="5.54293">
        <ele>1031.67</ele>
        <time>2019-08-26T13:26:23Z</time>
      </trkpt>
      <trkpt lat="45.07189" lon="5.54306">
        <ele>1031.09</ele>
        <time>2019-08-26T13:26:24Z</time>
      </trkpt>
      <trkpt lat="45.07191" lon="5.5432">
        <ele>1030.59</ele>
        <time>2019-08-26T13:26:25Z</time>
      </trkpt>
      <trkpt lat="45.07192" lon="5.54333">
        <ele>1030.14</ele>
        <time>2019-08-26T13:26:26Z</time>
      </trkpt>
      <trkpt lat="45.0719" lon="5.54346">
        <ele>1029.74</ele>
        <time>2019-08-26T13:26:27Z</time>
      </trkpt>
      <trkpt lat="45.07188" lon="5.54358">
        <ele>1029.38</ele>
        <time>2019-08-26T13:26:28Z</time>
      </trkpt>
      <trkpt lat="45.07183" lon="5.54369">
        <ele>1029.07</ele>
        <time>2019-08-26T13:26:29Z</time>
      </trkpt>
      <trkpt lat="45.07177" lon="5.54379">
        <ele>1028.8</ele>
        <time>2019-08-26T13:26:30Z</time>
      </trkpt>
      <trkpt lat="45.07171" lon="5.5439">
        <ele>1028.52</ele>
        <time>2019-08-26T13:26:31Z</time>
      </trkpt>
      <trkpt lat="45.07135" lon="5.54452">
        <ele>1026.34</ele>
        <time>2019-08-26T13:26:37Z</time>
      </trkpt>
      <trkpt lat="45.07127" lon="5.5446">
        <ele>1026.04</ele>
        <time>2019-08-26T13:26:38Z</time>
      </trkpt>
      <trkpt lat="45.0712" lon="5.54468">
        <ele>1025.71</ele>
        <time>2019-08-26T13:26:39Z</time>
      </trkpt>
      <trkpt lat="45.07111" lon="5.54475">
        <ele>1025.33</ele>
        <time>2019-08-26T13:26:40Z</time>
      </trkpt>
      <trkpt lat="45.07102" lon="5.5448">
        <ele>1024.89</ele>
        <time>2019-08-26T13:26:41Z</time>
      </trkpt>
      <trkpt lat="45.07092" lon="5.54485">
        <ele>1024.44</ele>
        <time>2019-08-26T13:26:42Z</time>
      </trkpt>
      <trkpt lat="45.07024" lon="5.54504">
        <ele>1021.14</ele>
        <time>2019-08-26T13:26:48Z</time>
      </trkpt>
      <trkpt lat="45.07011" lon="5.54505">
        <ele>1020.37</ele>
        <time>2019-08-26T13:26:49Z</time>
      </trkpt>
      <trkpt lat="45.06999" lon="5.54503">
        <ele>1019.62</ele>
        <time>2019-08-26T13:26:50Z</time>
      </trkpt>
      <trkpt lat="45.06946" lon="5.54496">
        <ele>1016.44</ele>
        <time>2019-08-26T13:26:54Z</time>
      </trkpt>
      <trkpt lat="45.06904" lon="5.54494">
        <ele>1012.43</ele>
        <time>2019-08-26T13:26:57Z</time>
      </trkpt>
      <trkpt lat="45.0689" lon="5.54494">
        <ele>1012.43</ele>
        <time>2019-08-26T13:26:58Z</time>
      </trkpt>
      <trkpt lat="45.06876" lon="5.54496">
        <ele>1010.23</ele>
        <time>2019-08-26T13:26:59Z</time>
      </trkpt>
      <trkpt lat="45.06863" lon="5.545">
        <ele>1009.11</ele>
        <time>2019-08-26T13:27:00Z</time>
      </trkpt>
      <trkpt lat="45.06849" lon="5.54506">
        <ele>1007.99</ele>
        <time>2019-08-26T13:27:01Z</time>
      </trkpt>
      <trkpt lat="45.06813" lon="5.54524">
        <ele>1004.67</ele>
        <time>2019-08-26T13:27:04Z</time>
      </trkpt>
      <trkpt lat="45.0677" lon="5.5455">
        <ele>1000.88</ele>
        <time>2019-08-26T13:27:08Z</time>
      </trkpt>
      <trkpt lat="45.06734" lon="5.54567">
        <ele>997.75</ele>
        <time>2019-08-26T13:27:12Z</time>
      </trkpt>
      <trkpt lat="45.06726" lon="5.5457">
        <ele>997.11</ele>
        <time>2019-08-26T13:27:13Z</time>
      </trkpt>
      <trkpt lat="45.06719" lon="5.54576">
        <ele>996.48</ele>
        <time>2019-08-26T13:27:14Z</time>
      </trkpt>
      <trkpt lat="45.06714" lon="5.54583">
        <ele>995.89</ele>
        <time>2019-08-26T13:27:15Z</time>
      </trkpt>
      <trkpt lat="45.06712" lon="5.54589">
        <ele>995.37</ele>
        <time>2019-08-26T13:27:16Z</time>
      </trkpt>
      <trkpt lat="45.06712" lon="5.54593">
        <ele>994.93</ele>
        <time>2019-08-26T13:27:17Z</time>
      </trkpt>
      <trkpt lat="45.06716" lon="5.54617">
        <ele>992.88</ele>
        <time>2019-08-26T13:27:25Z</time>
      </trkpt>
      <trkpt lat="45.06737" lon="5.54666">
        <ele>993.09</ele>
        <time>2019-08-26T13:27:38Z</time>
      </trkpt>
      <trkpt lat="45.06751" lon="5.54712">
        <ele>994.9</ele>
        <time>2019-08-26T13:27:52Z</time>
      </trkpt>
      <trkpt lat="45.06753" lon="5.54753">
        <ele>996.22</ele>
        <time>2019-08-26T13:28:06Z</time>
      </trkpt>
      <trkpt lat="45.06751" lon="5.54759">
        <ele>996.67</ele>
        <time>2019-08-26T13:28:20Z</time>
      </trkpt>
      <trkpt lat="45.0675" lon="5.54757">
        <ele>996.7</ele>
        <time>2019-08-26T13:28:46Z</time>
      </trkpt>
      <trkpt lat="45.06751" lon="5.54759">
        <ele>996.25</ele>
        <time>2019-08-26T13:29:17Z</time>
      </trkpt>
      <trkpt lat="45.06744" lon="5.54763">
        <ele>996.73</ele>
        <time>2019-08-26T13:29:36Z</time>
      </trkpt>
      <trkpt lat="45.06742" lon="5.54764">
        <ele>996.73</ele>
        <time>2019-08-26T13:29:38Z</time>
      </trkpt>
      <trkpt lat="45.0674" lon="5.54765">
        <ele>996.76</ele>
        <time>2019-08-26T13:29:39Z</time>
      </trkpt>
      <trkpt lat="45.06738" lon="5.54765">
        <ele>996.76</ele>
        <time>2019-08-26T13:29:40Z</time>
      </trkpt>
      <trkpt lat="45.06707" lon="5.54774">
        <ele>998.86</ele>
        <time>2019-08-26T13:29:55Z</time>
      </trkpt>
      <trkpt lat="45.06683" lon="5.54785">
        <ele>1001.87</ele>
        <time>2019-08-26T13:30:08Z</time>
      </trkpt>
      <trkpt lat="45.0666" lon="5.54793">
        <ele>1004.93</ele>
        <time>2019-08-26T13:30:20Z</time>
      </trkpt>
      <trkpt lat="45.06633" lon="5.548">
        <ele>1007.11</ele>
        <time>2019-08-26T13:30:36Z</time>
      </trkpt>
      <trkpt lat="45.06632" lon="5.548">
        <ele>1007.2</ele>
        <time>2019-08-26T13:30:37Z</time>
      </trkpt>
      <trkpt lat="45.06631" lon="5.548">
        <ele>1007.94</ele>
        <time>2019-08-26T13:30:54Z</time>
      </trkpt>
      <trkpt lat="45.06625" lon="5.54804">
        <ele>1007.62</ele>
        <time>2019-08-26T13:31:14Z</time>
      </trkpt>
      <trkpt lat="45.06624" lon="5.54804">
        <ele>1007.62</ele>
        <time>2019-08-26T13:31:15Z</time>
      </trkpt>
      <trkpt lat="45.06591" lon="5.54815">
        <ele>1007.92</ele>
        <time>2019-08-26T13:31:33Z</time>
      </trkpt>
      <trkpt lat="45.06556" lon="5.54824">
        <ele>1008.35</ele>
        <time>2019-08-26T13:31:47Z</time>
      </trkpt>
      <trkpt lat="45.06516" lon="5.54837">
        <ele>1010.22</ele>
        <time>2019-08-26T13:32:05Z</time>
      </trkpt>
      <trkpt lat="45.06457" lon="5.54834">
        <ele>1009.16</ele>
        <time>2019-08-26T13:32:19Z</time>
      </trkpt>
      <trkpt lat="45.06368" lon="5.5482">
        <ele>1005.82</ele>
        <time>2019-08-26T13:32:31Z</time>
      </trkpt>
      <trkpt lat="45.06352" lon="5.54818">
        <ele>1005.06</ele>
        <time>2019-08-26T13:32:33Z</time>
      </trkpt>
      <trkpt lat="45.06263" lon="5.54805">
        <ele>1002.01</ele>
        <time>2019-08-26T13:32:45Z</time>
      </trkpt>
      <trkpt lat="45.0623" lon="5.54799">
        <ele>1001.85</ele>
        <time>2019-08-26T13:32:51Z</time>
      </trkpt>
      <trkpt lat="45.06226" lon="5.54799">
        <ele>1001.89</ele>
        <time>2019-08-26T13:32:52Z</time>
      </trkpt>
      <trkpt lat="45.06221" lon="5.54797">
        <ele>1001.92</ele>
        <time>2019-08-26T13:32:53Z</time>
      </trkpt>
      <trkpt lat="45.06217" lon="5.54795">
        <ele>1001.96</ele>
        <time>2019-08-26T13:32:54Z</time>
      </trkpt>
      <trkpt lat="45.06213" lon="5.54793">
        <ele>1001.99</ele>
        <time>2019-08-26T13:32:55Z</time>
      </trkpt>
      <trkpt lat="45.0621" lon="5.5479">
        <ele>1002.02</ele>
        <time>2019-08-26T13:32:56Z</time>
      </trkpt>
      <trkpt lat="45.06207" lon="5.54787">
        <ele>1002.04</ele>
        <time>2019-08-26T13:32:57Z</time>
      </trkpt>
      <trkpt lat="45.06185" lon="5.54767">
        <ele>1002.09</ele>
        <time>2019-08-26T13:33:06Z</time>
      </trkpt>
      <trkpt lat="45.06183" lon="5.54767">
        <ele>1002.06</ele>
        <time>2019-08-26T13:33:07Z</time>
      </trkpt>
      <trkpt lat="45.06181" lon="5.54768">
        <ele>1002</ele>
        <time>2019-08-26T13:33:08Z</time>
      </trkpt>
      <trkpt lat="45.06179" lon="5.5477">
        <ele>1001.98</ele>
        <time>2019-08-26T13:33:09Z</time>
      </trkpt>
      <trkpt lat="45.06177" lon="5.54773">
        <ele>1001.99</ele>
        <time>2019-08-26T13:33:10Z</time>
      </trkpt>
      <trkpt lat="45.06176" lon="5.54776">
        <ele>1002.06</ele>
        <time>2019-08-26T13:33:11Z</time>
      </trkpt>
      <trkpt lat="45.06149" lon="5.54821">
        <ele>1004.39</ele>
        <time>2019-08-26T13:33:27Z</time>
      </trkpt>
      <trkpt lat="45.06144" lon="5.54825">
        <ele>1004.59</ele>
        <time>2019-08-26T13:33:29Z</time>
      </trkpt>
      <trkpt lat="45.06141" lon="5.54824">
        <ele>1004.65</ele>
        <time>2019-08-26T13:33:30Z</time>
      </trkpt>
      <trkpt lat="45.06139" lon="5.5482">
        <ele>1004.62</ele>
        <time>2019-08-26T13:33:31Z</time>
      </trkpt>
      <trkpt lat="45.0614" lon="5.54815">
        <ele>1004.5</ele>
        <time>2019-08-26T13:33:32Z</time>
      </trkpt>
      <trkpt lat="45.06143" lon="5.5481">
        <ele>1004.1</ele>
        <time>2019-08-26T13:33:33Z</time>
      </trkpt>
      <trkpt lat="45.06146" lon="5.54804">
        <ele>1004.1</ele>
        <time>2019-08-26T13:33:34Z</time>
      </trkpt>
      <trkpt lat="45.0616" lon="5.5478">
        <ele>1002.48</ele>
        <time>2019-08-26T13:33:38Z</time>
      </trkpt>
      <trkpt lat="45.06162" lon="5.54773">
        <ele>1002.12</ele>
        <time>2019-08-26T13:33:39Z</time>
      </trkpt>
      <trkpt lat="45.06163" lon="5.54765">
        <ele>1001.78</ele>
        <time>2019-08-26T13:33:40Z</time>
      </trkpt>
      <trkpt lat="45.06161" lon="5.54757">
        <ele>1001.43</ele>
        <time>2019-08-26T13:33:41Z</time>
      </trkpt>
      <trkpt lat="45.06155" lon="5.54753">
        <ele>1001.05</ele>
        <time>2019-08-26T13:33:42Z</time>
      </trkpt>
      <trkpt lat="45.0615" lon="5.54752">
        <ele>1000.68</ele>
        <time>2019-08-26T13:33:43Z</time>
      </trkpt>
      <trkpt lat="45.06144" lon="5.54752">
        <ele>1000.38</ele>
        <time>2019-08-26T13:33:44Z</time>
      </trkpt>
      <trkpt lat="45.06139" lon="5.54753">
        <ele>1000.13</ele>
        <time>2019-08-26T13:33:45Z</time>
      </trkpt>
      <trkpt lat="45.06063" lon="5.54747">
        <ele>1000.22</ele>
        <time>2019-08-26T13:34:02Z</time>
      </trkpt>
      <trkpt lat="45.06007" lon="5.54742">
        <ele>1001.28</ele>
        <time>2019-08-26T13:34:18Z</time>
      </trkpt>
      <trkpt lat="45.05951" lon="5.54757">
        <ele>1002.09</ele>
        <time>2019-08-26T13:34:34Z</time>
      </trkpt>
      <trkpt lat="45.05921" lon="5.54767">
        <ele>1003.41</ele>
        <time>2019-08-26T13:34:46Z</time>
      </trkpt>
      <trkpt lat="45.05883" lon="5.54785">
        <ele>1005.03</ele>
        <time>2019-08-26T13:35:00Z</time>
      </trkpt>
      <trkpt lat="45.05864" lon="5.54789">
        <ele>1005.96</ele>
        <time>2019-08-26T13:35:10Z</time>
      </trkpt>
      <trkpt lat="45.05855" lon="5.54753">
        <ele>1006.22</ele>
        <time>2019-08-26T13:35:24Z</time>
      </trkpt>
      <trkpt lat="45.05849" lon="5.54729">
        <ele>1006.15</ele>
        <time>2019-08-26T13:35:31Z</time>
      </trkpt>
      <trkpt lat="45.05847" lon="5.54727">
        <ele>1006.11</ele>
        <time>2019-08-26T13:35:32Z</time>
      </trkpt>
      <trkpt lat="45.05842" lon="5.54727">
        <ele>1005.97</ele>
        <time>2019-08-26T13:35:35Z</time>
      </trkpt>
      <trkpt lat="45.05832" lon="5.54726">
        <ele>1005.6</ele>
        <time>2019-08-26T13:35:50Z</time>
      </trkpt>
      <trkpt lat="45.05831" lon="5.54727">
        <ele>1005.34</ele>
        <time>2019-08-26T13:37:02Z</time>
      </trkpt>
      <trkpt lat="45.05831" lon="5.5473">
        <ele>1005.46</ele>
        <time>2019-08-26T13:37:27Z</time>
      </trkpt>
      <trkpt lat="45.05832" lon="5.54731">
        <ele>1005.37</ele>
        <time>2019-08-26T13:37:53Z</time>
      </trkpt>
      <trkpt lat="45.05835" lon="5.5473">
        <ele>1005.17</ele>
        <time>2019-08-26T13:38:17Z</time>
      </trkpt>
      <trkpt lat="45.05836" lon="5.54727">
        <ele>1005.41</ele>
        <time>2019-08-26T13:38:42Z</time>
      </trkpt>
      <trkpt lat="45.05831" lon="5.54729">
        <ele>1005.32</ele>
        <time>2019-08-26T13:39:00Z</time>
      </trkpt>
      <trkpt lat="45.05824" lon="5.54727">
        <ele>1005.15</ele>
        <time>2019-08-26T13:39:17Z</time>
      </trkpt>
      <trkpt lat="45.05833" lon="5.54732">
        <ele>1004.85</ele>
        <time>2019-08-26T13:39:33Z</time>
      </trkpt>
      <trkpt lat="45.05839" lon="5.54729">
        <ele>1004.9</ele>
        <time>2019-08-26T13:39:39Z</time>
      </trkpt>
      <trkpt lat="45.05841" lon="5.54728">
        <ele>1004.87</ele>
        <time>2019-08-26T13:39:41Z</time>
      </trkpt>
      <trkpt lat="45.05845" lon="5.54723">
        <ele>1004.75</ele>
        <time>2019-08-26T13:39:56Z</time>
      </trkpt>
      <trkpt lat="45.05845" lon="5.54708">
        <ele>1005.02</ele>
        <time>2019-08-26T13:40:11Z</time>
      </trkpt>
      <trkpt lat="45.05847" lon="5.54705">
        <ele>1005.02</ele>
        <time>2019-08-26T13:40:29Z</time>
      </trkpt>
      <trkpt lat="45.05839" lon="5.54702">
        <ele>1005.13</ele>
        <time>2019-08-26T13:41:03Z</time>
      </trkpt>
      <trkpt lat="45.05848" lon="5.54702">
        <ele>1004.75</ele>
        <time>2019-08-26T13:41:24Z</time>
      </trkpt>
      <trkpt lat="45.05848" lon="5.54707">
        <ele>1004.45</ele>
        <time>2019-08-26T13:41:35Z</time>
      </trkpt>
      <trkpt lat="45.05842" lon="5.54725">
        <ele>1003.84</ele>
        <time>2019-08-26T13:41:48Z</time>
      </trkpt>
      <trkpt lat="45.05843" lon="5.54725">
        <ele>1003.81</ele>
        <time>2019-08-26T13:41:50Z</time>
      </trkpt>
      <trkpt lat="45.05845" lon="5.54718">
        <ele>1003.9</ele>
        <time>2019-08-26T13:41:54Z</time>
      </trkpt>
      <trkpt lat="45.05847" lon="5.54705">
        <ele>1004.3</ele>
        <time>2019-08-26T13:42:03Z</time>
      </trkpt>
      <trkpt lat="45.05849" lon="5.54703">
        <ele>1004.01</ele>
        <time>2019-08-26T13:42:36Z</time>
      </trkpt>
      <trkpt lat="45.05846" lon="5.54702">
        <ele>1005.33</ele>
        <time>2019-08-26T13:43:00Z</time>
      </trkpt>
      <trkpt lat="45.05845" lon="5.54704">
        <ele>1005.41</ele>
        <time>2019-08-26T13:43:02Z</time>
      </trkpt>
      <trkpt lat="45.05842" lon="5.54705">
        <ele>1008.5</ele>
        <time>2019-08-26T13:43:20Z</time>
      </trkpt>
      <trkpt lat="45.05842" lon="5.54704">
        <ele>1008.75</ele>
        <time>2019-08-26T13:43:23Z</time>
      </trkpt>
      <trkpt lat="45.05827" lon="5.5469">
        <ele>1008.89</ele>
        <time>2019-08-26T13:43:56Z</time>
      </trkpt>
      <trkpt lat="45.05824" lon="5.54675">
        <ele>1008.33</ele>
        <time>2019-08-26T13:44:41Z</time>
      </trkpt>
      <trkpt lat="45.05824" lon="5.54675">
        <ele>1086.2</ele>
        <time>2019-08-26T13:45:22Z</time>
      </trkpt>
    </trkseg>
  </trk>
</gpx>